<?xml version="1.0" encoding="UTF-8" standalone="no" ?>
<gpx xmlns="http://www.topografix.com/GPX/1/1" xmlns:xsi="http://www.w3.org/2001/XMLSchema-instance" xsi:schemaLocation="http://www.topografix.com/GPX/1/1 http://www.topografix.com/GPX/1/1/gpx.xsd" version="1.1" creator="VisuGPX - https://www.visugpx.com">
  <metadata>
    <name>Preparation templier sur limoges</name>
    <desc><![CDATA[Bonne sortie de 6h]]></desc>
  </metadata>
  <trk>
    <name><![CDATA[Preparation templier sur limoges_1]]></name>
    <trkseg>
      <trkpt lat="45.89732" lon="1.297">
        <ele>325.9501953125</ele>
        <time>2010-10-03T04:08:34Z</time>
      </trkpt>
      <trkpt lat="45.89735" lon="1.29702">
        <ele>325.93753051758</ele>
        <time>2010-10-03T04:08:36Z</time>
      </trkpt>
      <trkpt lat="45.89745" lon="1.29713">
        <ele>325.8369140625</ele>
        <time>2010-10-03T04:08:45Z</time>
      </trkpt>
      <trkpt lat="45.89749" lon="1.29717">
        <ele>325.78942871094</ele>
        <time>2010-10-03T04:08:48Z</time>
      </trkpt>
      <trkpt lat="45.89758" lon="1.29722">
        <ele>325.67202758789</ele>
        <time>2010-10-03T04:08:54Z</time>
      </trkpt>
      <trkpt lat="45.89766" lon="1.29728">
        <ele>325.53897094727</ele>
        <time>2010-10-03T04:09:00Z</time>
      </trkpt>
      <trkpt lat="45.8978" lon="1.29733">
        <ele>325.40737915039</ele>
        <time>2010-10-03T04:09:10Z</time>
      </trkpt>
      <trkpt lat="45.89791" lon="1.29735">
        <ele>325.34872436523</ele>
        <time>2010-10-03T04:09:18Z</time>
      </trkpt>
      <trkpt lat="45.89802" lon="1.29735">
        <ele>325.34930419922</ele>
        <time>2010-10-03T04:09:26Z</time>
      </trkpt>
      <trkpt lat="45.89814" lon="1.29734">
        <ele>325.38333129883</ele>
        <time>2010-10-03T04:09:35Z</time>
      </trkpt>
      <trkpt lat="45.89826" lon="1.29734">
        <ele>325.39508056641</ele>
        <time>2010-10-03T04:09:43Z</time>
      </trkpt>
      <trkpt lat="45.89839" lon="1.29735">
        <ele>325.47103881836</ele>
        <time>2010-10-03T04:09:52Z</time>
      </trkpt>
      <trkpt lat="45.89848" lon="1.29738">
        <ele>325.58190917969</ele>
        <time>2010-10-03T04:09:59Z</time>
      </trkpt>
      <trkpt lat="45.89861" lon="1.29744">
        <ele>325.76007080078</ele>
        <time>2010-10-03T04:10:08Z</time>
      </trkpt>
      <trkpt lat="45.89876" lon="1.29752">
        <ele>325.93188476562</ele>
        <time>2010-10-03T04:10:16Z</time>
      </trkpt>
      <trkpt lat="45.89891" lon="1.2976">
        <ele>326.00741577148</ele>
        <time>2010-10-03T04:10:23Z</time>
      </trkpt>
      <trkpt lat="45.89905" lon="1.29766">
        <ele>326.10205078125</ele>
        <time>2010-10-03T04:10:29Z</time>
      </trkpt>
      <trkpt lat="45.89915" lon="1.29771">
        <ele>326.21176147461</ele>
        <time>2010-10-03T04:10:34Z</time>
      </trkpt>
      <trkpt lat="45.89926" lon="1.29776">
        <ele>326.23959350586</ele>
        <time>2010-10-03T04:10:39Z</time>
      </trkpt>
      <trkpt lat="45.89937" lon="1.29781">
        <ele>326.31579589844</ele>
        <time>2010-10-03T04:10:44Z</time>
      </trkpt>
      <trkpt lat="45.89946" lon="1.29785">
        <ele>326.38610839844</ele>
        <time>2010-10-03T04:10:48Z</time>
      </trkpt>
      <trkpt lat="45.89956" lon="1.2979">
        <ele>326.49234008789</ele>
        <time>2010-10-03T04:10:53Z</time>
      </trkpt>
      <trkpt lat="45.89969" lon="1.29796">
        <ele>326.67111206055</ele>
        <time>2010-10-03T04:10:59Z</time>
      </trkpt>
      <trkpt lat="45.8998" lon="1.29802">
        <ele>326.83215332031</ele>
        <time>2010-10-03T04:11:04Z</time>
      </trkpt>
      <trkpt lat="45.8999" lon="1.29807">
        <ele>327.02487182617</ele>
        <time>2010-10-03T04:11:09Z</time>
      </trkpt>
      <trkpt lat="45.90002" lon="1.29814">
        <ele>327.28948974609</ele>
        <time>2010-10-03T04:11:15Z</time>
      </trkpt>
      <trkpt lat="45.90014" lon="1.29821">
        <ele>327.54803466797</ele>
        <time>2010-10-03T04:11:21Z</time>
      </trkpt>
      <trkpt lat="45.90016" lon="1.29822">
        <ele>327.60131835938</ele>
        <time>2010-10-03T04:11:22Z</time>
      </trkpt>
      <trkpt lat="45.90023" lon="1.29827">
        <ele>327.83337402344</ele>
        <time>2010-10-03T04:11:26Z</time>
      </trkpt>
      <trkpt lat="45.90037" lon="1.29836">
        <ele>328.42385864258</ele>
        <time>2010-10-03T04:11:33Z</time>
      </trkpt>
      <trkpt lat="45.90041" lon="1.29839">
        <ele>328.63873291016</ele>
        <time>2010-10-03T04:11:35Z</time>
      </trkpt>
      <trkpt lat="45.90049" lon="1.29845">
        <ele>329.12954711914</ele>
        <time>2010-10-03T04:11:39Z</time>
      </trkpt>
      <trkpt lat="45.90052" lon="1.29847">
        <ele>329.2790222168</ele>
        <time>2010-10-03T04:11:40Z</time>
      </trkpt>
      <trkpt lat="45.90065" lon="1.29857">
        <ele>330.14956665039</ele>
        <time>2010-10-03T04:11:47Z</time>
      </trkpt>
      <trkpt lat="45.90077" lon="1.29866">
        <ele>330.92102050781</ele>
        <time>2010-10-03T04:11:53Z</time>
      </trkpt>
      <trkpt lat="45.90086" lon="1.29874">
        <ele>331.56582641602</ele>
        <time>2010-10-03T04:11:58Z</time>
      </trkpt>
      <trkpt lat="45.90096" lon="1.29883">
        <ele>332.40716552734</ele>
        <time>2010-10-03T04:12:04Z</time>
      </trkpt>
      <trkpt lat="45.901" lon="1.29886">
        <ele>332.70166015625</ele>
        <time>2010-10-03T04:12:06Z</time>
      </trkpt>
      <trkpt lat="45.90106" lon="1.29876">
        <ele>332.501953125</ele>
        <time>2010-10-03T04:12:11Z</time>
      </trkpt>
      <trkpt lat="45.9011" lon="1.29867">
        <ele>332.20098876953</ele>
        <time>2010-10-03T04:12:14Z</time>
      </trkpt>
      <trkpt lat="45.90117" lon="1.29847">
        <ele>331.19686889648</ele>
        <time>2010-10-03T04:12:21Z</time>
      </trkpt>
      <trkpt lat="45.90124" lon="1.29831">
        <ele>330.43161010742</ele>
        <time>2010-10-03T04:12:27Z</time>
      </trkpt>
      <trkpt lat="45.90131" lon="1.29817">
        <ele>330.08181762695</ele>
        <time>2010-10-03T04:12:33Z</time>
      </trkpt>
      <trkpt lat="45.90138" lon="1.29802">
        <ele>329.7880859375</ele>
        <time>2010-10-03T04:12:39Z</time>
      </trkpt>
      <trkpt lat="45.90141" lon="1.29801">
        <ele>329.81097412109</ele>
        <time>2010-10-03T04:12:42Z</time>
      </trkpt>
      <trkpt lat="45.90146" lon="1.29802">
        <ele>329.90115356445</ele>
        <time>2010-10-03T04:12:47Z</time>
      </trkpt>
      <trkpt lat="45.90153" lon="1.29807">
        <ele>330.16079711914</ele>
        <time>2010-10-03T04:12:52Z</time>
      </trkpt>
      <trkpt lat="45.90162" lon="1.29814">
        <ele>330.48120117188</ele>
        <time>2010-10-03T04:12:57Z</time>
      </trkpt>
      <trkpt lat="45.90172" lon="1.29822">
        <ele>330.87319946289</ele>
        <time>2010-10-03T04:13:02Z</time>
      </trkpt>
      <trkpt lat="45.90184" lon="1.29829">
        <ele>331.32797241211</ele>
        <time>2010-10-03T04:13:08Z</time>
      </trkpt>
      <trkpt lat="45.90194" lon="1.29836">
        <ele>331.88293457031</ele>
        <time>2010-10-03T04:13:13Z</time>
      </trkpt>
      <trkpt lat="45.90205" lon="1.29844">
        <ele>332.70660400391</ele>
        <time>2010-10-03T04:13:19Z</time>
      </trkpt>
      <trkpt lat="45.9021" lon="1.29847">
        <ele>333.01358032227</ele>
        <time>2010-10-03T04:13:22Z</time>
      </trkpt>
      <trkpt lat="45.90221" lon="1.29856">
        <ele>333.76907348633</ele>
        <time>2010-10-03T04:13:29Z</time>
      </trkpt>
      <trkpt lat="45.90223" lon="1.29858">
        <ele>333.90335083008</ele>
        <time>2010-10-03T04:13:30Z</time>
      </trkpt>
      <trkpt lat="45.90233" lon="1.29863">
        <ele>334.29364013672</ele>
        <time>2010-10-03T04:13:35Z</time>
      </trkpt>
      <trkpt lat="45.90235" lon="1.29864">
        <ele>334.39138793945</ele>
        <time>2010-10-03T04:13:36Z</time>
      </trkpt>
      <trkpt lat="45.90244" lon="1.29868">
        <ele>334.64041137695</ele>
        <time>2010-10-03T04:13:42Z</time>
      </trkpt>
      <trkpt lat="45.90253" lon="1.29874">
        <ele>334.97817993164</ele>
        <time>2010-10-03T04:13:48Z</time>
      </trkpt>
      <trkpt lat="45.90259" lon="1.29877">
        <ele>335.2421875</ele>
        <time>2010-10-03T04:13:53Z</time>
      </trkpt>
      <trkpt lat="45.90265" lon="1.29879">
        <ele>335.44842529297</ele>
        <time>2010-10-03T04:13:57Z</time>
      </trkpt>
      <trkpt lat="45.90271" lon="1.29884">
        <ele>335.74356079102</ele>
        <time>2010-10-03T04:14:03Z</time>
      </trkpt>
      <trkpt lat="45.90279" lon="1.29888">
        <ele>335.97927856445</ele>
        <time>2010-10-03T04:14:08Z</time>
      </trkpt>
      <trkpt lat="45.90284" lon="1.2989">
        <ele>336.12954711914</ele>
        <time>2010-10-03T04:14:11Z</time>
      </trkpt>
      <trkpt lat="45.9029" lon="1.29895">
        <ele>336.33871459961</ele>
        <time>2010-10-03T04:14:15Z</time>
      </trkpt>
      <trkpt lat="45.903" lon="1.29902">
        <ele>336.62777709961</ele>
        <time>2010-10-03T04:14:22Z</time>
      </trkpt>
      <trkpt lat="45.90308" lon="1.29909">
        <ele>336.83221435547</ele>
        <time>2010-10-03T04:14:28Z</time>
      </trkpt>
      <trkpt lat="45.90312" lon="1.29911">
        <ele>336.88592529297</ele>
        <time>2010-10-03T04:14:31Z</time>
      </trkpt>
      <trkpt lat="45.90324" lon="1.29917">
        <ele>337.00006103516</ele>
        <time>2010-10-03T04:14:39Z</time>
      </trkpt>
      <trkpt lat="45.90327" lon="1.29919">
        <ele>337.00186157227</ele>
        <time>2010-10-03T04:14:41Z</time>
      </trkpt>
      <trkpt lat="45.90337" lon="1.29925">
        <ele>337.21478271484</ele>
        <time>2010-10-03T04:14:48Z</time>
      </trkpt>
      <trkpt lat="45.90341" lon="1.29927">
        <ele>337.45938110352</ele>
        <time>2010-10-03T04:14:51Z</time>
      </trkpt>
      <trkpt lat="45.90352" lon="1.29935">
        <ele>338.08486938477</ele>
        <time>2010-10-03T04:14:59Z</time>
      </trkpt>
      <trkpt lat="45.90361" lon="1.29941">
        <ele>338.54370117188</ele>
        <time>2010-10-03T04:15:06Z</time>
      </trkpt>
      <trkpt lat="45.90369" lon="1.29945">
        <ele>338.97338867188</ele>
        <time>2010-10-03T04:15:12Z</time>
      </trkpt>
      <trkpt lat="45.90372" lon="1.29948">
        <ele>339.12854003906</ele>
        <time>2010-10-03T04:15:15Z</time>
      </trkpt>
      <trkpt lat="45.90382" lon="1.29953">
        <ele>339.69000244141</ele>
        <time>2010-10-03T04:15:22Z</time>
      </trkpt>
      <trkpt lat="45.90392" lon="1.29956">
        <ele>340.1865234375</ele>
        <time>2010-10-03T04:15:28Z</time>
      </trkpt>
      <trkpt lat="45.904" lon="1.2996">
        <ele>340.60504150391</ele>
        <time>2010-10-03T04:15:34Z</time>
      </trkpt>
      <trkpt lat="45.9041" lon="1.29967">
        <ele>341.05621337891</ele>
        <time>2010-10-03T04:15:40Z</time>
      </trkpt>
      <trkpt lat="45.90413" lon="1.2997">
        <ele>341.18533325195</ele>
        <time>2010-10-03T04:15:42Z</time>
      </trkpt>
      <trkpt lat="45.90417" lon="1.29973">
        <ele>341.30462646484</ele>
        <time>2010-10-03T04:15:44Z</time>
      </trkpt>
      <trkpt lat="45.90427" lon="1.2998">
        <ele>340.96173095703</ele>
        <time>2010-10-03T04:15:49Z</time>
      </trkpt>
      <trkpt lat="45.90436" lon="1.29989">
        <ele>340.64544677734</ele>
        <time>2010-10-03T04:15:54Z</time>
      </trkpt>
      <trkpt lat="45.90446" lon="1.29996">
        <ele>340.31384277344</ele>
        <time>2010-10-03T04:15:59Z</time>
      </trkpt>
      <trkpt lat="45.90459" lon="1.30007">
        <ele>339.59963989258</ele>
        <time>2010-10-03T04:16:05Z</time>
      </trkpt>
      <trkpt lat="45.9047" lon="1.30017">
        <ele>338.84814453125</ele>
        <time>2010-10-03T04:16:11Z</time>
      </trkpt>
      <trkpt lat="45.90481" lon="1.30026">
        <ele>338.15753173828</ele>
        <time>2010-10-03T04:16:17Z</time>
      </trkpt>
      <trkpt lat="45.90491" lon="1.30033">
        <ele>337.58877563477</ele>
        <time>2010-10-03T04:16:22Z</time>
      </trkpt>
      <trkpt lat="45.90508" lon="1.30045">
        <ele>336.7470703125</ele>
        <time>2010-10-03T04:16:30Z</time>
      </trkpt>
      <trkpt lat="45.90517" lon="1.30052">
        <ele>336.3391418457</ele>
        <time>2010-10-03T04:16:35Z</time>
      </trkpt>
      <trkpt lat="45.90521" lon="1.30055">
        <ele>336.19888305664</ele>
        <time>2010-10-03T04:16:37Z</time>
      </trkpt>
      <trkpt lat="45.90533" lon="1.3006">
        <ele>335.88293457031</ele>
        <time>2010-10-03T04:16:43Z</time>
      </trkpt>
      <trkpt lat="45.90549" lon="1.3006">
        <ele>335.78402709961</ele>
        <time>2010-10-03T04:16:50Z</time>
      </trkpt>
      <trkpt lat="45.90557" lon="1.30058">
        <ele>335.80197143555</ele>
        <time>2010-10-03T04:16:54Z</time>
      </trkpt>
      <trkpt lat="45.90573" lon="1.30055">
        <ele>335.75778198242</ele>
        <time>2010-10-03T04:17:01Z</time>
      </trkpt>
      <trkpt lat="45.90587" lon="1.30053">
        <ele>335.85198974609</ele>
        <time>2010-10-03T04:17:07Z</time>
      </trkpt>
      <trkpt lat="45.90599" lon="1.3005">
        <ele>336.31887817383</ele>
        <time>2010-10-03T04:17:12Z</time>
      </trkpt>
      <trkpt lat="45.90604" lon="1.30049">
        <ele>336.5231628418</ele>
        <time>2010-10-03T04:17:15Z</time>
      </trkpt>
      <trkpt lat="45.90615" lon="1.30047">
        <ele>336.96862792969</ele>
        <time>2010-10-03T04:17:20Z</time>
      </trkpt>
      <trkpt lat="45.90618" lon="1.30047">
        <ele>337.05700683594</ele>
        <time>2010-10-03T04:17:21Z</time>
      </trkpt>
      <trkpt lat="45.9063" lon="1.30044">
        <ele>337.57797241211</ele>
        <time>2010-10-03T04:17:27Z</time>
      </trkpt>
      <trkpt lat="45.90643" lon="1.30042">
        <ele>338.10659790039</ele>
        <time>2010-10-03T04:17:32Z</time>
      </trkpt>
      <trkpt lat="45.90653" lon="1.30041">
        <ele>338.5576171875</ele>
        <time>2010-10-03T04:17:37Z</time>
      </trkpt>
      <trkpt lat="45.90666" lon="1.30038">
        <ele>339.17239379883</ele>
        <time>2010-10-03T04:17:43Z</time>
      </trkpt>
      <trkpt lat="45.90676" lon="1.30034">
        <ele>339.2751159668</ele>
        <time>2010-10-03T04:17:48Z</time>
      </trkpt>
      <trkpt lat="45.90687" lon="1.30031">
        <ele>339.33926391602</ele>
        <time>2010-10-03T04:17:53Z</time>
      </trkpt>
      <trkpt lat="45.90701" lon="1.30027">
        <ele>339.43508911133</ele>
        <time>2010-10-03T04:18:00Z</time>
      </trkpt>
      <trkpt lat="45.90717" lon="1.30023">
        <ele>339.47616577148</ele>
        <time>2010-10-03T04:18:07Z</time>
      </trkpt>
      <trkpt lat="45.90729" lon="1.3002">
        <ele>339.46493530273</ele>
        <time>2010-10-03T04:18:13Z</time>
      </trkpt>
      <trkpt lat="45.90741" lon="1.30017">
        <ele>339.47396850586</ele>
        <time>2010-10-03T04:18:19Z</time>
      </trkpt>
      <trkpt lat="45.90753" lon="1.30013">
        <ele>339.62377929688</ele>
        <time>2010-10-03T04:18:25Z</time>
      </trkpt>
      <trkpt lat="45.90767" lon="1.30007">
        <ele>340.34536743164</ele>
        <time>2010-10-03T04:18:31Z</time>
      </trkpt>
      <trkpt lat="45.90779" lon="1.30001">
        <ele>341.02603149414</ele>
        <time>2010-10-03T04:18:37Z</time>
      </trkpt>
      <trkpt lat="45.90792" lon="1.29996">
        <ele>341.56884765625</ele>
        <time>2010-10-03T04:18:43Z</time>
      </trkpt>
      <trkpt lat="45.90805" lon="1.29993">
        <ele>342.05267333984</ele>
        <time>2010-10-03T04:18:49Z</time>
      </trkpt>
      <trkpt lat="45.90807" lon="1.29993">
        <ele>342.12203979492</ele>
        <time>2010-10-03T04:18:50Z</time>
      </trkpt>
      <trkpt lat="45.90816" lon="1.30005">
        <ele>342.18225097656</ele>
        <time>2010-10-03T04:18:56Z</time>
      </trkpt>
      <trkpt lat="45.90825" lon="1.30019">
        <ele>341.80822753906</ele>
        <time>2010-10-03T04:19:02Z</time>
      </trkpt>
      <trkpt lat="45.90831" lon="1.3003">
        <ele>341.47518920898</ele>
        <time>2010-10-03T04:19:06Z</time>
      </trkpt>
      <trkpt lat="45.90837" lon="1.30042">
        <ele>340.86865234375</ele>
        <time>2010-10-03T04:19:10Z</time>
      </trkpt>
      <trkpt lat="45.90844" lon="1.3006">
        <ele>339.83782958984</ele>
        <time>2010-10-03T04:19:16Z</time>
      </trkpt>
      <trkpt lat="45.90852" lon="1.30074">
        <ele>338.98358154297</ele>
        <time>2010-10-03T04:19:21Z</time>
      </trkpt>
      <trkpt lat="45.90859" lon="1.30089">
        <ele>338.08728027344</ele>
        <time>2010-10-03T04:19:26Z</time>
      </trkpt>
      <trkpt lat="45.90862" lon="1.30091">
        <ele>337.90368652344</ele>
        <time>2010-10-03T04:19:27Z</time>
      </trkpt>
      <trkpt lat="45.90872" lon="1.30113">
        <ele>336.76162719727</ele>
        <time>2010-10-03T04:19:35Z</time>
      </trkpt>
      <trkpt lat="45.90873" lon="1.30119">
        <ele>336.49603271484</ele>
        <time>2010-10-03T04:19:37Z</time>
      </trkpt>
      <trkpt lat="45.90882" lon="1.30134">
        <ele>335.94766235352</ele>
        <time>2010-10-03T04:19:43Z</time>
      </trkpt>
      <trkpt lat="45.90889" lon="1.30148">
        <ele>335.60095214844</ele>
        <time>2010-10-03T04:19:48Z</time>
      </trkpt>
      <trkpt lat="45.90894" lon="1.30159">
        <ele>335.39318847656</ele>
        <time>2010-10-03T04:19:52Z</time>
      </trkpt>
      <trkpt lat="45.90895" lon="1.30162">
        <ele>335.36614990234</ele>
        <time>2010-10-03T04:19:53Z</time>
      </trkpt>
      <trkpt lat="45.90902" lon="1.30176">
        <ele>335.0400390625</ele>
        <time>2010-10-03T04:19:58Z</time>
      </trkpt>
      <trkpt lat="45.90907" lon="1.30186">
        <ele>334.7190246582</ele>
        <time>2010-10-03T04:20:02Z</time>
      </trkpt>
      <trkpt lat="45.90914" lon="1.30198">
        <ele>334.38485717773</ele>
        <time>2010-10-03T04:20:07Z</time>
      </trkpt>
      <trkpt lat="45.90918" lon="1.30209">
        <ele>333.94787597656</ele>
        <time>2010-10-03T04:20:11Z</time>
      </trkpt>
      <trkpt lat="45.90926" lon="1.30224">
        <ele>333.24304199219</ele>
        <time>2010-10-03T04:20:17Z</time>
      </trkpt>
      <trkpt lat="45.90935" lon="1.30236">
        <ele>332.80029296875</ele>
        <time>2010-10-03T04:20:23Z</time>
      </trkpt>
      <trkpt lat="45.90945" lon="1.30245">
        <ele>332.52691650391</ele>
        <time>2010-10-03T04:20:28Z</time>
      </trkpt>
      <trkpt lat="45.90958" lon="1.30251">
        <ele>332.51193237305</ele>
        <time>2010-10-03T04:20:34Z</time>
      </trkpt>
      <trkpt lat="45.90972" lon="1.30254">
        <ele>332.74905395508</ele>
        <time>2010-10-03T04:20:40Z</time>
      </trkpt>
      <trkpt lat="45.90991" lon="1.30258">
        <ele>333.0700378418</ele>
        <time>2010-10-03T04:20:48Z</time>
      </trkpt>
      <trkpt lat="45.91005" lon="1.30262">
        <ele>333.5859375</ele>
        <time>2010-10-03T04:20:54Z</time>
      </trkpt>
      <trkpt lat="45.9101" lon="1.30265">
        <ele>333.96606445312</ele>
        <time>2010-10-03T04:20:57Z</time>
      </trkpt>
      <trkpt lat="45.91024" lon="1.30274">
        <ele>334.90258789062</ele>
        <time>2010-10-03T04:21:04Z</time>
      </trkpt>
      <trkpt lat="45.91034" lon="1.3029">
        <ele>335.77188110352</ele>
        <time>2010-10-03T04:21:11Z</time>
      </trkpt>
      <trkpt lat="45.91039" lon="1.30302">
        <ele>336.29174804688</ele>
        <time>2010-10-03T04:21:17Z</time>
      </trkpt>
      <trkpt lat="45.91044" lon="1.30311">
        <ele>336.70791625977</ele>
        <time>2010-10-03T04:21:22Z</time>
      </trkpt>
      <trkpt lat="45.91051" lon="1.30324">
        <ele>337.31234741211</ele>
        <time>2010-10-03T04:21:29Z</time>
      </trkpt>
      <trkpt lat="45.91054" lon="1.30333">
        <ele>337.58712768555</ele>
        <time>2010-10-03T04:21:33Z</time>
      </trkpt>
      <trkpt lat="45.91055" lon="1.30344">
        <ele>337.27124023438</ele>
        <time>2010-10-03T04:21:39Z</time>
      </trkpt>
      <trkpt lat="45.91057" lon="1.30351">
        <ele>337.10400390625</ele>
        <time>2010-10-03T04:21:43Z</time>
      </trkpt>
      <trkpt lat="45.91061" lon="1.30369">
        <ele>336.64398193359</ele>
        <time>2010-10-03T04:21:51Z</time>
      </trkpt>
      <trkpt lat="45.91061" lon="1.30383">
        <ele>336.11138916016</ele>
        <time>2010-10-03T04:21:57Z</time>
      </trkpt>
      <trkpt lat="45.91059" lon="1.30409">
        <ele>335.11633300781</ele>
        <time>2010-10-03T04:22:05Z</time>
      </trkpt>
      <trkpt lat="45.91056" lon="1.30429">
        <ele>333.85827636719</ele>
        <time>2010-10-03T04:22:11Z</time>
      </trkpt>
      <trkpt lat="45.91055" lon="1.30446">
        <ele>332.61810302734</ele>
        <time>2010-10-03T04:22:16Z</time>
      </trkpt>
      <trkpt lat="45.91053" lon="1.30468">
        <ele>331.07104492188</ele>
        <time>2010-10-03T04:22:22Z</time>
      </trkpt>
      <trkpt lat="45.91056" lon="1.30486">
        <ele>329.98672485352</ele>
        <time>2010-10-03T04:22:27Z</time>
      </trkpt>
      <trkpt lat="45.91061" lon="1.30507">
        <ele>328.24774169922</ele>
        <time>2010-10-03T04:22:33Z</time>
      </trkpt>
      <trkpt lat="45.91065" lon="1.30525">
        <ele>326.10958862305</ele>
        <time>2010-10-03T04:22:38Z</time>
      </trkpt>
      <trkpt lat="45.91067" lon="1.30531">
        <ele>325.36059570312</ele>
        <time>2010-10-03T04:22:40Z</time>
      </trkpt>
      <trkpt lat="45.91073" lon="1.30546">
        <ele>323.77825927734</ele>
        <time>2010-10-03T04:22:45Z</time>
      </trkpt>
      <trkpt lat="45.91078" lon="1.30569">
        <ele>321.30209350586</ele>
        <time>2010-10-03T04:22:52Z</time>
      </trkpt>
      <trkpt lat="45.91083" lon="1.30591">
        <ele>319.33709716797</ele>
        <time>2010-10-03T04:22:59Z</time>
      </trkpt>
      <trkpt lat="45.9109" lon="1.30613">
        <ele>317.69735717773</ele>
        <time>2010-10-03T04:23:06Z</time>
      </trkpt>
      <trkpt lat="45.91092" lon="1.3062">
        <ele>317.19653320312</ele>
        <time>2010-10-03T04:23:08Z</time>
      </trkpt>
      <trkpt lat="45.91095" lon="1.30633">
        <ele>316.2380065918</ele>
        <time>2010-10-03T04:23:12Z</time>
      </trkpt>
      <trkpt lat="45.91101" lon="1.30653">
        <ele>314.77764892578</ele>
        <time>2010-10-03T04:23:18Z</time>
      </trkpt>
      <trkpt lat="45.91105" lon="1.30669">
        <ele>313.78387451172</ele>
        <time>2010-10-03T04:23:23Z</time>
      </trkpt>
      <trkpt lat="45.91109" lon="1.30689">
        <ele>314.02606201172</ele>
        <time>2010-10-03T04:23:29Z</time>
      </trkpt>
      <trkpt lat="45.91114" lon="1.30705">
        <ele>314.25811767578</ele>
        <time>2010-10-03T04:23:34Z</time>
      </trkpt>
      <trkpt lat="45.91118" lon="1.30721">
        <ele>314.51245117188</ele>
        <time>2010-10-03T04:23:39Z</time>
      </trkpt>
      <trkpt lat="45.91119" lon="1.30724">
        <ele>314.56118774414</ele>
        <time>2010-10-03T04:23:40Z</time>
      </trkpt>
      <trkpt lat="45.91121" lon="1.3074">
        <ele>314.76525878906</ele>
        <time>2010-10-03T04:23:45Z</time>
      </trkpt>
      <trkpt lat="45.91125" lon="1.3076">
        <ele>315.86730957031</ele>
        <time>2010-10-03T04:23:51Z</time>
      </trkpt>
      <trkpt lat="45.91129" lon="1.3077">
        <ele>316.96533203125</ele>
        <time>2010-10-03T04:23:55Z</time>
      </trkpt>
      <trkpt lat="45.91143" lon="1.30777">
        <ele>318.3196105957</ele>
        <time>2010-10-03T04:24:03Z</time>
      </trkpt>
      <trkpt lat="45.91148" lon="1.30782">
        <ele>319.0637512207</ele>
        <time>2010-10-03T04:24:08Z</time>
      </trkpt>
      <trkpt lat="45.91153" lon="1.30796">
        <ele>320.64660644531</ele>
        <time>2010-10-03T04:24:17Z</time>
      </trkpt>
      <trkpt lat="45.91154" lon="1.30797">
        <ele>320.84387207031</ele>
        <time>2010-10-03T04:24:18Z</time>
      </trkpt>
      <trkpt lat="45.91157" lon="1.30805">
        <ele>321.70532226562</ele>
        <time>2010-10-03T04:24:23Z</time>
      </trkpt>
      <trkpt lat="45.9116" lon="1.30814">
        <ele>322.75494384766</ele>
        <time>2010-10-03T04:24:29Z</time>
      </trkpt>
      <trkpt lat="45.91161" lon="1.30818">
        <ele>323.21459960938</ele>
        <time>2010-10-03T04:24:31Z</time>
      </trkpt>
      <trkpt lat="45.91168" lon="1.30835">
        <ele>325.07427978516</ele>
        <time>2010-10-03T04:24:39Z</time>
      </trkpt>
      <trkpt lat="45.91177" lon="1.3085">
        <ele>326.03131103516</ele>
        <time>2010-10-03T04:24:47Z</time>
      </trkpt>
      <trkpt lat="45.9119" lon="1.30859">
        <ele>326.30462646484</ele>
        <time>2010-10-03T04:24:52Z</time>
      </trkpt>
      <trkpt lat="45.912" lon="1.30867">
        <ele>326.55444335938</ele>
        <time>2010-10-03T04:24:57Z</time>
      </trkpt>
      <trkpt lat="45.91213" lon="1.30879">
        <ele>326.82235717773</ele>
        <time>2010-10-03T04:25:03Z</time>
      </trkpt>
      <trkpt lat="45.91221" lon="1.30895">
        <ele>327.3161315918</ele>
        <time>2010-10-03T04:25:09Z</time>
      </trkpt>
      <trkpt lat="45.91227" lon="1.30908">
        <ele>327.7214050293</ele>
        <time>2010-10-03T04:25:15Z</time>
      </trkpt>
      <trkpt lat="45.91228" lon="1.30912">
        <ele>327.83401489258</ele>
        <time>2010-10-03T04:25:17Z</time>
      </trkpt>
      <trkpt lat="45.91235" lon="1.30919">
        <ele>327.8254699707</ele>
        <time>2010-10-03T04:25:21Z</time>
      </trkpt>
      <trkpt lat="45.91243" lon="1.30922">
        <ele>327.61660766602</ele>
        <time>2010-10-03T04:25:25Z</time>
      </trkpt>
      <trkpt lat="45.91262" lon="1.30922">
        <ele>327.47381591797</ele>
        <time>2010-10-03T04:25:32Z</time>
      </trkpt>
      <trkpt lat="45.91264" lon="1.30921">
        <ele>327.45834350586</ele>
        <time>2010-10-03T04:25:33Z</time>
      </trkpt>
      <trkpt lat="45.91273" lon="1.30923">
        <ele>327.67474365234</ele>
        <time>2010-10-03T04:25:37Z</time>
      </trkpt>
      <trkpt lat="45.91287" lon="1.30925">
        <ele>328.05081176758</ele>
        <time>2010-10-03T04:25:44Z</time>
      </trkpt>
      <trkpt lat="45.91304" lon="1.30928">
        <ele>328.47647094727</ele>
        <time>2010-10-03T04:25:52Z</time>
      </trkpt>
      <trkpt lat="45.91312" lon="1.30931">
        <ele>328.88696289062</ele>
        <time>2010-10-03T04:25:58Z</time>
      </trkpt>
      <trkpt lat="45.91314" lon="1.30931">
        <ele>328.89978027344</ele>
        <time>2010-10-03T04:26:00Z</time>
      </trkpt>
      <trkpt lat="45.91323" lon="1.30933">
        <ele>329.18533325195</ele>
        <time>2010-10-03T04:26:06Z</time>
      </trkpt>
      <trkpt lat="45.91333" lon="1.30937">
        <ele>329.71069335938</ele>
        <time>2010-10-03T04:26:13Z</time>
      </trkpt>
      <trkpt lat="45.91336" lon="1.30938">
        <ele>329.83526611328</ele>
        <time>2010-10-03T04:26:15Z</time>
      </trkpt>
      <trkpt lat="45.91342" lon="1.30939">
        <ele>330.11499023438</ele>
        <time>2010-10-03T04:26:19Z</time>
      </trkpt>
      <trkpt lat="45.91352" lon="1.30938">
        <ele>330.30999755859</ele>
        <time>2010-10-03T04:26:26Z</time>
      </trkpt>
      <trkpt lat="45.91359" lon="1.3094">
        <ele>330.5885925293</ele>
        <time>2010-10-03T04:26:31Z</time>
      </trkpt>
      <trkpt lat="45.91375" lon="1.30944">
        <ele>331.13204956055</ele>
        <time>2010-10-03T04:26:38Z</time>
      </trkpt>
      <trkpt lat="45.9138" lon="1.30946">
        <ele>331.32080078125</ele>
        <time>2010-10-03T04:26:40Z</time>
      </trkpt>
      <trkpt lat="45.91393" lon="1.30945">
        <ele>331.52102661133</ele>
        <time>2010-10-03T04:26:45Z</time>
      </trkpt>
      <trkpt lat="45.91405" lon="1.30938">
        <ele>331.69027709961</ele>
        <time>2010-10-03T04:26:51Z</time>
      </trkpt>
      <trkpt lat="45.91416" lon="1.30931">
        <ele>331.9833984375</ele>
        <time>2010-10-03T04:26:57Z</time>
      </trkpt>
      <trkpt lat="45.91418" lon="1.3092">
        <ele>332.16882324219</ele>
        <time>2010-10-03T04:27:03Z</time>
      </trkpt>
      <trkpt lat="45.91414" lon="1.30903">
        <ele>331.55535888672</ele>
        <time>2010-10-03T04:27:10Z</time>
      </trkpt>
      <trkpt lat="45.91407" lon="1.30896">
        <ele>331.0754699707</ele>
        <time>2010-10-03T04:27:14Z</time>
      </trkpt>
      <trkpt lat="45.91405" lon="1.3089">
        <ele>330.85452270508</ele>
        <time>2010-10-03T04:27:16Z</time>
      </trkpt>
      <trkpt lat="45.91402" lon="1.30874">
        <ele>330.39031982422</ele>
        <time>2010-10-03T04:27:22Z</time>
      </trkpt>
      <trkpt lat="45.91401" lon="1.30864">
        <ele>330.07650756836</ele>
        <time>2010-10-03T04:27:26Z</time>
      </trkpt>
      <trkpt lat="45.91404" lon="1.3085">
        <ele>329.90588378906</ele>
        <time>2010-10-03T04:27:32Z</time>
      </trkpt>
      <trkpt lat="45.91408" lon="1.30838">
        <ele>329.79397583008</ele>
        <time>2010-10-03T04:27:39Z</time>
      </trkpt>
      <trkpt lat="45.91409" lon="1.30836">
        <ele>329.77203369141</ele>
        <time>2010-10-03T04:27:40Z</time>
      </trkpt>
      <trkpt lat="45.91412" lon="1.30827">
        <ele>329.62237548828</ele>
        <time>2010-10-03T04:27:44Z</time>
      </trkpt>
      <trkpt lat="45.91412" lon="1.30817">
        <ele>329.28073120117</ele>
        <time>2010-10-03T04:27:48Z</time>
      </trkpt>
      <trkpt lat="45.91415" lon="1.3081">
        <ele>329.15036010742</ele>
        <time>2010-10-03T04:27:53Z</time>
      </trkpt>
      <trkpt lat="45.91422" lon="1.30808">
        <ele>329.67422485352</ele>
        <time>2010-10-03T04:27:58Z</time>
      </trkpt>
      <trkpt lat="45.91433" lon="1.30805">
        <ele>330.54107666016</ele>
        <time>2010-10-03T04:28:06Z</time>
      </trkpt>
      <trkpt lat="45.9144" lon="1.30803">
        <ele>331.14770507812</ele>
        <time>2010-10-03T04:28:12Z</time>
      </trkpt>
      <trkpt lat="45.91448" lon="1.30795">
        <ele>331.34896850586</ele>
        <time>2010-10-03T04:28:18Z</time>
      </trkpt>
      <trkpt lat="45.91453" lon="1.30795">
        <ele>331.82202148438</ele>
        <time>2010-10-03T04:28:22Z</time>
      </trkpt>
      <trkpt lat="45.91464" lon="1.30795">
        <ele>332.76922607422</ele>
        <time>2010-10-03T04:28:28Z</time>
      </trkpt>
      <trkpt lat="45.91467" lon="1.30794">
        <ele>333.00805664062</ele>
        <time>2010-10-03T04:28:30Z</time>
      </trkpt>
      <trkpt lat="45.91476" lon="1.30799">
        <ele>334.2766418457</ele>
        <time>2010-10-03T04:28:35Z</time>
      </trkpt>
      <trkpt lat="45.91478" lon="1.308">
        <ele>334.52059936523</ele>
        <time>2010-10-03T04:28:36Z</time>
      </trkpt>
      <trkpt lat="45.9149" lon="1.308">
        <ele>335.68283081055</ele>
        <time>2010-10-03T04:28:42Z</time>
      </trkpt>
      <trkpt lat="45.91492" lon="1.30798">
        <ele>335.68826293945</ele>
        <time>2010-10-03T04:28:44Z</time>
      </trkpt>
      <trkpt lat="45.915" lon="1.30792">
        <ele>335.58483886719</ele>
        <time>2010-10-03T04:28:49Z</time>
      </trkpt>
      <trkpt lat="45.91507" lon="1.30794">
        <ele>336.1396484375</ele>
        <time>2010-10-03T04:28:53Z</time>
      </trkpt>
      <trkpt lat="45.91512" lon="1.30789">
        <ele>335.87231445312</ele>
        <time>2010-10-03T04:28:59Z</time>
      </trkpt>
      <trkpt lat="45.91518" lon="1.3078">
        <ele>334.93981933594</ele>
        <time>2010-10-03T04:29:04Z</time>
      </trkpt>
      <trkpt lat="45.91524" lon="1.30773">
        <ele>334.49942016602</ele>
        <time>2010-10-03T04:29:08Z</time>
      </trkpt>
      <trkpt lat="45.91533" lon="1.3077">
        <ele>334.76699829102</ele>
        <time>2010-10-03T04:29:13Z</time>
      </trkpt>
      <trkpt lat="45.91542" lon="1.30768">
        <ele>335.11227416992</ele>
        <time>2010-10-03T04:29:19Z</time>
      </trkpt>
      <trkpt lat="45.91547" lon="1.30767">
        <ele>335.29626464844</ele>
        <time>2010-10-03T04:29:21Z</time>
      </trkpt>
      <trkpt lat="45.91549" lon="1.30766">
        <ele>335.32138061523</ele>
        <time>2010-10-03T04:29:23Z</time>
      </trkpt>
      <trkpt lat="45.9155" lon="1.30764">
        <ele>335.14672851562</ele>
        <time>2010-10-03T04:29:26Z</time>
      </trkpt>
      <trkpt lat="45.91555" lon="1.30757">
        <ele>334.67984008789</ele>
        <time>2010-10-03T04:29:31Z</time>
      </trkpt>
      <trkpt lat="45.91561" lon="1.30745">
        <ele>334.26782226562</ele>
        <time>2010-10-03T04:29:38Z</time>
      </trkpt>
      <trkpt lat="45.91563" lon="1.30743">
        <ele>334.33895874023</ele>
        <time>2010-10-03T04:29:40Z</time>
      </trkpt>
      <trkpt lat="45.9157" lon="1.30735">
        <ele>334.54895019531</ele>
        <time>2010-10-03T04:29:47Z</time>
      </trkpt>
      <trkpt lat="45.91571" lon="1.30733">
        <ele>334.5358581543</ele>
        <time>2010-10-03T04:29:48Z</time>
      </trkpt>
      <trkpt lat="45.91576" lon="1.30723">
        <ele>334.40423583984</ele>
        <time>2010-10-03T04:29:53Z</time>
      </trkpt>
      <trkpt lat="45.91584" lon="1.30709">
        <ele>334.17855834961</ele>
        <time>2010-10-03T04:30:00Z</time>
      </trkpt>
      <trkpt lat="45.91593" lon="1.30701">
        <ele>334.57452392578</ele>
        <time>2010-10-03T04:30:07Z</time>
      </trkpt>
      <trkpt lat="45.916" lon="1.30693">
        <ele>334.67449951172</ele>
        <time>2010-10-03T04:30:13Z</time>
      </trkpt>
      <trkpt lat="45.91606" lon="1.30687">
        <ele>334.61422729492</ele>
        <time>2010-10-03T04:30:19Z</time>
      </trkpt>
      <trkpt lat="45.91614" lon="1.30682">
        <ele>334.75576782227</ele>
        <time>2010-10-03T04:30:25Z</time>
      </trkpt>
      <trkpt lat="45.91624" lon="1.30679">
        <ele>334.916015625</ele>
        <time>2010-10-03T04:30:31Z</time>
      </trkpt>
      <trkpt lat="45.91627" lon="1.30676">
        <ele>334.80078125</ele>
        <time>2010-10-03T04:30:33Z</time>
      </trkpt>
      <trkpt lat="45.91632" lon="1.30672">
        <ele>334.48199462891</ele>
        <time>2010-10-03T04:30:37Z</time>
      </trkpt>
      <trkpt lat="45.91642" lon="1.30666">
        <ele>334.11328125</ele>
        <time>2010-10-03T04:30:43Z</time>
      </trkpt>
      <trkpt lat="45.91643" lon="1.30665">
        <ele>334.23513793945</ele>
        <time>2010-10-03T04:30:44Z</time>
      </trkpt>
      <trkpt lat="45.91655" lon="1.30661">
        <ele>334.84497070312</ele>
        <time>2010-10-03T04:30:51Z</time>
      </trkpt>
      <trkpt lat="45.91665" lon="1.3066">
        <ele>335.18695068359</ele>
        <time>2010-10-03T04:30:57Z</time>
      </trkpt>
      <trkpt lat="45.91669" lon="1.3066">
        <ele>335.46350097656</ele>
        <time>2010-10-03T04:30:59Z</time>
      </trkpt>
      <trkpt lat="45.91679" lon="1.3066">
        <ele>336.58154296875</ele>
        <time>2010-10-03T04:31:05Z</time>
      </trkpt>
      <trkpt lat="45.91689" lon="1.30657">
        <ele>337.60794067383</ele>
        <time>2010-10-03T04:31:10Z</time>
      </trkpt>
      <trkpt lat="45.91702" lon="1.30657">
        <ele>338.99032592773</ele>
        <time>2010-10-03T04:31:16Z</time>
      </trkpt>
      <trkpt lat="45.91713" lon="1.30657">
        <ele>340.109375</ele>
        <time>2010-10-03T04:31:21Z</time>
      </trkpt>
      <trkpt lat="45.91724" lon="1.30654">
        <ele>341.12606811523</ele>
        <time>2010-10-03T04:31:29Z</time>
      </trkpt>
      <trkpt lat="45.91731" lon="1.30646">
        <ele>341.13610839844</ele>
        <time>2010-10-03T04:31:34Z</time>
      </trkpt>
      <trkpt lat="45.91742" lon="1.30641">
        <ele>341.58590698242</ele>
        <time>2010-10-03T04:31:39Z</time>
      </trkpt>
      <trkpt lat="45.9175" lon="1.30635">
        <ele>341.63595581055</ele>
        <time>2010-10-03T04:31:45Z</time>
      </trkpt>
      <trkpt lat="45.9176" lon="1.30629">
        <ele>341.06329345703</ele>
        <time>2010-10-03T04:31:51Z</time>
      </trkpt>
      <trkpt lat="45.91763" lon="1.30627">
        <ele>340.94604492188</ele>
        <time>2010-10-03T04:31:53Z</time>
      </trkpt>
      <trkpt lat="45.91765" lon="1.30626">
        <ele>340.85513305664</ele>
        <time>2010-10-03T04:31:55Z</time>
      </trkpt>
      <trkpt lat="45.91766" lon="1.30625">
        <ele>340.82830810547</ele>
        <time>2010-10-03T04:31:57Z</time>
      </trkpt>
      <trkpt lat="45.91771" lon="1.30631">
        <ele>341.44400024414</ele>
        <time>2010-10-03T04:32:04Z</time>
      </trkpt>
      <trkpt lat="45.91775" lon="1.30633">
        <ele>341.74771118164</ele>
        <time>2010-10-03T04:32:10Z</time>
      </trkpt>
      <trkpt lat="45.91778" lon="1.30638">
        <ele>342.28988647461</ele>
        <time>2010-10-03T04:32:16Z</time>
      </trkpt>
      <trkpt lat="45.91781" lon="1.3064">
        <ele>342.50631713867</ele>
        <time>2010-10-03T04:32:23Z</time>
      </trkpt>
      <trkpt lat="45.91784" lon="1.30643">
        <ele>342.78323364258</ele>
        <time>2010-10-03T04:32:27Z</time>
      </trkpt>
      <trkpt lat="45.91785" lon="1.30647">
        <ele>343.20080566406</ele>
        <time>2010-10-03T04:32:31Z</time>
      </trkpt>
      <trkpt lat="45.9179" lon="1.30653">
        <ele>343.74603271484</ele>
        <time>2010-10-03T04:32:38Z</time>
      </trkpt>
      <trkpt lat="45.91793" lon="1.30656">
        <ele>344.03219604492</ele>
        <time>2010-10-03T04:32:44Z</time>
      </trkpt>
      <trkpt lat="45.91796" lon="1.30662">
        <ele>344.63165283203</ele>
        <time>2010-10-03T04:32:50Z</time>
      </trkpt>
      <trkpt lat="45.91798" lon="1.30668">
        <ele>345.16741943359</ele>
        <time>2010-10-03T04:32:54Z</time>
      </trkpt>
      <trkpt lat="45.91803" lon="1.30674">
        <ele>346.01651000977</ele>
        <time>2010-10-03T04:32:58Z</time>
      </trkpt>
      <trkpt lat="45.91804" lon="1.30678">
        <ele>346.49026489258</ele>
        <time>2010-10-03T04:33:01Z</time>
      </trkpt>
      <trkpt lat="45.91808" lon="1.30685">
        <ele>347.49411010742</ele>
        <time>2010-10-03T04:33:07Z</time>
      </trkpt>
      <trkpt lat="45.91808" lon="1.30686">
        <ele>347.62710571289</ele>
        <time>2010-10-03T04:33:08Z</time>
      </trkpt>
      <trkpt lat="45.91812" lon="1.3069">
        <ele>347.96496582031</ele>
        <time>2010-10-03T04:33:14Z</time>
      </trkpt>
      <trkpt lat="45.91813" lon="1.30691">
        <ele>348.07302856445</ele>
        <time>2010-10-03T04:33:15Z</time>
      </trkpt>
      <trkpt lat="45.91816" lon="1.30694">
        <ele>348.46771240234</ele>
        <time>2010-10-03T04:33:21Z</time>
      </trkpt>
      <trkpt lat="45.91817" lon="1.30694">
        <ele>348.3352355957</ele>
        <time>2010-10-03T04:33:24Z</time>
      </trkpt>
      <trkpt lat="45.91822" lon="1.30694">
        <ele>348.22860717773</ele>
        <time>2010-10-03T04:33:31Z</time>
      </trkpt>
      <trkpt lat="45.91824" lon="1.30694">
        <ele>348.16720581055</ele>
        <time>2010-10-03T04:33:33Z</time>
      </trkpt>
      <trkpt lat="45.91828" lon="1.30693">
        <ele>347.98217773438</ele>
        <time>2010-10-03T04:33:36Z</time>
      </trkpt>
      <trkpt lat="45.91834" lon="1.30693">
        <ele>347.78967285156</ele>
        <time>2010-10-03T04:33:42Z</time>
      </trkpt>
      <trkpt lat="45.91835" lon="1.30687">
        <ele>347.16012573242</ele>
        <time>2010-10-03T04:33:49Z</time>
      </trkpt>
      <trkpt lat="45.91836" lon="1.30686">
        <ele>347.06546020508</ele>
        <time>2010-10-03T04:33:53Z</time>
      </trkpt>
      <trkpt lat="45.91836" lon="1.30685">
        <ele>346.92822265625</ele>
        <time>2010-10-03T04:34:01Z</time>
      </trkpt>
      <trkpt lat="45.91836" lon="1.30685">
        <ele>346.96862792969</ele>
        <time>2010-10-03T04:34:07Z</time>
      </trkpt>
      <trkpt lat="45.91837" lon="1.30688">
        <ele>347.24548339844</ele>
        <time>2010-10-03T04:34:15Z</time>
      </trkpt>
      <trkpt lat="45.91837" lon="1.30691">
        <ele>347.62976074219</ele>
        <time>2010-10-03T04:34:21Z</time>
      </trkpt>
      <trkpt lat="45.91837" lon="1.30703">
        <ele>348.80004882812</ele>
        <time>2010-10-03T04:34:26Z</time>
      </trkpt>
      <trkpt lat="45.9184" lon="1.30716">
        <ele>350.12899780273</ele>
        <time>2010-10-03T04:34:32Z</time>
      </trkpt>
      <trkpt lat="45.91842" lon="1.30727">
        <ele>351.20840454102</ele>
        <time>2010-10-03T04:34:37Z</time>
      </trkpt>
      <trkpt lat="45.91847" lon="1.30737">
        <ele>352.0563659668</ele>
        <time>2010-10-03T04:34:42Z</time>
      </trkpt>
      <trkpt lat="45.91848" lon="1.30739">
        <ele>352.19223022461</ele>
        <time>2010-10-03T04:34:43Z</time>
      </trkpt>
      <trkpt lat="45.91856" lon="1.3075">
        <ele>352.94729614258</ele>
        <time>2010-10-03T04:34:49Z</time>
      </trkpt>
      <trkpt lat="45.91867" lon="1.30765">
        <ele>353.72882080078</ele>
        <time>2010-10-03T04:34:58Z</time>
      </trkpt>
      <trkpt lat="45.91869" lon="1.30768">
        <ele>353.83367919922</ele>
        <time>2010-10-03T04:35:01Z</time>
      </trkpt>
      <trkpt lat="45.9187" lon="1.3077">
        <ele>353.91024780273</ele>
        <time>2010-10-03T04:35:03Z</time>
      </trkpt>
      <trkpt lat="45.91872" lon="1.3078">
        <ele>354.66806030273</ele>
        <time>2010-10-03T04:35:09Z</time>
      </trkpt>
      <trkpt lat="45.91875" lon="1.3079">
        <ele>355.35070800781</ele>
        <time>2010-10-03T04:35:14Z</time>
      </trkpt>
      <trkpt lat="45.91876" lon="1.308">
        <ele>356.12756347656</ele>
        <time>2010-10-03T04:35:19Z</time>
      </trkpt>
      <trkpt lat="45.91879" lon="1.3081">
        <ele>356.78463745117</ele>
        <time>2010-10-03T04:35:24Z</time>
      </trkpt>
      <trkpt lat="45.91882" lon="1.3083">
        <ele>358.18588256836</ele>
        <time>2010-10-03T04:35:33Z</time>
      </trkpt>
      <trkpt lat="45.91884" lon="1.30844">
        <ele>358.9010925293</ele>
        <time>2010-10-03T04:35:40Z</time>
      </trkpt>
      <trkpt lat="45.91884" lon="1.30854">
        <ele>359.34686279297</ele>
        <time>2010-10-03T04:35:45Z</time>
      </trkpt>
      <trkpt lat="45.91884" lon="1.30855">
        <ele>359.39630126953</ele>
        <time>2010-10-03T04:35:46Z</time>
      </trkpt>
      <trkpt lat="45.91893" lon="1.30855">
        <ele>358.89709472656</ele>
        <time>2010-10-03T04:35:52Z</time>
      </trkpt>
      <trkpt lat="45.91898" lon="1.30851">
        <ele>358.37664794922</ele>
        <time>2010-10-03T04:35:56Z</time>
      </trkpt>
      <trkpt lat="45.91911" lon="1.30844">
        <ele>357.09164428711</ele>
        <time>2010-10-03T04:36:04Z</time>
      </trkpt>
      <trkpt lat="45.91917" lon="1.3084">
        <ele>356.50897216797</ele>
        <time>2010-10-03T04:36:09Z</time>
      </trkpt>
      <trkpt lat="45.91927" lon="1.30833">
        <ele>356.87356567383</ele>
        <time>2010-10-03T04:36:16Z</time>
      </trkpt>
      <trkpt lat="45.91938" lon="1.30826">
        <ele>357.21780395508</ele>
        <time>2010-10-03T04:36:23Z</time>
      </trkpt>
      <trkpt lat="45.91947" lon="1.30821">
        <ele>357.55868530273</ele>
        <time>2010-10-03T04:36:29Z</time>
      </trkpt>
      <trkpt lat="45.91953" lon="1.30816">
        <ele>357.65200805664</ele>
        <time>2010-10-03T04:36:35Z</time>
      </trkpt>
      <trkpt lat="45.91962" lon="1.30811">
        <ele>357.92877197266</ele>
        <time>2010-10-03T04:36:41Z</time>
      </trkpt>
      <trkpt lat="45.91972" lon="1.30802">
        <ele>357.82720947266</ele>
        <time>2010-10-03T04:36:48Z</time>
      </trkpt>
      <trkpt lat="45.91977" lon="1.30789">
        <ele>357.15386962891</ele>
        <time>2010-10-03T04:36:55Z</time>
      </trkpt>
      <trkpt lat="45.91979" lon="1.30777">
        <ele>356.13629150391</ele>
        <time>2010-10-03T04:37:01Z</time>
      </trkpt>
      <trkpt lat="45.9198" lon="1.30771">
        <ele>355.72970581055</ele>
        <time>2010-10-03T04:37:03Z</time>
      </trkpt>
      <trkpt lat="45.91989" lon="1.30757">
        <ele>355.03903198242</ele>
        <time>2010-10-03T04:37:09Z</time>
      </trkpt>
      <trkpt lat="45.91999" lon="1.30753">
        <ele>355.1711730957</ele>
        <time>2010-10-03T04:37:13Z</time>
      </trkpt>
      <trkpt lat="45.9201" lon="1.30746">
        <ele>355.27825927734</ele>
        <time>2010-10-03T04:37:18Z</time>
      </trkpt>
      <trkpt lat="45.92025" lon="1.3074">
        <ele>355.63632202148</ele>
        <time>2010-10-03T04:37:24Z</time>
      </trkpt>
      <trkpt lat="45.92038" lon="1.30734">
        <ele>356.06784057617</ele>
        <time>2010-10-03T04:37:30Z</time>
      </trkpt>
      <trkpt lat="45.92051" lon="1.30725">
        <ele>356.22393798828</ele>
        <time>2010-10-03T04:37:36Z</time>
      </trkpt>
      <trkpt lat="45.92066" lon="1.30716">
        <ele>356.67028808594</ele>
        <time>2010-10-03T04:37:43Z</time>
      </trkpt>
      <trkpt lat="45.92077" lon="1.3071">
        <ele>357.0846862793</ele>
        <time>2010-10-03T04:37:48Z</time>
      </trkpt>
      <trkpt lat="45.92088" lon="1.30705">
        <ele>357.59191894531</ele>
        <time>2010-10-03T04:37:55Z</time>
      </trkpt>
      <trkpt lat="45.92096" lon="1.307">
        <ele>357.8115234375</ele>
        <time>2010-10-03T04:38:00Z</time>
      </trkpt>
      <trkpt lat="45.92102" lon="1.30698">
        <ele>358.02044677734</ele>
        <time>2010-10-03T04:38:04Z</time>
      </trkpt>
      <trkpt lat="45.92111" lon="1.30696">
        <ele>358.51086425781</ele>
        <time>2010-10-03T04:38:10Z</time>
      </trkpt>
      <trkpt lat="45.9212" lon="1.30705">
        <ele>359.54629516602</ele>
        <time>2010-10-03T04:38:17Z</time>
      </trkpt>
      <trkpt lat="45.92122" lon="1.30713">
        <ele>360.05529785156</ele>
        <time>2010-10-03T04:38:21Z</time>
      </trkpt>
      <trkpt lat="45.92122" lon="1.30715">
        <ele>360.17709350586</ele>
        <time>2010-10-03T04:38:22Z</time>
      </trkpt>
      <trkpt lat="45.92128" lon="1.30728">
        <ele>361.06411743164</ele>
        <time>2010-10-03T04:38:28Z</time>
      </trkpt>
      <trkpt lat="45.92134" lon="1.3074">
        <ele>361.97247314453</ele>
        <time>2010-10-03T04:38:35Z</time>
      </trkpt>
      <trkpt lat="45.9214" lon="1.30752">
        <ele>362.89758300781</ele>
        <time>2010-10-03T04:38:41Z</time>
      </trkpt>
      <trkpt lat="45.92146" lon="1.30766">
        <ele>364.32241821289</ele>
        <time>2010-10-03T04:38:48Z</time>
      </trkpt>
      <trkpt lat="45.92147" lon="1.30785">
        <ele>365.90045166016</ele>
        <time>2010-10-03T04:38:56Z</time>
      </trkpt>
      <trkpt lat="45.92138" lon="1.30795">
        <ele>366.43273925781</ele>
        <time>2010-10-03T04:39:02Z</time>
      </trkpt>
      <trkpt lat="45.92128" lon="1.30801">
        <ele>366.65057373047</ele>
        <time>2010-10-03T04:39:08Z</time>
      </trkpt>
      <trkpt lat="45.92117" lon="1.30806">
        <ele>366.79568481445</ele>
        <time>2010-10-03T04:39:15Z</time>
      </trkpt>
      <trkpt lat="45.9211" lon="1.30808">
        <ele>366.83776855469</ele>
        <time>2010-10-03T04:39:19Z</time>
      </trkpt>
      <trkpt lat="45.92102" lon="1.3081">
        <ele>366.9075012207</ele>
        <time>2010-10-03T04:39:24Z</time>
      </trkpt>
      <trkpt lat="45.92089" lon="1.30817">
        <ele>367.36996459961</ele>
        <time>2010-10-03T04:39:33Z</time>
      </trkpt>
      <trkpt lat="45.92085" lon="1.30832">
        <ele>368.82864379883</ele>
        <time>2010-10-03T04:39:40Z</time>
      </trkpt>
      <trkpt lat="45.92085" lon="1.30834">
        <ele>369.03057861328</ele>
        <time>2010-10-03T04:39:41Z</time>
      </trkpt>
      <trkpt lat="45.92089" lon="1.30847">
        <ele>369.57089233398</ele>
        <time>2010-10-03T04:39:47Z</time>
      </trkpt>
      <trkpt lat="45.92092" lon="1.30854">
        <ele>369.86254882812</ele>
        <time>2010-10-03T04:39:51Z</time>
      </trkpt>
      <trkpt lat="45.92093" lon="1.30857">
        <ele>369.95053100586</ele>
        <time>2010-10-03T04:39:52Z</time>
      </trkpt>
      <trkpt lat="45.92101" lon="1.30875">
        <ele>370.697265625</ele>
        <time>2010-10-03T04:40:01Z</time>
      </trkpt>
      <trkpt lat="45.92109" lon="1.30891">
        <ele>371.3955078125</ele>
        <time>2010-10-03T04:40:10Z</time>
      </trkpt>
      <trkpt lat="45.92115" lon="1.30904">
        <ele>371.92837524414</ele>
        <time>2010-10-03T04:40:17Z</time>
      </trkpt>
      <trkpt lat="45.92122" lon="1.30918">
        <ele>372.45565795898</ele>
        <time>2010-10-03T04:40:24Z</time>
      </trkpt>
      <trkpt lat="45.92127" lon="1.30931">
        <ele>372.42822265625</ele>
        <time>2010-10-03T04:40:30Z</time>
      </trkpt>
      <trkpt lat="45.92133" lon="1.30944">
        <ele>372.34213256836</ele>
        <time>2010-10-03T04:40:36Z</time>
      </trkpt>
      <trkpt lat="45.92139" lon="1.30958">
        <ele>372.16513061523</ele>
        <time>2010-10-03T04:40:43Z</time>
      </trkpt>
      <trkpt lat="45.92145" lon="1.30975">
        <ele>371.88522338867</ele>
        <time>2010-10-03T04:40:49Z</time>
      </trkpt>
      <trkpt lat="45.92152" lon="1.30993">
        <ele>371.47717285156</ele>
        <time>2010-10-03T04:40:55Z</time>
      </trkpt>
      <trkpt lat="45.92159" lon="1.31015">
        <ele>370.62789916992</ele>
        <time>2010-10-03T04:41:02Z</time>
      </trkpt>
      <trkpt lat="45.92165" lon="1.31034">
        <ele>369.80392456055</ele>
        <time>2010-10-03T04:41:08Z</time>
      </trkpt>
      <trkpt lat="45.92171" lon="1.31053">
        <ele>368.97470092773</ele>
        <time>2010-10-03T04:41:14Z</time>
      </trkpt>
      <trkpt lat="45.92177" lon="1.31077">
        <ele>367.99267578125</ele>
        <time>2010-10-03T04:41:21Z</time>
      </trkpt>
      <trkpt lat="45.92181" lon="1.31097">
        <ele>367.24566650391</ele>
        <time>2010-10-03T04:41:27Z</time>
      </trkpt>
      <trkpt lat="45.92182" lon="1.31118">
        <ele>366.61221313477</ele>
        <time>2010-10-03T04:41:33Z</time>
      </trkpt>
      <trkpt lat="45.9218" lon="1.31142">
        <ele>365.89273071289</ele>
        <time>2010-10-03T04:41:40Z</time>
      </trkpt>
      <trkpt lat="45.92175" lon="1.31166">
        <ele>365.11383056641</ele>
        <time>2010-10-03T04:41:47Z</time>
      </trkpt>
      <trkpt lat="45.92171" lon="1.31186">
        <ele>364.56692504883</ele>
        <time>2010-10-03T04:41:53Z</time>
      </trkpt>
      <trkpt lat="45.92168" lon="1.31207">
        <ele>364.03842163086</ele>
        <time>2010-10-03T04:41:59Z</time>
      </trkpt>
      <trkpt lat="45.92165" lon="1.31232">
        <ele>363.39727783203</ele>
        <time>2010-10-03T04:42:06Z</time>
      </trkpt>
      <trkpt lat="45.92163" lon="1.31254">
        <ele>362.77825927734</ele>
        <time>2010-10-03T04:42:12Z</time>
      </trkpt>
      <trkpt lat="45.92162" lon="1.31276">
        <ele>361.94787597656</ele>
        <time>2010-10-03T04:42:18Z</time>
      </trkpt>
      <trkpt lat="45.92164" lon="1.31296">
        <ele>361.28271484375</ele>
        <time>2010-10-03T04:42:24Z</time>
      </trkpt>
      <trkpt lat="45.92175" lon="1.31314">
        <ele>360.76937866211</ele>
        <time>2010-10-03T04:42:31Z</time>
      </trkpt>
      <trkpt lat="45.92186" lon="1.31333">
        <ele>360.25427246094</ele>
        <time>2010-10-03T04:42:38Z</time>
      </trkpt>
      <trkpt lat="45.92194" lon="1.31349">
        <ele>360.13259887695</ele>
        <time>2010-10-03T04:42:44Z</time>
      </trkpt>
      <trkpt lat="45.922" lon="1.31368">
        <ele>360.08264160156</ele>
        <time>2010-10-03T04:42:50Z</time>
      </trkpt>
      <trkpt lat="45.92205" lon="1.31387">
        <ele>360.06127929688</ele>
        <time>2010-10-03T04:42:56Z</time>
      </trkpt>
      <trkpt lat="45.92209" lon="1.31404">
        <ele>360.11682128906</ele>
        <time>2010-10-03T04:43:01Z</time>
      </trkpt>
      <trkpt lat="45.92212" lon="1.31419">
        <ele>360.17407226562</ele>
        <time>2010-10-03T04:43:06Z</time>
      </trkpt>
      <trkpt lat="45.92214" lon="1.31437">
        <ele>360.31594848633</ele>
        <time>2010-10-03T04:43:11Z</time>
      </trkpt>
      <trkpt lat="45.92218" lon="1.31449">
        <ele>360.53372192383</ele>
        <time>2010-10-03T04:43:15Z</time>
      </trkpt>
      <trkpt lat="45.92219" lon="1.31466">
        <ele>360.67230224609</ele>
        <time>2010-10-03T04:43:20Z</time>
      </trkpt>
      <trkpt lat="45.9222" lon="1.31482">
        <ele>360.80032348633</ele>
        <time>2010-10-03T04:43:25Z</time>
      </trkpt>
      <trkpt lat="45.92221" lon="1.31499">
        <ele>360.94177246094</ele>
        <time>2010-10-03T04:43:30Z</time>
      </trkpt>
      <trkpt lat="45.92225" lon="1.31522">
        <ele>360.81918334961</ele>
        <time>2010-10-03T04:43:37Z</time>
      </trkpt>
      <trkpt lat="45.92228" lon="1.31542">
        <ele>360.64254760742</ele>
        <time>2010-10-03T04:43:43Z</time>
      </trkpt>
      <trkpt lat="45.92229" lon="1.31563">
        <ele>360.36056518555</ele>
        <time>2010-10-03T04:43:49Z</time>
      </trkpt>
      <trkpt lat="45.92231" lon="1.31587">
        <ele>360.07650756836</ele>
        <time>2010-10-03T04:43:56Z</time>
      </trkpt>
      <trkpt lat="45.92237" lon="1.31598">
        <ele>360.33383178711</ele>
        <time>2010-10-03T04:44:00Z</time>
      </trkpt>
      <trkpt lat="45.92247" lon="1.31599">
        <ele>360.86898803711</ele>
        <time>2010-10-03T04:44:05Z</time>
      </trkpt>
      <trkpt lat="45.92259" lon="1.31598">
        <ele>361.01809692383</ele>
        <time>2010-10-03T04:44:10Z</time>
      </trkpt>
      <trkpt lat="45.92275" lon="1.31597">
        <ele>361.04824829102</ele>
        <time>2010-10-03T04:44:17Z</time>
      </trkpt>
      <trkpt lat="45.92286" lon="1.31595">
        <ele>361.06130981445</ele>
        <time>2010-10-03T04:44:22Z</time>
      </trkpt>
      <trkpt lat="45.92294" lon="1.31586">
        <ele>361.01831054688</ele>
        <time>2010-10-03T04:44:26Z</time>
      </trkpt>
      <trkpt lat="45.92295" lon="1.31581">
        <ele>361.01156616211</ele>
        <time>2010-10-03T04:44:28Z</time>
      </trkpt>
      <trkpt lat="45.92297" lon="1.31556">
        <ele>361.10589599609</ele>
        <time>2010-10-03T04:44:35Z</time>
      </trkpt>
      <trkpt lat="45.92297" lon="1.31528">
        <ele>361.21282958984</ele>
        <time>2010-10-03T04:44:43Z</time>
      </trkpt>
      <trkpt lat="45.92296" lon="1.31503">
        <ele>361.32327270508</ele>
        <time>2010-10-03T04:44:51Z</time>
      </trkpt>
      <trkpt lat="45.92297" lon="1.31485">
        <ele>361.53659057617</ele>
        <time>2010-10-03T04:44:57Z</time>
      </trkpt>
      <trkpt lat="45.92299" lon="1.31471">
        <ele>361.69714355469</ele>
        <time>2010-10-03T04:45:01Z</time>
      </trkpt>
      <trkpt lat="45.92308" lon="1.3146">
        <ele>361.7643737793</ele>
        <time>2010-10-03T04:45:06Z</time>
      </trkpt>
      <trkpt lat="45.92317" lon="1.31455">
        <ele>361.78634643555</ele>
        <time>2010-10-03T04:45:10Z</time>
      </trkpt>
      <trkpt lat="45.92328" lon="1.31448">
        <ele>361.89614868164</ele>
        <time>2010-10-03T04:45:16Z</time>
      </trkpt>
      <trkpt lat="45.92343" lon="1.31438">
        <ele>362.18920898438</ele>
        <time>2010-10-03T04:45:24Z</time>
      </trkpt>
      <trkpt lat="45.92352" lon="1.31432">
        <ele>362.41641235352</ele>
        <time>2010-10-03T04:45:29Z</time>
      </trkpt>
      <trkpt lat="45.92362" lon="1.31425">
        <ele>362.64575195312</ele>
        <time>2010-10-03T04:45:34Z</time>
      </trkpt>
      <trkpt lat="45.92374" lon="1.31418">
        <ele>362.96401977539</ele>
        <time>2010-10-03T04:45:40Z</time>
      </trkpt>
      <trkpt lat="45.92387" lon="1.31406">
        <ele>362.90377807617</ele>
        <time>2010-10-03T04:45:46Z</time>
      </trkpt>
      <trkpt lat="45.924" lon="1.31395">
        <ele>362.89569091797</ele>
        <time>2010-10-03T04:45:53Z</time>
      </trkpt>
      <trkpt lat="45.92411" lon="1.31389">
        <ele>362.95776367188</ele>
        <time>2010-10-03T04:45:59Z</time>
      </trkpt>
      <trkpt lat="45.92422" lon="1.31382">
        <ele>362.87139892578</ele>
        <time>2010-10-03T04:46:05Z</time>
      </trkpt>
      <trkpt lat="45.9243" lon="1.31375">
        <ele>362.67810058594</ele>
        <time>2010-10-03T04:46:10Z</time>
      </trkpt>
      <trkpt lat="45.92441" lon="1.31369">
        <ele>362.36758422852</ele>
        <time>2010-10-03T04:46:16Z</time>
      </trkpt>
      <trkpt lat="45.92448" lon="1.31372">
        <ele>362.20794677734</ele>
        <time>2010-10-03T04:46:20Z</time>
      </trkpt>
      <trkpt lat="45.92458" lon="1.31385">
        <ele>362.13314819336</ele>
        <time>2010-10-03T04:46:26Z</time>
      </trkpt>
      <trkpt lat="45.92469" lon="1.31392">
        <ele>362.00582885742</ele>
        <time>2010-10-03T04:46:31Z</time>
      </trkpt>
      <trkpt lat="45.92478" lon="1.31399">
        <ele>361.95391845703</ele>
        <time>2010-10-03T04:46:36Z</time>
      </trkpt>
      <trkpt lat="45.92488" lon="1.31406">
        <ele>361.92517089844</ele>
        <time>2010-10-03T04:46:41Z</time>
      </trkpt>
      <trkpt lat="45.92496" lon="1.31415">
        <ele>362.00238037109</ele>
        <time>2010-10-03T04:46:46Z</time>
      </trkpt>
      <trkpt lat="45.92503" lon="1.31421">
        <ele>362.12030029297</ele>
        <time>2010-10-03T04:46:50Z</time>
      </trkpt>
      <trkpt lat="45.92511" lon="1.31426">
        <ele>362.28485107422</ele>
        <time>2010-10-03T04:46:54Z</time>
      </trkpt>
      <trkpt lat="45.92521" lon="1.31436">
        <ele>362.67175292969</ele>
        <time>2010-10-03T04:47:00Z</time>
      </trkpt>
      <trkpt lat="45.92534" lon="1.31445">
        <ele>363.14663696289</ele>
        <time>2010-10-03T04:47:07Z</time>
      </trkpt>
      <trkpt lat="45.92544" lon="1.31451">
        <ele>363.56478881836</ele>
        <time>2010-10-03T04:47:12Z</time>
      </trkpt>
      <trkpt lat="45.92553" lon="1.31459">
        <ele>364.20169067383</ele>
        <time>2010-10-03T04:47:17Z</time>
      </trkpt>
      <trkpt lat="45.92562" lon="1.31469">
        <ele>364.97738647461</ele>
        <time>2010-10-03T04:47:22Z</time>
      </trkpt>
      <trkpt lat="45.92572" lon="1.31474">
        <ele>365.58996582031</ele>
        <time>2010-10-03T04:47:27Z</time>
      </trkpt>
      <trkpt lat="45.92581" lon="1.31482">
        <ele>366.44793701172</ele>
        <time>2010-10-03T04:47:33Z</time>
      </trkpt>
      <trkpt lat="45.9259" lon="1.31493">
        <ele>367.08837890625</ele>
        <time>2010-10-03T04:47:38Z</time>
      </trkpt>
      <trkpt lat="45.92599" lon="1.31505">
        <ele>367.12936401367</ele>
        <time>2010-10-03T04:47:44Z</time>
      </trkpt>
      <trkpt lat="45.92611" lon="1.31512">
        <ele>366.46997070312</ele>
        <time>2010-10-03T04:47:50Z</time>
      </trkpt>
      <trkpt lat="45.92621" lon="1.31514">
        <ele>365.7236328125</ele>
        <time>2010-10-03T04:47:54Z</time>
      </trkpt>
      <trkpt lat="45.92635" lon="1.31517">
        <ele>364.62686157227</ele>
        <time>2010-10-03T04:48:01Z</time>
      </trkpt>
      <trkpt lat="45.92645" lon="1.31521">
        <ele>363.73745727539</ele>
        <time>2010-10-03T04:48:07Z</time>
      </trkpt>
      <trkpt lat="45.9266" lon="1.31524">
        <ele>362.44900512695</ele>
        <time>2010-10-03T04:48:13Z</time>
      </trkpt>
      <trkpt lat="45.92673" lon="1.31527">
        <ele>362.08111572266</ele>
        <time>2010-10-03T04:48:19Z</time>
      </trkpt>
      <trkpt lat="45.92682" lon="1.31529">
        <ele>362.44888305664</ele>
        <time>2010-10-03T04:48:22Z</time>
      </trkpt>
      <trkpt lat="45.92693" lon="1.31533">
        <ele>362.94235229492</ele>
        <time>2010-10-03T04:48:29Z</time>
      </trkpt>
      <trkpt lat="45.92701" lon="1.31535">
        <ele>363.34811401367</ele>
        <time>2010-10-03T04:48:34Z</time>
      </trkpt>
      <trkpt lat="45.92709" lon="1.31538">
        <ele>363.65289306641</ele>
        <time>2010-10-03T04:48:39Z</time>
      </trkpt>
      <trkpt lat="45.92717" lon="1.31544">
        <ele>363.95678710938</ele>
        <time>2010-10-03T04:48:45Z</time>
      </trkpt>
      <trkpt lat="45.92727" lon="1.31553">
        <ele>364.24691772461</ele>
        <time>2010-10-03T04:48:52Z</time>
      </trkpt>
      <trkpt lat="45.92735" lon="1.31559">
        <ele>364.59124755859</ele>
        <time>2010-10-03T04:48:57Z</time>
      </trkpt>
      <trkpt lat="45.92746" lon="1.31567">
        <ele>365.1220703125</ele>
        <time>2010-10-03T04:49:03Z</time>
      </trkpt>
      <trkpt lat="45.92756" lon="1.31575">
        <ele>365.470703125</ele>
        <time>2010-10-03T04:49:08Z</time>
      </trkpt>
      <trkpt lat="45.92767" lon="1.31584">
        <ele>365.75823974609</ele>
        <time>2010-10-03T04:49:14Z</time>
      </trkpt>
      <trkpt lat="45.92778" lon="1.31594">
        <ele>365.80972290039</ele>
        <time>2010-10-03T04:49:20Z</time>
      </trkpt>
      <trkpt lat="45.92792" lon="1.31597">
        <ele>366.34530639648</ele>
        <time>2010-10-03T04:49:25Z</time>
      </trkpt>
      <trkpt lat="45.92807" lon="1.31598">
        <ele>366.99591064453</ele>
        <time>2010-10-03T04:49:31Z</time>
      </trkpt>
      <trkpt lat="45.92819" lon="1.31598">
        <ele>367.64135742188</ele>
        <time>2010-10-03T04:49:37Z</time>
      </trkpt>
      <trkpt lat="45.92836" lon="1.31596">
        <ele>368.38314819336</ele>
        <time>2010-10-03T04:49:44Z</time>
      </trkpt>
      <trkpt lat="45.92854" lon="1.31594">
        <ele>368.5361328125</ele>
        <time>2010-10-03T04:49:51Z</time>
      </trkpt>
      <trkpt lat="45.92857" lon="1.31592">
        <ele>368.62203979492</ele>
        <time>2010-10-03T04:49:53Z</time>
      </trkpt>
      <trkpt lat="45.92865" lon="1.31586">
        <ele>368.88003540039</ele>
        <time>2010-10-03T04:50:00Z</time>
      </trkpt>
      <trkpt lat="45.92868" lon="1.31583">
        <ele>369.00048828125</ele>
        <time>2010-10-03T04:50:02Z</time>
      </trkpt>
      <trkpt lat="45.92877" lon="1.31579">
        <ele>369.05059814453</ele>
        <time>2010-10-03T04:50:08Z</time>
      </trkpt>
      <trkpt lat="45.92886" lon="1.31575">
        <ele>369.12738037109</ele>
        <time>2010-10-03T04:50:13Z</time>
      </trkpt>
      <trkpt lat="45.92894" lon="1.31573">
        <ele>369.17620849609</ele>
        <time>2010-10-03T04:50:18Z</time>
      </trkpt>
      <trkpt lat="45.92908" lon="1.3157">
        <ele>369.28601074219</ele>
        <time>2010-10-03T04:50:26Z</time>
      </trkpt>
      <trkpt lat="45.92919" lon="1.31567">
        <ele>369.31369018555</ele>
        <time>2010-10-03T04:50:31Z</time>
      </trkpt>
      <trkpt lat="45.92932" lon="1.31562">
        <ele>368.94775390625</ele>
        <time>2010-10-03T04:50:37Z</time>
      </trkpt>
      <trkpt lat="45.92942" lon="1.31559">
        <ele>368.66223144531</ele>
        <time>2010-10-03T04:50:42Z</time>
      </trkpt>
      <trkpt lat="45.92954" lon="1.31553">
        <ele>368.37872314453</ele>
        <time>2010-10-03T04:50:48Z</time>
      </trkpt>
      <trkpt lat="45.92963" lon="1.31546">
        <ele>368.21133422852</ele>
        <time>2010-10-03T04:50:53Z</time>
      </trkpt>
      <trkpt lat="45.92973" lon="1.3154">
        <ele>368.0087890625</ele>
        <time>2010-10-03T04:50:58Z</time>
      </trkpt>
      <trkpt lat="45.92984" lon="1.31532">
        <ele>367.82568359375</ele>
        <time>2010-10-03T04:51:03Z</time>
      </trkpt>
      <trkpt lat="45.92994" lon="1.31526">
        <ele>367.59909057617</ele>
        <time>2010-10-03T04:51:08Z</time>
      </trkpt>
      <trkpt lat="45.93004" lon="1.31518">
        <ele>367.31359863281</ele>
        <time>2010-10-03T04:51:13Z</time>
      </trkpt>
      <trkpt lat="45.93018" lon="1.3151">
        <ele>366.65829467773</ele>
        <time>2010-10-03T04:51:19Z</time>
      </trkpt>
      <trkpt lat="45.93028" lon="1.31501">
        <ele>366.29736328125</ele>
        <time>2010-10-03T04:51:24Z</time>
      </trkpt>
      <trkpt lat="45.93037" lon="1.31492">
        <ele>365.97448730469</ele>
        <time>2010-10-03T04:51:29Z</time>
      </trkpt>
      <trkpt lat="45.93043" lon="1.31487">
        <ele>365.74179077148</ele>
        <time>2010-10-03T04:51:32Z</time>
      </trkpt>
      <trkpt lat="45.93059" lon="1.31479">
        <ele>365.07220458984</ele>
        <time>2010-10-03T04:51:38Z</time>
      </trkpt>
      <trkpt lat="45.93068" lon="1.3147">
        <ele>364.87893676758</ele>
        <time>2010-10-03T04:51:43Z</time>
      </trkpt>
      <trkpt lat="45.93084" lon="1.31462">
        <ele>364.41375732422</ele>
        <time>2010-10-03T04:51:50Z</time>
      </trkpt>
      <trkpt lat="45.93093" lon="1.31454">
        <ele>365.18475341797</ele>
        <time>2010-10-03T04:51:54Z</time>
      </trkpt>
      <trkpt lat="45.9311" lon="1.31445">
        <ele>366.41314697266</ele>
        <time>2010-10-03T04:52:01Z</time>
      </trkpt>
      <trkpt lat="45.93121" lon="1.3144">
        <ele>367.39959716797</ele>
        <time>2010-10-03T04:52:07Z</time>
      </trkpt>
      <trkpt lat="45.93127" lon="1.31438">
        <ele>367.8903503418</ele>
        <time>2010-10-03T04:52:12Z</time>
      </trkpt>
      <trkpt lat="45.93131" lon="1.31437">
        <ele>368.13723754883</ele>
        <time>2010-10-03T04:52:16Z</time>
      </trkpt>
      <trkpt lat="45.93138" lon="1.31437">
        <ele>368.56607055664</ele>
        <time>2010-10-03T04:52:23Z</time>
      </trkpt>
      <trkpt lat="45.9314" lon="1.31438">
        <ele>368.646484375</ele>
        <time>2010-10-03T04:52:25Z</time>
      </trkpt>
      <trkpt lat="45.93147" lon="1.31439">
        <ele>368.94229125977</ele>
        <time>2010-10-03T04:52:29Z</time>
      </trkpt>
      <trkpt lat="45.93151" lon="1.31438">
        <ele>369.27230834961</ele>
        <time>2010-10-03T04:52:32Z</time>
      </trkpt>
      <trkpt lat="45.93158" lon="1.31439">
        <ele>369.64056396484</ele>
        <time>2010-10-03T04:52:37Z</time>
      </trkpt>
      <trkpt lat="45.93166" lon="1.3144">
        <ele>370.04187011719</ele>
        <time>2010-10-03T04:52:43Z</time>
      </trkpt>
      <trkpt lat="45.93176" lon="1.31441">
        <ele>370.01943969727</ele>
        <time>2010-10-03T04:52:49Z</time>
      </trkpt>
      <trkpt lat="45.93178" lon="1.3144">
        <ele>370.05645751953</ele>
        <time>2010-10-03T04:52:50Z</time>
      </trkpt>
      <trkpt lat="45.93191" lon="1.31435">
        <ele>370.51300048828</ele>
        <time>2010-10-03T04:52:54Z</time>
      </trkpt>
      <trkpt lat="45.93209" lon="1.3143">
        <ele>370.98696899414</ele>
        <time>2010-10-03T04:53:00Z</time>
      </trkpt>
      <trkpt lat="45.93221" lon="1.31428">
        <ele>371.15533447266</ele>
        <time>2010-10-03T04:53:04Z</time>
      </trkpt>
      <trkpt lat="45.93229" lon="1.3144">
        <ele>370.25750732422</ele>
        <time>2010-10-03T04:53:09Z</time>
      </trkpt>
      <trkpt lat="45.93235" lon="1.31457">
        <ele>369.04293823242</ele>
        <time>2010-10-03T04:53:14Z</time>
      </trkpt>
      <trkpt lat="45.93242" lon="1.31476">
        <ele>367.63095092773</ele>
        <time>2010-10-03T04:53:20Z</time>
      </trkpt>
      <trkpt lat="45.93248" lon="1.31496">
        <ele>366.26583862305</ele>
        <time>2010-10-03T04:53:26Z</time>
      </trkpt>
      <trkpt lat="45.93252" lon="1.31512">
        <ele>365.70397949219</ele>
        <time>2010-10-03T04:53:31Z</time>
      </trkpt>
      <trkpt lat="45.93256" lon="1.31528">
        <ele>365.31011962891</ele>
        <time>2010-10-03T04:53:36Z</time>
      </trkpt>
      <trkpt lat="45.93256" lon="1.31535">
        <ele>365.15344238281</ele>
        <time>2010-10-03T04:53:39Z</time>
      </trkpt>
      <trkpt lat="45.93258" lon="1.31544">
        <ele>364.94866943359</ele>
        <time>2010-10-03T04:53:44Z</time>
      </trkpt>
      <trkpt lat="45.93262" lon="1.3156">
        <ele>364.62704467773</ele>
        <time>2010-10-03T04:53:50Z</time>
      </trkpt>
      <trkpt lat="45.93268" lon="1.31574">
        <ele>364.39404296875</ele>
        <time>2010-10-03T04:53:56Z</time>
      </trkpt>
      <trkpt lat="45.93272" lon="1.31591">
        <ele>364.17224121094</ele>
        <time>2010-10-03T04:54:03Z</time>
      </trkpt>
      <trkpt lat="45.93275" lon="1.31611">
        <ele>363.96295166016</ele>
        <time>2010-10-03T04:54:12Z</time>
      </trkpt>
      <trkpt lat="45.93284" lon="1.31621">
        <ele>363.95193481445</ele>
        <time>2010-10-03T04:54:19Z</time>
      </trkpt>
      <trkpt lat="45.93298" lon="1.31623">
        <ele>364.10543823242</ele>
        <time>2010-10-03T04:54:27Z</time>
      </trkpt>
      <trkpt lat="45.93306" lon="1.31624">
        <ele>364.18197631836</ele>
        <time>2010-10-03T04:54:32Z</time>
      </trkpt>
      <trkpt lat="45.93314" lon="1.31627">
        <ele>364.25305175781</ele>
        <time>2010-10-03T04:54:37Z</time>
      </trkpt>
      <trkpt lat="45.93332" lon="1.31631">
        <ele>364.41156005859</ele>
        <time>2010-10-03T04:54:47Z</time>
      </trkpt>
      <trkpt lat="45.93345" lon="1.31629">
        <ele>364.96322631836</ele>
        <time>2010-10-03T04:54:55Z</time>
      </trkpt>
      <trkpt lat="45.93359" lon="1.31627">
        <ele>365.54818725586</ele>
        <time>2010-10-03T04:55:03Z</time>
      </trkpt>
      <trkpt lat="45.9337" lon="1.31625">
        <ele>366.04541015625</ele>
        <time>2010-10-03T04:55:10Z</time>
      </trkpt>
      <trkpt lat="45.93382" lon="1.31619">
        <ele>366.55285644531</ele>
        <time>2010-10-03T04:55:17Z</time>
      </trkpt>
      <trkpt lat="45.93395" lon="1.31614">
        <ele>367.11749267578</ele>
        <time>2010-10-03T04:55:25Z</time>
      </trkpt>
      <trkpt lat="45.93411" lon="1.31618">
        <ele>367.77822875977</ele>
        <time>2010-10-03T04:55:34Z</time>
      </trkpt>
      <trkpt lat="45.93424" lon="1.31625">
        <ele>368.36239624023</ele>
        <time>2010-10-03T04:55:40Z</time>
      </trkpt>
      <trkpt lat="45.93436" lon="1.31632">
        <ele>368.9089050293</ele>
        <time>2010-10-03T04:55:46Z</time>
      </trkpt>
      <trkpt lat="45.93448" lon="1.31642">
        <ele>369.35772705078</ele>
        <time>2010-10-03T04:55:53Z</time>
      </trkpt>
      <trkpt lat="45.93455" lon="1.31653">
        <ele>369.53701782227</ele>
        <time>2010-10-03T04:55:59Z</time>
      </trkpt>
      <trkpt lat="45.93457" lon="1.31656">
        <ele>369.58139038086</ele>
        <time>2010-10-03T04:56:01Z</time>
      </trkpt>
      <trkpt lat="45.93467" lon="1.31659">
        <ele>369.91302490234</ele>
        <time>2010-10-03T04:56:08Z</time>
      </trkpt>
      <trkpt lat="45.93476" lon="1.31656">
        <ele>370.31518554688</ele>
        <time>2010-10-03T04:56:14Z</time>
      </trkpt>
      <trkpt lat="45.93485" lon="1.31653">
        <ele>370.71896362305</ele>
        <time>2010-10-03T04:56:21Z</time>
      </trkpt>
      <trkpt lat="45.93498" lon="1.31651">
        <ele>371.30047607422</ele>
        <time>2010-10-03T04:56:29Z</time>
      </trkpt>
      <trkpt lat="45.93506" lon="1.31649">
        <ele>371.74523925781</ele>
        <time>2010-10-03T04:56:34Z</time>
      </trkpt>
      <trkpt lat="45.93512" lon="1.31657">
        <ele>371.81033325195</ele>
        <time>2010-10-03T04:56:38Z</time>
      </trkpt>
      <trkpt lat="45.9351" lon="1.31677">
        <ele>371.4104309082</ele>
        <time>2010-10-03T04:56:44Z</time>
      </trkpt>
      <trkpt lat="45.93509" lon="1.31698">
        <ele>371.22802734375</ele>
        <time>2010-10-03T04:56:50Z</time>
      </trkpt>
      <trkpt lat="45.93508" lon="1.31711">
        <ele>371.11828613281</ele>
        <time>2010-10-03T04:56:54Z</time>
      </trkpt>
      <trkpt lat="45.9351" lon="1.3173">
        <ele>371.17944335938</ele>
        <time>2010-10-03T04:57:00Z</time>
      </trkpt>
      <trkpt lat="45.93511" lon="1.31752">
        <ele>371.2248840332</ele>
        <time>2010-10-03T04:57:07Z</time>
      </trkpt>
      <trkpt lat="45.93514" lon="1.31768">
        <ele>371.67916870117</ele>
        <time>2010-10-03T04:57:12Z</time>
      </trkpt>
      <trkpt lat="45.93517" lon="1.31776">
        <ele>372.09616088867</ele>
        <time>2010-10-03T04:57:15Z</time>
      </trkpt>
      <trkpt lat="45.93525" lon="1.31774">
        <ele>373.16632080078</ele>
        <time>2010-10-03T04:57:21Z</time>
      </trkpt>
      <trkpt lat="45.93532" lon="1.31768">
        <ele>373.90087890625</ele>
        <time>2010-10-03T04:57:26Z</time>
      </trkpt>
      <trkpt lat="45.93542" lon="1.31761">
        <ele>374.84851074219</ele>
        <time>2010-10-03T04:57:31Z</time>
      </trkpt>
      <trkpt lat="45.93549" lon="1.31755">
        <ele>375.42510986328</ele>
        <time>2010-10-03T04:57:36Z</time>
      </trkpt>
      <trkpt lat="45.93557" lon="1.31752">
        <ele>376.20208740234</ele>
        <time>2010-10-03T04:57:43Z</time>
      </trkpt>
      <trkpt lat="45.93563" lon="1.31748">
        <ele>376.80038452148</ele>
        <time>2010-10-03T04:57:49Z</time>
      </trkpt>
      <trkpt lat="45.93568" lon="1.31745">
        <ele>377.20193481445</ele>
        <time>2010-10-03T04:57:53Z</time>
      </trkpt>
      <trkpt lat="45.93573" lon="1.31741">
        <ele>377.52841186523</ele>
        <time>2010-10-03T04:57:57Z</time>
      </trkpt>
      <trkpt lat="45.93576" lon="1.31738">
        <ele>377.71997070312</ele>
        <time>2010-10-03T04:58:00Z</time>
      </trkpt>
      <trkpt lat="45.93585" lon="1.3173">
        <ele>378.22216796875</ele>
        <time>2010-10-03T04:58:07Z</time>
      </trkpt>
      <trkpt lat="45.93597" lon="1.3172">
        <ele>379.22583007812</ele>
        <time>2010-10-03T04:58:15Z</time>
      </trkpt>
      <trkpt lat="45.93605" lon="1.31717">
        <ele>380.07205200195</ele>
        <time>2010-10-03T04:58:21Z</time>
      </trkpt>
      <trkpt lat="45.93613" lon="1.31716">
        <ele>381.01208496094</ele>
        <time>2010-10-03T04:58:27Z</time>
      </trkpt>
      <trkpt lat="45.93623" lon="1.31716">
        <ele>382.17251586914</ele>
        <time>2010-10-03T04:58:33Z</time>
      </trkpt>
      <trkpt lat="45.93633" lon="1.31716">
        <ele>383.45364379883</ele>
        <time>2010-10-03T04:58:40Z</time>
      </trkpt>
      <trkpt lat="45.93641" lon="1.31715">
        <ele>384.31579589844</ele>
        <time>2010-10-03T04:58:45Z</time>
      </trkpt>
      <trkpt lat="45.93651" lon="1.31715">
        <ele>385.5299987793</ele>
        <time>2010-10-03T04:58:52Z</time>
      </trkpt>
      <trkpt lat="45.93657" lon="1.31714">
        <ele>386.2233581543</ele>
        <time>2010-10-03T04:58:58Z</time>
      </trkpt>
      <trkpt lat="45.93668" lon="1.31714">
        <ele>387.43768310547</ele>
        <time>2010-10-03T04:59:05Z</time>
      </trkpt>
      <trkpt lat="45.93675" lon="1.31715">
        <ele>387.59564208984</ele>
        <time>2010-10-03T04:59:10Z</time>
      </trkpt>
      <trkpt lat="45.93684" lon="1.31715">
        <ele>387.74291992188</ele>
        <time>2010-10-03T04:59:16Z</time>
      </trkpt>
      <trkpt lat="45.93686" lon="1.31715">
        <ele>387.79342651367</ele>
        <time>2010-10-03T04:59:18Z</time>
      </trkpt>
      <trkpt lat="45.93695" lon="1.31715">
        <ele>387.92150878906</ele>
        <time>2010-10-03T04:59:24Z</time>
      </trkpt>
      <trkpt lat="45.93706" lon="1.31715">
        <ele>388.09259033203</ele>
        <time>2010-10-03T04:59:31Z</time>
      </trkpt>
      <trkpt lat="45.93716" lon="1.31715">
        <ele>388.22088623047</ele>
        <time>2010-10-03T04:59:37Z</time>
      </trkpt>
      <trkpt lat="45.9373" lon="1.31715">
        <ele>388.43316650391</ele>
        <time>2010-10-03T04:59:46Z</time>
      </trkpt>
      <trkpt lat="45.93743" lon="1.31719">
        <ele>388.77035522461</ele>
        <time>2010-10-03T04:59:53Z</time>
      </trkpt>
      <trkpt lat="45.93755" lon="1.31723">
        <ele>389.02014160156</ele>
        <time>2010-10-03T04:59:59Z</time>
      </trkpt>
      <trkpt lat="45.93766" lon="1.31726">
        <ele>389.1178894043</ele>
        <time>2010-10-03T05:00:04Z</time>
      </trkpt>
      <trkpt lat="45.93781" lon="1.31733">
        <ele>389.23550415039</ele>
        <time>2010-10-03T05:00:11Z</time>
      </trkpt>
      <trkpt lat="45.93792" lon="1.31733">
        <ele>389.19134521484</ele>
        <time>2010-10-03T05:00:16Z</time>
      </trkpt>
      <trkpt lat="45.93808" lon="1.31734">
        <ele>389.12481689453</ele>
        <time>2010-10-03T05:00:23Z</time>
      </trkpt>
      <trkpt lat="45.93819" lon="1.31734">
        <ele>389.07455444336</ele>
        <time>2010-10-03T05:00:28Z</time>
      </trkpt>
      <trkpt lat="45.9383" lon="1.31734">
        <ele>389.01870727539</ele>
        <time>2010-10-03T05:00:33Z</time>
      </trkpt>
      <trkpt lat="45.9384" lon="1.31734">
        <ele>389.66717529297</ele>
        <time>2010-10-03T05:00:38Z</time>
      </trkpt>
      <trkpt lat="45.93849" lon="1.31734">
        <ele>390.63372802734</ele>
        <time>2010-10-03T05:00:43Z</time>
      </trkpt>
      <trkpt lat="45.93857" lon="1.31731">
        <ele>391.51248168945</ele>
        <time>2010-10-03T05:00:50Z</time>
      </trkpt>
      <trkpt lat="45.93865" lon="1.31728">
        <ele>392.29891967773</ele>
        <time>2010-10-03T05:00:56Z</time>
      </trkpt>
      <trkpt lat="45.93874" lon="1.31723">
        <ele>393.1926574707</ele>
        <time>2010-10-03T05:01:02Z</time>
      </trkpt>
      <trkpt lat="45.93885" lon="1.31717">
        <ele>394.37823486328</ele>
        <time>2010-10-03T05:01:07Z</time>
      </trkpt>
      <trkpt lat="45.93899" lon="1.31716">
        <ele>395.74880981445</ele>
        <time>2010-10-03T05:01:14Z</time>
      </trkpt>
      <trkpt lat="45.93908" lon="1.31715">
        <ele>396.71676635742</ele>
        <time>2010-10-03T05:01:20Z</time>
      </trkpt>
      <trkpt lat="45.93918" lon="1.31716">
        <ele>397.71026611328</ele>
        <time>2010-10-03T05:01:26Z</time>
      </trkpt>
      <trkpt lat="45.9393" lon="1.31716">
        <ele>398.65313720703</ele>
        <time>2010-10-03T05:01:34Z</time>
      </trkpt>
      <trkpt lat="45.93938" lon="1.31717">
        <ele>399.24411010742</ele>
        <time>2010-10-03T05:01:39Z</time>
      </trkpt>
      <trkpt lat="45.93944" lon="1.31718">
        <ele>399.71893310547</ele>
        <time>2010-10-03T05:01:43Z</time>
      </trkpt>
      <trkpt lat="45.93949" lon="1.31717">
        <ele>400.09384155273</ele>
        <time>2010-10-03T05:01:47Z</time>
      </trkpt>
      <trkpt lat="45.93963" lon="1.31716">
        <ele>401.17413330078</ele>
        <time>2010-10-03T05:01:56Z</time>
      </trkpt>
      <trkpt lat="45.93973" lon="1.31716">
        <ele>401.93502807617</ele>
        <time>2010-10-03T05:02:03Z</time>
      </trkpt>
      <trkpt lat="45.93985" lon="1.31717">
        <ele>402.84783935547</ele>
        <time>2010-10-03T05:02:10Z</time>
      </trkpt>
      <trkpt lat="45.93998" lon="1.31716">
        <ele>403.87210083008</ele>
        <time>2010-10-03T05:02:19Z</time>
      </trkpt>
      <trkpt lat="45.94007" lon="1.31717">
        <ele>404.43444824219</ele>
        <time>2010-10-03T05:02:24Z</time>
      </trkpt>
      <trkpt lat="45.94012" lon="1.31717">
        <ele>404.77600097656</ele>
        <time>2010-10-03T05:02:27Z</time>
      </trkpt>
      <trkpt lat="45.94023" lon="1.31717">
        <ele>405.48391723633</ele>
        <time>2010-10-03T05:02:33Z</time>
      </trkpt>
      <trkpt lat="45.94037" lon="1.31716">
        <ele>406.45074462891</ele>
        <time>2010-10-03T05:02:39Z</time>
      </trkpt>
      <trkpt lat="45.94051" lon="1.31715">
        <ele>407.39056396484</ele>
        <time>2010-10-03T05:02:45Z</time>
      </trkpt>
      <trkpt lat="45.94053" lon="1.31715">
        <ele>407.49398803711</ele>
        <time>2010-10-03T05:02:46Z</time>
      </trkpt>
      <trkpt lat="45.94065" lon="1.31729">
        <ele>407.54135131836</ele>
        <time>2010-10-03T05:02:53Z</time>
      </trkpt>
      <trkpt lat="45.94074" lon="1.31739">
        <ele>407.33563232422</ele>
        <time>2010-10-03T05:02:58Z</time>
      </trkpt>
      <trkpt lat="45.94081" lon="1.31742">
        <ele>407.49020385742</ele>
        <time>2010-10-03T05:03:02Z</time>
      </trkpt>
      <trkpt lat="45.94087" lon="1.31749">
        <ele>407.21951293945</ele>
        <time>2010-10-03T05:03:07Z</time>
      </trkpt>
      <trkpt lat="45.94092" lon="1.31757">
        <ele>407.25634765625</ele>
        <time>2010-10-03T05:03:11Z</time>
      </trkpt>
      <trkpt lat="45.94098" lon="1.31768">
        <ele>407.27752685547</ele>
        <time>2010-10-03T05:03:15Z</time>
      </trkpt>
      <trkpt lat="45.94104" lon="1.31783">
        <ele>407.21600341797</ele>
        <time>2010-10-03T05:03:20Z</time>
      </trkpt>
      <trkpt lat="45.94111" lon="1.31798">
        <ele>407.16937255859</ele>
        <time>2010-10-03T05:03:25Z</time>
      </trkpt>
      <trkpt lat="45.94118" lon="1.31816">
        <ele>407.10614013672</ele>
        <time>2010-10-03T05:03:31Z</time>
      </trkpt>
      <trkpt lat="45.94123" lon="1.31832">
        <ele>406.94277954102</ele>
        <time>2010-10-03T05:03:36Z</time>
      </trkpt>
      <trkpt lat="45.94127" lon="1.31848">
        <ele>407.60369873047</ele>
        <time>2010-10-03T05:03:41Z</time>
      </trkpt>
      <trkpt lat="45.9413" lon="1.31862">
        <ele>408.21600341797</ele>
        <time>2010-10-03T05:03:45Z</time>
      </trkpt>
      <trkpt lat="45.94133" lon="1.31879">
        <ele>408.91564941406</ele>
        <time>2010-10-03T05:03:50Z</time>
      </trkpt>
      <trkpt lat="45.94136" lon="1.31893">
        <ele>409.47442626953</ele>
        <time>2010-10-03T05:03:54Z</time>
      </trkpt>
      <trkpt lat="45.94139" lon="1.31913">
        <ele>410.21420288086</ele>
        <time>2010-10-03T05:04:00Z</time>
      </trkpt>
      <trkpt lat="45.94142" lon="1.31937">
        <ele>409.01754760742</ele>
        <time>2010-10-03T05:04:07Z</time>
      </trkpt>
      <trkpt lat="45.94144" lon="1.31957">
        <ele>407.6887512207</ele>
        <time>2010-10-03T05:04:13Z</time>
      </trkpt>
      <trkpt lat="45.94147" lon="1.31977">
        <ele>406.37905883789</ele>
        <time>2010-10-03T05:04:19Z</time>
      </trkpt>
      <trkpt lat="45.94149" lon="1.31994">
        <ele>405.22259521484</ele>
        <time>2010-10-03T05:04:24Z</time>
      </trkpt>
      <trkpt lat="45.94149" lon="1.32">
        <ele>404.80975341797</ele>
        <time>2010-10-03T05:04:26Z</time>
      </trkpt>
      <trkpt lat="45.94151" lon="1.3202">
        <ele>404.19183349609</ele>
        <time>2010-10-03T05:04:32Z</time>
      </trkpt>
      <trkpt lat="45.94152" lon="1.32041">
        <ele>403.53189086914</ele>
        <time>2010-10-03T05:04:39Z</time>
      </trkpt>
      <trkpt lat="45.94155" lon="1.32061">
        <ele>402.85745239258</ele>
        <time>2010-10-03T05:04:46Z</time>
      </trkpt>
      <trkpt lat="45.94157" lon="1.32082">
        <ele>402.15679931641</ele>
        <time>2010-10-03T05:04:52Z</time>
      </trkpt>
      <trkpt lat="45.94159" lon="1.32103">
        <ele>402.38467407227</ele>
        <time>2010-10-03T05:04:58Z</time>
      </trkpt>
      <trkpt lat="45.94161" lon="1.3212">
        <ele>402.60681152344</ele>
        <time>2010-10-03T05:05:03Z</time>
      </trkpt>
      <trkpt lat="45.94163" lon="1.32139">
        <ele>402.80383300781</ele>
        <time>2010-10-03T05:05:08Z</time>
      </trkpt>
      <trkpt lat="45.94164" lon="1.32156">
        <ele>402.97607421875</ele>
        <time>2010-10-03T05:05:13Z</time>
      </trkpt>
      <trkpt lat="45.94166" lon="1.3218">
        <ele>403.50592041016</ele>
        <time>2010-10-03T05:05:20Z</time>
      </trkpt>
      <trkpt lat="45.94167" lon="1.32197">
        <ele>404.109375</ele>
        <time>2010-10-03T05:05:25Z</time>
      </trkpt>
      <trkpt lat="45.94167" lon="1.32212">
        <ele>404.62442016602</ele>
        <time>2010-10-03T05:05:29Z</time>
      </trkpt>
      <trkpt lat="45.94159" lon="1.32217">
        <ele>405.00659179688</ele>
        <time>2010-10-03T05:05:33Z</time>
      </trkpt>
      <trkpt lat="45.94149" lon="1.32216">
        <ele>405.25082397461</ele>
        <time>2010-10-03T05:05:39Z</time>
      </trkpt>
      <trkpt lat="45.94145" lon="1.32219">
        <ele>405.44485473633</ele>
        <time>2010-10-03T05:05:42Z</time>
      </trkpt>
      <trkpt lat="45.9414" lon="1.32226">
        <ele>405.73678588867</ele>
        <time>2010-10-03T05:05:47Z</time>
      </trkpt>
      <trkpt lat="45.94136" lon="1.32236">
        <ele>406.04565429688</ele>
        <time>2010-10-03T05:05:53Z</time>
      </trkpt>
      <trkpt lat="45.94134" lon="1.32252">
        <ele>406.46197509766</ele>
        <time>2010-10-03T05:06:01Z</time>
      </trkpt>
      <trkpt lat="45.94133" lon="1.32265">
        <ele>407.04595947266</ele>
        <time>2010-10-03T05:06:08Z</time>
      </trkpt>
      <trkpt lat="45.94131" lon="1.32277">
        <ele>407.56015014648</ele>
        <time>2010-10-03T05:06:14Z</time>
      </trkpt>
      <trkpt lat="45.94132" lon="1.32291">
        <ele>408.1477355957</ele>
        <time>2010-10-03T05:06:20Z</time>
      </trkpt>
      <trkpt lat="45.94133" lon="1.32308">
        <ele>408.89157104492</ele>
        <time>2010-10-03T05:06:28Z</time>
      </trkpt>
      <trkpt lat="45.94133" lon="1.3232">
        <ele>409.39581298828</ele>
        <time>2010-10-03T05:06:33Z</time>
      </trkpt>
      <trkpt lat="45.94136" lon="1.3233">
        <ele>409.97955322266</ele>
        <time>2010-10-03T05:06:38Z</time>
      </trkpt>
      <trkpt lat="45.94137" lon="1.32342">
        <ele>410.52423095703</ele>
        <time>2010-10-03T05:06:44Z</time>
      </trkpt>
      <trkpt lat="45.94135" lon="1.32359">
        <ele>411.04077148438</ele>
        <time>2010-10-03T05:06:53Z</time>
      </trkpt>
      <trkpt lat="45.94135" lon="1.32373">
        <ele>411.48294067383</ele>
        <time>2010-10-03T05:07:00Z</time>
      </trkpt>
      <trkpt lat="45.94133" lon="1.32385">
        <ele>411.85803222656</ele>
        <time>2010-10-03T05:07:06Z</time>
      </trkpt>
      <trkpt lat="45.94132" lon="1.32396">
        <ele>412.20736694336</ele>
        <time>2010-10-03T05:07:12Z</time>
      </trkpt>
      <trkpt lat="45.94131" lon="1.32406">
        <ele>412.52206420898</ele>
        <time>2010-10-03T05:07:17Z</time>
      </trkpt>
      <trkpt lat="45.94131" lon="1.32419">
        <ele>412.76739501953</ele>
        <time>2010-10-03T05:07:23Z</time>
      </trkpt>
      <trkpt lat="45.94134" lon="1.32437">
        <ele>411.96322631836</ele>
        <time>2010-10-03T05:07:31Z</time>
      </trkpt>
      <trkpt lat="45.94139" lon="1.32453">
        <ele>411.26928710938</ele>
        <time>2010-10-03T05:07:39Z</time>
      </trkpt>
      <trkpt lat="45.94142" lon="1.32468">
        <ele>410.56018066406</ele>
        <time>2010-10-03T05:07:44Z</time>
      </trkpt>
      <trkpt lat="45.94146" lon="1.32481">
        <ele>409.87789916992</ele>
        <time>2010-10-03T05:07:49Z</time>
      </trkpt>
      <trkpt lat="45.94151" lon="1.32494">
        <ele>409.16729736328</ele>
        <time>2010-10-03T05:07:54Z</time>
      </trkpt>
      <trkpt lat="45.94157" lon="1.32512">
        <ele>407.42578125</ele>
        <time>2010-10-03T05:08:01Z</time>
      </trkpt>
      <trkpt lat="45.94158" lon="1.32518">
        <ele>406.74172973633</ele>
        <time>2010-10-03T05:08:03Z</time>
      </trkpt>
      <trkpt lat="45.94162" lon="1.3253">
        <ele>405.32266235352</ele>
        <time>2010-10-03T05:08:07Z</time>
      </trkpt>
      <trkpt lat="45.94165" lon="1.32549">
        <ele>403.14514160156</ele>
        <time>2010-10-03T05:08:13Z</time>
      </trkpt>
      <trkpt lat="45.94169" lon="1.32565">
        <ele>401.02133178711</ele>
        <time>2010-10-03T05:08:19Z</time>
      </trkpt>
      <trkpt lat="45.94173" lon="1.32581">
        <ele>398.82791137695</ele>
        <time>2010-10-03T05:08:25Z</time>
      </trkpt>
      <trkpt lat="45.94175" lon="1.32595">
        <ele>397.47970581055</ele>
        <time>2010-10-03T05:08:30Z</time>
      </trkpt>
      <trkpt lat="45.94176" lon="1.3261">
        <ele>396.1891784668</ele>
        <time>2010-10-03T05:08:35Z</time>
      </trkpt>
      <trkpt lat="45.94178" lon="1.32633">
        <ele>394.31979370117</ele>
        <time>2010-10-03T05:08:42Z</time>
      </trkpt>
      <trkpt lat="45.94179" lon="1.32647">
        <ele>393.10601806641</ele>
        <time>2010-10-03T05:08:47Z</time>
      </trkpt>
      <trkpt lat="45.94174" lon="1.3266">
        <ele>392.64205932617</ele>
        <time>2010-10-03T05:08:52Z</time>
      </trkpt>
      <trkpt lat="45.94168" lon="1.3266">
        <ele>393.32977294922</ele>
        <time>2010-10-03T05:08:56Z</time>
      </trkpt>
      <trkpt lat="45.94156" lon="1.32654">
        <ele>393.67349243164</ele>
        <time>2010-10-03T05:09:03Z</time>
      </trkpt>
      <trkpt lat="45.94141" lon="1.32649">
        <ele>393.72381591797</ele>
        <time>2010-10-03T05:09:10Z</time>
      </trkpt>
      <trkpt lat="45.94127" lon="1.32645">
        <ele>393.72180175781</ele>
        <time>2010-10-03T05:09:16Z</time>
      </trkpt>
      <trkpt lat="45.94115" lon="1.32644">
        <ele>393.58810424805</ele>
        <time>2010-10-03T05:09:21Z</time>
      </trkpt>
      <trkpt lat="45.94107" lon="1.32645">
        <ele>393.31033325195</ele>
        <time>2010-10-03T05:09:25Z</time>
      </trkpt>
      <trkpt lat="45.941" lon="1.32647">
        <ele>392.96975708008</ele>
        <time>2010-10-03T05:09:28Z</time>
      </trkpt>
      <trkpt lat="45.94101" lon="1.32661">
        <ele>391.88278198242</ele>
        <time>2010-10-03T05:09:33Z</time>
      </trkpt>
      <trkpt lat="45.94104" lon="1.32667">
        <ele>391.48245239258</ele>
        <time>2010-10-03T05:09:35Z</time>
      </trkpt>
      <trkpt lat="45.94111" lon="1.32677">
        <ele>391.10745239258</ele>
        <time>2010-10-03T05:09:41Z</time>
      </trkpt>
      <trkpt lat="45.94117" lon="1.32686">
        <ele>390.78103637695</ele>
        <time>2010-10-03T05:09:46Z</time>
      </trkpt>
      <trkpt lat="45.94123" lon="1.32698">
        <ele>390.29724121094</ele>
        <time>2010-10-03T05:09:52Z</time>
      </trkpt>
      <trkpt lat="45.94132" lon="1.3271">
        <ele>389.79217529297</ele>
        <time>2010-10-03T05:10:00Z</time>
      </trkpt>
      <trkpt lat="45.94139" lon="1.32719">
        <ele>389.38293457031</ele>
        <time>2010-10-03T05:10:06Z</time>
      </trkpt>
      <trkpt lat="45.94144" lon="1.32729">
        <ele>388.90512084961</ele>
        <time>2010-10-03T05:10:12Z</time>
      </trkpt>
      <trkpt lat="45.94149" lon="1.32735">
        <ele>388.61993408203</ele>
        <time>2010-10-03T05:10:17Z</time>
      </trkpt>
      <trkpt lat="45.94155" lon="1.32741">
        <ele>388.41510009766</ele>
        <time>2010-10-03T05:10:22Z</time>
      </trkpt>
      <trkpt lat="45.94165" lon="1.32744">
        <ele>388.31265258789</ele>
        <time>2010-10-03T05:10:28Z</time>
      </trkpt>
      <trkpt lat="45.9418" lon="1.32743">
        <ele>386.58450317383</ele>
        <time>2010-10-03T05:10:37Z</time>
      </trkpt>
      <trkpt lat="45.94193" lon="1.32734">
        <ele>385.22616577148</ele>
        <time>2010-10-03T05:10:44Z</time>
      </trkpt>
      <trkpt lat="45.94208" lon="1.32722">
        <ele>384.10140991211</ele>
        <time>2010-10-03T05:10:51Z</time>
      </trkpt>
      <trkpt lat="45.94236" lon="1.32694">
        <ele>382.50729370117</ele>
        <time>2010-10-03T05:11:05Z</time>
      </trkpt>
      <trkpt lat="45.94249" lon="1.32684">
        <ele>381.72897338867</ele>
        <time>2010-10-03T05:11:11Z</time>
      </trkpt>
      <trkpt lat="45.94263" lon="1.32676">
        <ele>380.81866455078</ele>
        <time>2010-10-03T05:11:17Z</time>
      </trkpt>
      <trkpt lat="45.94277" lon="1.3267">
        <ele>379.88320922852</ele>
        <time>2010-10-03T05:11:23Z</time>
      </trkpt>
      <trkpt lat="45.94281" lon="1.32666">
        <ele>379.69204711914</ele>
        <time>2010-10-03T05:11:26Z</time>
      </trkpt>
      <trkpt lat="45.94281" lon="1.32662">
        <ele>380.11206054688</ele>
        <time>2010-10-03T05:11:28Z</time>
      </trkpt>
      <trkpt lat="45.9428" lon="1.32658">
        <ele>380.5065612793</ele>
        <time>2010-10-03T05:11:30Z</time>
      </trkpt>
      <trkpt lat="45.94273" lon="1.32655">
        <ele>381.64678955078</ele>
        <time>2010-10-03T05:11:37Z</time>
      </trkpt>
      <trkpt lat="45.94267" lon="1.32653">
        <ele>382.533203125</ele>
        <time>2010-10-03T05:11:44Z</time>
      </trkpt>
      <trkpt lat="45.94263" lon="1.32653">
        <ele>383.06314086914</ele>
        <time>2010-10-03T05:11:47Z</time>
      </trkpt>
      <trkpt lat="45.94256" lon="1.32653">
        <ele>383.95971679688</ele>
        <time>2010-10-03T05:11:54Z</time>
      </trkpt>
      <trkpt lat="45.9425" lon="1.32653">
        <ele>384.60739135742</ele>
        <time>2010-10-03T05:12:00Z</time>
      </trkpt>
      <trkpt lat="45.94245" lon="1.32653">
        <ele>385.16613769531</ele>
        <time>2010-10-03T05:12:06Z</time>
      </trkpt>
      <trkpt lat="45.94238" lon="1.32657">
        <ele>385.49520874023</ele>
        <time>2010-10-03T05:12:13Z</time>
      </trkpt>
      <trkpt lat="45.94233" lon="1.3266">
        <ele>385.7912902832</ele>
        <time>2010-10-03T05:12:18Z</time>
      </trkpt>
      <trkpt lat="45.94226" lon="1.32656">
        <ele>387.01373291016</ele>
        <time>2010-10-03T05:12:24Z</time>
      </trkpt>
      <trkpt lat="45.94226" lon="1.32655">
        <ele>387.15710449219</ele>
        <time>2010-10-03T05:12:25Z</time>
      </trkpt>
      <trkpt lat="45.94226" lon="1.32652">
        <ele>387.5085144043</ele>
        <time>2010-10-03T05:12:27Z</time>
      </trkpt>
      <trkpt lat="45.94231" lon="1.3264">
        <ele>388.15432739258</ele>
        <time>2010-10-03T05:12:34Z</time>
      </trkpt>
      <trkpt lat="45.94234" lon="1.32636">
        <ele>388.30419921875</ele>
        <time>2010-10-03T05:12:38Z</time>
      </trkpt>
      <trkpt lat="45.94242" lon="1.32631">
        <ele>388.16128540039</ele>
        <time>2010-10-03T05:12:43Z</time>
      </trkpt>
      <trkpt lat="45.9425" lon="1.32619">
        <ele>388.61157226562</ele>
        <time>2010-10-03T05:12:50Z</time>
      </trkpt>
      <trkpt lat="45.9426" lon="1.32606">
        <ele>388.64199829102</ele>
        <time>2010-10-03T05:12:56Z</time>
      </trkpt>
      <trkpt lat="45.94268" lon="1.32597">
        <ele>388.37075805664</ele>
        <time>2010-10-03T05:13:01Z</time>
      </trkpt>
      <trkpt lat="45.94272" lon="1.32587">
        <ele>388.62106323242</ele>
        <time>2010-10-03T05:13:05Z</time>
      </trkpt>
      <trkpt lat="45.9428" lon="1.3258">
        <ele>388.00573730469</ele>
        <time>2010-10-03T05:13:10Z</time>
      </trkpt>
      <trkpt lat="45.94288" lon="1.32574">
        <ele>387.46478271484</ele>
        <time>2010-10-03T05:13:14Z</time>
      </trkpt>
      <trkpt lat="45.94295" lon="1.32568">
        <ele>387.12902832031</ele>
        <time>2010-10-03T05:13:19Z</time>
      </trkpt>
      <trkpt lat="45.94296" lon="1.32566">
        <ele>387.27264404297</ele>
        <time>2010-10-03T05:13:21Z</time>
      </trkpt>
      <trkpt lat="45.9431" lon="1.32554">
        <ele>386.81369018555</ele>
        <time>2010-10-03T05:13:28Z</time>
      </trkpt>
      <trkpt lat="45.94318" lon="1.32552">
        <ele>385.87481689453</ele>
        <time>2010-10-03T05:13:32Z</time>
      </trkpt>
      <trkpt lat="45.94333" lon="1.32549">
        <ele>384.23718261719</ele>
        <time>2010-10-03T05:13:38Z</time>
      </trkpt>
      <trkpt lat="45.94343" lon="1.32547">
        <ele>384.33410644531</ele>
        <time>2010-10-03T05:13:43Z</time>
      </trkpt>
      <trkpt lat="45.94354" lon="1.32543">
        <ele>384.72467041016</ele>
        <time>2010-10-03T05:13:47Z</time>
      </trkpt>
      <trkpt lat="45.94369" lon="1.32541">
        <ele>384.82073974609</ele>
        <time>2010-10-03T05:13:53Z</time>
      </trkpt>
      <trkpt lat="45.94376" lon="1.32537">
        <ele>385.23965454102</ele>
        <time>2010-10-03T05:13:57Z</time>
      </trkpt>
      <trkpt lat="45.94384" lon="1.32534">
        <ele>385.64044189453</ele>
        <time>2010-10-03T05:14:03Z</time>
      </trkpt>
      <trkpt lat="45.94391" lon="1.32533">
        <ele>385.49624633789</ele>
        <time>2010-10-03T05:14:05Z</time>
      </trkpt>
      <trkpt lat="45.94399" lon="1.3253">
        <ele>385.84454345703</ele>
        <time>2010-10-03T05:14:12Z</time>
      </trkpt>
      <trkpt lat="45.94403" lon="1.32529">
        <ele>385.87710571289</ele>
        <time>2010-10-03T05:14:14Z</time>
      </trkpt>
      <trkpt lat="45.94406" lon="1.32528">
        <ele>385.90368652344</ele>
        <time>2010-10-03T05:14:17Z</time>
      </trkpt>
      <trkpt lat="45.94409" lon="1.32526">
        <ele>386.17144775391</ele>
        <time>2010-10-03T05:14:20Z</time>
      </trkpt>
      <trkpt lat="45.94416" lon="1.32524">
        <ele>386.32403564453</ele>
        <time>2010-10-03T05:14:25Z</time>
      </trkpt>
      <trkpt lat="45.94434" lon="1.32516">
        <ele>386.99395751953</ele>
        <time>2010-10-03T05:14:32Z</time>
      </trkpt>
      <trkpt lat="45.94448" lon="1.3251">
        <ele>387.47903442383</ele>
        <time>2010-10-03T05:14:38Z</time>
      </trkpt>
      <trkpt lat="45.94465" lon="1.3251">
        <ele>387.14300537109</ele>
        <time>2010-10-03T05:14:44Z</time>
      </trkpt>
      <trkpt lat="45.94482" lon="1.32514">
        <ele>385.87582397461</ele>
        <time>2010-10-03T05:14:51Z</time>
      </trkpt>
      <trkpt lat="45.94492" lon="1.32517">
        <ele>385.00750732422</ele>
        <time>2010-10-03T05:14:57Z</time>
      </trkpt>
      <trkpt lat="45.94504" lon="1.32517">
        <ele>384.68319702148</ele>
        <time>2010-10-03T05:15:02Z</time>
      </trkpt>
      <trkpt lat="45.94518" lon="1.32517">
        <ele>384.86337280273</ele>
        <time>2010-10-03T05:15:08Z</time>
      </trkpt>
      <trkpt lat="45.94528" lon="1.3251">
        <ele>386.22360229492</ele>
        <time>2010-10-03T05:15:14Z</time>
      </trkpt>
      <trkpt lat="45.94537" lon="1.32502">
        <ele>387.58596801758</ele>
        <time>2010-10-03T05:15:19Z</time>
      </trkpt>
      <trkpt lat="45.94551" lon="1.32493">
        <ele>390.00592041016</ele>
        <time>2010-10-03T05:15:26Z</time>
      </trkpt>
      <trkpt lat="45.94553" lon="1.32491">
        <ele>390.40582275391</ele>
        <time>2010-10-03T05:15:27Z</time>
      </trkpt>
      <trkpt lat="45.94559" lon="1.32485">
        <ele>392.19125366211</ele>
        <time>2010-10-03T05:15:31Z</time>
      </trkpt>
      <trkpt lat="45.94577" lon="1.32485">
        <ele>392.37451171875</ele>
        <time>2010-10-03T05:15:38Z</time>
      </trkpt>
      <trkpt lat="45.94592" lon="1.32487">
        <ele>391.75592041016</ele>
        <time>2010-10-03T05:15:43Z</time>
      </trkpt>
      <trkpt lat="45.94603" lon="1.3249">
        <ele>390.79098510742</ele>
        <time>2010-10-03T05:15:49Z</time>
      </trkpt>
      <trkpt lat="45.94612" lon="1.32491">
        <ele>390.34744262695</ele>
        <time>2010-10-03T05:15:53Z</time>
      </trkpt>
      <trkpt lat="45.94629" lon="1.32494">
        <ele>389.65658569336</ele>
        <time>2010-10-03T05:15:59Z</time>
      </trkpt>
      <trkpt lat="45.94641" lon="1.32499">
        <ele>388.29959106445</ele>
        <time>2010-10-03T05:16:05Z</time>
      </trkpt>
      <trkpt lat="45.94653" lon="1.32502">
        <ele>387.72183227539</ele>
        <time>2010-10-03T05:16:10Z</time>
      </trkpt>
      <trkpt lat="45.94665" lon="1.32505">
        <ele>387.42190551758</ele>
        <time>2010-10-03T05:16:15Z</time>
      </trkpt>
      <trkpt lat="45.94674" lon="1.32509">
        <ele>387.15756225586</ele>
        <time>2010-10-03T05:16:20Z</time>
      </trkpt>
      <trkpt lat="45.94687" lon="1.32515">
        <ele>386.86993408203</ele>
        <time>2010-10-03T05:16:25Z</time>
      </trkpt>
      <trkpt lat="45.94692" lon="1.32516">
        <ele>386.84475708008</ele>
        <time>2010-10-03T05:16:27Z</time>
      </trkpt>
      <trkpt lat="45.94696" lon="1.32517">
        <ele>386.8489074707</ele>
        <time>2010-10-03T05:16:30Z</time>
      </trkpt>
      <trkpt lat="45.94699" lon="1.32519">
        <ele>386.82723999023</ele>
        <time>2010-10-03T05:16:32Z</time>
      </trkpt>
      <trkpt lat="45.94708" lon="1.32526">
        <ele>386.47845458984</ele>
        <time>2010-10-03T05:16:39Z</time>
      </trkpt>
      <trkpt lat="45.94711" lon="1.32527">
        <ele>386.45077514648</ele>
        <time>2010-10-03T05:16:42Z</time>
      </trkpt>
      <trkpt lat="45.94724" lon="1.32531">
        <ele>386.59094238281</ele>
        <time>2010-10-03T05:16:49Z</time>
      </trkpt>
      <trkpt lat="45.94739" lon="1.32534">
        <ele>386.94543457031</ele>
        <time>2010-10-03T05:16:57Z</time>
      </trkpt>
      <trkpt lat="45.94748" lon="1.32538">
        <ele>387.09893798828</ele>
        <time>2010-10-03T05:17:03Z</time>
      </trkpt>
      <trkpt lat="45.94755" lon="1.32541">
        <ele>387.45086669922</ele>
        <time>2010-10-03T05:17:07Z</time>
      </trkpt>
      <trkpt lat="45.94762" lon="1.32545">
        <ele>387.75317382812</ele>
        <time>2010-10-03T05:17:12Z</time>
      </trkpt>
      <trkpt lat="45.94764" lon="1.32546">
        <ele>387.8059387207</ele>
        <time>2010-10-03T05:17:13Z</time>
      </trkpt>
      <trkpt lat="45.94769" lon="1.3255">
        <ele>387.95010375977</ele>
        <time>2010-10-03T05:17:18Z</time>
      </trkpt>
      <trkpt lat="45.94776" lon="1.32552">
        <ele>388.37384033203</ele>
        <time>2010-10-03T05:17:22Z</time>
      </trkpt>
      <trkpt lat="45.94784" lon="1.32554">
        <ele>388.76898193359</ele>
        <time>2010-10-03T05:17:26Z</time>
      </trkpt>
      <trkpt lat="45.94791" lon="1.32556">
        <ele>389.05966186523</ele>
        <time>2010-10-03T05:17:29Z</time>
      </trkpt>
      <trkpt lat="45.94798" lon="1.3256">
        <ele>389.18319702148</ele>
        <time>2010-10-03T05:17:35Z</time>
      </trkpt>
      <trkpt lat="45.94799" lon="1.32561">
        <ele>389.24865722656</ele>
        <time>2010-10-03T05:17:36Z</time>
      </trkpt>
      <trkpt lat="45.94805" lon="1.32562">
        <ele>389.51940917969</ele>
        <time>2010-10-03T05:17:40Z</time>
      </trkpt>
      <trkpt lat="45.94812" lon="1.32561">
        <ele>390.08288574219</ele>
        <time>2010-10-03T05:17:45Z</time>
      </trkpt>
      <trkpt lat="45.9482" lon="1.32557">
        <ele>390.96545410156</ele>
        <time>2010-10-03T05:17:52Z</time>
      </trkpt>
      <trkpt lat="45.94835" lon="1.32552">
        <ele>392.49383544922</ele>
        <time>2010-10-03T05:17:59Z</time>
      </trkpt>
      <trkpt lat="45.94837" lon="1.32551">
        <ele>392.94976806641</ele>
        <time>2010-10-03T05:18:01Z</time>
      </trkpt>
      <trkpt lat="45.94844" lon="1.32546">
        <ele>394.22338867188</ele>
        <time>2010-10-03T05:18:05Z</time>
      </trkpt>
      <trkpt lat="45.94851" lon="1.32542">
        <ele>395.38452148438</ele>
        <time>2010-10-03T05:18:11Z</time>
      </trkpt>
      <trkpt lat="45.9486" lon="1.32541">
        <ele>396.52328491211</ele>
        <time>2010-10-03T05:18:17Z</time>
      </trkpt>
      <trkpt lat="45.94869" lon="1.32539">
        <ele>397.6350402832</ele>
        <time>2010-10-03T05:18:23Z</time>
      </trkpt>
      <trkpt lat="45.94876" lon="1.32537">
        <ele>398.64627075195</ele>
        <time>2010-10-03T05:18:28Z</time>
      </trkpt>
      <trkpt lat="45.94884" lon="1.32538">
        <ele>399.4499206543</ele>
        <time>2010-10-03T05:18:33Z</time>
      </trkpt>
      <trkpt lat="45.94888" lon="1.32538">
        <ele>399.85247802734</ele>
        <time>2010-10-03T05:18:36Z</time>
      </trkpt>
      <trkpt lat="45.94898" lon="1.32535">
        <ele>401.3567199707</ele>
        <time>2010-10-03T05:18:44Z</time>
      </trkpt>
      <trkpt lat="45.94901" lon="1.32535">
        <ele>401.68673706055</ele>
        <time>2010-10-03T05:18:45Z</time>
      </trkpt>
      <trkpt lat="45.94904" lon="1.32534">
        <ele>402.10125732422</ele>
        <time>2010-10-03T05:18:47Z</time>
      </trkpt>
      <trkpt lat="45.94912" lon="1.32535">
        <ele>402.84777832031</ele>
        <time>2010-10-03T05:18:53Z</time>
      </trkpt>
      <trkpt lat="45.94913" lon="1.32535">
        <ele>402.96719360352</ele>
        <time>2010-10-03T05:18:55Z</time>
      </trkpt>
      <trkpt lat="45.94922" lon="1.32537">
        <ele>403.52313232422</ele>
        <time>2010-10-03T05:19:00Z</time>
      </trkpt>
      <trkpt lat="45.9493" lon="1.32542">
        <ele>403.53527832031</ele>
        <time>2010-10-03T05:19:05Z</time>
      </trkpt>
      <trkpt lat="45.94942" lon="1.32548">
        <ele>403.7200012207</ele>
        <time>2010-10-03T05:19:12Z</time>
      </trkpt>
      <trkpt lat="45.94954" lon="1.32556">
        <ele>403.92218017578</ele>
        <time>2010-10-03T05:19:19Z</time>
      </trkpt>
      <trkpt lat="45.9496" lon="1.32562">
        <ele>403.853515625</ele>
        <time>2010-10-03T05:19:23Z</time>
      </trkpt>
      <trkpt lat="45.94972" lon="1.32572">
        <ele>404.03170776367</ele>
        <time>2010-10-03T05:19:30Z</time>
      </trkpt>
      <trkpt lat="45.94982" lon="1.32579">
        <ele>404.37786865234</ele>
        <time>2010-10-03T05:19:36Z</time>
      </trkpt>
      <trkpt lat="45.94989" lon="1.32587">
        <ele>404.34020996094</ele>
        <time>2010-10-03T05:19:42Z</time>
      </trkpt>
      <trkpt lat="45.94995" lon="1.32594">
        <ele>403.88348388672</ele>
        <time>2010-10-03T05:19:48Z</time>
      </trkpt>
      <trkpt lat="45.95003" lon="1.32605">
        <ele>402.53625488281</ele>
        <time>2010-10-03T05:19:55Z</time>
      </trkpt>
      <trkpt lat="45.95009" lon="1.32616">
        <ele>400.556640625</ele>
        <time>2010-10-03T05:20:01Z</time>
      </trkpt>
      <trkpt lat="45.95017" lon="1.32636">
        <ele>396.90515136719</ele>
        <time>2010-10-03T05:20:10Z</time>
      </trkpt>
      <trkpt lat="45.95025" lon="1.32657">
        <ele>393.05426025391</ele>
        <time>2010-10-03T05:20:18Z</time>
      </trkpt>
      <trkpt lat="45.95033" lon="1.32675">
        <ele>390.51553344727</ele>
        <time>2010-10-03T05:20:25Z</time>
      </trkpt>
      <trkpt lat="45.95039" lon="1.32687">
        <ele>389.59411621094</ele>
        <time>2010-10-03T05:20:30Z</time>
      </trkpt>
      <trkpt lat="45.95045" lon="1.32701">
        <ele>388.73641967773</ele>
        <time>2010-10-03T05:20:35Z</time>
      </trkpt>
      <trkpt lat="45.9505" lon="1.32712">
        <ele>388.09106445312</ele>
        <time>2010-10-03T05:20:39Z</time>
      </trkpt>
      <trkpt lat="45.95058" lon="1.32724">
        <ele>387.35678100586</ele>
        <time>2010-10-03T05:20:44Z</time>
      </trkpt>
      <trkpt lat="45.95066" lon="1.32733">
        <ele>386.81726074219</ele>
        <time>2010-10-03T05:20:49Z</time>
      </trkpt>
      <trkpt lat="45.9508" lon="1.32739">
        <ele>386.15490722656</ele>
        <time>2010-10-03T05:20:55Z</time>
      </trkpt>
      <trkpt lat="45.95092" lon="1.32743">
        <ele>385.38388061523</ele>
        <time>2010-10-03T05:21:01Z</time>
      </trkpt>
      <trkpt lat="45.95103" lon="1.32748">
        <ele>384.58505249023</ele>
        <time>2010-10-03T05:21:06Z</time>
      </trkpt>
      <trkpt lat="45.9512" lon="1.32754">
        <ele>383.5383605957</ele>
        <time>2010-10-03T05:21:13Z</time>
      </trkpt>
      <trkpt lat="45.9513" lon="1.32757">
        <ele>382.87911987305</ele>
        <time>2010-10-03T05:21:18Z</time>
      </trkpt>
      <trkpt lat="45.95144" lon="1.3276">
        <ele>381.83764648438</ele>
        <time>2010-10-03T05:21:24Z</time>
      </trkpt>
      <trkpt lat="45.95158" lon="1.32766">
        <ele>380.72613525391</ele>
        <time>2010-10-03T05:21:30Z</time>
      </trkpt>
      <trkpt lat="45.95172" lon="1.32775">
        <ele>380.30136108398</ele>
        <time>2010-10-03T05:21:36Z</time>
      </trkpt>
      <trkpt lat="45.95184" lon="1.32787">
        <ele>381.03341674805</ele>
        <time>2010-10-03T05:21:43Z</time>
      </trkpt>
      <trkpt lat="45.95193" lon="1.32793">
        <ele>381.57138061523</ele>
        <time>2010-10-03T05:21:48Z</time>
      </trkpt>
      <trkpt lat="45.95205" lon="1.328">
        <ele>382.36337280273</ele>
        <time>2010-10-03T05:21:54Z</time>
      </trkpt>
      <trkpt lat="45.95211" lon="1.32803">
        <ele>382.83081054688</ele>
        <time>2010-10-03T05:21:58Z</time>
      </trkpt>
      <trkpt lat="45.95216" lon="1.32806">
        <ele>383.19354248047</ele>
        <time>2010-10-03T05:22:01Z</time>
      </trkpt>
      <trkpt lat="45.95226" lon="1.32808">
        <ele>383.86334228516</ele>
        <time>2010-10-03T05:22:07Z</time>
      </trkpt>
      <trkpt lat="45.95234" lon="1.32806">
        <ele>384.33578491211</ele>
        <time>2010-10-03T05:22:11Z</time>
      </trkpt>
      <trkpt lat="45.9524" lon="1.32796">
        <ele>384.5026550293</ele>
        <time>2010-10-03T05:22:18Z</time>
      </trkpt>
      <trkpt lat="45.95242" lon="1.32793">
        <ele>384.52432250977</ele>
        <time>2010-10-03T05:22:21Z</time>
      </trkpt>
      <trkpt lat="45.95249" lon="1.32785">
        <ele>384.78067016602</ele>
        <time>2010-10-03T05:22:28Z</time>
      </trkpt>
      <trkpt lat="45.95252" lon="1.32783">
        <ele>385.15292358398</ele>
        <time>2010-10-03T05:22:31Z</time>
      </trkpt>
      <trkpt lat="45.95257" lon="1.32777">
        <ele>386.02868652344</ele>
        <time>2010-10-03T05:22:36Z</time>
      </trkpt>
      <trkpt lat="45.95264" lon="1.32767">
        <ele>387.11654663086</ele>
        <time>2010-10-03T05:22:42Z</time>
      </trkpt>
      <trkpt lat="45.95269" lon="1.32759">
        <ele>387.79769897461</ele>
        <time>2010-10-03T05:22:47Z</time>
      </trkpt>
      <trkpt lat="45.9528" lon="1.32749">
        <ele>389.40084838867</ele>
        <time>2010-10-03T05:22:53Z</time>
      </trkpt>
      <trkpt lat="45.95288" lon="1.32744">
        <ele>390.69427490234</ele>
        <time>2010-10-03T05:22:58Z</time>
      </trkpt>
      <trkpt lat="45.95293" lon="1.32737">
        <ele>391.26489257812</ele>
        <time>2010-10-03T05:23:02Z</time>
      </trkpt>
      <trkpt lat="45.95294" lon="1.3273">
        <ele>391.31951904297</ele>
        <time>2010-10-03T05:23:06Z</time>
      </trkpt>
      <trkpt lat="45.95294" lon="1.32729">
        <ele>391.20819091797</ele>
        <time>2010-10-03T05:23:07Z</time>
      </trkpt>
      <trkpt lat="45.95296" lon="1.32709">
        <ele>390.88088989258</ele>
        <time>2010-10-03T05:23:15Z</time>
      </trkpt>
      <trkpt lat="45.95297" lon="1.32697">
        <ele>390.70874023438</ele>
        <time>2010-10-03T05:23:19Z</time>
      </trkpt>
      <trkpt lat="45.95301" lon="1.32676">
        <ele>390.46868896484</ele>
        <time>2010-10-03T05:23:26Z</time>
      </trkpt>
      <trkpt lat="45.95303" lon="1.3266">
        <ele>391.11795043945</ele>
        <time>2010-10-03T05:23:31Z</time>
      </trkpt>
      <trkpt lat="45.95307" lon="1.32648">
        <ele>392.85394287109</ele>
        <time>2010-10-03T05:23:35Z</time>
      </trkpt>
      <trkpt lat="45.9531" lon="1.32636">
        <ele>394.5969543457</ele>
        <time>2010-10-03T05:23:39Z</time>
      </trkpt>
      <trkpt lat="45.95312" lon="1.32619">
        <ele>396.84756469727</ele>
        <time>2010-10-03T05:23:45Z</time>
      </trkpt>
      <trkpt lat="45.95309" lon="1.32604">
        <ele>398.04977416992</ele>
        <time>2010-10-03T05:23:50Z</time>
      </trkpt>
      <trkpt lat="45.95307" lon="1.32593">
        <ele>398.91201782227</ele>
        <time>2010-10-03T05:23:55Z</time>
      </trkpt>
      <trkpt lat="45.95306" lon="1.32583">
        <ele>399.75244140625</ele>
        <time>2010-10-03T05:24:00Z</time>
      </trkpt>
      <trkpt lat="45.95301" lon="1.3257">
        <ele>400.67095947266</ele>
        <time>2010-10-03T05:24:05Z</time>
      </trkpt>
      <trkpt lat="45.95293" lon="1.32556">
        <ele>400.95123291016</ele>
        <time>2010-10-03T05:24:12Z</time>
      </trkpt>
      <trkpt lat="45.95287" lon="1.32547">
        <ele>401.1282043457</ele>
        <time>2010-10-03T05:24:17Z</time>
      </trkpt>
      <trkpt lat="45.95279" lon="1.32536">
        <ele>400.91836547852</ele>
        <time>2010-10-03T05:24:23Z</time>
      </trkpt>
      <trkpt lat="45.95274" lon="1.32528">
        <ele>401.0041809082</ele>
        <time>2010-10-03T05:24:27Z</time>
      </trkpt>
      <trkpt lat="45.95271" lon="1.32517">
        <ele>402.08901977539</ele>
        <time>2010-10-03T05:24:33Z</time>
      </trkpt>
      <trkpt lat="45.9527" lon="1.32511">
        <ele>402.58679199219</ele>
        <time>2010-10-03T05:24:37Z</time>
      </trkpt>
      <trkpt lat="45.95267" lon="1.32501">
        <ele>403.3525390625</ele>
        <time>2010-10-03T05:24:43Z</time>
      </trkpt>
      <trkpt lat="45.95264" lon="1.3249">
        <ele>403.38171386719</ele>
        <time>2010-10-03T05:24:49Z</time>
      </trkpt>
      <trkpt lat="45.95264" lon="1.32487">
        <ele>403.46441650391</ele>
        <time>2010-10-03T05:24:51Z</time>
      </trkpt>
      <trkpt lat="45.95261" lon="1.32474">
        <ele>403.45086669922</ele>
        <time>2010-10-03T05:24:59Z</time>
      </trkpt>
      <trkpt lat="45.95259" lon="1.32459">
        <ele>403.95043945312</ele>
        <time>2010-10-03T05:25:05Z</time>
      </trkpt>
      <trkpt lat="45.95259" lon="1.32446">
        <ele>404.66012573242</ele>
        <time>2010-10-03T05:25:11Z</time>
      </trkpt>
      <trkpt lat="45.95261" lon="1.32439">
        <ele>405.16500854492</ele>
        <time>2010-10-03T05:25:14Z</time>
      </trkpt>
      <trkpt lat="45.95266" lon="1.32423">
        <ele>406.63421630859</ele>
        <time>2010-10-03T05:25:21Z</time>
      </trkpt>
      <trkpt lat="45.95277" lon="1.32411">
        <ele>407.8310546875</ele>
        <time>2010-10-03T05:25:27Z</time>
      </trkpt>
      <trkpt lat="45.95282" lon="1.32405">
        <ele>407.86166381836</ele>
        <time>2010-10-03T05:25:31Z</time>
      </trkpt>
      <trkpt lat="45.95282" lon="1.32396">
        <ele>407.25048828125</ele>
        <time>2010-10-03T05:25:35Z</time>
      </trkpt>
      <trkpt lat="45.95289" lon="1.32383">
        <ele>406.88955688477</ele>
        <time>2010-10-03T05:25:42Z</time>
      </trkpt>
      <trkpt lat="45.95289" lon="1.32381">
        <ele>406.77828979492</ele>
        <time>2010-10-03T05:25:43Z</time>
      </trkpt>
      <trkpt lat="45.95291" lon="1.32376">
        <ele>406.49633789062</ele>
        <time>2010-10-03T05:25:46Z</time>
      </trkpt>
      <trkpt lat="45.95301" lon="1.32366">
        <ele>406.58767700195</ele>
        <time>2010-10-03T05:25:52Z</time>
      </trkpt>
      <trkpt lat="45.95309" lon="1.32357">
        <ele>406.47811889648</ele>
        <time>2010-10-03T05:25:57Z</time>
      </trkpt>
      <trkpt lat="45.9532" lon="1.32349">
        <ele>406.58074951172</ele>
        <time>2010-10-03T05:26:04Z</time>
      </trkpt>
      <trkpt lat="45.95333" lon="1.32345">
        <ele>407.25100708008</ele>
        <time>2010-10-03T05:26:10Z</time>
      </trkpt>
      <trkpt lat="45.95343" lon="1.32341">
        <ele>406.86184692383</ele>
        <time>2010-10-03T05:26:15Z</time>
      </trkpt>
      <trkpt lat="45.95349" lon="1.32339">
        <ele>406.6442565918</ele>
        <time>2010-10-03T05:26:18Z</time>
      </trkpt>
      <trkpt lat="45.95361" lon="1.32337">
        <ele>406.36358642578</ele>
        <time>2010-10-03T05:26:25Z</time>
      </trkpt>
      <trkpt lat="45.95365" lon="1.32336">
        <ele>406.29922485352</ele>
        <time>2010-10-03T05:26:27Z</time>
      </trkpt>
      <trkpt lat="45.95379" lon="1.32334">
        <ele>406.09194946289</ele>
        <time>2010-10-03T05:26:34Z</time>
      </trkpt>
      <trkpt lat="45.95387" lon="1.32333">
        <ele>405.99722290039</ele>
        <time>2010-10-03T05:26:37Z</time>
      </trkpt>
      <trkpt lat="45.95401" lon="1.32332">
        <ele>406.00369262695</ele>
        <time>2010-10-03T05:26:44Z</time>
      </trkpt>
      <trkpt lat="45.95411" lon="1.32331">
        <ele>406.01934814453</ele>
        <time>2010-10-03T05:26:49Z</time>
      </trkpt>
      <trkpt lat="45.95421" lon="1.3233">
        <ele>405.99523925781</ele>
        <time>2010-10-03T05:26:55Z</time>
      </trkpt>
      <trkpt lat="45.95427" lon="1.3233">
        <ele>405.91040039062</ele>
        <time>2010-10-03T05:26:58Z</time>
      </trkpt>
      <trkpt lat="45.95435" lon="1.32333">
        <ele>405.78094482422</ele>
        <time>2010-10-03T05:27:02Z</time>
      </trkpt>
      <trkpt lat="45.95443" lon="1.32332">
        <ele>405.70199584961</ele>
        <time>2010-10-03T05:27:06Z</time>
      </trkpt>
      <trkpt lat="45.95454" lon="1.32332">
        <ele>405.56610107422</ele>
        <time>2010-10-03T05:27:11Z</time>
      </trkpt>
      <trkpt lat="45.95457" lon="1.32332">
        <ele>405.53033447266</ele>
        <time>2010-10-03T05:27:12Z</time>
      </trkpt>
      <trkpt lat="45.95462" lon="1.32333">
        <ele>405.466796875</ele>
        <time>2010-10-03T05:27:14Z</time>
      </trkpt>
      <trkpt lat="45.95475" lon="1.32334">
        <ele>405.34664916992</ele>
        <time>2010-10-03T05:27:21Z</time>
      </trkpt>
      <trkpt lat="45.95477" lon="1.32334">
        <ele>405.35983276367</ele>
        <time>2010-10-03T05:27:22Z</time>
      </trkpt>
      <trkpt lat="45.95487" lon="1.32337">
        <ele>405.62063598633</ele>
        <time>2010-10-03T05:27:27Z</time>
      </trkpt>
      <trkpt lat="45.95493" lon="1.32338">
        <ele>405.63595581055</ele>
        <time>2010-10-03T05:27:30Z</time>
      </trkpt>
      <trkpt lat="45.95502" lon="1.32338">
        <ele>405.79483032227</ele>
        <time>2010-10-03T05:27:35Z</time>
      </trkpt>
      <trkpt lat="45.95508" lon="1.32336">
        <ele>406.01486206055</ele>
        <time>2010-10-03T05:27:39Z</time>
      </trkpt>
      <trkpt lat="45.95514" lon="1.32334">
        <ele>406.26049804688</ele>
        <time>2010-10-03T05:27:43Z</time>
      </trkpt>
      <trkpt lat="45.9552" lon="1.32329">
        <ele>406.62890625</ele>
        <time>2010-10-03T05:27:48Z</time>
      </trkpt>
      <trkpt lat="45.95536" lon="1.3233">
        <ele>407.93295288086</ele>
        <time>2010-10-03T05:27:55Z</time>
      </trkpt>
      <trkpt lat="45.95546" lon="1.32331">
        <ele>408.8078918457</ele>
        <time>2010-10-03T05:28:00Z</time>
      </trkpt>
      <trkpt lat="45.95555" lon="1.32331">
        <ele>409.59158325195</ele>
        <time>2010-10-03T05:28:05Z</time>
      </trkpt>
      <trkpt lat="45.9556" lon="1.32334">
        <ele>410.12768554688</ele>
        <time>2010-10-03T05:28:08Z</time>
      </trkpt>
      <trkpt lat="45.95565" lon="1.32338">
        <ele>411.08432006836</ele>
        <time>2010-10-03T05:28:12Z</time>
      </trkpt>
      <trkpt lat="45.95572" lon="1.32346">
        <ele>412.50387573242</ele>
        <time>2010-10-03T05:28:19Z</time>
      </trkpt>
      <trkpt lat="45.95573" lon="1.32346">
        <ele>412.69360351562</ele>
        <time>2010-10-03T05:28:20Z</time>
      </trkpt>
      <trkpt lat="45.95577" lon="1.32356">
        <ele>414.18338012695</ele>
        <time>2010-10-03T05:28:28Z</time>
      </trkpt>
      <trkpt lat="45.95583" lon="1.32362">
        <ele>415.4489440918</ele>
        <time>2010-10-03T05:28:33Z</time>
      </trkpt>
      <trkpt lat="45.95591" lon="1.32367">
        <ele>416.65728759766</ele>
        <time>2010-10-03T05:28:38Z</time>
      </trkpt>
      <trkpt lat="45.95594" lon="1.32373">
        <ele>417.55624389648</ele>
        <time>2010-10-03T05:28:42Z</time>
      </trkpt>
      <trkpt lat="45.95599" lon="1.32381">
        <ele>418.77532958984</ele>
        <time>2010-10-03T05:28:48Z</time>
      </trkpt>
      <trkpt lat="45.95606" lon="1.3239">
        <ele>420.24819946289</ele>
        <time>2010-10-03T05:28:55Z</time>
      </trkpt>
      <trkpt lat="45.95607" lon="1.32399">
        <ele>421.24624633789</ele>
        <time>2010-10-03T05:29:00Z</time>
      </trkpt>
      <trkpt lat="45.95611" lon="1.32408">
        <ele>422.4485168457</ele>
        <time>2010-10-03T05:29:06Z</time>
      </trkpt>
      <trkpt lat="45.95618" lon="1.32415">
        <ele>423.46041870117</ele>
        <time>2010-10-03T05:29:11Z</time>
      </trkpt>
      <trkpt lat="45.95625" lon="1.32422">
        <ele>424.46466064453</ele>
        <time>2010-10-03T05:29:16Z</time>
      </trkpt>
      <trkpt lat="45.95634" lon="1.32435">
        <ele>425.94604492188</ele>
        <time>2010-10-03T05:29:24Z</time>
      </trkpt>
      <trkpt lat="45.95637" lon="1.3244">
        <ele>426.44027709961</ele>
        <time>2010-10-03T05:29:27Z</time>
      </trkpt>
      <trkpt lat="45.95639" lon="1.32446">
        <ele>426.98330688477</ele>
        <time>2010-10-03T05:29:31Z</time>
      </trkpt>
      <trkpt lat="45.95645" lon="1.32457">
        <ele>427.99072265625</ele>
        <time>2010-10-03T05:29:38Z</time>
      </trkpt>
      <trkpt lat="45.95648" lon="1.32466">
        <ele>428.75674438477</ele>
        <time>2010-10-03T05:29:44Z</time>
      </trkpt>
      <trkpt lat="45.95652" lon="1.32476">
        <ele>429.48706054688</ele>
        <time>2010-10-03T05:29:50Z</time>
      </trkpt>
      <trkpt lat="45.95657" lon="1.32488">
        <ele>430.31869506836</ele>
        <time>2010-10-03T05:29:58Z</time>
      </trkpt>
      <trkpt lat="45.95657" lon="1.3249">
        <ele>430.42199707031</ele>
        <time>2010-10-03T05:29:59Z</time>
      </trkpt>
      <trkpt lat="45.95658" lon="1.32501">
        <ele>431.14099121094</ele>
        <time>2010-10-03T05:30:05Z</time>
      </trkpt>
      <trkpt lat="45.95658" lon="1.32506">
        <ele>431.28372192383</ele>
        <time>2010-10-03T05:30:07Z</time>
      </trkpt>
      <trkpt lat="45.95652" lon="1.32523">
        <ele>431.9765625</ele>
        <time>2010-10-03T05:30:16Z</time>
      </trkpt>
      <trkpt lat="45.95648" lon="1.32535">
        <ele>432.55947875977</ele>
        <time>2010-10-03T05:30:23Z</time>
      </trkpt>
      <trkpt lat="45.95645" lon="1.32546">
        <ele>433.07315063477</ele>
        <time>2010-10-03T05:30:29Z</time>
      </trkpt>
      <trkpt lat="45.95642" lon="1.32559">
        <ele>433.78378295898</ele>
        <time>2010-10-03T05:30:37Z</time>
      </trkpt>
      <trkpt lat="45.95641" lon="1.32564">
        <ele>434.00708007812</ele>
        <time>2010-10-03T05:30:40Z</time>
      </trkpt>
      <trkpt lat="45.9564" lon="1.32569">
        <ele>434.2825012207</ele>
        <time>2010-10-03T05:30:43Z</time>
      </trkpt>
      <trkpt lat="45.95636" lon="1.32582">
        <ele>435.15948486328</ele>
        <time>2010-10-03T05:30:50Z</time>
      </trkpt>
      <trkpt lat="45.95633" lon="1.32593">
        <ele>435.57745361328</ele>
        <time>2010-10-03T05:30:56Z</time>
      </trkpt>
      <trkpt lat="45.9563" lon="1.32604">
        <ele>435.92852783203</ele>
        <time>2010-10-03T05:31:02Z</time>
      </trkpt>
      <trkpt lat="45.95627" lon="1.32617">
        <ele>436.27456665039</ele>
        <time>2010-10-03T05:31:09Z</time>
      </trkpt>
      <trkpt lat="45.95625" lon="1.32624">
        <ele>436.46966552734</ele>
        <time>2010-10-03T05:31:13Z</time>
      </trkpt>
      <trkpt lat="45.9562" lon="1.32641">
        <ele>437.08306884766</ele>
        <time>2010-10-03T05:31:21Z</time>
      </trkpt>
      <trkpt lat="45.95614" lon="1.32654">
        <ele>437.65100097656</ele>
        <time>2010-10-03T05:31:28Z</time>
      </trkpt>
      <trkpt lat="45.95608" lon="1.32667">
        <ele>438.23236083984</ele>
        <time>2010-10-03T05:31:35Z</time>
      </trkpt>
      <trkpt lat="45.95602" lon="1.3268">
        <ele>438.20397949219</ele>
        <time>2010-10-03T05:31:42Z</time>
      </trkpt>
      <trkpt lat="45.95598" lon="1.32689">
        <ele>438.154296875</ele>
        <time>2010-10-03T05:31:47Z</time>
      </trkpt>
      <trkpt lat="45.95593" lon="1.32699">
        <ele>438.01211547852</ele>
        <time>2010-10-03T05:31:53Z</time>
      </trkpt>
      <trkpt lat="45.95587" lon="1.32708">
        <ele>437.88461303711</ele>
        <time>2010-10-03T05:32:00Z</time>
      </trkpt>
      <trkpt lat="45.9558" lon="1.32721">
        <ele>437.19277954102</ele>
        <time>2010-10-03T05:32:07Z</time>
      </trkpt>
      <trkpt lat="45.95573" lon="1.32734">
        <ele>436.1159362793</ele>
        <time>2010-10-03T05:32:14Z</time>
      </trkpt>
      <trkpt lat="45.95569" lon="1.32744">
        <ele>435.38760375977</ele>
        <time>2010-10-03T05:32:19Z</time>
      </trkpt>
      <trkpt lat="45.95564" lon="1.32755">
        <ele>434.74722290039</ele>
        <time>2010-10-03T05:32:25Z</time>
      </trkpt>
      <trkpt lat="45.95559" lon="1.32771">
        <ele>434.3017578125</ele>
        <time>2010-10-03T05:32:31Z</time>
      </trkpt>
      <trkpt lat="45.95566" lon="1.3278">
        <ele>434.61404418945</ele>
        <time>2010-10-03T05:32:35Z</time>
      </trkpt>
      <trkpt lat="45.95583" lon="1.32785">
        <ele>435.54016113281</ele>
        <time>2010-10-03T05:32:42Z</time>
      </trkpt>
      <trkpt lat="45.956" lon="1.32793">
        <ele>435.38708496094</ele>
        <time>2010-10-03T05:32:50Z</time>
      </trkpt>
      <trkpt lat="45.95612" lon="1.32803">
        <ele>435.15231323242</ele>
        <time>2010-10-03T05:32:56Z</time>
      </trkpt>
      <trkpt lat="45.95623" lon="1.32815">
        <ele>434.83709716797</ele>
        <time>2010-10-03T05:33:03Z</time>
      </trkpt>
      <trkpt lat="45.95637" lon="1.32832">
        <ele>434.37576293945</ele>
        <time>2010-10-03T05:33:12Z</time>
      </trkpt>
      <trkpt lat="45.9564" lon="1.32835">
        <ele>434.12734985352</ele>
        <time>2010-10-03T05:33:15Z</time>
      </trkpt>
      <trkpt lat="45.95641" lon="1.32839">
        <ele>433.8229675293</ele>
        <time>2010-10-03T05:33:22Z</time>
      </trkpt>
      <trkpt lat="45.95642" lon="1.3284">
        <ele>433.71209716797</ele>
        <time>2010-10-03T05:33:31Z</time>
      </trkpt>
      <trkpt lat="45.95642" lon="1.32842">
        <ele>433.49975585938</ele>
        <time>2010-10-03T05:33:39Z</time>
      </trkpt>
      <trkpt lat="45.95642" lon="1.32841">
        <ele>433.55035400391</ele>
        <time>2010-10-03T05:33:50Z</time>
      </trkpt>
      <trkpt lat="45.95643" lon="1.32838">
        <ele>433.8239440918</ele>
        <time>2010-10-03T05:33:56Z</time>
      </trkpt>
      <trkpt lat="45.95643" lon="1.32838">
        <ele>433.90084838867</ele>
        <time>2010-10-03T05:34:04Z</time>
      </trkpt>
      <trkpt lat="45.95642" lon="1.32836">
        <ele>434.03936767578</ele>
        <time>2010-10-03T05:34:13Z</time>
      </trkpt>
      <trkpt lat="45.95641" lon="1.32839">
        <ele>433.79461669922</ele>
        <time>2010-10-03T05:34:19Z</time>
      </trkpt>
      <trkpt lat="45.9564" lon="1.32837">
        <ele>433.95477294922</ele>
        <time>2010-10-03T05:34:34Z</time>
      </trkpt>
      <trkpt lat="45.9564" lon="1.32836">
        <ele>434.0432434082</ele>
        <time>2010-10-03T05:34:38Z</time>
      </trkpt>
      <trkpt lat="45.9564" lon="1.32837">
        <ele>434.02890014648</ele>
        <time>2010-10-03T05:34:39Z</time>
      </trkpt>
      <trkpt lat="45.95638" lon="1.32837">
        <ele>434.01614379883</ele>
        <time>2010-10-03T05:34:52Z</time>
      </trkpt>
      <trkpt lat="45.95638" lon="1.3284">
        <ele>433.76788330078</ele>
        <time>2010-10-03T05:35:03Z</time>
      </trkpt>
      <trkpt lat="45.95639" lon="1.32838">
        <ele>433.85977172852</ele>
        <time>2010-10-03T05:35:20Z</time>
      </trkpt>
      <trkpt lat="45.95639" lon="1.32839">
        <ele>433.8053894043</ele>
        <time>2010-10-03T05:35:25Z</time>
      </trkpt>
      <trkpt lat="45.95641" lon="1.3284">
        <ele>433.67950439453</ele>
        <time>2010-10-03T05:35:29Z</time>
      </trkpt>
      <trkpt lat="45.9564" lon="1.32837">
        <ele>433.94821166992</ele>
        <time>2010-10-03T05:35:36Z</time>
      </trkpt>
      <trkpt lat="45.9564" lon="1.32837">
        <ele>433.93838500977</ele>
        <time>2010-10-03T05:35:43Z</time>
      </trkpt>
      <trkpt lat="45.9564" lon="1.32839">
        <ele>433.78765869141</ele>
        <time>2010-10-03T05:36:00Z</time>
      </trkpt>
      <trkpt lat="45.95641" lon="1.32838">
        <ele>433.87890625</ele>
        <time>2010-10-03T05:36:13Z</time>
      </trkpt>
      <trkpt lat="45.9564" lon="1.32836">
        <ele>434.06072998047</ele>
        <time>2010-10-03T05:36:32Z</time>
      </trkpt>
      <trkpt lat="45.95642" lon="1.32838">
        <ele>433.91754150391</ele>
        <time>2010-10-03T05:36:37Z</time>
      </trkpt>
      <trkpt lat="45.95644" lon="1.3284">
        <ele>433.71368408203</ele>
        <time>2010-10-03T05:36:47Z</time>
      </trkpt>
      <trkpt lat="45.95645" lon="1.32841">
        <ele>433.5578918457</ele>
        <time>2010-10-03T05:36:54Z</time>
      </trkpt>
      <trkpt lat="45.95646" lon="1.32843">
        <ele>433.39996337891</ele>
        <time>2010-10-03T05:37:02Z</time>
      </trkpt>
      <trkpt lat="45.9565" lon="1.32845">
        <ele>433.1858215332</ele>
        <time>2010-10-03T05:37:09Z</time>
      </trkpt>
      <trkpt lat="45.95652" lon="1.32846">
        <ele>433.08911132812</ele>
        <time>2010-10-03T05:37:14Z</time>
      </trkpt>
      <trkpt lat="45.95653" lon="1.32846">
        <ele>433.05120849609</ele>
        <time>2010-10-03T05:37:25Z</time>
      </trkpt>
      <trkpt lat="45.95654" lon="1.32846">
        <ele>433.03540039062</ele>
        <time>2010-10-03T05:37:35Z</time>
      </trkpt>
      <trkpt lat="45.95657" lon="1.32851">
        <ele>432.62359619141</ele>
        <time>2010-10-03T05:37:40Z</time>
      </trkpt>
      <trkpt lat="45.95658" lon="1.32852">
        <ele>432.52059936523</ele>
        <time>2010-10-03T05:37:41Z</time>
      </trkpt>
      <trkpt lat="45.95667" lon="1.32864">
        <ele>431.39358520508</ele>
        <time>2010-10-03T05:37:48Z</time>
      </trkpt>
      <trkpt lat="45.95668" lon="1.32866">
        <ele>431.28903198242</ele>
        <time>2010-10-03T05:37:49Z</time>
      </trkpt>
      <trkpt lat="45.95673" lon="1.32873">
        <ele>430.80184936523</ele>
        <time>2010-10-03T05:37:53Z</time>
      </trkpt>
      <trkpt lat="45.95673" lon="1.32883">
        <ele>429.9375</ele>
        <time>2010-10-03T05:37:57Z</time>
      </trkpt>
      <trkpt lat="45.95665" lon="1.32884">
        <ele>429.76666259766</ele>
        <time>2010-10-03T05:38:03Z</time>
      </trkpt>
      <trkpt lat="45.95663" lon="1.32883">
        <ele>429.81549072266</ele>
        <time>2010-10-03T05:38:04Z</time>
      </trkpt>
      <trkpt lat="45.95657" lon="1.32883">
        <ele>429.78479003906</ele>
        <time>2010-10-03T05:38:07Z</time>
      </trkpt>
      <trkpt lat="45.95644" lon="1.32901">
        <ele>428.12060546875</ele>
        <time>2010-10-03T05:38:15Z</time>
      </trkpt>
      <trkpt lat="45.95637" lon="1.3292">
        <ele>426.04568481445</ele>
        <time>2010-10-03T05:38:21Z</time>
      </trkpt>
      <trkpt lat="45.95628" lon="1.32934">
        <ele>423.44970703125</ele>
        <time>2010-10-03T05:38:27Z</time>
      </trkpt>
      <trkpt lat="45.95625" lon="1.32939">
        <ele>422.54452514648</ele>
        <time>2010-10-03T05:38:29Z</time>
      </trkpt>
      <trkpt lat="45.9562" lon="1.3295">
        <ele>420.79348754883</ele>
        <time>2010-10-03T05:38:33Z</time>
      </trkpt>
      <trkpt lat="45.95617" lon="1.32953">
        <ele>420.25665283203</ele>
        <time>2010-10-03T05:38:35Z</time>
      </trkpt>
      <trkpt lat="45.95607" lon="1.32964">
        <ele>418.46395874023</ele>
        <time>2010-10-03T05:38:44Z</time>
      </trkpt>
      <trkpt lat="45.95602" lon="1.32971">
        <ele>417.35040283203</ele>
        <time>2010-10-03T05:38:49Z</time>
      </trkpt>
      <trkpt lat="45.9559" lon="1.32984">
        <ele>415.45782470703</ele>
        <time>2010-10-03T05:38:56Z</time>
      </trkpt>
      <trkpt lat="45.95576" lon="1.32993">
        <ele>413.95431518555</ele>
        <time>2010-10-03T05:39:02Z</time>
      </trkpt>
      <trkpt lat="45.95562" lon="1.33003">
        <ele>412.20004272461</ele>
        <time>2010-10-03T05:39:08Z</time>
      </trkpt>
      <trkpt lat="45.95546" lon="1.33011">
        <ele>410.73709106445</ele>
        <time>2010-10-03T05:39:15Z</time>
      </trkpt>
      <trkpt lat="45.95536" lon="1.33019">
        <ele>409.28756713867</ele>
        <time>2010-10-03T05:39:20Z</time>
      </trkpt>
      <trkpt lat="45.95524" lon="1.33026">
        <ele>408.02178955078</ele>
        <time>2010-10-03T05:39:25Z</time>
      </trkpt>
      <trkpt lat="45.95513" lon="1.33033">
        <ele>406.916015625</ele>
        <time>2010-10-03T05:39:30Z</time>
      </trkpt>
      <trkpt lat="45.95501" lon="1.3304">
        <ele>405.71762084961</ele>
        <time>2010-10-03T05:39:36Z</time>
      </trkpt>
      <trkpt lat="45.95491" lon="1.33046">
        <ele>404.1669921875</ele>
        <time>2010-10-03T05:39:41Z</time>
      </trkpt>
      <trkpt lat="45.95478" lon="1.33048">
        <ele>402.88098144531</ele>
        <time>2010-10-03T05:39:47Z</time>
      </trkpt>
      <trkpt lat="45.95465" lon="1.33049">
        <ele>401.72171020508</ele>
        <time>2010-10-03T05:39:53Z</time>
      </trkpt>
      <trkpt lat="45.95451" lon="1.3305">
        <ele>400.57107543945</ele>
        <time>2010-10-03T05:39:59Z</time>
      </trkpt>
      <trkpt lat="45.95439" lon="1.33053">
        <ele>399.29974365234</ele>
        <time>2010-10-03T05:40:05Z</time>
      </trkpt>
      <trkpt lat="45.95428" lon="1.33056">
        <ele>398.07403564453</ele>
        <time>2010-10-03T05:40:10Z</time>
      </trkpt>
      <trkpt lat="45.95427" lon="1.33057">
        <ele>397.81594848633</ele>
        <time>2010-10-03T05:40:11Z</time>
      </trkpt>
      <trkpt lat="45.95426" lon="1.33066">
        <ele>396.7229309082</ele>
        <time>2010-10-03T05:40:15Z</time>
      </trkpt>
      <trkpt lat="45.95436" lon="1.33077">
        <ele>395.98330688477</ele>
        <time>2010-10-03T05:40:21Z</time>
      </trkpt>
      <trkpt lat="45.95449" lon="1.33086">
        <ele>395.65042114258</ele>
        <time>2010-10-03T05:40:26Z</time>
      </trkpt>
      <trkpt lat="45.9546" lon="1.33093">
        <ele>395.65740966797</ele>
        <time>2010-10-03T05:40:31Z</time>
      </trkpt>
      <trkpt lat="45.95471" lon="1.33098">
        <ele>395.93811035156</ele>
        <time>2010-10-03T05:40:36Z</time>
      </trkpt>
      <trkpt lat="45.9548" lon="1.33101">
        <ele>396.20336914062</ele>
        <time>2010-10-03T05:40:40Z</time>
      </trkpt>
      <trkpt lat="45.95493" lon="1.33107">
        <ele>396.57632446289</ele>
        <time>2010-10-03T05:40:46Z</time>
      </trkpt>
      <trkpt lat="45.95507" lon="1.33111">
        <ele>396.56793212891</ele>
        <time>2010-10-03T05:40:53Z</time>
      </trkpt>
      <trkpt lat="45.95515" lon="1.33112">
        <ele>396.42761230469</ele>
        <time>2010-10-03T05:40:58Z</time>
      </trkpt>
      <trkpt lat="45.95528" lon="1.33111">
        <ele>396.36422729492</ele>
        <time>2010-10-03T05:41:04Z</time>
      </trkpt>
      <trkpt lat="45.95539" lon="1.33117">
        <ele>395.69717407227</ele>
        <time>2010-10-03T05:41:10Z</time>
      </trkpt>
      <trkpt lat="45.95551" lon="1.33124">
        <ele>394.9729309082</ele>
        <time>2010-10-03T05:41:16Z</time>
      </trkpt>
      <trkpt lat="45.95564" lon="1.3313">
        <ele>394.31860351562</ele>
        <time>2010-10-03T05:41:22Z</time>
      </trkpt>
      <trkpt lat="45.95572" lon="1.33132">
        <ele>394.07827758789</ele>
        <time>2010-10-03T05:41:26Z</time>
      </trkpt>
      <trkpt lat="45.95582" lon="1.33135">
        <ele>393.70248413086</ele>
        <time>2010-10-03T05:41:31Z</time>
      </trkpt>
      <trkpt lat="45.95594" lon="1.33142">
        <ele>393.47698974609</ele>
        <time>2010-10-03T05:41:37Z</time>
      </trkpt>
      <trkpt lat="45.95607" lon="1.33149">
        <ele>393.37896728516</ele>
        <time>2010-10-03T05:41:43Z</time>
      </trkpt>
      <trkpt lat="45.95617" lon="1.33156">
        <ele>393.12188720703</ele>
        <time>2010-10-03T05:41:48Z</time>
      </trkpt>
      <trkpt lat="45.9563" lon="1.33164">
        <ele>392.92208862305</ele>
        <time>2010-10-03T05:41:54Z</time>
      </trkpt>
      <trkpt lat="45.95638" lon="1.33168">
        <ele>392.7385559082</ele>
        <time>2010-10-03T05:41:58Z</time>
      </trkpt>
      <trkpt lat="45.9564" lon="1.33169">
        <ele>392.61291503906</ele>
        <time>2010-10-03T05:41:59Z</time>
      </trkpt>
      <trkpt lat="45.95652" lon="1.33178">
        <ele>391.64340209961</ele>
        <time>2010-10-03T05:42:05Z</time>
      </trkpt>
      <trkpt lat="45.95657" lon="1.3318">
        <ele>391.36361694336</ele>
        <time>2010-10-03T05:42:07Z</time>
      </trkpt>
      <trkpt lat="45.95679" lon="1.3319">
        <ele>390.18545532227</ele>
        <time>2010-10-03T05:42:15Z</time>
      </trkpt>
      <trkpt lat="45.9569" lon="1.33194">
        <ele>389.74633789062</ele>
        <time>2010-10-03T05:42:20Z</time>
      </trkpt>
      <trkpt lat="45.95702" lon="1.33199">
        <ele>389.14733886719</ele>
        <time>2010-10-03T05:42:25Z</time>
      </trkpt>
      <trkpt lat="45.9571" lon="1.33202">
        <ele>388.80914306641</ele>
        <time>2010-10-03T05:42:30Z</time>
      </trkpt>
      <trkpt lat="45.95721" lon="1.33202">
        <ele>389.02496337891</ele>
        <time>2010-10-03T05:42:35Z</time>
      </trkpt>
      <trkpt lat="45.95726" lon="1.33205">
        <ele>388.6618347168</ele>
        <time>2010-10-03T05:42:38Z</time>
      </trkpt>
      <trkpt lat="45.95738" lon="1.33204">
        <ele>389.00863647461</ele>
        <time>2010-10-03T05:42:44Z</time>
      </trkpt>
      <trkpt lat="45.95747" lon="1.33205">
        <ele>389.16607666016</ele>
        <time>2010-10-03T05:42:48Z</time>
      </trkpt>
      <trkpt lat="45.95753" lon="1.33205">
        <ele>389.01770019531</ele>
        <time>2010-10-03T05:42:50Z</time>
      </trkpt>
      <trkpt lat="45.9576" lon="1.33206">
        <ele>388.69854736328</ele>
        <time>2010-10-03T05:42:54Z</time>
      </trkpt>
      <trkpt lat="45.95773" lon="1.33205">
        <ele>388.63003540039</ele>
        <time>2010-10-03T05:43:00Z</time>
      </trkpt>
      <trkpt lat="45.95774" lon="1.33204">
        <ele>388.64956665039</ele>
        <time>2010-10-03T05:43:01Z</time>
      </trkpt>
      <trkpt lat="45.95786" lon="1.33197">
        <ele>389.56616210938</ele>
        <time>2010-10-03T05:43:08Z</time>
      </trkpt>
      <trkpt lat="45.95794" lon="1.33193">
        <ele>390.0168762207</ele>
        <time>2010-10-03T05:43:12Z</time>
      </trkpt>
      <trkpt lat="45.95796" lon="1.33191">
        <ele>390.17037963867</ele>
        <time>2010-10-03T05:43:13Z</time>
      </trkpt>
      <trkpt lat="45.95811" lon="1.33187">
        <ele>390.25540161133</ele>
        <time>2010-10-03T05:43:20Z</time>
      </trkpt>
      <trkpt lat="45.95823" lon="1.33184">
        <ele>390.1083984375</ele>
        <time>2010-10-03T05:43:26Z</time>
      </trkpt>
      <trkpt lat="45.95832" lon="1.33181">
        <ele>390.12789916992</ele>
        <time>2010-10-03T05:43:31Z</time>
      </trkpt>
      <trkpt lat="45.95843" lon="1.33178">
        <ele>390.99603271484</ele>
        <time>2010-10-03T05:43:37Z</time>
      </trkpt>
      <trkpt lat="45.95855" lon="1.3317">
        <ele>392.45321655273</ele>
        <time>2010-10-03T05:43:42Z</time>
      </trkpt>
      <trkpt lat="45.95859" lon="1.33168">
        <ele>392.79364013672</ele>
        <time>2010-10-03T05:43:44Z</time>
      </trkpt>
      <trkpt lat="45.95873" lon="1.33172">
        <ele>392.92510986328</ele>
        <time>2010-10-03T05:43:49Z</time>
      </trkpt>
      <trkpt lat="45.95884" lon="1.33174">
        <ele>393.23361206055</ele>
        <time>2010-10-03T05:43:54Z</time>
      </trkpt>
      <trkpt lat="45.95886" lon="1.33174">
        <ele>393.34829711914</ele>
        <time>2010-10-03T05:43:55Z</time>
      </trkpt>
      <trkpt lat="45.95896" lon="1.3318">
        <ele>393.33831787109</ele>
        <time>2010-10-03T05:43:59Z</time>
      </trkpt>
      <trkpt lat="45.95895" lon="1.33192">
        <ele>392.40472412109</ele>
        <time>2010-10-03T05:44:04Z</time>
      </trkpt>
      <trkpt lat="45.95889" lon="1.33207">
        <ele>390.97839355469</ele>
        <time>2010-10-03T05:44:10Z</time>
      </trkpt>
      <trkpt lat="45.95886" lon="1.33213">
        <ele>390.25305175781</ele>
        <time>2010-10-03T05:44:12Z</time>
      </trkpt>
      <trkpt lat="45.95881" lon="1.33232">
        <ele>388.18630981445</ele>
        <time>2010-10-03T05:44:18Z</time>
      </trkpt>
      <trkpt lat="45.95884" lon="1.3325">
        <ele>387.12469482422</ele>
        <time>2010-10-03T05:44:24Z</time>
      </trkpt>
      <trkpt lat="45.95882" lon="1.33266">
        <ele>386.38537597656</ele>
        <time>2010-10-03T05:44:29Z</time>
      </trkpt>
      <trkpt lat="45.95879" lon="1.33287">
        <ele>385.22875976562</ele>
        <time>2010-10-03T05:44:36Z</time>
      </trkpt>
      <trkpt lat="45.95877" lon="1.33299">
        <ele>384.54797363281</ele>
        <time>2010-10-03T05:44:40Z</time>
      </trkpt>
      <trkpt lat="45.95875" lon="1.33315">
        <ele>383.70428466797</ele>
        <time>2010-10-03T05:44:45Z</time>
      </trkpt>
      <trkpt lat="45.95873" lon="1.33333">
        <ele>382.66348266602</ele>
        <time>2010-10-03T05:44:51Z</time>
      </trkpt>
      <trkpt lat="45.95872" lon="1.3335">
        <ele>382.0710144043</ele>
        <time>2010-10-03T05:44:57Z</time>
      </trkpt>
      <trkpt lat="45.95872" lon="1.33371">
        <ele>381.47177124023</ele>
        <time>2010-10-03T05:45:03Z</time>
      </trkpt>
      <trkpt lat="45.95874" lon="1.33384">
        <ele>381.24749755859</ele>
        <time>2010-10-03T05:45:07Z</time>
      </trkpt>
      <trkpt lat="45.95877" lon="1.33403">
        <ele>381.23266601562</ele>
        <time>2010-10-03T05:45:13Z</time>
      </trkpt>
      <trkpt lat="45.95877" lon="1.33407">
        <ele>381.13043212891</ele>
        <time>2010-10-03T05:45:14Z</time>
      </trkpt>
      <trkpt lat="45.95881" lon="1.3343">
        <ele>380.4411315918</ele>
        <time>2010-10-03T05:45:21Z</time>
      </trkpt>
      <trkpt lat="45.95886" lon="1.33449">
        <ele>379.66564941406</ele>
        <time>2010-10-03T05:45:27Z</time>
      </trkpt>
      <trkpt lat="45.95891" lon="1.33464">
        <ele>379.13845825195</ele>
        <time>2010-10-03T05:45:32Z</time>
      </trkpt>
      <trkpt lat="45.95895" lon="1.33469">
        <ele>379.23263549805</ele>
        <time>2010-10-03T05:45:34Z</time>
      </trkpt>
      <trkpt lat="45.95902" lon="1.33484">
        <ele>378.76153564453</ele>
        <time>2010-10-03T05:45:40Z</time>
      </trkpt>
      <trkpt lat="45.95908" lon="1.33493">
        <ele>378.75665283203</ele>
        <time>2010-10-03T05:45:44Z</time>
      </trkpt>
      <trkpt lat="45.95919" lon="1.33506">
        <ele>379.24688720703</ele>
        <time>2010-10-03T05:45:50Z</time>
      </trkpt>
      <trkpt lat="45.95928" lon="1.3352">
        <ele>380.25863647461</ele>
        <time>2010-10-03T05:45:55Z</time>
      </trkpt>
      <trkpt lat="45.95933" lon="1.33531">
        <ele>380.52233886719</ele>
        <time>2010-10-03T05:45:59Z</time>
      </trkpt>
      <trkpt lat="45.95943" lon="1.33544">
        <ele>381.54302978516</ele>
        <time>2010-10-03T05:46:05Z</time>
      </trkpt>
      <trkpt lat="45.95955" lon="1.33552">
        <ele>383.48291015625</ele>
        <time>2010-10-03T05:46:11Z</time>
      </trkpt>
      <trkpt lat="45.95961" lon="1.33558">
        <ele>384.09017944336</ele>
        <time>2010-10-03T05:46:15Z</time>
      </trkpt>
      <trkpt lat="45.95973" lon="1.33567">
        <ele>385.64953613281</ele>
        <time>2010-10-03T05:46:22Z</time>
      </trkpt>
      <trkpt lat="45.95984" lon="1.33576">
        <ele>386.76406860352</ele>
        <time>2010-10-03T05:46:28Z</time>
      </trkpt>
      <trkpt lat="45.95988" lon="1.33581">
        <ele>386.95602416992</ele>
        <time>2010-10-03T05:46:31Z</time>
      </trkpt>
      <trkpt lat="45.96002" lon="1.33593">
        <ele>387.96295166016</ele>
        <time>2010-10-03T05:46:38Z</time>
      </trkpt>
      <trkpt lat="45.96011" lon="1.33602">
        <ele>387.76824951172</ele>
        <time>2010-10-03T05:46:43Z</time>
      </trkpt>
      <trkpt lat="45.96017" lon="1.33614">
        <ele>387.1103515625</ele>
        <time>2010-10-03T05:46:48Z</time>
      </trkpt>
      <trkpt lat="45.96019" lon="1.33633">
        <ele>385.57995605469</ele>
        <time>2010-10-03T05:46:54Z</time>
      </trkpt>
      <trkpt lat="45.9602" lon="1.33636">
        <ele>385.30792236328</ele>
        <time>2010-10-03T05:46:55Z</time>
      </trkpt>
      <trkpt lat="45.96022" lon="1.33651">
        <ele>384.19467163086</ele>
        <time>2010-10-03T05:47:00Z</time>
      </trkpt>
      <trkpt lat="45.96024" lon="1.3366">
        <ele>383.62551879883</ele>
        <time>2010-10-03T05:47:04Z</time>
      </trkpt>
      <trkpt lat="45.96024" lon="1.33668">
        <ele>383.07965087891</ele>
        <time>2010-10-03T05:47:10Z</time>
      </trkpt>
      <trkpt lat="45.96029" lon="1.33678">
        <ele>383.81948852539</ele>
        <time>2010-10-03T05:47:14Z</time>
      </trkpt>
      <trkpt lat="45.96036" lon="1.33693">
        <ele>385.05523681641</ele>
        <time>2010-10-03T05:47:19Z</time>
      </trkpt>
      <trkpt lat="45.9604" lon="1.33703">
        <ele>385.8860168457</ele>
        <time>2010-10-03T05:47:23Z</time>
      </trkpt>
      <trkpt lat="45.9604" lon="1.33707">
        <ele>385.83276367188</ele>
        <time>2010-10-03T05:47:26Z</time>
      </trkpt>
      <trkpt lat="45.96037" lon="1.33732">
        <ele>385.36868286133</ele>
        <time>2010-10-03T05:47:35Z</time>
      </trkpt>
      <trkpt lat="45.96035" lon="1.33749">
        <ele>384.97961425781</ele>
        <time>2010-10-03T05:47:42Z</time>
      </trkpt>
      <trkpt lat="45.96033" lon="1.33763">
        <ele>383.884765625</ele>
        <time>2010-10-03T05:47:48Z</time>
      </trkpt>
      <trkpt lat="45.96039" lon="1.33776">
        <ele>384.30221557617</ele>
        <time>2010-10-03T05:47:55Z</time>
      </trkpt>
      <trkpt lat="45.96041" lon="1.33785">
        <ele>384.17016601562</ele>
        <time>2010-10-03T05:47:59Z</time>
      </trkpt>
      <trkpt lat="45.96039" lon="1.33799">
        <ele>382.96957397461</ele>
        <time>2010-10-03T05:48:04Z</time>
      </trkpt>
      <trkpt lat="45.96038" lon="1.33801">
        <ele>382.72457885742</ele>
        <time>2010-10-03T05:48:05Z</time>
      </trkpt>
      <trkpt lat="45.96045" lon="1.33813">
        <ele>383.35137939453</ele>
        <time>2010-10-03T05:48:09Z</time>
      </trkpt>
      <trkpt lat="45.96056" lon="1.33823">
        <ele>384.99066162109</ele>
        <time>2010-10-03T05:48:17Z</time>
      </trkpt>
      <trkpt lat="45.96058" lon="1.33826">
        <ele>385.23294067383</ele>
        <time>2010-10-03T05:48:19Z</time>
      </trkpt>
      <trkpt lat="45.96064" lon="1.33836">
        <ele>385.66577148438</ele>
        <time>2010-10-03T05:48:27Z</time>
      </trkpt>
      <trkpt lat="45.96065" lon="1.33837">
        <ele>385.59759521484</ele>
        <time>2010-10-03T05:48:28Z</time>
      </trkpt>
      <trkpt lat="45.96069" lon="1.33841">
        <ele>385.7541809082</ele>
        <time>2010-10-03T05:48:32Z</time>
      </trkpt>
      <trkpt lat="45.96071" lon="1.33846">
        <ele>385.07446289062</ele>
        <time>2010-10-03T05:48:35Z</time>
      </trkpt>
      <trkpt lat="45.96074" lon="1.33852">
        <ele>384.56713867188</ele>
        <time>2010-10-03T05:48:40Z</time>
      </trkpt>
      <trkpt lat="45.9608" lon="1.33856">
        <ele>384.98211669922</ele>
        <time>2010-10-03T05:48:47Z</time>
      </trkpt>
      <trkpt lat="45.96086" lon="1.3386">
        <ele>385.31265258789</ele>
        <time>2010-10-03T05:48:51Z</time>
      </trkpt>
      <trkpt lat="45.96095" lon="1.33863">
        <ele>385.94207763672</ele>
        <time>2010-10-03T05:48:57Z</time>
      </trkpt>
      <trkpt lat="45.96105" lon="1.33864">
        <ele>387.11166381836</ele>
        <time>2010-10-03T05:49:03Z</time>
      </trkpt>
      <trkpt lat="45.96112" lon="1.33864">
        <ele>388.25836181641</ele>
        <time>2010-10-03T05:49:09Z</time>
      </trkpt>
      <trkpt lat="45.96115" lon="1.33864">
        <ele>388.71154785156</ele>
        <time>2010-10-03T05:49:11Z</time>
      </trkpt>
      <trkpt lat="45.96121" lon="1.33864">
        <ele>389.62478637695</ele>
        <time>2010-10-03T05:49:16Z</time>
      </trkpt>
      <trkpt lat="45.96128" lon="1.33863">
        <ele>390.78750610352</ele>
        <time>2010-10-03T05:49:22Z</time>
      </trkpt>
      <trkpt lat="45.96138" lon="1.3386">
        <ele>392.86346435547</ele>
        <time>2010-10-03T05:49:30Z</time>
      </trkpt>
      <trkpt lat="45.96145" lon="1.33858">
        <ele>394.0673828125</ele>
        <time>2010-10-03T05:49:35Z</time>
      </trkpt>
      <trkpt lat="45.9615" lon="1.33858">
        <ele>394.77462768555</ele>
        <time>2010-10-03T05:49:39Z</time>
      </trkpt>
      <trkpt lat="45.96161" lon="1.3386">
        <ele>395.96252441406</ele>
        <time>2010-10-03T05:49:45Z</time>
      </trkpt>
      <trkpt lat="45.96162" lon="1.3386">
        <ele>396.21200561523</ele>
        <time>2010-10-03T05:49:46Z</time>
      </trkpt>
      <trkpt lat="45.96174" lon="1.33867">
        <ele>396.52960205078</ele>
        <time>2010-10-03T05:49:54Z</time>
      </trkpt>
      <trkpt lat="45.96183" lon="1.33874">
        <ele>396.31005859375</ele>
        <time>2010-10-03T05:49:59Z</time>
      </trkpt>
      <trkpt lat="45.96191" lon="1.3388">
        <ele>396.24505615234</ele>
        <time>2010-10-03T05:50:04Z</time>
      </trkpt>
      <trkpt lat="45.96198" lon="1.33881">
        <ele>397.10745239258</ele>
        <time>2010-10-03T05:50:10Z</time>
      </trkpt>
      <trkpt lat="45.96206" lon="1.33887">
        <ele>397.13693237305</ele>
        <time>2010-10-03T05:50:16Z</time>
      </trkpt>
      <trkpt lat="45.96214" lon="1.33886">
        <ele>398.42327880859</ele>
        <time>2010-10-03T05:50:22Z</time>
      </trkpt>
      <trkpt lat="45.96217" lon="1.33878">
        <ele>400.24710083008</ele>
        <time>2010-10-03T05:50:28Z</time>
      </trkpt>
      <trkpt lat="45.96218" lon="1.33876">
        <ele>400.55999755859</ele>
        <time>2010-10-03T05:50:29Z</time>
      </trkpt>
      <trkpt lat="45.96218" lon="1.33873">
        <ele>401.0671081543</ele>
        <time>2010-10-03T05:50:31Z</time>
      </trkpt>
      <trkpt lat="45.96216" lon="1.33863">
        <ele>402.40634155273</ele>
        <time>2010-10-03T05:50:37Z</time>
      </trkpt>
      <trkpt lat="45.96212" lon="1.33852">
        <ele>403.70840454102</ele>
        <time>2010-10-03T05:50:44Z</time>
      </trkpt>
      <trkpt lat="45.96204" lon="1.33846">
        <ele>403.791015625</ele>
        <time>2010-10-03T05:50:50Z</time>
      </trkpt>
      <trkpt lat="45.96198" lon="1.33845">
        <ele>403.23263549805</ele>
        <time>2010-10-03T05:50:56Z</time>
      </trkpt>
      <trkpt lat="45.96192" lon="1.3384">
        <ele>403.59927368164</ele>
        <time>2010-10-03T05:51:00Z</time>
      </trkpt>
      <trkpt lat="45.96191" lon="1.33828">
        <ele>405.49472045898</ele>
        <time>2010-10-03T05:51:05Z</time>
      </trkpt>
      <trkpt lat="45.96193" lon="1.33825">
        <ele>406.06845092773</ele>
        <time>2010-10-03T05:51:07Z</time>
      </trkpt>
      <trkpt lat="45.96203" lon="1.33824">
        <ele>407.37124633789</ele>
        <time>2010-10-03T05:51:15Z</time>
      </trkpt>
      <trkpt lat="45.96215" lon="1.33823">
        <ele>408.97546386719</ele>
        <time>2010-10-03T05:51:22Z</time>
      </trkpt>
      <trkpt lat="45.96223" lon="1.33819">
        <ele>410.60317993164</ele>
        <time>2010-10-03T05:51:28Z</time>
      </trkpt>
      <trkpt lat="45.96231" lon="1.33817">
        <ele>411.91693115234</ele>
        <time>2010-10-03T05:51:34Z</time>
      </trkpt>
      <trkpt lat="45.96242" lon="1.33815">
        <ele>413.57412719727</ele>
        <time>2010-10-03T05:51:41Z</time>
      </trkpt>
      <trkpt lat="45.96252" lon="1.33813">
        <ele>415.25112915039</ele>
        <time>2010-10-03T05:51:49Z</time>
      </trkpt>
      <trkpt lat="45.96261" lon="1.33811">
        <ele>416.56900024414</ele>
        <time>2010-10-03T05:51:56Z</time>
      </trkpt>
      <trkpt lat="45.96268" lon="1.33811">
        <ele>417.26754760742</ele>
        <time>2010-10-03T05:52:02Z</time>
      </trkpt>
      <trkpt lat="45.96275" lon="1.33812">
        <ele>417.89114379883</ele>
        <time>2010-10-03T05:52:07Z</time>
      </trkpt>
      <trkpt lat="45.96283" lon="1.33814">
        <ele>418.53121948242</ele>
        <time>2010-10-03T05:52:12Z</time>
      </trkpt>
      <trkpt lat="45.96292" lon="1.33817">
        <ele>419.02822875977</ele>
        <time>2010-10-03T05:52:18Z</time>
      </trkpt>
      <trkpt lat="45.96307" lon="1.33822">
        <ele>419.90850830078</ele>
        <time>2010-10-03T05:52:27Z</time>
      </trkpt>
      <trkpt lat="45.96314" lon="1.33825">
        <ele>420.150390625</ele>
        <time>2010-10-03T05:52:34Z</time>
      </trkpt>
      <trkpt lat="45.96318" lon="1.33826">
        <ele>420.36199951172</ele>
        <time>2010-10-03T05:52:38Z</time>
      </trkpt>
      <trkpt lat="45.96329" lon="1.3383">
        <ele>421.130859375</ele>
        <time>2010-10-03T05:52:44Z</time>
      </trkpt>
      <trkpt lat="45.96334" lon="1.3383">
        <ele>421.55657958984</ele>
        <time>2010-10-03T05:52:47Z</time>
      </trkpt>
      <trkpt lat="45.96346" lon="1.3383">
        <ele>422.36880493164</ele>
        <time>2010-10-03T05:52:55Z</time>
      </trkpt>
      <trkpt lat="45.96355" lon="1.33824">
        <ele>423.80999755859</ele>
        <time>2010-10-03T05:53:02Z</time>
      </trkpt>
      <trkpt lat="45.96361" lon="1.33818">
        <ele>425.19989013672</ele>
        <time>2010-10-03T05:53:07Z</time>
      </trkpt>
      <trkpt lat="45.96364" lon="1.33813">
        <ele>426.12396240234</ele>
        <time>2010-10-03T05:53:11Z</time>
      </trkpt>
      <trkpt lat="45.96368" lon="1.33809">
        <ele>426.98068237305</ele>
        <time>2010-10-03T05:53:16Z</time>
      </trkpt>
      <trkpt lat="45.96369" lon="1.33807">
        <ele>427.25494384766</ele>
        <time>2010-10-03T05:53:18Z</time>
      </trkpt>
      <trkpt lat="45.96369" lon="1.33805">
        <ele>427.64779663086</ele>
        <time>2010-10-03T05:53:20Z</time>
      </trkpt>
      <trkpt lat="45.96373" lon="1.33803">
        <ele>428.07586669922</ele>
        <time>2010-10-03T05:53:22Z</time>
      </trkpt>
      <trkpt lat="45.96381" lon="1.338">
        <ele>428.93792724609</ele>
        <time>2010-10-03T05:53:29Z</time>
      </trkpt>
      <trkpt lat="45.96391" lon="1.33803">
        <ele>429.11822509766</ele>
        <time>2010-10-03T05:53:35Z</time>
      </trkpt>
      <trkpt lat="45.96402" lon="1.33809">
        <ele>428.77062988281</ele>
        <time>2010-10-03T05:53:40Z</time>
      </trkpt>
      <trkpt lat="45.9641" lon="1.33813">
        <ele>428.50207519531</ele>
        <time>2010-10-03T05:53:45Z</time>
      </trkpt>
      <trkpt lat="45.9642" lon="1.3382">
        <ele>428.32009887695</ele>
        <time>2010-10-03T05:53:52Z</time>
      </trkpt>
      <trkpt lat="45.96429" lon="1.33825">
        <ele>428.45751953125</ele>
        <time>2010-10-03T05:53:57Z</time>
      </trkpt>
      <trkpt lat="45.96435" lon="1.33828">
        <ele>428.50439453125</ele>
        <time>2010-10-03T05:54:01Z</time>
      </trkpt>
      <trkpt lat="45.96442" lon="1.33832">
        <ele>428.74237060547</ele>
        <time>2010-10-03T05:54:08Z</time>
      </trkpt>
      <trkpt lat="45.96451" lon="1.33833">
        <ele>429.4059753418</ele>
        <time>2010-10-03T05:54:16Z</time>
      </trkpt>
      <trkpt lat="45.96459" lon="1.33835">
        <ele>429.69082641602</ele>
        <time>2010-10-03T05:54:22Z</time>
      </trkpt>
      <trkpt lat="45.96468" lon="1.33839">
        <ele>429.66207885742</ele>
        <time>2010-10-03T05:54:29Z</time>
      </trkpt>
      <trkpt lat="45.96473" lon="1.33839">
        <ele>430.16662597656</ele>
        <time>2010-10-03T05:54:33Z</time>
      </trkpt>
      <trkpt lat="45.96475" lon="1.33839">
        <ele>430.28848266602</ele>
        <time>2010-10-03T05:54:35Z</time>
      </trkpt>
      <trkpt lat="45.96478" lon="1.33838">
        <ele>430.83966064453</ele>
        <time>2010-10-03T05:54:38Z</time>
      </trkpt>
      <trkpt lat="45.96486" lon="1.33835">
        <ele>432.2555847168</ele>
        <time>2010-10-03T05:54:45Z</time>
      </trkpt>
      <trkpt lat="45.96495" lon="1.33832">
        <ele>433.81973266602</ele>
        <time>2010-10-03T05:54:51Z</time>
      </trkpt>
      <trkpt lat="45.96497" lon="1.3383">
        <ele>434.37557983398</ele>
        <time>2010-10-03T05:54:53Z</time>
      </trkpt>
      <trkpt lat="45.96508" lon="1.33829">
        <ele>436.23120117188</ele>
        <time>2010-10-03T05:55:00Z</time>
      </trkpt>
      <trkpt lat="45.96518" lon="1.33831">
        <ele>437.34658813477</ele>
        <time>2010-10-03T05:55:08Z</time>
      </trkpt>
      <trkpt lat="45.96529" lon="1.33833">
        <ele>438.56732177734</ele>
        <time>2010-10-03T05:55:14Z</time>
      </trkpt>
      <trkpt lat="45.96531" lon="1.33834">
        <ele>438.74624633789</ele>
        <time>2010-10-03T05:55:16Z</time>
      </trkpt>
      <trkpt lat="45.96535" lon="1.33835">
        <ele>439.16241455078</ele>
        <time>2010-10-03T05:55:19Z</time>
      </trkpt>
      <trkpt lat="45.96542" lon="1.33844">
        <ele>438.47512817383</ele>
        <time>2010-10-03T05:55:25Z</time>
      </trkpt>
      <trkpt lat="45.96548" lon="1.3385">
        <ele>438.14868164062</ele>
        <time>2010-10-03T05:55:29Z</time>
      </trkpt>
      <trkpt lat="45.96552" lon="1.33859">
        <ele>437.08120727539</ele>
        <time>2010-10-03T05:55:34Z</time>
      </trkpt>
      <trkpt lat="45.96553" lon="1.33861">
        <ele>436.8244934082</ele>
        <time>2010-10-03T05:55:36Z</time>
      </trkpt>
      <trkpt lat="45.96557" lon="1.33866">
        <ele>436.58792114258</ele>
        <time>2010-10-03T05:55:41Z</time>
      </trkpt>
      <trkpt lat="45.96558" lon="1.33867">
        <ele>436.48226928711</ele>
        <time>2010-10-03T05:55:42Z</time>
      </trkpt>
      <trkpt lat="45.96559" lon="1.33869">
        <ele>436.21340942383</ele>
        <time>2010-10-03T05:55:44Z</time>
      </trkpt>
      <trkpt lat="45.96566" lon="1.33878">
        <ele>435.90286254883</ele>
        <time>2010-10-03T05:55:52Z</time>
      </trkpt>
      <trkpt lat="45.96568" lon="1.33881">
        <ele>435.68035888672</ele>
        <time>2010-10-03T05:55:54Z</time>
      </trkpt>
      <trkpt lat="45.96575" lon="1.33884">
        <ele>436.36706542969</ele>
        <time>2010-10-03T05:56:00Z</time>
      </trkpt>
      <trkpt lat="45.96582" lon="1.33884">
        <ele>437.79977416992</ele>
        <time>2010-10-03T05:56:07Z</time>
      </trkpt>
      <trkpt lat="45.96595" lon="1.33888">
        <ele>439.34075927734</ele>
        <time>2010-10-03T05:56:15Z</time>
      </trkpt>
      <trkpt lat="45.96603" lon="1.33889">
        <ele>440.38830566406</ele>
        <time>2010-10-03T05:56:20Z</time>
      </trkpt>
      <trkpt lat="45.96604" lon="1.3389">
        <ele>440.59957885742</ele>
        <time>2010-10-03T05:56:21Z</time>
      </trkpt>
      <trkpt lat="45.9661" lon="1.33892">
        <ele>441.31692504883</ele>
        <time>2010-10-03T05:56:26Z</time>
      </trkpt>
      <trkpt lat="45.96618" lon="1.33893">
        <ele>442.57952880859</ele>
        <time>2010-10-03T05:56:31Z</time>
      </trkpt>
      <trkpt lat="45.96626" lon="1.33892">
        <ele>444.03070068359</ele>
        <time>2010-10-03T05:56:35Z</time>
      </trkpt>
      <trkpt lat="45.9663" lon="1.33892">
        <ele>444.8303527832</ele>
        <time>2010-10-03T05:56:38Z</time>
      </trkpt>
      <trkpt lat="45.96641" lon="1.3389">
        <ele>447.05197143555</ele>
        <time>2010-10-03T05:56:44Z</time>
      </trkpt>
      <trkpt lat="45.96643" lon="1.3389">
        <ele>447.42575073242</ele>
        <time>2010-10-03T05:56:45Z</time>
      </trkpt>
      <trkpt lat="45.96654" lon="1.33888">
        <ele>449.8337097168</ele>
        <time>2010-10-03T05:56:52Z</time>
      </trkpt>
      <trkpt lat="45.96656" lon="1.33889">
        <ele>450.1169128418</ele>
        <time>2010-10-03T05:56:53Z</time>
      </trkpt>
      <trkpt lat="45.96663" lon="1.33892">
        <ele>450.72463989258</ele>
        <time>2010-10-03T05:56:58Z</time>
      </trkpt>
      <trkpt lat="45.96672" lon="1.33899">
        <ele>451.30413818359</ele>
        <time>2010-10-03T05:57:05Z</time>
      </trkpt>
      <trkpt lat="45.96679" lon="1.33904">
        <ele>452.24835205078</ele>
        <time>2010-10-03T05:57:09Z</time>
      </trkpt>
      <trkpt lat="45.96685" lon="1.33913">
        <ele>452.22799682617</ele>
        <time>2010-10-03T05:57:14Z</time>
      </trkpt>
      <trkpt lat="45.96692" lon="1.33922">
        <ele>452.90454101562</ele>
        <time>2010-10-03T05:57:19Z</time>
      </trkpt>
      <trkpt lat="45.96698" lon="1.33931">
        <ele>453.50912475586</ele>
        <time>2010-10-03T05:57:25Z</time>
      </trkpt>
      <trkpt lat="45.967" lon="1.33935">
        <ele>453.66534423828</ele>
        <time>2010-10-03T05:57:27Z</time>
      </trkpt>
      <trkpt lat="45.96703" lon="1.3394">
        <ele>453.85803222656</ele>
        <time>2010-10-03T05:57:30Z</time>
      </trkpt>
      <trkpt lat="45.96709" lon="1.33949">
        <ele>454.74060058594</ele>
        <time>2010-10-03T05:57:36Z</time>
      </trkpt>
      <trkpt lat="45.96718" lon="1.33959">
        <ele>456.20199584961</ele>
        <time>2010-10-03T05:57:42Z</time>
      </trkpt>
      <trkpt lat="45.96725" lon="1.33971">
        <ele>456.70269775391</ele>
        <time>2010-10-03T05:57:48Z</time>
      </trkpt>
      <trkpt lat="45.9673" lon="1.33979">
        <ele>457.30661010742</ele>
        <time>2010-10-03T05:57:53Z</time>
      </trkpt>
      <trkpt lat="45.96734" lon="1.33986">
        <ele>457.71551513672</ele>
        <time>2010-10-03T05:57:57Z</time>
      </trkpt>
      <trkpt lat="45.96741" lon="1.33995">
        <ele>458.92837524414</ele>
        <time>2010-10-03T05:58:03Z</time>
      </trkpt>
      <trkpt lat="45.96745" lon="1.34006">
        <ele>458.73651123047</ele>
        <time>2010-10-03T05:58:09Z</time>
      </trkpt>
      <trkpt lat="45.96746" lon="1.34007">
        <ele>458.7287902832</ele>
        <time>2010-10-03T05:58:10Z</time>
      </trkpt>
      <trkpt lat="45.96746" lon="1.34012">
        <ele>458.20315551758</ele>
        <time>2010-10-03T05:58:12Z</time>
      </trkpt>
      <trkpt lat="45.96751" lon="1.34021">
        <ele>458.45855712891</ele>
        <time>2010-10-03T05:58:17Z</time>
      </trkpt>
      <trkpt lat="45.96753" lon="1.34024">
        <ele>458.71322631836</ele>
        <time>2010-10-03T05:58:18Z</time>
      </trkpt>
      <trkpt lat="45.96756" lon="1.34031">
        <ele>459.05834960938</ele>
        <time>2010-10-03T05:58:21Z</time>
      </trkpt>
      <trkpt lat="45.9676" lon="1.34035">
        <ele>459.74880981445</ele>
        <time>2010-10-03T05:58:24Z</time>
      </trkpt>
      <trkpt lat="45.96766" lon="1.34048">
        <ele>460.29296875</ele>
        <time>2010-10-03T05:58:31Z</time>
      </trkpt>
      <trkpt lat="45.96771" lon="1.34058">
        <ele>460.70095825195</ele>
        <time>2010-10-03T05:58:36Z</time>
      </trkpt>
      <trkpt lat="45.96776" lon="1.34065">
        <ele>461.49255371094</ele>
        <time>2010-10-03T05:58:40Z</time>
      </trkpt>
      <trkpt lat="45.96785" lon="1.3408">
        <ele>462.48980712891</ele>
        <time>2010-10-03T05:58:46Z</time>
      </trkpt>
      <trkpt lat="45.96791" lon="1.34088">
        <ele>463.83642578125</ele>
        <time>2010-10-03T05:58:50Z</time>
      </trkpt>
      <trkpt lat="45.96799" lon="1.34102">
        <ele>465.15405273438</ele>
        <time>2010-10-03T05:58:56Z</time>
      </trkpt>
      <trkpt lat="45.96806" lon="1.34112">
        <ele>466.07354736328</ele>
        <time>2010-10-03T05:59:03Z</time>
      </trkpt>
      <trkpt lat="45.96809" lon="1.34122">
        <ele>466.09683227539</ele>
        <time>2010-10-03T05:59:08Z</time>
      </trkpt>
      <trkpt lat="45.96814" lon="1.3413">
        <ele>466.59338378906</ele>
        <time>2010-10-03T05:59:12Z</time>
      </trkpt>
      <trkpt lat="45.96822" lon="1.34141">
        <ele>467.87893676758</ele>
        <time>2010-10-03T05:59:18Z</time>
      </trkpt>
      <trkpt lat="45.96829" lon="1.3415">
        <ele>468.99795532227</ele>
        <time>2010-10-03T05:59:24Z</time>
      </trkpt>
      <trkpt lat="45.96837" lon="1.3416">
        <ele>470.32220458984</ele>
        <time>2010-10-03T05:59:31Z</time>
      </trkpt>
      <trkpt lat="45.96842" lon="1.34171">
        <ele>470.82122802734</ele>
        <time>2010-10-03T05:59:37Z</time>
      </trkpt>
      <trkpt lat="45.96849" lon="1.34184">
        <ele>472.25802612305</ele>
        <time>2010-10-03T05:59:44Z</time>
      </trkpt>
      <trkpt lat="45.96858" lon="1.34196">
        <ele>474.42269897461</ele>
        <time>2010-10-03T05:59:51Z</time>
      </trkpt>
      <trkpt lat="45.96859" lon="1.34197">
        <ele>474.79504394531</ele>
        <time>2010-10-03T05:59:52Z</time>
      </trkpt>
      <trkpt lat="45.96867" lon="1.34203">
        <ele>476.58145141602</ele>
        <time>2010-10-03T05:59:57Z</time>
      </trkpt>
      <trkpt lat="45.96872" lon="1.34207">
        <ele>477.95397949219</ele>
        <time>2010-10-03T06:00:02Z</time>
      </trkpt>
      <trkpt lat="45.96875" lon="1.34209">
        <ele>478.68991088867</ele>
        <time>2010-10-03T06:00:05Z</time>
      </trkpt>
      <trkpt lat="45.9688" lon="1.34219">
        <ele>479.23013305664</ele>
        <time>2010-10-03T06:00:11Z</time>
      </trkpt>
      <trkpt lat="45.96883" lon="1.34227">
        <ele>479.45651245117</ele>
        <time>2010-10-03T06:00:16Z</time>
      </trkpt>
      <trkpt lat="45.96889" lon="1.34236">
        <ele>480.15536499023</ele>
        <time>2010-10-03T06:00:21Z</time>
      </trkpt>
      <trkpt lat="45.96893" lon="1.34247">
        <ele>479.92428588867</ele>
        <time>2010-10-03T06:00:26Z</time>
      </trkpt>
      <trkpt lat="45.96893" lon="1.34252">
        <ele>479.69567871094</ele>
        <time>2010-10-03T06:00:29Z</time>
      </trkpt>
      <trkpt lat="45.96895" lon="1.34266">
        <ele>479.97387695312</ele>
        <time>2010-10-03T06:00:36Z</time>
      </trkpt>
      <trkpt lat="45.96895" lon="1.34271">
        <ele>479.84921264648</ele>
        <time>2010-10-03T06:00:39Z</time>
      </trkpt>
      <trkpt lat="45.96899" lon="1.34279">
        <ele>480.6383972168</ele>
        <time>2010-10-03T06:00:43Z</time>
      </trkpt>
      <trkpt lat="45.96902" lon="1.34287">
        <ele>480.99249267578</ele>
        <time>2010-10-03T06:00:47Z</time>
      </trkpt>
      <trkpt lat="45.96905" lon="1.34297">
        <ele>481.33288574219</ele>
        <time>2010-10-03T06:00:52Z</time>
      </trkpt>
      <trkpt lat="45.96909" lon="1.34308">
        <ele>481.77716064453</ele>
        <time>2010-10-03T06:00:57Z</time>
      </trkpt>
      <trkpt lat="45.96912" lon="1.34315">
        <ele>481.98767089844</ele>
        <time>2010-10-03T06:01:01Z</time>
      </trkpt>
      <trkpt lat="45.96917" lon="1.34328">
        <ele>482.23886108398</ele>
        <time>2010-10-03T06:01:07Z</time>
      </trkpt>
      <trkpt lat="45.96924" lon="1.34338">
        <ele>482.96743774414</ele>
        <time>2010-10-03T06:01:13Z</time>
      </trkpt>
      <trkpt lat="45.9693" lon="1.34344">
        <ele>483.69439697266</ele>
        <time>2010-10-03T06:01:17Z</time>
      </trkpt>
      <trkpt lat="45.96938" lon="1.34352">
        <ele>484.88531494141</ele>
        <time>2010-10-03T06:01:26Z</time>
      </trkpt>
      <trkpt lat="45.96944" lon="1.34357">
        <ele>485.71447753906</ele>
        <time>2010-10-03T06:01:31Z</time>
      </trkpt>
      <trkpt lat="45.96954" lon="1.34361">
        <ele>486.9033203125</ele>
        <time>2010-10-03T06:01:38Z</time>
      </trkpt>
      <trkpt lat="45.96957" lon="1.34361">
        <ele>487.33920288086</ele>
        <time>2010-10-03T06:01:41Z</time>
      </trkpt>
      <trkpt lat="45.96962" lon="1.34364">
        <ele>487.99664306641</ele>
        <time>2010-10-03T06:01:46Z</time>
      </trkpt>
      <trkpt lat="45.96969" lon="1.34365">
        <ele>488.88189697266</ele>
        <time>2010-10-03T06:01:51Z</time>
      </trkpt>
      <trkpt lat="45.96982" lon="1.34369">
        <ele>490.63647460938</ele>
        <time>2010-10-03T06:01:57Z</time>
      </trkpt>
      <trkpt lat="45.96989" lon="1.34371">
        <ele>491.58541870117</ele>
        <time>2010-10-03T06:02:02Z</time>
      </trkpt>
      <trkpt lat="45.96997" lon="1.34375">
        <ele>492.58111572266</ele>
        <time>2010-10-03T06:02:07Z</time>
      </trkpt>
      <trkpt lat="45.97005" lon="1.34378">
        <ele>493.21936035156</ele>
        <time>2010-10-03T06:02:15Z</time>
      </trkpt>
      <trkpt lat="45.97017" lon="1.34379">
        <ele>493.56091308594</ele>
        <time>2010-10-03T06:02:22Z</time>
      </trkpt>
      <trkpt lat="45.97028" lon="1.34381">
        <ele>493.87197875977</ele>
        <time>2010-10-03T06:02:30Z</time>
      </trkpt>
      <trkpt lat="45.97037" lon="1.34384">
        <ele>494.08135986328</ele>
        <time>2010-10-03T06:02:35Z</time>
      </trkpt>
      <trkpt lat="45.97047" lon="1.34388">
        <ele>494.275390625</ele>
        <time>2010-10-03T06:02:43Z</time>
      </trkpt>
      <trkpt lat="45.97059" lon="1.34389">
        <ele>494.49996948242</ele>
        <time>2010-10-03T06:02:52Z</time>
      </trkpt>
      <trkpt lat="45.9707" lon="1.34387">
        <ele>494.7932434082</ele>
        <time>2010-10-03T06:02:59Z</time>
      </trkpt>
      <trkpt lat="45.97072" lon="1.34386">
        <ele>494.83953857422</ele>
        <time>2010-10-03T06:03:00Z</time>
      </trkpt>
      <trkpt lat="45.97079" lon="1.34378">
        <ele>495.27401733398</ele>
        <time>2010-10-03T06:03:07Z</time>
      </trkpt>
      <trkpt lat="45.97079" lon="1.34372">
        <ele>495.48449707031</ele>
        <time>2010-10-03T06:03:10Z</time>
      </trkpt>
      <trkpt lat="45.97084" lon="1.34356">
        <ele>496.14169311523</ele>
        <time>2010-10-03T06:03:18Z</time>
      </trkpt>
      <trkpt lat="45.97091" lon="1.34346">
        <ele>496.32958984375</ele>
        <time>2010-10-03T06:03:24Z</time>
      </trkpt>
      <trkpt lat="45.97092" lon="1.34344">
        <ele>496.37274169922</ele>
        <time>2010-10-03T06:03:25Z</time>
      </trkpt>
      <trkpt lat="45.97097" lon="1.34338">
        <ele>496.37762451172</ele>
        <time>2010-10-03T06:03:29Z</time>
      </trkpt>
      <trkpt lat="45.97107" lon="1.34319">
        <ele>497.58801269531</ele>
        <time>2010-10-03T06:03:36Z</time>
      </trkpt>
      <trkpt lat="45.97112" lon="1.34308">
        <ele>498.52069091797</ele>
        <time>2010-10-03T06:03:40Z</time>
      </trkpt>
      <trkpt lat="45.97117" lon="1.34291">
        <ele>499.8957824707</ele>
        <time>2010-10-03T06:03:46Z</time>
      </trkpt>
      <trkpt lat="45.97118" lon="1.34287">
        <ele>500.10787963867</ele>
        <time>2010-10-03T06:03:47Z</time>
      </trkpt>
      <trkpt lat="45.97119" lon="1.34276">
        <ele>501.15805053711</ele>
        <time>2010-10-03T06:03:50Z</time>
      </trkpt>
      <trkpt lat="45.97125" lon="1.34262">
        <ele>501.93615722656</ele>
        <time>2010-10-03T06:03:55Z</time>
      </trkpt>
      <trkpt lat="45.97132" lon="1.34249">
        <ele>502.46151733398</ele>
        <time>2010-10-03T06:04:01Z</time>
      </trkpt>
      <trkpt lat="45.97141" lon="1.34239">
        <ele>502.78134155273</ele>
        <time>2010-10-03T06:04:07Z</time>
      </trkpt>
      <trkpt lat="45.97142" lon="1.34238">
        <ele>502.75765991211</ele>
        <time>2010-10-03T06:04:08Z</time>
      </trkpt>
      <trkpt lat="45.97153" lon="1.34236">
        <ele>501.83334350586</ele>
        <time>2010-10-03T06:04:13Z</time>
      </trkpt>
      <trkpt lat="45.97166" lon="1.34232">
        <ele>500.82275390625</ele>
        <time>2010-10-03T06:04:19Z</time>
      </trkpt>
      <trkpt lat="45.97184" lon="1.34226">
        <ele>499.51950073242</ele>
        <time>2010-10-03T06:04:27Z</time>
      </trkpt>
      <trkpt lat="45.97194" lon="1.34221">
        <ele>498.87164306641</ele>
        <time>2010-10-03T06:04:32Z</time>
      </trkpt>
      <trkpt lat="45.97204" lon="1.34212">
        <ele>498.33206176758</ele>
        <time>2010-10-03T06:04:39Z</time>
      </trkpt>
      <trkpt lat="45.97208" lon="1.34201">
        <ele>498.49270629883</ele>
        <time>2010-10-03T06:04:46Z</time>
      </trkpt>
      <trkpt lat="45.97208" lon="1.34187">
        <ele>499.29187011719</ele>
        <time>2010-10-03T06:04:53Z</time>
      </trkpt>
      <trkpt lat="45.9721" lon="1.34176">
        <ele>499.74938964844</ele>
        <time>2010-10-03T06:04:59Z</time>
      </trkpt>
      <trkpt lat="45.9721" lon="1.34164">
        <ele>500.29092407227</ele>
        <time>2010-10-03T06:05:05Z</time>
      </trkpt>
      <trkpt lat="45.97207" lon="1.34149">
        <ele>500.57067871094</ele>
        <time>2010-10-03T06:05:11Z</time>
      </trkpt>
      <trkpt lat="45.97207" lon="1.34138">
        <ele>500.50665283203</ele>
        <time>2010-10-03T06:05:16Z</time>
      </trkpt>
      <trkpt lat="45.97206" lon="1.34129">
        <ele>500.58782958984</ele>
        <time>2010-10-03T06:05:20Z</time>
      </trkpt>
      <trkpt lat="45.97201" lon="1.34108">
        <ele>501.44979858398</ele>
        <time>2010-10-03T06:05:30Z</time>
      </trkpt>
      <trkpt lat="45.97196" lon="1.34099">
        <ele>502.41241455078</ele>
        <time>2010-10-03T06:05:35Z</time>
      </trkpt>
      <trkpt lat="45.97191" lon="1.34088">
        <ele>503.27554321289</ele>
        <time>2010-10-03T06:05:41Z</time>
      </trkpt>
      <trkpt lat="45.97187" lon="1.34079">
        <ele>503.95562744141</ele>
        <time>2010-10-03T06:05:46Z</time>
      </trkpt>
      <trkpt lat="45.97184" lon="1.3407">
        <ele>504.50814819336</ele>
        <time>2010-10-03T06:05:51Z</time>
      </trkpt>
      <trkpt lat="45.97178" lon="1.34056">
        <ele>505.62399291992</ele>
        <time>2010-10-03T06:05:58Z</time>
      </trkpt>
      <trkpt lat="45.97174" lon="1.34044">
        <ele>506.36740112305</ele>
        <time>2010-10-03T06:06:04Z</time>
      </trkpt>
      <trkpt lat="45.97169" lon="1.3403">
        <ele>507.43698120117</ele>
        <time>2010-10-03T06:06:10Z</time>
      </trkpt>
      <trkpt lat="45.97165" lon="1.34016">
        <ele>508.48590087891</ele>
        <time>2010-10-03T06:06:16Z</time>
      </trkpt>
      <trkpt lat="45.97162" lon="1.34004">
        <ele>509.0947265625</ele>
        <time>2010-10-03T06:06:21Z</time>
      </trkpt>
      <trkpt lat="45.9716" lon="1.33997">
        <ele>509.45416259766</ele>
        <time>2010-10-03T06:06:24Z</time>
      </trkpt>
      <trkpt lat="45.97158" lon="1.33981">
        <ele>509.62875366211</ele>
        <time>2010-10-03T06:06:30Z</time>
      </trkpt>
      <trkpt lat="45.97157" lon="1.33973">
        <ele>509.61431884766</ele>
        <time>2010-10-03T06:06:33Z</time>
      </trkpt>
      <trkpt lat="45.97156" lon="1.33955">
        <ele>509.37634277344</ele>
        <time>2010-10-03T06:06:39Z</time>
      </trkpt>
      <trkpt lat="45.97156" lon="1.33952">
        <ele>509.32165527344</ele>
        <time>2010-10-03T06:06:40Z</time>
      </trkpt>
      <trkpt lat="45.97153" lon="1.33937">
        <ele>509.71368408203</ele>
        <time>2010-10-03T06:06:46Z</time>
      </trkpt>
      <trkpt lat="45.9715" lon="1.33929">
        <ele>510.17233276367</ele>
        <time>2010-10-03T06:06:50Z</time>
      </trkpt>
      <trkpt lat="45.9715" lon="1.33927">
        <ele>510.22119140625</ele>
        <time>2010-10-03T06:06:51Z</time>
      </trkpt>
      <trkpt lat="45.97147" lon="1.3392">
        <ele>510.70034790039</ele>
        <time>2010-10-03T06:06:55Z</time>
      </trkpt>
      <trkpt lat="45.97143" lon="1.33912">
        <ele>511.19982910156</ele>
        <time>2010-10-03T06:06:59Z</time>
      </trkpt>
      <trkpt lat="45.97136" lon="1.33901">
        <ele>511.70550537109</ele>
        <time>2010-10-03T06:07:06Z</time>
      </trkpt>
      <trkpt lat="45.9713" lon="1.33893">
        <ele>512.37316894531</ele>
        <time>2010-10-03T06:07:11Z</time>
      </trkpt>
      <trkpt lat="45.97124" lon="1.33886">
        <ele>513.02136230469</ele>
        <time>2010-10-03T06:07:16Z</time>
      </trkpt>
      <trkpt lat="45.97122" lon="1.33883">
        <ele>513.27130126953</ele>
        <time>2010-10-03T06:07:18Z</time>
      </trkpt>
      <trkpt lat="45.9711" lon="1.33875">
        <ele>515.31420898438</ele>
        <time>2010-10-03T06:07:26Z</time>
      </trkpt>
      <trkpt lat="45.97103" lon="1.33871">
        <ele>516.43524169922</ele>
        <time>2010-10-03T06:07:30Z</time>
      </trkpt>
      <trkpt lat="45.97095" lon="1.33865">
        <ele>517.59033203125</ele>
        <time>2010-10-03T06:07:35Z</time>
      </trkpt>
      <trkpt lat="45.97088" lon="1.3386">
        <ele>518.83990478516</ele>
        <time>2010-10-03T06:07:41Z</time>
      </trkpt>
      <trkpt lat="45.97083" lon="1.33855">
        <ele>519.37194824219</ele>
        <time>2010-10-03T06:07:45Z</time>
      </trkpt>
      <trkpt lat="45.97075" lon="1.3385">
        <ele>519.46539306641</ele>
        <time>2010-10-03T06:07:50Z</time>
      </trkpt>
      <trkpt lat="45.97068" lon="1.33846">
        <ele>519.63903808594</ele>
        <time>2010-10-03T06:07:54Z</time>
      </trkpt>
      <trkpt lat="45.97063" lon="1.33842">
        <ele>519.68621826172</ele>
        <time>2010-10-03T06:07:58Z</time>
      </trkpt>
      <trkpt lat="45.97051" lon="1.33834">
        <ele>520.13586425781</ele>
        <time>2010-10-03T06:08:06Z</time>
      </trkpt>
      <trkpt lat="45.97044" lon="1.33831">
        <ele>520.65704345703</ele>
        <time>2010-10-03T06:08:10Z</time>
      </trkpt>
      <trkpt lat="45.97033" lon="1.33824">
        <ele>521.33795166016</ele>
        <time>2010-10-03T06:08:18Z</time>
      </trkpt>
      <trkpt lat="45.97023" lon="1.33818">
        <ele>521.91802978516</ele>
        <time>2010-10-03T06:08:25Z</time>
      </trkpt>
      <trkpt lat="45.97021" lon="1.33817">
        <ele>522.08239746094</ele>
        <time>2010-10-03T06:08:26Z</time>
      </trkpt>
      <trkpt lat="45.97014" lon="1.33811">
        <ele>522.62231445312</ele>
        <time>2010-10-03T06:08:30Z</time>
      </trkpt>
      <trkpt lat="45.97004" lon="1.33805">
        <ele>523.4951171875</ele>
        <time>2010-10-03T06:08:38Z</time>
      </trkpt>
      <trkpt lat="45.96998" lon="1.33802">
        <ele>523.84576416016</ele>
        <time>2010-10-03T06:08:43Z</time>
      </trkpt>
      <trkpt lat="45.96988" lon="1.33795">
        <ele>523.69177246094</ele>
        <time>2010-10-03T06:08:50Z</time>
      </trkpt>
      <trkpt lat="45.96976" lon="1.33787">
        <ele>523.80981445312</ele>
        <time>2010-10-03T06:08:57Z</time>
      </trkpt>
      <trkpt lat="45.96966" lon="1.33781">
        <ele>524.15838623047</ele>
        <time>2010-10-03T06:09:04Z</time>
      </trkpt>
      <trkpt lat="45.96955" lon="1.33774">
        <ele>524.79168701172</ele>
        <time>2010-10-03T06:09:11Z</time>
      </trkpt>
      <trkpt lat="45.96944" lon="1.33766">
        <ele>525.72088623047</ele>
        <time>2010-10-03T06:09:19Z</time>
      </trkpt>
      <trkpt lat="45.9693" lon="1.33757">
        <ele>527.34564208984</ele>
        <time>2010-10-03T06:09:29Z</time>
      </trkpt>
      <trkpt lat="45.96917" lon="1.33747">
        <ele>529.14404296875</ele>
        <time>2010-10-03T06:09:38Z</time>
      </trkpt>
      <trkpt lat="45.96908" lon="1.33734">
        <ele>528.66265869141</ele>
        <time>2010-10-03T06:09:46Z</time>
      </trkpt>
      <trkpt lat="45.96899" lon="1.33716">
        <ele>528.60687255859</ele>
        <time>2010-10-03T06:09:55Z</time>
      </trkpt>
      <trkpt lat="45.96894" lon="1.33704">
        <ele>528.69476318359</ele>
        <time>2010-10-03T06:10:01Z</time>
      </trkpt>
      <trkpt lat="45.96893" lon="1.33696">
        <ele>529.11358642578</ele>
        <time>2010-10-03T06:10:05Z</time>
      </trkpt>
      <trkpt lat="45.96893" lon="1.33692">
        <ele>529.35266113281</ele>
        <time>2010-10-03T06:10:07Z</time>
      </trkpt>
      <trkpt lat="45.96891" lon="1.33678">
        <ele>530.11486816406</ele>
        <time>2010-10-03T06:10:14Z</time>
      </trkpt>
      <trkpt lat="45.9689" lon="1.33673">
        <ele>530.38897705078</ele>
        <time>2010-10-03T06:10:17Z</time>
      </trkpt>
      <trkpt lat="45.96886" lon="1.33652">
        <ele>530.77325439453</ele>
        <time>2010-10-03T06:10:27Z</time>
      </trkpt>
      <trkpt lat="45.96885" lon="1.33647">
        <ele>530.81860351562</ele>
        <time>2010-10-03T06:10:29Z</time>
      </trkpt>
      <trkpt lat="45.96881" lon="1.33635">
        <ele>530.95111083984</ele>
        <time>2010-10-03T06:10:34Z</time>
      </trkpt>
      <trkpt lat="45.9688" lon="1.33628">
        <ele>531.06732177734</ele>
        <time>2010-10-03T06:10:37Z</time>
      </trkpt>
      <trkpt lat="45.96878" lon="1.33616">
        <ele>531.35217285156</ele>
        <time>2010-10-03T06:10:43Z</time>
      </trkpt>
      <trkpt lat="45.96874" lon="1.336">
        <ele>531.76348876953</ele>
        <time>2010-10-03T06:10:50Z</time>
      </trkpt>
      <trkpt lat="45.96872" lon="1.33588">
        <ele>532.07354736328</ele>
        <time>2010-10-03T06:10:55Z</time>
      </trkpt>
      <trkpt lat="45.96869" lon="1.33577">
        <ele>532.29748535156</ele>
        <time>2010-10-03T06:11:00Z</time>
      </trkpt>
      <trkpt lat="45.96866" lon="1.33562">
        <ele>532.50640869141</ele>
        <time>2010-10-03T06:11:07Z</time>
      </trkpt>
      <trkpt lat="45.96864" lon="1.33554">
        <ele>532.66064453125</ele>
        <time>2010-10-03T06:11:12Z</time>
      </trkpt>
      <trkpt lat="45.96863" lon="1.33543">
        <ele>532.8740234375</ele>
        <time>2010-10-03T06:11:17Z</time>
      </trkpt>
      <trkpt lat="45.96859" lon="1.33525">
        <ele>533.23687744141</ele>
        <time>2010-10-03T06:11:26Z</time>
      </trkpt>
      <trkpt lat="45.96856" lon="1.33507">
        <ele>533.58850097656</ele>
        <time>2010-10-03T06:11:34Z</time>
      </trkpt>
      <trkpt lat="45.96851" lon="1.33492">
        <ele>533.49114990234</ele>
        <time>2010-10-03T06:11:39Z</time>
      </trkpt>
      <trkpt lat="45.96846" lon="1.33473">
        <ele>533.04193115234</ele>
        <time>2010-10-03T06:11:45Z</time>
      </trkpt>
      <trkpt lat="45.96843" lon="1.33463">
        <ele>532.81561279297</ele>
        <time>2010-10-03T06:11:48Z</time>
      </trkpt>
      <trkpt lat="45.96835" lon="1.33443">
        <ele>532.34143066406</ele>
        <time>2010-10-03T06:11:55Z</time>
      </trkpt>
      <trkpt lat="45.96826" lon="1.33422">
        <ele>531.45324707031</ele>
        <time>2010-10-03T06:12:02Z</time>
      </trkpt>
      <trkpt lat="45.96816" lon="1.33403">
        <ele>529.90270996094</ele>
        <time>2010-10-03T06:12:09Z</time>
      </trkpt>
      <trkpt lat="45.96805" lon="1.33385">
        <ele>528.38110351562</ele>
        <time>2010-10-03T06:12:16Z</time>
      </trkpt>
      <trkpt lat="45.96796" lon="1.3337">
        <ele>527.29412841797</ele>
        <time>2010-10-03T06:12:22Z</time>
      </trkpt>
      <trkpt lat="45.96784" lon="1.33353">
        <ele>526.28930664062</ele>
        <time>2010-10-03T06:12:29Z</time>
      </trkpt>
      <trkpt lat="45.96772" lon="1.33335">
        <ele>525.54254150391</ele>
        <time>2010-10-03T06:12:37Z</time>
      </trkpt>
      <trkpt lat="45.96762" lon="1.33323">
        <ele>524.79028320312</ele>
        <time>2010-10-03T06:12:43Z</time>
      </trkpt>
      <trkpt lat="45.96753" lon="1.3331">
        <ele>524.17614746094</ele>
        <time>2010-10-03T06:12:49Z</time>
      </trkpt>
      <trkpt lat="45.96744" lon="1.33293">
        <ele>523.47247314453</ele>
        <time>2010-10-03T06:12:56Z</time>
      </trkpt>
      <trkpt lat="45.96738" lon="1.3328">
        <ele>523.00451660156</ele>
        <time>2010-10-03T06:13:01Z</time>
      </trkpt>
      <trkpt lat="45.96731" lon="1.33268">
        <ele>522.67156982422</ele>
        <time>2010-10-03T06:13:06Z</time>
      </trkpt>
      <trkpt lat="45.96725" lon="1.33255">
        <ele>522.41162109375</ele>
        <time>2010-10-03T06:13:12Z</time>
      </trkpt>
      <trkpt lat="45.96715" lon="1.33239">
        <ele>522.30181884766</ele>
        <time>2010-10-03T06:13:18Z</time>
      </trkpt>
      <trkpt lat="45.96708" lon="1.33229">
        <ele>522.37518310547</ele>
        <time>2010-10-03T06:13:22Z</time>
      </trkpt>
      <trkpt lat="45.96703" lon="1.33213">
        <ele>522.50054931641</ele>
        <time>2010-10-03T06:13:28Z</time>
      </trkpt>
      <trkpt lat="45.96699" lon="1.33196">
        <ele>522.64379882812</ele>
        <time>2010-10-03T06:13:34Z</time>
      </trkpt>
      <trkpt lat="45.96695" lon="1.33176">
        <ele>522.95434570312</ele>
        <time>2010-10-03T06:13:39Z</time>
      </trkpt>
      <trkpt lat="45.9669" lon="1.33153">
        <ele>523.73687744141</ele>
        <time>2010-10-03T06:13:45Z</time>
      </trkpt>
      <trkpt lat="45.96684" lon="1.3313">
        <ele>525.21771240234</ele>
        <time>2010-10-03T06:13:52Z</time>
      </trkpt>
      <trkpt lat="45.96678" lon="1.33112">
        <ele>526.7216796875</ele>
        <time>2010-10-03T06:13:58Z</time>
      </trkpt>
      <trkpt lat="45.96674" lon="1.33097">
        <ele>528.07153320312</ele>
        <time>2010-10-03T06:14:03Z</time>
      </trkpt>
      <trkpt lat="45.96669" lon="1.33082">
        <ele>529.56060791016</ele>
        <time>2010-10-03T06:14:08Z</time>
      </trkpt>
      <trkpt lat="45.96664" lon="1.33068">
        <ele>529.94091796875</ele>
        <time>2010-10-03T06:14:13Z</time>
      </trkpt>
      <trkpt lat="45.96659" lon="1.3305">
        <ele>529.67492675781</ele>
        <time>2010-10-03T06:14:19Z</time>
      </trkpt>
      <trkpt lat="45.96654" lon="1.33032">
        <ele>529.47760009766</ele>
        <time>2010-10-03T06:14:25Z</time>
      </trkpt>
      <trkpt lat="45.9665" lon="1.3302">
        <ele>529.40148925781</ele>
        <time>2010-10-03T06:14:29Z</time>
      </trkpt>
      <trkpt lat="45.96643" lon="1.33004">
        <ele>529.23223876953</ele>
        <time>2010-10-03T06:14:35Z</time>
      </trkpt>
      <trkpt lat="45.96639" lon="1.3299">
        <ele>529.30236816406</ele>
        <time>2010-10-03T06:14:40Z</time>
      </trkpt>
      <trkpt lat="45.96634" lon="1.32978">
        <ele>529.35192871094</ele>
        <time>2010-10-03T06:14:45Z</time>
      </trkpt>
      <trkpt lat="45.96629" lon="1.32973">
        <ele>529.31298828125</ele>
        <time>2010-10-03T06:14:49Z</time>
      </trkpt>
      <trkpt lat="45.96621" lon="1.32963">
        <ele>529.43231201172</ele>
        <time>2010-10-03T06:14:56Z</time>
      </trkpt>
      <trkpt lat="45.96615" lon="1.32957">
        <ele>529.51324462891</ele>
        <time>2010-10-03T06:15:01Z</time>
      </trkpt>
      <trkpt lat="45.96606" lon="1.32948">
        <ele>529.80944824219</ele>
        <time>2010-10-03T06:15:06Z</time>
      </trkpt>
      <trkpt lat="45.96592" lon="1.32937">
        <ele>530.35455322266</ele>
        <time>2010-10-03T06:15:13Z</time>
      </trkpt>
      <trkpt lat="45.96578" lon="1.32926">
        <ele>530.37091064453</ele>
        <time>2010-10-03T06:15:18Z</time>
      </trkpt>
      <trkpt lat="45.96564" lon="1.32917">
        <ele>528.99212646484</ele>
        <time>2010-10-03T06:15:24Z</time>
      </trkpt>
      <trkpt lat="45.96558" lon="1.32911">
        <ele>528.41888427734</ele>
        <time>2010-10-03T06:15:28Z</time>
      </trkpt>
      <trkpt lat="45.96548" lon="1.32907">
        <ele>527.17584228516</ele>
        <time>2010-10-03T06:15:33Z</time>
      </trkpt>
      <trkpt lat="45.96541" lon="1.32902">
        <ele>526.48937988281</ele>
        <time>2010-10-03T06:15:37Z</time>
      </trkpt>
      <trkpt lat="45.96531" lon="1.32895">
        <ele>525.57476806641</ele>
        <time>2010-10-03T06:15:42Z</time>
      </trkpt>
      <trkpt lat="45.9652" lon="1.32888">
        <ele>524.41168212891</ele>
        <time>2010-10-03T06:15:48Z</time>
      </trkpt>
      <trkpt lat="45.96509" lon="1.32886">
        <ele>522.92633056641</ele>
        <time>2010-10-03T06:15:53Z</time>
      </trkpt>
      <trkpt lat="45.965" lon="1.32892">
        <ele>521.10229492188</ele>
        <time>2010-10-03T06:15:59Z</time>
      </trkpt>
      <trkpt lat="45.96492" lon="1.32889">
        <ele>519.84771728516</ele>
        <time>2010-10-03T06:16:03Z</time>
      </trkpt>
      <trkpt lat="45.96484" lon="1.32886">
        <ele>518.63952636719</ele>
        <time>2010-10-03T06:16:08Z</time>
      </trkpt>
      <trkpt lat="45.96479" lon="1.32883">
        <ele>517.91589355469</ele>
        <time>2010-10-03T06:16:16Z</time>
      </trkpt>
      <trkpt lat="45.96475" lon="1.32878">
        <ele>517.77648925781</ele>
        <time>2010-10-03T06:16:21Z</time>
      </trkpt>
      <trkpt lat="45.96474" lon="1.32874">
        <ele>517.86737060547</ele>
        <time>2010-10-03T06:16:24Z</time>
      </trkpt>
      <trkpt lat="45.96463" lon="1.32864">
        <ele>516.86553955078</ele>
        <time>2010-10-03T06:16:30Z</time>
      </trkpt>
      <trkpt lat="45.96458" lon="1.32858">
        <ele>516.49877929688</ele>
        <time>2010-10-03T06:16:33Z</time>
      </trkpt>
      <trkpt lat="45.96456" lon="1.32858">
        <ele>516.18896484375</ele>
        <time>2010-10-03T06:16:35Z</time>
      </trkpt>
      <trkpt lat="45.96449" lon="1.32861">
        <ele>514.67486572266</ele>
        <time>2010-10-03T06:16:42Z</time>
      </trkpt>
      <trkpt lat="45.96446" lon="1.32862">
        <ele>514.15985107422</ele>
        <time>2010-10-03T06:16:44Z</time>
      </trkpt>
      <trkpt lat="45.96442" lon="1.32868">
        <ele>512.73541259766</ele>
        <time>2010-10-03T06:16:51Z</time>
      </trkpt>
      <trkpt lat="45.96439" lon="1.3287">
        <ele>511.94943237305</ele>
        <time>2010-10-03T06:16:54Z</time>
      </trkpt>
      <trkpt lat="45.96433" lon="1.32875">
        <ele>510.42132568359</ele>
        <time>2010-10-03T06:17:02Z</time>
      </trkpt>
      <trkpt lat="45.9643" lon="1.3288">
        <ele>509.39874267578</ele>
        <time>2010-10-03T06:17:06Z</time>
      </trkpt>
      <trkpt lat="45.96425" lon="1.32879">
        <ele>508.61663818359</ele>
        <time>2010-10-03T06:17:10Z</time>
      </trkpt>
      <trkpt lat="45.96423" lon="1.32875">
        <ele>508.69848632812</ele>
        <time>2010-10-03T06:17:16Z</time>
      </trkpt>
      <trkpt lat="45.96419" lon="1.32865">
        <ele>508.97653198242</ele>
        <time>2010-10-03T06:17:21Z</time>
      </trkpt>
      <trkpt lat="45.96412" lon="1.32855">
        <ele>508.58801269531</ele>
        <time>2010-10-03T06:17:26Z</time>
      </trkpt>
      <trkpt lat="45.96408" lon="1.3284">
        <ele>508.98675537109</ele>
        <time>2010-10-03T06:17:32Z</time>
      </trkpt>
      <trkpt lat="45.96407" lon="1.32837">
        <ele>509.06454467773</ele>
        <time>2010-10-03T06:17:33Z</time>
      </trkpt>
      <trkpt lat="45.96406" lon="1.32831">
        <ele>509.40371704102</ele>
        <time>2010-10-03T06:17:38Z</time>
      </trkpt>
      <trkpt lat="45.96407" lon="1.32833">
        <ele>509.39215087891</ele>
        <time>2010-10-03T06:17:39Z</time>
      </trkpt>
      <trkpt lat="45.9641" lon="1.32845">
        <ele>508.87716674805</ele>
        <time>2010-10-03T06:17:45Z</time>
      </trkpt>
      <trkpt lat="45.96405" lon="1.32856">
        <ele>506.6416015625</ele>
        <time>2010-10-03T06:17:50Z</time>
      </trkpt>
      <trkpt lat="45.96395" lon="1.32865">
        <ele>503.17953491211</ele>
        <time>2010-10-03T06:17:56Z</time>
      </trkpt>
      <trkpt lat="45.9639" lon="1.32871">
        <ele>501.34555053711</ele>
        <time>2010-10-03T06:17:59Z</time>
      </trkpt>
      <trkpt lat="45.96387" lon="1.32882">
        <ele>499.62213134766</ele>
        <time>2010-10-03T06:18:05Z</time>
      </trkpt>
      <trkpt lat="45.96389" lon="1.32886">
        <ele>499.53198242188</ele>
        <time>2010-10-03T06:18:08Z</time>
      </trkpt>
      <trkpt lat="45.96386" lon="1.32892">
        <ele>498.35040283203</ele>
        <time>2010-10-03T06:18:13Z</time>
      </trkpt>
      <trkpt lat="45.96383" lon="1.32898">
        <ele>496.99938964844</ele>
        <time>2010-10-03T06:18:19Z</time>
      </trkpt>
      <trkpt lat="45.96381" lon="1.32905">
        <ele>495.99102783203</ele>
        <time>2010-10-03T06:18:24Z</time>
      </trkpt>
      <trkpt lat="45.96377" lon="1.32914">
        <ele>494.28060913086</ele>
        <time>2010-10-03T06:18:30Z</time>
      </trkpt>
      <trkpt lat="45.96376" lon="1.32916">
        <ele>493.82406616211</ele>
        <time>2010-10-03T06:18:36Z</time>
      </trkpt>
      <trkpt lat="45.96375" lon="1.3292">
        <ele>493.05560302734</ele>
        <time>2010-10-03T06:18:45Z</time>
      </trkpt>
      <trkpt lat="45.96373" lon="1.32923">
        <ele>492.19818115234</ele>
        <time>2010-10-03T06:18:47Z</time>
      </trkpt>
      <trkpt lat="45.96371" lon="1.32929">
        <ele>490.96423339844</ele>
        <time>2010-10-03T06:18:49Z</time>
      </trkpt>
      <trkpt lat="45.96358" lon="1.32938">
        <ele>486.83999633789</ele>
        <time>2010-10-03T06:18:56Z</time>
      </trkpt>
      <trkpt lat="45.96343" lon="1.3294">
        <ele>483.48641967773</ele>
        <time>2010-10-03T06:19:03Z</time>
      </trkpt>
      <trkpt lat="45.96338" lon="1.32941">
        <ele>482.2287902832</ele>
        <time>2010-10-03T06:19:06Z</time>
      </trkpt>
      <trkpt lat="45.96332" lon="1.32935">
        <ele>481.65863037109</ele>
        <time>2010-10-03T06:19:12Z</time>
      </trkpt>
      <trkpt lat="45.96329" lon="1.32935">
        <ele>480.97790527344</ele>
        <time>2010-10-03T06:19:14Z</time>
      </trkpt>
      <trkpt lat="45.96323" lon="1.32935">
        <ele>479.77792358398</ele>
        <time>2010-10-03T06:19:18Z</time>
      </trkpt>
      <trkpt lat="45.96319" lon="1.32927">
        <ele>479.40347290039</ele>
        <time>2010-10-03T06:19:22Z</time>
      </trkpt>
      <trkpt lat="45.96318" lon="1.32922">
        <ele>479.65975952148</ele>
        <time>2010-10-03T06:19:25Z</time>
      </trkpt>
      <trkpt lat="45.96313" lon="1.32921">
        <ele>478.47909545898</ele>
        <time>2010-10-03T06:19:30Z</time>
      </trkpt>
      <trkpt lat="45.96308" lon="1.32924">
        <ele>477.09896850586</ele>
        <time>2010-10-03T06:19:33Z</time>
      </trkpt>
      <trkpt lat="45.963" lon="1.32929">
        <ele>474.87188720703</ele>
        <time>2010-10-03T06:19:39Z</time>
      </trkpt>
      <trkpt lat="45.96291" lon="1.3292">
        <ele>473.25057983398</ele>
        <time>2010-10-03T06:19:46Z</time>
      </trkpt>
      <trkpt lat="45.96286" lon="1.3291">
        <ele>472.23626708984</ele>
        <time>2010-10-03T06:19:51Z</time>
      </trkpt>
      <trkpt lat="45.9628" lon="1.32893">
        <ele>471.22396850586</ele>
        <time>2010-10-03T06:20:00Z</time>
      </trkpt>
      <trkpt lat="45.96279" lon="1.32892">
        <ele>471.1579284668</ele>
        <time>2010-10-03T06:20:01Z</time>
      </trkpt>
      <trkpt lat="45.96277" lon="1.32889">
        <ele>470.62008666992</ele>
        <time>2010-10-03T06:20:14Z</time>
      </trkpt>
      <trkpt lat="45.96276" lon="1.32887">
        <ele>470.38311767578</ele>
        <time>2010-10-03T06:20:21Z</time>
      </trkpt>
      <trkpt lat="45.96274" lon="1.32884">
        <ele>469.95904541016</ele>
        <time>2010-10-03T06:20:27Z</time>
      </trkpt>
      <trkpt lat="45.96272" lon="1.32877">
        <ele>469.50424194336</ele>
        <time>2010-10-03T06:20:32Z</time>
      </trkpt>
      <trkpt lat="45.96269" lon="1.32867">
        <ele>469.12811279297</ele>
        <time>2010-10-03T06:20:38Z</time>
      </trkpt>
      <trkpt lat="45.96269" lon="1.32849">
        <ele>469.48742675781</ele>
        <time>2010-10-03T06:20:46Z</time>
      </trkpt>
      <trkpt lat="45.96269" lon="1.32831">
        <ele>469.9133605957</ele>
        <time>2010-10-03T06:20:53Z</time>
      </trkpt>
      <trkpt lat="45.96266" lon="1.32816">
        <ele>469.25161743164</ele>
        <time>2010-10-03T06:20:58Z</time>
      </trkpt>
      <trkpt lat="45.96254" lon="1.32808">
        <ele>465.53671264648</ele>
        <time>2010-10-03T06:21:04Z</time>
      </trkpt>
      <trkpt lat="45.9624" lon="1.328">
        <ele>462.67065429688</ele>
        <time>2010-10-03T06:21:10Z</time>
      </trkpt>
      <trkpt lat="45.96231" lon="1.32796">
        <ele>461.18966674805</ele>
        <time>2010-10-03T06:21:14Z</time>
      </trkpt>
      <trkpt lat="45.96214" lon="1.32789">
        <ele>458.49514770508</ele>
        <time>2010-10-03T06:21:21Z</time>
      </trkpt>
      <trkpt lat="45.96196" lon="1.32789">
        <ele>455.4973449707</ele>
        <time>2010-10-03T06:21:28Z</time>
      </trkpt>
      <trkpt lat="45.96181" lon="1.32793">
        <ele>452.8132019043</ele>
        <time>2010-10-03T06:21:34Z</time>
      </trkpt>
      <trkpt lat="45.96163" lon="1.32798">
        <ele>449.8034362793</ele>
        <time>2010-10-03T06:21:41Z</time>
      </trkpt>
      <trkpt lat="45.96147" lon="1.32807">
        <ele>447.29547119141</ele>
        <time>2010-10-03T06:21:48Z</time>
      </trkpt>
      <trkpt lat="45.96135" lon="1.32815">
        <ele>445.10559082031</ele>
        <time>2010-10-03T06:21:53Z</time>
      </trkpt>
      <trkpt lat="45.96128" lon="1.3283">
        <ele>443.27172851562</ele>
        <time>2010-10-03T06:21:58Z</time>
      </trkpt>
      <trkpt lat="45.96124" lon="1.32851">
        <ele>441.76525878906</ele>
        <time>2010-10-03T06:22:04Z</time>
      </trkpt>
      <trkpt lat="45.9612" lon="1.32873">
        <ele>440.349609375</ele>
        <time>2010-10-03T06:22:10Z</time>
      </trkpt>
      <trkpt lat="45.96116" lon="1.32891">
        <ele>439.19769287109</ele>
        <time>2010-10-03T06:22:15Z</time>
      </trkpt>
      <trkpt lat="45.96112" lon="1.32911">
        <ele>437.92572021484</ele>
        <time>2010-10-03T06:22:21Z</time>
      </trkpt>
      <trkpt lat="45.96104" lon="1.3293">
        <ele>436.58752441406</ele>
        <time>2010-10-03T06:22:27Z</time>
      </trkpt>
      <trkpt lat="45.96092" lon="1.32943">
        <ele>434.40899658203</ele>
        <time>2010-10-03T06:22:33Z</time>
      </trkpt>
      <trkpt lat="45.96077" lon="1.32949">
        <ele>431.93640136719</ele>
        <time>2010-10-03T06:22:39Z</time>
      </trkpt>
      <trkpt lat="45.96063" lon="1.32945">
        <ele>430.14996337891</ele>
        <time>2010-10-03T06:22:44Z</time>
      </trkpt>
      <trkpt lat="45.96049" lon="1.32934">
        <ele>428.81579589844</ele>
        <time>2010-10-03T06:22:50Z</time>
      </trkpt>
      <trkpt lat="45.96038" lon="1.32922">
        <ele>428.19549560547</ele>
        <time>2010-10-03T06:22:55Z</time>
      </trkpt>
      <trkpt lat="45.96033" lon="1.32905">
        <ele>428.78448486328</ele>
        <time>2010-10-03T06:23:00Z</time>
      </trkpt>
      <trkpt lat="45.96029" lon="1.32888">
        <ele>429.74810791016</ele>
        <time>2010-10-03T06:23:05Z</time>
      </trkpt>
      <trkpt lat="45.96025" lon="1.32867">
        <ele>431.11724853516</ele>
        <time>2010-10-03T06:23:11Z</time>
      </trkpt>
      <trkpt lat="45.96024" lon="1.32849">
        <ele>432.55178833008</ele>
        <time>2010-10-03T06:23:16Z</time>
      </trkpt>
      <trkpt lat="45.96017" lon="1.32839">
        <ele>433.13549804688</ele>
        <time>2010-10-03T06:23:20Z</time>
      </trkpt>
      <trkpt lat="45.96007" lon="1.32833">
        <ele>433.31167602539</ele>
        <time>2010-10-03T06:23:25Z</time>
      </trkpt>
      <trkpt lat="45.95998" lon="1.3283">
        <ele>433.45358276367</ele>
        <time>2010-10-03T06:23:29Z</time>
      </trkpt>
      <trkpt lat="45.95983" lon="1.3283">
        <ele>433.11312866211</ele>
        <time>2010-10-03T06:23:35Z</time>
      </trkpt>
      <trkpt lat="45.95966" lon="1.32831">
        <ele>432.52633666992</ele>
        <time>2010-10-03T06:23:42Z</time>
      </trkpt>
      <trkpt lat="45.95952" lon="1.32834">
        <ele>431.7829284668</ele>
        <time>2010-10-03T06:23:47Z</time>
      </trkpt>
      <trkpt lat="45.95938" lon="1.32839">
        <ele>430.55490112305</ele>
        <time>2010-10-03T06:23:52Z</time>
      </trkpt>
      <trkpt lat="45.95927" lon="1.32845">
        <ele>429.32312011719</ele>
        <time>2010-10-03T06:23:57Z</time>
      </trkpt>
      <trkpt lat="45.95911" lon="1.32851">
        <ele>427.57211303711</ele>
        <time>2010-10-03T06:24:03Z</time>
      </trkpt>
      <trkpt lat="45.95897" lon="1.32856">
        <ele>425.83651733398</ele>
        <time>2010-10-03T06:24:09Z</time>
      </trkpt>
      <trkpt lat="45.95882" lon="1.32864">
        <ele>423.6344909668</ele>
        <time>2010-10-03T06:24:15Z</time>
      </trkpt>
      <trkpt lat="45.95871" lon="1.32882">
        <ele>420.18865966797</ele>
        <time>2010-10-03T06:24:22Z</time>
      </trkpt>
      <trkpt lat="45.95862" lon="1.32902">
        <ele>416.89352416992</ele>
        <time>2010-10-03T06:24:28Z</time>
      </trkpt>
      <trkpt lat="45.95853" lon="1.3292">
        <ele>414.19534301758</ele>
        <time>2010-10-03T06:24:34Z</time>
      </trkpt>
      <trkpt lat="45.95843" lon="1.32935">
        <ele>412.86154174805</ele>
        <time>2010-10-03T06:24:40Z</time>
      </trkpt>
      <trkpt lat="45.9583" lon="1.32949">
        <ele>412.05532836914</ele>
        <time>2010-10-03T06:24:46Z</time>
      </trkpt>
      <trkpt lat="45.95817" lon="1.32964">
        <ele>412.23001098633</ele>
        <time>2010-10-03T06:24:53Z</time>
      </trkpt>
      <trkpt lat="45.95804" lon="1.3298">
        <ele>411.91107177734</ele>
        <time>2010-10-03T06:25:00Z</time>
      </trkpt>
      <trkpt lat="45.95795" lon="1.32991">
        <ele>411.38153076172</ele>
        <time>2010-10-03T06:25:05Z</time>
      </trkpt>
      <trkpt lat="45.95787" lon="1.33005">
        <ele>410.34094238281</ele>
        <time>2010-10-03T06:25:10Z</time>
      </trkpt>
      <trkpt lat="45.95777" lon="1.33025">
        <ele>409.25393676758</ele>
        <time>2010-10-03T06:25:17Z</time>
      </trkpt>
      <trkpt lat="45.95765" lon="1.3304">
        <ele>408.57095336914</ele>
        <time>2010-10-03T06:25:23Z</time>
      </trkpt>
      <trkpt lat="45.95753" lon="1.33042">
        <ele>408.86639404297</ele>
        <time>2010-10-03T06:25:28Z</time>
      </trkpt>
      <trkpt lat="45.95742" lon="1.33039">
        <ele>409.06201171875</ele>
        <time>2010-10-03T06:25:33Z</time>
      </trkpt>
      <trkpt lat="45.95731" lon="1.33035">
        <ele>409.04699707031</ele>
        <time>2010-10-03T06:25:38Z</time>
      </trkpt>
      <trkpt lat="45.95716" lon="1.33029">
        <ele>409.28387451172</ele>
        <time>2010-10-03T06:25:44Z</time>
      </trkpt>
      <trkpt lat="45.95701" lon="1.33022">
        <ele>409.5475769043</ele>
        <time>2010-10-03T06:25:50Z</time>
      </trkpt>
      <trkpt lat="45.95687" lon="1.33017">
        <ele>409.75674438477</ele>
        <time>2010-10-03T06:25:56Z</time>
      </trkpt>
      <trkpt lat="45.95675" lon="1.33012">
        <ele>409.92208862305</ele>
        <time>2010-10-03T06:26:01Z</time>
      </trkpt>
      <trkpt lat="45.95664" lon="1.33007">
        <ele>410.24053955078</ele>
        <time>2010-10-03T06:26:07Z</time>
      </trkpt>
      <trkpt lat="45.9565" lon="1.33003">
        <ele>411.06607055664</ele>
        <time>2010-10-03T06:26:16Z</time>
      </trkpt>
      <trkpt lat="45.95641" lon="1.32999">
        <ele>411.7282409668</ele>
        <time>2010-10-03T06:26:21Z</time>
      </trkpt>
      <trkpt lat="45.95634" lon="1.3299">
        <ele>413.53869628906</ele>
        <time>2010-10-03T06:26:28Z</time>
      </trkpt>
      <trkpt lat="45.9563" lon="1.32978">
        <ele>415.74493408203</ele>
        <time>2010-10-03T06:26:35Z</time>
      </trkpt>
      <trkpt lat="45.95628" lon="1.32964">
        <ele>418.24877929688</ele>
        <time>2010-10-03T06:26:43Z</time>
      </trkpt>
      <trkpt lat="45.95627" lon="1.32953">
        <ele>420.18649291992</ele>
        <time>2010-10-03T06:26:49Z</time>
      </trkpt>
      <trkpt lat="45.95629" lon="1.3294">
        <ele>422.38812255859</ele>
        <time>2010-10-03T06:26:56Z</time>
      </trkpt>
      <trkpt lat="45.95636" lon="1.32931">
        <ele>424.00054931641</ele>
        <time>2010-10-03T06:27:02Z</time>
      </trkpt>
      <trkpt lat="45.95638" lon="1.3293">
        <ele>424.32995605469</ele>
        <time>2010-10-03T06:27:04Z</time>
      </trkpt>
      <trkpt lat="45.95644" lon="1.32919">
        <ele>426.27645874023</ele>
        <time>2010-10-03T06:27:11Z</time>
      </trkpt>
      <trkpt lat="45.9565" lon="1.32908">
        <ele>427.56704711914</ele>
        <time>2010-10-03T06:27:18Z</time>
      </trkpt>
      <trkpt lat="45.95654" lon="1.32902">
        <ele>428.1692199707</ele>
        <time>2010-10-03T06:27:22Z</time>
      </trkpt>
      <trkpt lat="45.9566" lon="1.32894">
        <ele>428.85504150391</ele>
        <time>2010-10-03T06:27:28Z</time>
      </trkpt>
      <trkpt lat="45.95661" lon="1.32891">
        <ele>429.1340637207</ele>
        <time>2010-10-03T06:27:30Z</time>
      </trkpt>
      <trkpt lat="45.9567" lon="1.32888">
        <ele>429.42691040039</ele>
        <time>2010-10-03T06:27:38Z</time>
      </trkpt>
      <trkpt lat="45.95678" lon="1.32889">
        <ele>429.44006347656</ele>
        <time>2010-10-03T06:27:45Z</time>
      </trkpt>
      <trkpt lat="45.95686" lon="1.32893">
        <ele>429.22909545898</ele>
        <time>2010-10-03T06:27:51Z</time>
      </trkpt>
      <trkpt lat="45.95692" lon="1.32895">
        <ele>429.0959777832</ele>
        <time>2010-10-03T06:27:56Z</time>
      </trkpt>
      <trkpt lat="45.95702" lon="1.32895">
        <ele>429.11343383789</ele>
        <time>2010-10-03T06:28:03Z</time>
      </trkpt>
      <trkpt lat="45.95705" lon="1.32893">
        <ele>429.35272216797</ele>
        <time>2010-10-03T06:28:06Z</time>
      </trkpt>
      <trkpt lat="45.95712" lon="1.32889">
        <ele>429.90322875977</ele>
        <time>2010-10-03T06:28:12Z</time>
      </trkpt>
      <trkpt lat="45.95716" lon="1.32884">
        <ele>430.44924926758</ele>
        <time>2010-10-03T06:28:17Z</time>
      </trkpt>
      <trkpt lat="45.95724" lon="1.32874">
        <ele>431.60687255859</ele>
        <time>2010-10-03T06:28:24Z</time>
      </trkpt>
      <trkpt lat="45.95731" lon="1.32867">
        <ele>432.55697631836</ele>
        <time>2010-10-03T06:28:30Z</time>
      </trkpt>
      <trkpt lat="45.95739" lon="1.3286">
        <ele>433.52011108398</ele>
        <time>2010-10-03T06:28:36Z</time>
      </trkpt>
      <trkpt lat="45.95747" lon="1.32853">
        <ele>434.52584838867</ele>
        <time>2010-10-03T06:28:43Z</time>
      </trkpt>
      <trkpt lat="45.95755" lon="1.32845">
        <ele>434.87799072266</ele>
        <time>2010-10-03T06:28:49Z</time>
      </trkpt>
      <trkpt lat="45.95761" lon="1.32835">
        <ele>435.29830932617</ele>
        <time>2010-10-03T06:28:56Z</time>
      </trkpt>
      <trkpt lat="45.95764" lon="1.32831">
        <ele>435.15451049805</ele>
        <time>2010-10-03T06:28:59Z</time>
      </trkpt>
      <trkpt lat="45.9577" lon="1.32822">
        <ele>434.82159423828</ele>
        <time>2010-10-03T06:29:05Z</time>
      </trkpt>
      <trkpt lat="45.95774" lon="1.32817">
        <ele>434.71624755859</ele>
        <time>2010-10-03T06:29:09Z</time>
      </trkpt>
      <trkpt lat="45.95779" lon="1.32808">
        <ele>434.88748168945</ele>
        <time>2010-10-03T06:29:14Z</time>
      </trkpt>
      <trkpt lat="45.95783" lon="1.32799">
        <ele>435.36853027344</ele>
        <time>2010-10-03T06:29:19Z</time>
      </trkpt>
      <trkpt lat="45.95787" lon="1.32788">
        <ele>436.16931152344</ele>
        <time>2010-10-03T06:29:23Z</time>
      </trkpt>
      <trkpt lat="45.95788" lon="1.32784">
        <ele>436.47134399414</ele>
        <time>2010-10-03T06:29:24Z</time>
      </trkpt>
      <trkpt lat="45.95795" lon="1.32773">
        <ele>437.47109985352</ele>
        <time>2010-10-03T06:29:30Z</time>
      </trkpt>
      <trkpt lat="45.95799" lon="1.32763">
        <ele>438.52285766602</ele>
        <time>2010-10-03T06:29:35Z</time>
      </trkpt>
      <trkpt lat="45.95804" lon="1.32758">
        <ele>439.28594970703</ele>
        <time>2010-10-03T06:29:39Z</time>
      </trkpt>
      <trkpt lat="45.95813" lon="1.32748">
        <ele>440.65863037109</ele>
        <time>2010-10-03T06:29:46Z</time>
      </trkpt>
      <trkpt lat="45.95818" lon="1.32741">
        <ele>441.5947265625</ele>
        <time>2010-10-03T06:29:51Z</time>
      </trkpt>
      <trkpt lat="45.95823" lon="1.32734">
        <ele>442.58206176758</ele>
        <time>2010-10-03T06:29:56Z</time>
      </trkpt>
      <trkpt lat="45.95831" lon="1.3272">
        <ele>444.82940673828</ele>
        <time>2010-10-03T06:30:05Z</time>
      </trkpt>
      <trkpt lat="45.95832" lon="1.32718">
        <ele>445.1125793457</ele>
        <time>2010-10-03T06:30:06Z</time>
      </trkpt>
      <trkpt lat="45.95833" lon="1.32708">
        <ele>446.48065185547</ele>
        <time>2010-10-03T06:30:11Z</time>
      </trkpt>
      <trkpt lat="45.95834" lon="1.32695">
        <ele>448.27807617188</ele>
        <time>2010-10-03T06:30:18Z</time>
      </trkpt>
      <trkpt lat="45.95832" lon="1.32687">
        <ele>449.11376953125</ele>
        <time>2010-10-03T06:30:21Z</time>
      </trkpt>
      <trkpt lat="45.95827" lon="1.3267">
        <ele>450.52490234375</ele>
        <time>2010-10-03T06:30:29Z</time>
      </trkpt>
      <trkpt lat="45.95824" lon="1.32658">
        <ele>450.6330871582</ele>
        <time>2010-10-03T06:30:35Z</time>
      </trkpt>
      <trkpt lat="45.95824" lon="1.32651">
        <ele>450.73132324219</ele>
        <time>2010-10-03T06:30:39Z</time>
      </trkpt>
      <trkpt lat="45.95824" lon="1.3264">
        <ele>451.04833984375</ele>
        <time>2010-10-03T06:30:45Z</time>
      </trkpt>
      <trkpt lat="45.95828" lon="1.32628">
        <ele>451.97094726562</ele>
        <time>2010-10-03T06:30:51Z</time>
      </trkpt>
      <trkpt lat="45.95834" lon="1.32622">
        <ele>453.15911865234</ele>
        <time>2010-10-03T06:30:56Z</time>
      </trkpt>
      <trkpt lat="45.95836" lon="1.32622">
        <ele>453.3039855957</ele>
        <time>2010-10-03T06:30:57Z</time>
      </trkpt>
      <trkpt lat="45.95837" lon="1.32622">
        <ele>453.42523193359</ele>
        <time>2010-10-03T06:30:59Z</time>
      </trkpt>
      <trkpt lat="45.95847" lon="1.32632">
        <ele>453.90881347656</ele>
        <time>2010-10-03T06:31:08Z</time>
      </trkpt>
      <trkpt lat="45.95853" lon="1.32638">
        <ele>454.14349365234</ele>
        <time>2010-10-03T06:31:13Z</time>
      </trkpt>
      <trkpt lat="45.95859" lon="1.32642">
        <ele>454.37475585938</ele>
        <time>2010-10-03T06:31:17Z</time>
      </trkpt>
      <trkpt lat="45.95866" lon="1.32647">
        <ele>454.57595825195</ele>
        <time>2010-10-03T06:31:22Z</time>
      </trkpt>
      <trkpt lat="45.95875" lon="1.32648">
        <ele>455.08544921875</ele>
        <time>2010-10-03T06:31:29Z</time>
      </trkpt>
      <trkpt lat="45.95882" lon="1.32647">
        <ele>455.64807128906</ele>
        <time>2010-10-03T06:31:35Z</time>
      </trkpt>
      <trkpt lat="45.9589" lon="1.32645">
        <ele>456.29873657227</ele>
        <time>2010-10-03T06:31:42Z</time>
      </trkpt>
      <trkpt lat="45.95899" lon="1.32645">
        <ele>456.89407348633</ele>
        <time>2010-10-03T06:31:48Z</time>
      </trkpt>
      <trkpt lat="45.95907" lon="1.32645">
        <ele>457.44607543945</ele>
        <time>2010-10-03T06:31:54Z</time>
      </trkpt>
      <trkpt lat="45.95916" lon="1.32645">
        <ele>458.02502441406</ele>
        <time>2010-10-03T06:32:00Z</time>
      </trkpt>
      <trkpt lat="45.95924" lon="1.32641">
        <ele>458.41998291016</ele>
        <time>2010-10-03T06:32:06Z</time>
      </trkpt>
      <trkpt lat="45.95931" lon="1.32636">
        <ele>458.93267822266</ele>
        <time>2010-10-03T06:32:12Z</time>
      </trkpt>
      <trkpt lat="45.95934" lon="1.32635">
        <ele>459.05969238281</ele>
        <time>2010-10-03T06:32:14Z</time>
      </trkpt>
      <trkpt lat="45.9594" lon="1.32624">
        <ele>460.06793212891</ele>
        <time>2010-10-03T06:32:21Z</time>
      </trkpt>
      <trkpt lat="45.95943" lon="1.32617">
        <ele>460.73626708984</ele>
        <time>2010-10-03T06:32:25Z</time>
      </trkpt>
      <trkpt lat="45.95947" lon="1.32609">
        <ele>461.49844360352</ele>
        <time>2010-10-03T06:32:30Z</time>
      </trkpt>
      <trkpt lat="45.95952" lon="1.326">
        <ele>462.41284179688</ele>
        <time>2010-10-03T06:32:35Z</time>
      </trkpt>
      <trkpt lat="45.95956" lon="1.32595">
        <ele>462.88659667969</ele>
        <time>2010-10-03T06:32:39Z</time>
      </trkpt>
      <trkpt lat="45.95961" lon="1.32588">
        <ele>463.54693603516</ele>
        <time>2010-10-03T06:32:44Z</time>
      </trkpt>
      <trkpt lat="45.95967" lon="1.32578">
        <ele>464.40863037109</ele>
        <time>2010-10-03T06:32:50Z</time>
      </trkpt>
      <trkpt lat="45.95974" lon="1.32571">
        <ele>465.02355957031</ele>
        <time>2010-10-03T06:32:56Z</time>
      </trkpt>
      <trkpt lat="45.95986" lon="1.32558">
        <ele>466.28509521484</ele>
        <time>2010-10-03T06:33:06Z</time>
      </trkpt>
      <trkpt lat="45.95995" lon="1.32544">
        <ele>467.65249633789</ele>
        <time>2010-10-03T06:33:15Z</time>
      </trkpt>
      <trkpt lat="45.96003" lon="1.32535">
        <ele>468.67544555664</ele>
        <time>2010-10-03T06:33:22Z</time>
      </trkpt>
      <trkpt lat="45.96012" lon="1.32526">
        <ele>469.79339599609</ele>
        <time>2010-10-03T06:33:30Z</time>
      </trkpt>
      <trkpt lat="45.96022" lon="1.32515">
        <ele>470.91860961914</ele>
        <time>2010-10-03T06:33:38Z</time>
      </trkpt>
      <trkpt lat="45.96031" lon="1.32503">
        <ele>472.08779907227</ele>
        <time>2010-10-03T06:33:46Z</time>
      </trkpt>
      <trkpt lat="45.96039" lon="1.32493">
        <ele>472.67352294922</ele>
        <time>2010-10-03T06:33:53Z</time>
      </trkpt>
      <trkpt lat="45.96045" lon="1.32487">
        <ele>472.95971679688</ele>
        <time>2010-10-03T06:33:58Z</time>
      </trkpt>
      <trkpt lat="45.96053" lon="1.32475">
        <ele>473.4987487793</ele>
        <time>2010-10-03T06:34:05Z</time>
      </trkpt>
      <trkpt lat="45.96061" lon="1.32465">
        <ele>474.07650756836</ele>
        <time>2010-10-03T06:34:12Z</time>
      </trkpt>
      <trkpt lat="45.9607" lon="1.32453">
        <ele>474.84658813477</ele>
        <time>2010-10-03T06:34:20Z</time>
      </trkpt>
      <trkpt lat="45.96077" lon="1.32444">
        <ele>475.44641113281</ele>
        <time>2010-10-03T06:34:26Z</time>
      </trkpt>
      <trkpt lat="45.96088" lon="1.32431">
        <ele>476.6159362793</ele>
        <time>2010-10-03T06:34:35Z</time>
      </trkpt>
      <trkpt lat="45.96089" lon="1.3243">
        <ele>476.7624206543</ele>
        <time>2010-10-03T06:34:36Z</time>
      </trkpt>
      <trkpt lat="45.96097" lon="1.32423">
        <ele>477.68826293945</ele>
        <time>2010-10-03T06:34:42Z</time>
      </trkpt>
      <trkpt lat="45.96102" lon="1.32416">
        <ele>478.31106567383</ele>
        <time>2010-10-03T06:34:46Z</time>
      </trkpt>
      <trkpt lat="45.96107" lon="1.32413">
        <ele>478.59707641602</ele>
        <time>2010-10-03T06:34:50Z</time>
      </trkpt>
      <trkpt lat="45.96124" lon="1.32408">
        <ele>479.58364868164</ele>
        <time>2010-10-03T06:35:00Z</time>
      </trkpt>
      <trkpt lat="45.96136" lon="1.32404">
        <ele>480.29116821289</ele>
        <time>2010-10-03T06:35:08Z</time>
      </trkpt>
      <trkpt lat="45.96149" lon="1.32402">
        <ele>481.05068969727</ele>
        <time>2010-10-03T06:35:16Z</time>
      </trkpt>
      <trkpt lat="45.96159" lon="1.324">
        <ele>481.6240234375</ele>
        <time>2010-10-03T06:35:22Z</time>
      </trkpt>
      <trkpt lat="45.96169" lon="1.32398">
        <ele>482.26113891602</ele>
        <time>2010-10-03T06:35:29Z</time>
      </trkpt>
      <trkpt lat="45.96181" lon="1.32396">
        <ele>482.82135009766</ele>
        <time>2010-10-03T06:35:36Z</time>
      </trkpt>
      <trkpt lat="45.96191" lon="1.32394">
        <ele>483.25289916992</ele>
        <time>2010-10-03T06:35:42Z</time>
      </trkpt>
      <trkpt lat="45.96206" lon="1.32391">
        <ele>483.86059570312</ele>
        <time>2010-10-03T06:35:51Z</time>
      </trkpt>
      <trkpt lat="45.96217" lon="1.32389">
        <ele>484.29943847656</ele>
        <time>2010-10-03T06:35:58Z</time>
      </trkpt>
      <trkpt lat="45.96225" lon="1.32387">
        <ele>484.50573730469</ele>
        <time>2010-10-03T06:36:03Z</time>
      </trkpt>
      <trkpt lat="45.96232" lon="1.32385">
        <ele>484.75225830078</ele>
        <time>2010-10-03T06:36:08Z</time>
      </trkpt>
      <trkpt lat="45.96237" lon="1.32387">
        <ele>485.09301757812</ele>
        <time>2010-10-03T06:36:11Z</time>
      </trkpt>
      <trkpt lat="45.96238" lon="1.32394">
        <ele>485.85159301758</ele>
        <time>2010-10-03T06:36:16Z</time>
      </trkpt>
      <trkpt lat="45.96236" lon="1.32398">
        <ele>486.14730834961</ele>
        <time>2010-10-03T06:36:19Z</time>
      </trkpt>
      <trkpt lat="45.9623" lon="1.3241">
        <ele>486.90502929688</ele>
        <time>2010-10-03T06:36:26Z</time>
      </trkpt>
      <trkpt lat="45.96227" lon="1.32421">
        <ele>487.35467529297</ele>
        <time>2010-10-03T06:36:32Z</time>
      </trkpt>
      <trkpt lat="45.96225" lon="1.32433">
        <ele>487.27081298828</ele>
        <time>2010-10-03T06:36:38Z</time>
      </trkpt>
      <trkpt lat="45.96228" lon="1.32448">
        <ele>487.57653808594</ele>
        <time>2010-10-03T06:36:45Z</time>
      </trkpt>
      <trkpt lat="45.9623" lon="1.32454">
        <ele>487.80075073242</ele>
        <time>2010-10-03T06:36:49Z</time>
      </trkpt>
      <trkpt lat="45.96232" lon="1.32459">
        <ele>488.08297729492</ele>
        <time>2010-10-03T06:36:56Z</time>
      </trkpt>
      <trkpt lat="45.96233" lon="1.3246">
        <ele>488.22354125977</ele>
        <time>2010-10-03T06:37:01Z</time>
      </trkpt>
      <trkpt lat="45.96236" lon="1.32462">
        <ele>488.58358764648</ele>
        <time>2010-10-03T06:37:05Z</time>
      </trkpt>
      <trkpt lat="45.96243" lon="1.32463">
        <ele>489.27670288086</ele>
        <time>2010-10-03T06:37:10Z</time>
      </trkpt>
      <trkpt lat="45.96252" lon="1.32465">
        <ele>490.58688354492</ele>
        <time>2010-10-03T06:37:18Z</time>
      </trkpt>
      <trkpt lat="45.9626" lon="1.32466">
        <ele>491.96716308594</ele>
        <time>2010-10-03T06:37:25Z</time>
      </trkpt>
      <trkpt lat="45.96268" lon="1.32469">
        <ele>493.47219848633</ele>
        <time>2010-10-03T06:37:32Z</time>
      </trkpt>
      <trkpt lat="45.96277" lon="1.3247">
        <ele>495.10134887695</ele>
        <time>2010-10-03T06:37:40Z</time>
      </trkpt>
      <trkpt lat="45.96283" lon="1.32473">
        <ele>496.36462402344</ele>
        <time>2010-10-03T06:37:46Z</time>
      </trkpt>
      <trkpt lat="45.9629" lon="1.32475">
        <ele>497.6907043457</ele>
        <time>2010-10-03T06:37:52Z</time>
      </trkpt>
      <trkpt lat="45.96299" lon="1.32477">
        <ele>499.37841796875</ele>
        <time>2010-10-03T06:37:59Z</time>
      </trkpt>
      <trkpt lat="45.9631" lon="1.3248">
        <ele>501.51950073242</ele>
        <time>2010-10-03T06:38:08Z</time>
      </trkpt>
      <trkpt lat="45.96315" lon="1.32482">
        <ele>502.60104370117</ele>
        <time>2010-10-03T06:38:14Z</time>
      </trkpt>
      <trkpt lat="45.9632" lon="1.32482">
        <ele>503.46328735352</ele>
        <time>2010-10-03T06:38:21Z</time>
      </trkpt>
      <trkpt lat="45.96326" lon="1.32484">
        <ele>504.67208862305</ele>
        <time>2010-10-03T06:38:27Z</time>
      </trkpt>
      <trkpt lat="45.96335" lon="1.32485">
        <ele>506.45806884766</ele>
        <time>2010-10-03T06:38:34Z</time>
      </trkpt>
      <trkpt lat="45.96345" lon="1.32488">
        <ele>508.9573059082</ele>
        <time>2010-10-03T06:38:43Z</time>
      </trkpt>
      <trkpt lat="45.96356" lon="1.32491">
        <ele>511.55712890625</ele>
        <time>2010-10-03T06:38:52Z</time>
      </trkpt>
      <trkpt lat="45.96363" lon="1.32491">
        <ele>513.14410400391</ele>
        <time>2010-10-03T06:38:58Z</time>
      </trkpt>
      <trkpt lat="45.96371" lon="1.32493">
        <ele>515.17633056641</ele>
        <time>2010-10-03T06:39:06Z</time>
      </trkpt>
      <trkpt lat="45.96379" lon="1.32495">
        <ele>517.20135498047</ele>
        <time>2010-10-03T06:39:14Z</time>
      </trkpt>
      <trkpt lat="45.96388" lon="1.32496">
        <ele>519.21136474609</ele>
        <time>2010-10-03T06:39:22Z</time>
      </trkpt>
      <trkpt lat="45.96396" lon="1.32498">
        <ele>521.23425292969</ele>
        <time>2010-10-03T06:39:30Z</time>
      </trkpt>
      <trkpt lat="45.96404" lon="1.325">
        <ele>523.08392333984</ele>
        <time>2010-10-03T06:39:37Z</time>
      </trkpt>
      <trkpt lat="45.9641" lon="1.32501">
        <ele>524.57849121094</ele>
        <time>2010-10-03T06:39:44Z</time>
      </trkpt>
      <trkpt lat="45.96416" lon="1.32503">
        <ele>525.98663330078</ele>
        <time>2010-10-03T06:39:50Z</time>
      </trkpt>
      <trkpt lat="45.96424" lon="1.32504">
        <ele>527.32873535156</ele>
        <time>2010-10-03T06:39:55Z</time>
      </trkpt>
      <trkpt lat="45.96432" lon="1.32506">
        <ele>528.81536865234</ele>
        <time>2010-10-03T06:40:01Z</time>
      </trkpt>
      <trkpt lat="45.96439" lon="1.32508">
        <ele>530.18731689453</ele>
        <time>2010-10-03T06:40:08Z</time>
      </trkpt>
      <trkpt lat="45.96441" lon="1.32508">
        <ele>530.53765869141</ele>
        <time>2010-10-03T06:40:10Z</time>
      </trkpt>
      <trkpt lat="45.96446" lon="1.32509">
        <ele>531.55206298828</ele>
        <time>2010-10-03T06:40:15Z</time>
      </trkpt>
      <trkpt lat="45.9645" lon="1.32511">
        <ele>532.28778076172</ele>
        <time>2010-10-03T06:40:19Z</time>
      </trkpt>
      <trkpt lat="45.96456" lon="1.32512">
        <ele>533.38391113281</ele>
        <time>2010-10-03T06:40:25Z</time>
      </trkpt>
      <trkpt lat="45.96462" lon="1.32514">
        <ele>534.56640625</ele>
        <time>2010-10-03T06:40:31Z</time>
      </trkpt>
      <trkpt lat="45.96466" lon="1.32515">
        <ele>535.32336425781</ele>
        <time>2010-10-03T06:40:35Z</time>
      </trkpt>
      <trkpt lat="45.96473" lon="1.32518">
        <ele>536.84118652344</ele>
        <time>2010-10-03T06:40:43Z</time>
      </trkpt>
      <trkpt lat="45.96481" lon="1.3252">
        <ele>538.41760253906</ele>
        <time>2010-10-03T06:40:50Z</time>
      </trkpt>
      <trkpt lat="45.96489" lon="1.32522">
        <ele>540.05285644531</ele>
        <time>2010-10-03T06:40:57Z</time>
      </trkpt>
      <trkpt lat="45.96498" lon="1.32525">
        <ele>541.89666748047</ele>
        <time>2010-10-03T06:41:04Z</time>
      </trkpt>
      <trkpt lat="45.96506" lon="1.32526">
        <ele>542.78594970703</ele>
        <time>2010-10-03T06:41:10Z</time>
      </trkpt>
      <trkpt lat="45.96513" lon="1.32528">
        <ele>543.51232910156</ele>
        <time>2010-10-03T06:41:16Z</time>
      </trkpt>
      <trkpt lat="45.9652" lon="1.32529">
        <ele>544.14642333984</ele>
        <time>2010-10-03T06:41:21Z</time>
      </trkpt>
      <trkpt lat="45.96524" lon="1.32541">
        <ele>545.03015136719</ele>
        <time>2010-10-03T06:41:28Z</time>
      </trkpt>
      <trkpt lat="45.96526" lon="1.32554">
        <ele>545.63122558594</ele>
        <time>2010-10-03T06:41:34Z</time>
      </trkpt>
      <trkpt lat="45.96527" lon="1.32566">
        <ele>546.26208496094</ele>
        <time>2010-10-03T06:41:40Z</time>
      </trkpt>
      <trkpt lat="45.96528" lon="1.32581">
        <ele>546.92944335938</ele>
        <time>2010-10-03T06:41:47Z</time>
      </trkpt>
      <trkpt lat="45.96528" lon="1.32596">
        <ele>546.48052978516</ele>
        <time>2010-10-03T06:41:54Z</time>
      </trkpt>
      <trkpt lat="45.96532" lon="1.32613">
        <ele>546.11431884766</ele>
        <time>2010-10-03T06:42:02Z</time>
      </trkpt>
      <trkpt lat="45.96537" lon="1.32617">
        <ele>546.41943359375</ele>
        <time>2010-10-03T06:42:06Z</time>
      </trkpt>
      <trkpt lat="45.96543" lon="1.32618">
        <ele>546.84344482422</ele>
        <time>2010-10-03T06:42:10Z</time>
      </trkpt>
      <trkpt lat="45.96553" lon="1.32621">
        <ele>547.62939453125</ele>
        <time>2010-10-03T06:42:17Z</time>
      </trkpt>
      <trkpt lat="45.96562" lon="1.32625">
        <ele>548.23883056641</ele>
        <time>2010-10-03T06:42:23Z</time>
      </trkpt>
      <trkpt lat="45.96563" lon="1.32625">
        <ele>548.32202148438</ele>
        <time>2010-10-03T06:42:24Z</time>
      </trkpt>
      <trkpt lat="45.96571" lon="1.32625">
        <ele>548.94964599609</ele>
        <time>2010-10-03T06:42:30Z</time>
      </trkpt>
      <trkpt lat="45.96574" lon="1.32627">
        <ele>549.14331054688</ele>
        <time>2010-10-03T06:42:32Z</time>
      </trkpt>
      <trkpt lat="45.96582" lon="1.32631">
        <ele>549.78277587891</ele>
        <time>2010-10-03T06:42:39Z</time>
      </trkpt>
      <trkpt lat="45.96591" lon="1.32633">
        <ele>549.48626708984</ele>
        <time>2010-10-03T06:42:46Z</time>
      </trkpt>
      <trkpt lat="45.96595" lon="1.32635">
        <ele>549.28198242188</ele>
        <time>2010-10-03T06:42:49Z</time>
      </trkpt>
      <trkpt lat="45.96607" lon="1.32638">
        <ele>548.7392578125</ele>
        <time>2010-10-03T06:42:57Z</time>
      </trkpt>
      <trkpt lat="45.96618" lon="1.32637">
        <ele>548.30474853516</ele>
        <time>2010-10-03T06:43:03Z</time>
      </trkpt>
      <trkpt lat="45.96626" lon="1.32635">
        <ele>548.04449462891</ele>
        <time>2010-10-03T06:43:07Z</time>
      </trkpt>
      <trkpt lat="45.96629" lon="1.32622">
        <ele>548.1279296875</ele>
        <time>2010-10-03T06:43:13Z</time>
      </trkpt>
      <trkpt lat="45.96631" lon="1.32608">
        <ele>548.27459716797</ele>
        <time>2010-10-03T06:43:18Z</time>
      </trkpt>
      <trkpt lat="45.96633" lon="1.32595">
        <ele>548.42358398438</ele>
        <time>2010-10-03T06:43:23Z</time>
      </trkpt>
      <trkpt lat="45.96635" lon="1.32584">
        <ele>548.50433349609</ele>
        <time>2010-10-03T06:43:28Z</time>
      </trkpt>
      <trkpt lat="45.96638" lon="1.32565">
        <ele>547.93878173828</ele>
        <time>2010-10-03T06:43:35Z</time>
      </trkpt>
      <trkpt lat="45.96639" lon="1.32547">
        <ele>547.45672607422</ele>
        <time>2010-10-03T06:43:41Z</time>
      </trkpt>
      <trkpt lat="45.9664" lon="1.32529">
        <ele>546.99438476562</ele>
        <time>2010-10-03T06:43:47Z</time>
      </trkpt>
      <trkpt lat="45.96643" lon="1.32511">
        <ele>546.38043212891</ele>
        <time>2010-10-03T06:43:53Z</time>
      </trkpt>
      <trkpt lat="45.96646" lon="1.32496">
        <ele>545.74664306641</ele>
        <time>2010-10-03T06:43:58Z</time>
      </trkpt>
      <trkpt lat="45.96647" lon="1.32478">
        <ele>544.40167236328</ele>
        <time>2010-10-03T06:44:04Z</time>
      </trkpt>
      <trkpt lat="45.96649" lon="1.32461">
        <ele>543.00006103516</ele>
        <time>2010-10-03T06:44:10Z</time>
      </trkpt>
      <trkpt lat="45.96653" lon="1.32438">
        <ele>541.23364257812</ele>
        <time>2010-10-03T06:44:18Z</time>
      </trkpt>
      <trkpt lat="45.96656" lon="1.32424">
        <ele>540.00543212891</ele>
        <time>2010-10-03T06:44:23Z</time>
      </trkpt>
      <trkpt lat="45.96662" lon="1.32408">
        <ele>538.13360595703</ele>
        <time>2010-10-03T06:44:29Z</time>
      </trkpt>
      <trkpt lat="45.96667" lon="1.32396">
        <ele>536.25299072266</ele>
        <time>2010-10-03T06:44:34Z</time>
      </trkpt>
      <trkpt lat="45.96671" lon="1.32383">
        <ele>534.13751220703</ele>
        <time>2010-10-03T06:44:39Z</time>
      </trkpt>
      <trkpt lat="45.96674" lon="1.32367">
        <ele>531.78668212891</ele>
        <time>2010-10-03T06:44:45Z</time>
      </trkpt>
      <trkpt lat="45.96677" lon="1.32347">
        <ele>528.67895507812</ele>
        <time>2010-10-03T06:44:52Z</time>
      </trkpt>
      <trkpt lat="45.96679" lon="1.3234">
        <ele>527.66943359375</ele>
        <time>2010-10-03T06:44:54Z</time>
      </trkpt>
      <trkpt lat="45.96679" lon="1.32324">
        <ele>525.20855712891</ele>
        <time>2010-10-03T06:44:59Z</time>
      </trkpt>
      <trkpt lat="45.96679" lon="1.32321">
        <ele>524.78625488281</ele>
        <time>2010-10-03T06:45:00Z</time>
      </trkpt>
      <trkpt lat="45.96677" lon="1.32306">
        <ele>522.84606933594</ele>
        <time>2010-10-03T06:45:04Z</time>
      </trkpt>
      <trkpt lat="45.96679" lon="1.32288">
        <ele>519.85516357422</ele>
        <time>2010-10-03T06:45:10Z</time>
      </trkpt>
      <trkpt lat="45.96678" lon="1.32272">
        <ele>517.61016845703</ele>
        <time>2010-10-03T06:45:15Z</time>
      </trkpt>
      <trkpt lat="45.96678" lon="1.32255">
        <ele>515.14807128906</ele>
        <time>2010-10-03T06:45:20Z</time>
      </trkpt>
      <trkpt lat="45.96675" lon="1.32236">
        <ele>512.22265625</ele>
        <time>2010-10-03T06:45:26Z</time>
      </trkpt>
      <trkpt lat="45.96675" lon="1.32221">
        <ele>509.34515380859</ele>
        <time>2010-10-03T06:45:31Z</time>
      </trkpt>
      <trkpt lat="45.96679" lon="1.32207">
        <ele>506.31359863281</ele>
        <time>2010-10-03T06:45:36Z</time>
      </trkpt>
      <trkpt lat="45.96679" lon="1.32191">
        <ele>503.10852050781</ele>
        <time>2010-10-03T06:45:41Z</time>
      </trkpt>
      <trkpt lat="45.9668" lon="1.32175">
        <ele>500.07247924805</ele>
        <time>2010-10-03T06:45:46Z</time>
      </trkpt>
      <trkpt lat="45.96677" lon="1.32161">
        <ele>497.47760009766</ele>
        <time>2010-10-03T06:45:51Z</time>
      </trkpt>
      <trkpt lat="45.96675" lon="1.32145">
        <ele>493.48101806641</ele>
        <time>2010-10-03T06:45:56Z</time>
      </trkpt>
      <trkpt lat="45.96676" lon="1.32138">
        <ele>491.23785400391</ele>
        <time>2010-10-03T06:45:59Z</time>
      </trkpt>
      <trkpt lat="45.96671" lon="1.3212">
        <ele>487.41436767578</ele>
        <time>2010-10-03T06:46:05Z</time>
      </trkpt>
      <trkpt lat="45.96666" lon="1.32116">
        <ele>487.04162597656</ele>
        <time>2010-10-03T06:46:07Z</time>
      </trkpt>
      <trkpt lat="45.96655" lon="1.32102">
        <ele>484.15921020508</ele>
        <time>2010-10-03T06:46:13Z</time>
      </trkpt>
      <trkpt lat="45.96642" lon="1.32092">
        <ele>482.26696777344</ele>
        <time>2010-10-03T06:46:19Z</time>
      </trkpt>
      <trkpt lat="45.96632" lon="1.32079">
        <ele>479.71298217773</ele>
        <time>2010-10-03T06:46:25Z</time>
      </trkpt>
      <trkpt lat="45.96624" lon="1.32073">
        <ele>478.63879394531</ele>
        <time>2010-10-03T06:46:29Z</time>
      </trkpt>
      <trkpt lat="45.96612" lon="1.32062">
        <ele>476.76397705078</ele>
        <time>2010-10-03T06:46:35Z</time>
      </trkpt>
      <trkpt lat="45.96601" lon="1.32051">
        <ele>474.45327758789</ele>
        <time>2010-10-03T06:46:42Z</time>
      </trkpt>
      <trkpt lat="45.96591" lon="1.32042">
        <ele>472.86312866211</ele>
        <time>2010-10-03T06:46:49Z</time>
      </trkpt>
      <trkpt lat="45.96582" lon="1.32034">
        <ele>471.41076660156</ele>
        <time>2010-10-03T06:46:55Z</time>
      </trkpt>
      <trkpt lat="45.96574" lon="1.32028">
        <ele>469.24719238281</ele>
        <time>2010-10-03T06:47:01Z</time>
      </trkpt>
      <trkpt lat="45.9657" lon="1.32023">
        <ele>467.56356811523</ele>
        <time>2010-10-03T06:47:05Z</time>
      </trkpt>
      <trkpt lat="45.96558" lon="1.32017">
        <ele>465.6389465332</ele>
        <time>2010-10-03T06:47:11Z</time>
      </trkpt>
      <trkpt lat="45.96552" lon="1.32011">
        <ele>463.76266479492</ele>
        <time>2010-10-03T06:47:15Z</time>
      </trkpt>
      <trkpt lat="45.96545" lon="1.32006">
        <ele>462.52478027344</ele>
        <time>2010-10-03T06:47:19Z</time>
      </trkpt>
      <trkpt lat="45.96532" lon="1.31994">
        <ele>459.67895507812</ele>
        <time>2010-10-03T06:47:26Z</time>
      </trkpt>
      <trkpt lat="45.96516" lon="1.31984">
        <ele>457.82974243164</ele>
        <time>2010-10-03T06:47:33Z</time>
      </trkpt>
      <trkpt lat="45.96504" lon="1.31978">
        <ele>456.58377075195</ele>
        <time>2010-10-03T06:47:38Z</time>
      </trkpt>
      <trkpt lat="45.96487" lon="1.31969">
        <ele>454.68869018555</ele>
        <time>2010-10-03T06:47:46Z</time>
      </trkpt>
      <trkpt lat="45.96472" lon="1.31962">
        <ele>453.28900146484</ele>
        <time>2010-10-03T06:47:53Z</time>
      </trkpt>
      <trkpt lat="45.9647" lon="1.31961">
        <ele>453.10290527344</ele>
        <time>2010-10-03T06:47:54Z</time>
      </trkpt>
      <trkpt lat="45.96462" lon="1.31958">
        <ele>452.56640625</ele>
        <time>2010-10-03T06:47:58Z</time>
      </trkpt>
      <trkpt lat="45.96447" lon="1.31951">
        <ele>451.65716552734</ele>
        <time>2010-10-03T06:48:05Z</time>
      </trkpt>
      <trkpt lat="45.96434" lon="1.31945">
        <ele>451.08380126953</ele>
        <time>2010-10-03T06:48:11Z</time>
      </trkpt>
      <trkpt lat="45.96422" lon="1.31939">
        <ele>450.79174804688</ele>
        <time>2010-10-03T06:48:17Z</time>
      </trkpt>
      <trkpt lat="45.96411" lon="1.31936">
        <ele>450.60604858398</ele>
        <time>2010-10-03T06:48:22Z</time>
      </trkpt>
      <trkpt lat="45.96395" lon="1.3193">
        <ele>450.27880859375</ele>
        <time>2010-10-03T06:48:29Z</time>
      </trkpt>
      <trkpt lat="45.96382" lon="1.31925">
        <ele>450.09164428711</ele>
        <time>2010-10-03T06:48:35Z</time>
      </trkpt>
      <trkpt lat="45.96368" lon="1.3192">
        <ele>450.0036315918</ele>
        <time>2010-10-03T06:48:41Z</time>
      </trkpt>
      <trkpt lat="45.96353" lon="1.31915">
        <ele>449.86175537109</ele>
        <time>2010-10-03T06:48:48Z</time>
      </trkpt>
      <trkpt lat="45.96342" lon="1.31911">
        <ele>449.56649780273</ele>
        <time>2010-10-03T06:48:53Z</time>
      </trkpt>
      <trkpt lat="45.96329" lon="1.31905">
        <ele>448.76159667969</ele>
        <time>2010-10-03T06:48:59Z</time>
      </trkpt>
      <trkpt lat="45.96318" lon="1.31899">
        <ele>447.42568969727</ele>
        <time>2010-10-03T06:49:05Z</time>
      </trkpt>
      <trkpt lat="45.96304" lon="1.31893">
        <ele>445.93298339844</ele>
        <time>2010-10-03T06:49:12Z</time>
      </trkpt>
      <trkpt lat="45.96294" lon="1.31893">
        <ele>445.17059326172</ele>
        <time>2010-10-03T06:49:18Z</time>
      </trkpt>
      <trkpt lat="45.96292" lon="1.31893">
        <ele>444.98135375977</ele>
        <time>2010-10-03T06:49:19Z</time>
      </trkpt>
      <trkpt lat="45.9628" lon="1.31883">
        <ele>443.28646850586</ele>
        <time>2010-10-03T06:49:26Z</time>
      </trkpt>
      <trkpt lat="45.96266" lon="1.31882">
        <ele>442.20159912109</ele>
        <time>2010-10-03T06:49:32Z</time>
      </trkpt>
      <trkpt lat="45.96254" lon="1.31885">
        <ele>441.42764282227</ele>
        <time>2010-10-03T06:49:37Z</time>
      </trkpt>
      <trkpt lat="45.96242" lon="1.3189">
        <ele>440.93698120117</ele>
        <time>2010-10-03T06:49:42Z</time>
      </trkpt>
      <trkpt lat="45.96225" lon="1.31892">
        <ele>440.05810546875</ele>
        <time>2010-10-03T06:49:49Z</time>
      </trkpt>
      <trkpt lat="45.96214" lon="1.31892">
        <ele>439.40225219727</ele>
        <time>2010-10-03T06:49:53Z</time>
      </trkpt>
      <trkpt lat="45.962" lon="1.31891">
        <ele>438.60250854492</ele>
        <time>2010-10-03T06:49:58Z</time>
      </trkpt>
      <trkpt lat="45.96195" lon="1.31891">
        <ele>438.29150390625</ele>
        <time>2010-10-03T06:50:00Z</time>
      </trkpt>
      <trkpt lat="45.96182" lon="1.31887">
        <ele>437.50717163086</ele>
        <time>2010-10-03T06:50:06Z</time>
      </trkpt>
      <trkpt lat="45.96167" lon="1.31884">
        <ele>436.64505004883</ele>
        <time>2010-10-03T06:50:14Z</time>
      </trkpt>
      <trkpt lat="45.96161" lon="1.31886">
        <ele>436.85360717773</ele>
        <time>2010-10-03T06:50:19Z</time>
      </trkpt>
      <trkpt lat="45.96156" lon="1.31882">
        <ele>437.07525634766</ele>
        <time>2010-10-03T06:50:24Z</time>
      </trkpt>
      <trkpt lat="45.96148" lon="1.31883">
        <ele>437.42630004883</ele>
        <time>2010-10-03T06:50:30Z</time>
      </trkpt>
      <trkpt lat="45.96139" lon="1.31884">
        <ele>437.80450439453</ele>
        <time>2010-10-03T06:50:38Z</time>
      </trkpt>
      <trkpt lat="45.96131" lon="1.31884">
        <ele>438.12582397461</ele>
        <time>2010-10-03T06:50:44Z</time>
      </trkpt>
      <trkpt lat="45.96124" lon="1.31883">
        <ele>438.43249511719</ele>
        <time>2010-10-03T06:50:49Z</time>
      </trkpt>
      <trkpt lat="45.96121" lon="1.31873">
        <ele>438.72720336914</ele>
        <time>2010-10-03T06:50:56Z</time>
      </trkpt>
      <trkpt lat="45.9612" lon="1.31862">
        <ele>438.91342163086</ele>
        <time>2010-10-03T06:51:02Z</time>
      </trkpt>
      <trkpt lat="45.96121" lon="1.3186">
        <ele>438.91552734375</ele>
        <time>2010-10-03T06:51:03Z</time>
      </trkpt>
      <trkpt lat="45.9613" lon="1.3185">
        <ele>438.46575927734</ele>
        <time>2010-10-03T06:51:12Z</time>
      </trkpt>
      <trkpt lat="45.96137" lon="1.31844">
        <ele>438.09295654297</ele>
        <time>2010-10-03T06:51:18Z</time>
      </trkpt>
      <trkpt lat="45.96143" lon="1.31843">
        <ele>437.7158203125</ele>
        <time>2010-10-03T06:51:24Z</time>
      </trkpt>
      <trkpt lat="45.96146" lon="1.31834">
        <ele>437.48727416992</ele>
        <time>2010-10-03T06:51:29Z</time>
      </trkpt>
      <trkpt lat="45.96151" lon="1.31819">
        <ele>437.75094604492</ele>
        <time>2010-10-03T06:51:35Z</time>
      </trkpt>
      <trkpt lat="45.96155" lon="1.31809">
        <ele>438.00463867188</ele>
        <time>2010-10-03T06:51:40Z</time>
      </trkpt>
      <trkpt lat="45.9616" lon="1.3179">
        <ele>438.5573425293</ele>
        <time>2010-10-03T06:51:50Z</time>
      </trkpt>
      <trkpt lat="45.96161" lon="1.31785">
        <ele>438.70266723633</ele>
        <time>2010-10-03T06:51:52Z</time>
      </trkpt>
      <trkpt lat="45.96162" lon="1.31784">
        <ele>438.67669677734</ele>
        <time>2010-10-03T06:51:56Z</time>
      </trkpt>
      <trkpt lat="45.96169" lon="1.31774">
        <ele>438.89443969727</ele>
        <time>2010-10-03T06:52:05Z</time>
      </trkpt>
      <trkpt lat="45.96172" lon="1.31763">
        <ele>439.44793701172</ele>
        <time>2010-10-03T06:52:11Z</time>
      </trkpt>
      <trkpt lat="45.96179" lon="1.31754">
        <ele>439.94293212891</ele>
        <time>2010-10-03T06:52:18Z</time>
      </trkpt>
      <trkpt lat="45.96184" lon="1.31746">
        <ele>440.71508789062</ele>
        <time>2010-10-03T06:52:23Z</time>
      </trkpt>
      <trkpt lat="45.96195" lon="1.31735">
        <ele>442.36715698242</ele>
        <time>2010-10-03T06:52:31Z</time>
      </trkpt>
      <trkpt lat="45.96204" lon="1.31725">
        <ele>443.90014648438</ele>
        <time>2010-10-03T06:52:39Z</time>
      </trkpt>
      <trkpt lat="45.9621" lon="1.31718">
        <ele>444.99447631836</ele>
        <time>2010-10-03T06:52:44Z</time>
      </trkpt>
      <trkpt lat="45.9622" lon="1.3171">
        <ele>446.17361450195</ele>
        <time>2010-10-03T06:52:54Z</time>
      </trkpt>
      <trkpt lat="45.96228" lon="1.31705">
        <ele>447.00875854492</ele>
        <time>2010-10-03T06:53:02Z</time>
      </trkpt>
      <trkpt lat="45.96237" lon="1.31702">
        <ele>447.66366577148</ele>
        <time>2010-10-03T06:53:09Z</time>
      </trkpt>
      <trkpt lat="45.96246" lon="1.31699">
        <ele>448.27633666992</ele>
        <time>2010-10-03T06:53:16Z</time>
      </trkpt>
      <trkpt lat="45.96251" lon="1.31691">
        <ele>449.56582641602</ele>
        <time>2010-10-03T06:53:22Z</time>
      </trkpt>
      <trkpt lat="45.96254" lon="1.31679">
        <ele>451.57440185547</ele>
        <time>2010-10-03T06:53:28Z</time>
      </trkpt>
      <trkpt lat="45.96258" lon="1.31669">
        <ele>453.18258666992</ele>
        <time>2010-10-03T06:53:34Z</time>
      </trkpt>
      <trkpt lat="45.96263" lon="1.31657">
        <ele>454.89733886719</ele>
        <time>2010-10-03T06:53:42Z</time>
      </trkpt>
      <trkpt lat="45.96266" lon="1.31646">
        <ele>456.23544311523</ele>
        <time>2010-10-03T06:53:48Z</time>
      </trkpt>
      <trkpt lat="45.9627" lon="1.31635">
        <ele>457.6650390625</ele>
        <time>2010-10-03T06:53:53Z</time>
      </trkpt>
      <trkpt lat="45.96275" lon="1.31617">
        <ele>459.76165771484</ele>
        <time>2010-10-03T06:54:03Z</time>
      </trkpt>
      <trkpt lat="45.96279" lon="1.316">
        <ele>461.65472412109</ele>
        <time>2010-10-03T06:54:12Z</time>
      </trkpt>
      <trkpt lat="45.96281" lon="1.31589">
        <ele>462.75775146484</ele>
        <time>2010-10-03T06:54:18Z</time>
      </trkpt>
      <trkpt lat="45.96284" lon="1.31577">
        <ele>463.46591186523</ele>
        <time>2010-10-03T06:54:25Z</time>
      </trkpt>
      <trkpt lat="45.96286" lon="1.31567">
        <ele>463.56890869141</ele>
        <time>2010-10-03T06:54:31Z</time>
      </trkpt>
      <trkpt lat="45.96289" lon="1.31555">
        <ele>463.66744995117</ele>
        <time>2010-10-03T06:54:38Z</time>
      </trkpt>
      <trkpt lat="45.9629" lon="1.31545">
        <ele>463.73400878906</ele>
        <time>2010-10-03T06:54:44Z</time>
      </trkpt>
      <trkpt lat="45.96291" lon="1.31542">
        <ele>463.75436401367</ele>
        <time>2010-10-03T06:54:46Z</time>
      </trkpt>
      <trkpt lat="45.96291" lon="1.31523">
        <ele>463.87292480469</ele>
        <time>2010-10-03T06:54:55Z</time>
      </trkpt>
      <trkpt lat="45.9629" lon="1.31512">
        <ele>463.96411132812</ele>
        <time>2010-10-03T06:55:00Z</time>
      </trkpt>
      <trkpt lat="45.96288" lon="1.31495">
        <ele>463.47787475586</ele>
        <time>2010-10-03T06:55:07Z</time>
      </trkpt>
      <trkpt lat="45.96284" lon="1.3148">
        <ele>461.80145263672</ele>
        <time>2010-10-03T06:55:12Z</time>
      </trkpt>
      <trkpt lat="45.96279" lon="1.31465">
        <ele>459.98101806641</ele>
        <time>2010-10-03T06:55:17Z</time>
      </trkpt>
      <trkpt lat="45.96274" lon="1.31448">
        <ele>457.81826782227</ele>
        <time>2010-10-03T06:55:23Z</time>
      </trkpt>
      <trkpt lat="45.96266" lon="1.3143">
        <ele>455.35354614258</ele>
        <time>2010-10-03T06:55:30Z</time>
      </trkpt>
      <trkpt lat="45.96257" lon="1.31412">
        <ele>452.68051147461</ele>
        <time>2010-10-03T06:55:37Z</time>
      </trkpt>
      <trkpt lat="45.96252" lon="1.314">
        <ele>450.8635559082</ele>
        <time>2010-10-03T06:55:42Z</time>
      </trkpt>
      <trkpt lat="45.96244" lon="1.31386">
        <ele>450.30862426758</ele>
        <time>2010-10-03T06:55:48Z</time>
      </trkpt>
      <trkpt lat="45.96237" lon="1.31372">
        <ele>450.35702514648</ele>
        <time>2010-10-03T06:55:54Z</time>
      </trkpt>
      <trkpt lat="45.96235" lon="1.31368">
        <ele>450.40936279297</ele>
        <time>2010-10-03T06:55:56Z</time>
      </trkpt>
      <trkpt lat="45.96231" lon="1.31358">
        <ele>450.04260253906</ele>
        <time>2010-10-03T06:56:00Z</time>
      </trkpt>
      <trkpt lat="45.96223" lon="1.31341">
        <ele>449.69146728516</ele>
        <time>2010-10-03T06:56:08Z</time>
      </trkpt>
      <trkpt lat="45.96215" lon="1.31327">
        <ele>449.37796020508</ele>
        <time>2010-10-03T06:56:14Z</time>
      </trkpt>
      <trkpt lat="45.96207" lon="1.31305">
        <ele>447.86047363281</ele>
        <time>2010-10-03T06:56:22Z</time>
      </trkpt>
      <trkpt lat="45.96202" lon="1.31288">
        <ele>446.21603393555</ele>
        <time>2010-10-03T06:56:28Z</time>
      </trkpt>
      <trkpt lat="45.96196" lon="1.31268">
        <ele>443.82217407227</ele>
        <time>2010-10-03T06:56:35Z</time>
      </trkpt>
      <trkpt lat="45.96189" lon="1.31249">
        <ele>441.68521118164</ele>
        <time>2010-10-03T06:56:42Z</time>
      </trkpt>
      <trkpt lat="45.96184" lon="1.31232">
        <ele>439.95074462891</ele>
        <time>2010-10-03T06:56:49Z</time>
      </trkpt>
      <trkpt lat="45.9618" lon="1.31214">
        <ele>437.74948120117</ele>
        <time>2010-10-03T06:56:56Z</time>
      </trkpt>
      <trkpt lat="45.96175" lon="1.31194">
        <ele>435.30715942383</ele>
        <time>2010-10-03T06:57:03Z</time>
      </trkpt>
      <trkpt lat="45.96172" lon="1.31171">
        <ele>432.11608886719</ele>
        <time>2010-10-03T06:57:10Z</time>
      </trkpt>
      <trkpt lat="45.9617" lon="1.31152">
        <ele>429.80386352539</ele>
        <time>2010-10-03T06:57:16Z</time>
      </trkpt>
      <trkpt lat="45.9617" lon="1.31131">
        <ele>427.40356445312</ele>
        <time>2010-10-03T06:57:22Z</time>
      </trkpt>
      <trkpt lat="45.96169" lon="1.31116">
        <ele>425.64489746094</ele>
        <time>2010-10-03T06:57:27Z</time>
      </trkpt>
      <trkpt lat="45.96168" lon="1.311">
        <ele>423.91320800781</ele>
        <time>2010-10-03T06:57:32Z</time>
      </trkpt>
      <trkpt lat="45.96164" lon="1.31079">
        <ele>421.80865478516</ele>
        <time>2010-10-03T06:57:38Z</time>
      </trkpt>
      <trkpt lat="45.96162" lon="1.31064">
        <ele>419.86599731445</ele>
        <time>2010-10-03T06:57:43Z</time>
      </trkpt>
      <trkpt lat="45.96154" lon="1.31048">
        <ele>418.68411254883</ele>
        <time>2010-10-03T06:57:49Z</time>
      </trkpt>
      <trkpt lat="45.96143" lon="1.31036">
        <ele>418.4870300293</ele>
        <time>2010-10-03T06:57:55Z</time>
      </trkpt>
      <trkpt lat="45.96131" lon="1.31026">
        <ele>418.81838989258</ele>
        <time>2010-10-03T06:58:01Z</time>
      </trkpt>
      <trkpt lat="45.96119" lon="1.31019">
        <ele>419.39279174805</ele>
        <time>2010-10-03T06:58:07Z</time>
      </trkpt>
      <trkpt lat="45.96109" lon="1.31008">
        <ele>419.33450317383</ele>
        <time>2010-10-03T06:58:13Z</time>
      </trkpt>
      <trkpt lat="45.96102" lon="1.30992">
        <ele>418.43307495117</ele>
        <time>2010-10-03T06:58:20Z</time>
      </trkpt>
      <trkpt lat="45.96097" lon="1.30976">
        <ele>417.14962768555</ele>
        <time>2010-10-03T06:58:26Z</time>
      </trkpt>
      <trkpt lat="45.96096" lon="1.30959">
        <ele>415.28594970703</ele>
        <time>2010-10-03T06:58:32Z</time>
      </trkpt>
      <trkpt lat="45.96096" lon="1.3095">
        <ele>414.07089233398</ele>
        <time>2010-10-03T06:58:37Z</time>
      </trkpt>
      <trkpt lat="45.96097" lon="1.30948">
        <ele>413.81423950195</ele>
        <time>2010-10-03T06:58:38Z</time>
      </trkpt>
      <trkpt lat="45.96097" lon="1.30931">
        <ele>411.74142456055</ele>
        <time>2010-10-03T06:58:45Z</time>
      </trkpt>
      <trkpt lat="45.96099" lon="1.30913">
        <ele>409.41998291016</ele>
        <time>2010-10-03T06:58:51Z</time>
      </trkpt>
      <trkpt lat="45.96102" lon="1.30892">
        <ele>407.16906738281</ele>
        <time>2010-10-03T06:58:57Z</time>
      </trkpt>
      <trkpt lat="45.96108" lon="1.30875">
        <ele>405.14364624023</ele>
        <time>2010-10-03T06:59:02Z</time>
      </trkpt>
      <trkpt lat="45.96114" lon="1.30864">
        <ele>403.73504638672</ele>
        <time>2010-10-03T06:59:07Z</time>
      </trkpt>
      <trkpt lat="45.96121" lon="1.3085">
        <ele>402.28411865234</ele>
        <time>2010-10-03T06:59:13Z</time>
      </trkpt>
      <trkpt lat="45.96126" lon="1.30837">
        <ele>401.15930175781</ele>
        <time>2010-10-03T06:59:18Z</time>
      </trkpt>
      <trkpt lat="45.96136" lon="1.30816">
        <ele>400.28240966797</ele>
        <time>2010-10-03T06:59:26Z</time>
      </trkpt>
      <trkpt lat="45.96142" lon="1.308">
        <ele>400.03460693359</ele>
        <time>2010-10-03T06:59:32Z</time>
      </trkpt>
      <trkpt lat="45.96146" lon="1.3079">
        <ele>400.0009765625</ele>
        <time>2010-10-03T06:59:36Z</time>
      </trkpt>
      <trkpt lat="45.96151" lon="1.30778">
        <ele>400.07904052734</ele>
        <time>2010-10-03T06:59:41Z</time>
      </trkpt>
      <trkpt lat="45.96156" lon="1.30766">
        <ele>400.29354858398</ele>
        <time>2010-10-03T06:59:47Z</time>
      </trkpt>
      <trkpt lat="45.96158" lon="1.3076">
        <ele>400.43243408203</ele>
        <time>2010-10-03T06:59:50Z</time>
      </trkpt>
      <trkpt lat="45.96162" lon="1.30746">
        <ele>400.93377685547</ele>
        <time>2010-10-03T06:59:56Z</time>
      </trkpt>
      <trkpt lat="45.96166" lon="1.30739">
        <ele>401.49624633789</ele>
        <time>2010-10-03T07:00:01Z</time>
      </trkpt>
      <trkpt lat="45.96166" lon="1.30736">
        <ele>401.64617919922</ele>
        <time>2010-10-03T07:00:02Z</time>
      </trkpt>
      <trkpt lat="45.96169" lon="1.30728">
        <ele>402.04425048828</ele>
        <time>2010-10-03T07:00:06Z</time>
      </trkpt>
      <trkpt lat="45.96173" lon="1.30718">
        <ele>402.44354248047</ele>
        <time>2010-10-03T07:00:11Z</time>
      </trkpt>
      <trkpt lat="45.96177" lon="1.30702">
        <ele>403.10894775391</ele>
        <time>2010-10-03T07:00:19Z</time>
      </trkpt>
      <trkpt lat="45.9618" lon="1.30691">
        <ele>403.49194335938</ele>
        <time>2010-10-03T07:00:25Z</time>
      </trkpt>
      <trkpt lat="45.9618" lon="1.30673">
        <ele>404.24542236328</ele>
        <time>2010-10-03T07:00:32Z</time>
      </trkpt>
      <trkpt lat="45.96183" lon="1.30653">
        <ele>404.60150146484</ele>
        <time>2010-10-03T07:00:41Z</time>
      </trkpt>
      <trkpt lat="45.96184" lon="1.30634">
        <ele>404.83786010742</ele>
        <time>2010-10-03T07:00:49Z</time>
      </trkpt>
      <trkpt lat="45.96185" lon="1.30615">
        <ele>405.10375976562</ele>
        <time>2010-10-03T07:00:57Z</time>
      </trkpt>
      <trkpt lat="45.96187" lon="1.30594">
        <ele>405.35903930664</ele>
        <time>2010-10-03T07:01:06Z</time>
      </trkpt>
      <trkpt lat="45.9619" lon="1.30579">
        <ele>405.6311340332</ele>
        <time>2010-10-03T07:01:13Z</time>
      </trkpt>
      <trkpt lat="45.96196" lon="1.30564">
        <ele>406.27249145508</ele>
        <time>2010-10-03T07:01:21Z</time>
      </trkpt>
      <trkpt lat="45.96204" lon="1.30551">
        <ele>407.0491027832</ele>
        <time>2010-10-03T07:01:29Z</time>
      </trkpt>
      <trkpt lat="45.9621" lon="1.3054">
        <ele>407.92944335938</ele>
        <time>2010-10-03T07:01:35Z</time>
      </trkpt>
      <trkpt lat="45.96214" lon="1.30521">
        <ele>409.42178344727</ele>
        <time>2010-10-03T07:01:43Z</time>
      </trkpt>
      <trkpt lat="45.96217" lon="1.3051">
        <ele>410.47961425781</ele>
        <time>2010-10-03T07:01:50Z</time>
      </trkpt>
      <trkpt lat="45.96217" lon="1.30508">
        <ele>410.64575195312</ele>
        <time>2010-10-03T07:01:55Z</time>
      </trkpt>
      <trkpt lat="45.96215" lon="1.30492">
        <ele>411.5078125</ele>
        <time>2010-10-03T07:02:02Z</time>
      </trkpt>
      <trkpt lat="45.96211" lon="1.3047">
        <ele>412.49667358398</ele>
        <time>2010-10-03T07:02:09Z</time>
      </trkpt>
      <trkpt lat="45.96208" lon="1.30451">
        <ele>413.12051391602</ele>
        <time>2010-10-03T07:02:15Z</time>
      </trkpt>
      <trkpt lat="45.96201" lon="1.30438">
        <ele>412.68563842773</ele>
        <time>2010-10-03T07:02:20Z</time>
      </trkpt>
      <trkpt lat="45.96194" lon="1.30426">
        <ele>411.91415405273</ele>
        <time>2010-10-03T07:02:25Z</time>
      </trkpt>
      <trkpt lat="45.96184" lon="1.30412">
        <ele>410.60601806641</ele>
        <time>2010-10-03T07:02:31Z</time>
      </trkpt>
      <trkpt lat="45.96174" lon="1.30398">
        <ele>409.50997924805</ele>
        <time>2010-10-03T07:02:37Z</time>
      </trkpt>
      <trkpt lat="45.96166" lon="1.30387">
        <ele>408.72387695312</ele>
        <time>2010-10-03T07:02:42Z</time>
      </trkpt>
      <trkpt lat="45.96156" lon="1.30375">
        <ele>408.67987060547</ele>
        <time>2010-10-03T07:02:48Z</time>
      </trkpt>
      <trkpt lat="45.96146" lon="1.30362">
        <ele>408.72644042969</ele>
        <time>2010-10-03T07:02:54Z</time>
      </trkpt>
      <trkpt lat="45.96134" lon="1.30347">
        <ele>408.72830200195</ele>
        <time>2010-10-03T07:03:01Z</time>
      </trkpt>
      <trkpt lat="45.9612" lon="1.30337">
        <ele>408.34582519531</ele>
        <time>2010-10-03T07:03:08Z</time>
      </trkpt>
      <trkpt lat="45.96107" lon="1.3033">
        <ele>407.63803100586</ele>
        <time>2010-10-03T07:03:14Z</time>
      </trkpt>
      <trkpt lat="45.96096" lon="1.30324">
        <ele>406.55181884766</ele>
        <time>2010-10-03T07:03:19Z</time>
      </trkpt>
      <trkpt lat="45.96083" lon="1.30316">
        <ele>405.16125488281</ele>
        <time>2010-10-03T07:03:25Z</time>
      </trkpt>
      <trkpt lat="45.9607" lon="1.3031">
        <ele>404.36666870117</ele>
        <time>2010-10-03T07:03:31Z</time>
      </trkpt>
      <trkpt lat="45.96058" lon="1.30306">
        <ele>403.67736816406</ele>
        <time>2010-10-03T07:03:37Z</time>
      </trkpt>
      <trkpt lat="45.96045" lon="1.30303">
        <ele>402.97241210938</ele>
        <time>2010-10-03T07:03:43Z</time>
      </trkpt>
      <trkpt lat="45.96037" lon="1.30303">
        <ele>402.64468383789</ele>
        <time>2010-10-03T07:03:47Z</time>
      </trkpt>
      <trkpt lat="45.96027" lon="1.30301">
        <ele>402.17340087891</ele>
        <time>2010-10-03T07:03:52Z</time>
      </trkpt>
      <trkpt lat="45.96016" lon="1.303">
        <ele>401.63629150391</ele>
        <time>2010-10-03T07:03:58Z</time>
      </trkpt>
      <trkpt lat="45.96003" lon="1.30297">
        <ele>400.93453979492</ele>
        <time>2010-10-03T07:04:04Z</time>
      </trkpt>
      <trkpt lat="45.95991" lon="1.30289">
        <ele>400.13995361328</ele>
        <time>2010-10-03T07:04:09Z</time>
      </trkpt>
      <trkpt lat="45.95982" lon="1.30278">
        <ele>399.53591918945</ele>
        <time>2010-10-03T07:04:14Z</time>
      </trkpt>
      <trkpt lat="45.95977" lon="1.30265">
        <ele>399.05987548828</ele>
        <time>2010-10-03T07:04:19Z</time>
      </trkpt>
      <trkpt lat="45.95976" lon="1.30263">
        <ele>398.98638916016</ele>
        <time>2010-10-03T07:04:20Z</time>
      </trkpt>
      <trkpt lat="45.95973" lon="1.30256">
        <ele>398.82089233398</ele>
        <time>2010-10-03T07:04:23Z</time>
      </trkpt>
      <trkpt lat="45.95967" lon="1.30239">
        <ele>398.39529418945</ele>
        <time>2010-10-03T07:04:29Z</time>
      </trkpt>
      <trkpt lat="45.95966" lon="1.30237">
        <ele>398.33358764648</ele>
        <time>2010-10-03T07:04:30Z</time>
      </trkpt>
      <trkpt lat="45.95955" lon="1.30216">
        <ele>397.90725708008</ele>
        <time>2010-10-03T07:04:37Z</time>
      </trkpt>
      <trkpt lat="45.95945" lon="1.302">
        <ele>397.71340942383</ele>
        <time>2010-10-03T07:04:43Z</time>
      </trkpt>
      <trkpt lat="45.95934" lon="1.30183">
        <ele>397.66915893555</ele>
        <time>2010-10-03T07:04:50Z</time>
      </trkpt>
      <trkpt lat="45.95922" lon="1.30168">
        <ele>397.75588989258</ele>
        <time>2010-10-03T07:04:56Z</time>
      </trkpt>
      <trkpt lat="45.95913" lon="1.30159">
        <ele>397.99771118164</ele>
        <time>2010-10-03T07:05:01Z</time>
      </trkpt>
      <trkpt lat="45.95903" lon="1.30148">
        <ele>397.8303527832</ele>
        <time>2010-10-03T07:05:06Z</time>
      </trkpt>
      <trkpt lat="45.95893" lon="1.30137">
        <ele>397.81777954102</ele>
        <time>2010-10-03T07:05:12Z</time>
      </trkpt>
      <trkpt lat="45.95882" lon="1.30124">
        <ele>397.99145507812</ele>
        <time>2010-10-03T07:05:20Z</time>
      </trkpt>
      <trkpt lat="45.95881" lon="1.30123">
        <ele>398.01376342773</ele>
        <time>2010-10-03T07:05:21Z</time>
      </trkpt>
      <trkpt lat="45.9587" lon="1.30111">
        <ele>398.43298339844</ele>
        <time>2010-10-03T07:05:30Z</time>
      </trkpt>
      <trkpt lat="45.95863" lon="1.30101">
        <ele>398.87066650391</ele>
        <time>2010-10-03T07:05:37Z</time>
      </trkpt>
      <trkpt lat="45.95852" lon="1.30089">
        <ele>399.61996459961</ele>
        <time>2010-10-03T07:05:46Z</time>
      </trkpt>
      <trkpt lat="45.95842" lon="1.30074">
        <ele>400.24499511719</ele>
        <time>2010-10-03T07:05:56Z</time>
      </trkpt>
      <trkpt lat="45.95831" lon="1.3006">
        <ele>400.4797668457</ele>
        <time>2010-10-03T07:06:05Z</time>
      </trkpt>
      <trkpt lat="45.95821" lon="1.30045">
        <ele>400.40222167969</ele>
        <time>2010-10-03T07:06:14Z</time>
      </trkpt>
      <trkpt lat="45.95816" lon="1.30036">
        <ele>400.42797851562</ele>
        <time>2010-10-03T07:06:19Z</time>
      </trkpt>
      <trkpt lat="45.95814" lon="1.30027">
        <ele>400.59451293945</ele>
        <time>2010-10-03T07:06:23Z</time>
      </trkpt>
      <trkpt lat="45.95818" lon="1.30012">
        <ele>401.12808227539</ele>
        <time>2010-10-03T07:06:31Z</time>
      </trkpt>
      <trkpt lat="45.95823" lon="1.3">
        <ele>401.64416503906</ele>
        <time>2010-10-03T07:06:38Z</time>
      </trkpt>
      <trkpt lat="45.95829" lon="1.29987">
        <ele>402.02114868164</ele>
        <time>2010-10-03T07:06:45Z</time>
      </trkpt>
      <trkpt lat="45.95835" lon="1.29976">
        <ele>402.28894042969</ele>
        <time>2010-10-03T07:06:52Z</time>
      </trkpt>
      <trkpt lat="45.95847" lon="1.2996">
        <ele>402.32800292969</ele>
        <time>2010-10-03T07:07:03Z</time>
      </trkpt>
      <trkpt lat="45.95855" lon="1.29948">
        <ele>402.2292175293</ele>
        <time>2010-10-03T07:07:11Z</time>
      </trkpt>
      <trkpt lat="45.95863" lon="1.29933">
        <ele>402.00668334961</ele>
        <time>2010-10-03T07:07:20Z</time>
      </trkpt>
      <trkpt lat="45.95864" lon="1.29921">
        <ele>401.91632080078</ele>
        <time>2010-10-03T07:07:26Z</time>
      </trkpt>
      <trkpt lat="45.95862" lon="1.29907">
        <ele>402.56121826172</ele>
        <time>2010-10-03T07:07:32Z</time>
      </trkpt>
      <trkpt lat="45.95858" lon="1.29888">
        <ele>403.73147583008</ele>
        <time>2010-10-03T07:07:41Z</time>
      </trkpt>
      <trkpt lat="45.95856" lon="1.29874">
        <ele>404.56744384766</ele>
        <time>2010-10-03T07:07:48Z</time>
      </trkpt>
      <trkpt lat="45.95856" lon="1.29856">
        <ele>405.54992675781</ele>
        <time>2010-10-03T07:07:56Z</time>
      </trkpt>
      <trkpt lat="45.95858" lon="1.29843">
        <ele>406.32806396484</ele>
        <time>2010-10-03T07:08:02Z</time>
      </trkpt>
      <trkpt lat="45.95861" lon="1.29834">
        <ele>406.98248291016</ele>
        <time>2010-10-03T07:08:07Z</time>
      </trkpt>
      <trkpt lat="45.95861" lon="1.29832">
        <ele>407.08093261719</ele>
        <time>2010-10-03T07:08:08Z</time>
      </trkpt>
      <trkpt lat="45.95865" lon="1.29823">
        <ele>407.6755065918</ele>
        <time>2010-10-03T07:08:14Z</time>
      </trkpt>
      <trkpt lat="45.9587" lon="1.29811">
        <ele>408.56369018555</ele>
        <time>2010-10-03T07:08:22Z</time>
      </trkpt>
      <trkpt lat="45.95875" lon="1.29799">
        <ele>409.56192016602</ele>
        <time>2010-10-03T07:08:29Z</time>
      </trkpt>
      <trkpt lat="45.95881" lon="1.29791">
        <ele>410.44125366211</ele>
        <time>2010-10-03T07:08:35Z</time>
      </trkpt>
      <trkpt lat="45.95882" lon="1.2979">
        <ele>410.58535766602</ele>
        <time>2010-10-03T07:08:36Z</time>
      </trkpt>
      <trkpt lat="45.95888" lon="1.29784">
        <ele>411.45278930664</ele>
        <time>2010-10-03T07:08:42Z</time>
      </trkpt>
      <trkpt lat="45.9589" lon="1.29778">
        <ele>412.12832641602</ele>
        <time>2010-10-03T07:08:47Z</time>
      </trkpt>
      <trkpt lat="45.95891" lon="1.29776">
        <ele>412.35470581055</ele>
        <time>2010-10-03T07:08:48Z</time>
      </trkpt>
      <trkpt lat="45.95895" lon="1.29761">
        <ele>413.85498046875</ele>
        <time>2010-10-03T07:08:56Z</time>
      </trkpt>
      <trkpt lat="45.95897" lon="1.29748">
        <ele>415.1533203125</ele>
        <time>2010-10-03T07:09:01Z</time>
      </trkpt>
      <trkpt lat="45.95897" lon="1.29741">
        <ele>416.08209228516</ele>
        <time>2010-10-03T07:09:04Z</time>
      </trkpt>
      <trkpt lat="45.95895" lon="1.29729">
        <ele>417.5998840332</ele>
        <time>2010-10-03T07:09:10Z</time>
      </trkpt>
      <trkpt lat="45.95894" lon="1.29712">
        <ele>419.73013305664</ele>
        <time>2010-10-03T07:09:16Z</time>
      </trkpt>
      <trkpt lat="45.9589" lon="1.29694">
        <ele>421.73696899414</ele>
        <time>2010-10-03T07:09:22Z</time>
      </trkpt>
      <trkpt lat="45.95882" lon="1.29681">
        <ele>422.55584716797</ele>
        <time>2010-10-03T07:09:26Z</time>
      </trkpt>
      <trkpt lat="45.95874" lon="1.29671">
        <ele>422.90972900391</ele>
        <time>2010-10-03T07:09:33Z</time>
      </trkpt>
      <trkpt lat="45.95869" lon="1.29667">
        <ele>422.62231445312</ele>
        <time>2010-10-03T07:09:36Z</time>
      </trkpt>
      <trkpt lat="45.95861" lon="1.29662">
        <ele>422.23718261719</ele>
        <time>2010-10-03T07:09:41Z</time>
      </trkpt>
      <trkpt lat="45.95858" lon="1.2966">
        <ele>422.05783081055</ele>
        <time>2010-10-03T07:09:43Z</time>
      </trkpt>
      <trkpt lat="45.95853" lon="1.29657">
        <ele>421.81338500977</ele>
        <time>2010-10-03T07:09:46Z</time>
      </trkpt>
      <trkpt lat="45.95849" lon="1.29657">
        <ele>421.33020019531</ele>
        <time>2010-10-03T07:09:48Z</time>
      </trkpt>
      <trkpt lat="45.95843" lon="1.29653">
        <ele>421.06930541992</ele>
        <time>2010-10-03T07:09:52Z</time>
      </trkpt>
      <trkpt lat="45.95837" lon="1.29645">
        <ele>421.23141479492</ele>
        <time>2010-10-03T07:09:56Z</time>
      </trkpt>
      <trkpt lat="45.95832" lon="1.29634">
        <ele>421.75988769531</ele>
        <time>2010-10-03T07:10:00Z</time>
      </trkpt>
      <trkpt lat="45.95826" lon="1.29617">
        <ele>422.74203491211</ele>
        <time>2010-10-03T07:10:06Z</time>
      </trkpt>
      <trkpt lat="45.95822" lon="1.29609">
        <ele>422.86392211914</ele>
        <time>2010-10-03T07:10:09Z</time>
      </trkpt>
      <trkpt lat="45.95814" lon="1.2959">
        <ele>423.37283325195</ele>
        <time>2010-10-03T07:10:16Z</time>
      </trkpt>
      <trkpt lat="45.9581" lon="1.29574">
        <ele>424.1282043457</ele>
        <time>2010-10-03T07:10:21Z</time>
      </trkpt>
      <trkpt lat="45.95804" lon="1.29556">
        <ele>424.80706787109</ele>
        <time>2010-10-03T07:10:27Z</time>
      </trkpt>
      <trkpt lat="45.95795" lon="1.29544">
        <ele>424.54202270508</ele>
        <time>2010-10-03T07:10:33Z</time>
      </trkpt>
      <trkpt lat="45.95785" lon="1.29536">
        <ele>423.86877441406</ele>
        <time>2010-10-03T07:10:39Z</time>
      </trkpt>
      <trkpt lat="45.95771" lon="1.29525">
        <ele>423.03402709961</ele>
        <time>2010-10-03T07:10:46Z</time>
      </trkpt>
      <trkpt lat="45.9576" lon="1.29514">
        <ele>423.11709594727</ele>
        <time>2010-10-03T07:10:52Z</time>
      </trkpt>
      <trkpt lat="45.95755" lon="1.29504">
        <ele>423.9739074707</ele>
        <time>2010-10-03T07:10:57Z</time>
      </trkpt>
      <trkpt lat="45.95753" lon="1.29501">
        <ele>424.27087402344</ele>
        <time>2010-10-03T07:10:59Z</time>
      </trkpt>
      <trkpt lat="45.95751" lon="1.29491">
        <ele>424.82537841797</ele>
        <time>2010-10-03T07:11:03Z</time>
      </trkpt>
      <trkpt lat="45.95747" lon="1.29476">
        <ele>425.89443969727</ele>
        <time>2010-10-03T07:11:10Z</time>
      </trkpt>
      <trkpt lat="45.95743" lon="1.29466">
        <ele>426.45837402344</ele>
        <time>2010-10-03T07:11:15Z</time>
      </trkpt>
      <trkpt lat="45.95737" lon="1.29456">
        <ele>426.97979736328</ele>
        <time>2010-10-03T07:11:20Z</time>
      </trkpt>
      <trkpt lat="45.95733" lon="1.29446">
        <ele>427.50796508789</ele>
        <time>2010-10-03T07:11:26Z</time>
      </trkpt>
      <trkpt lat="45.95732" lon="1.29442">
        <ele>427.76373291016</ele>
        <time>2010-10-03T07:11:28Z</time>
      </trkpt>
      <trkpt lat="45.9573" lon="1.29433">
        <ele>428.3161315918</ele>
        <time>2010-10-03T07:11:33Z</time>
      </trkpt>
      <trkpt lat="45.95723" lon="1.29422">
        <ele>428.6428527832</ele>
        <time>2010-10-03T07:11:41Z</time>
      </trkpt>
      <trkpt lat="45.95715" lon="1.29409">
        <ele>428.66125488281</ele>
        <time>2010-10-03T07:11:49Z</time>
      </trkpt>
      <trkpt lat="45.95715" lon="1.294">
        <ele>428.7766418457</ele>
        <time>2010-10-03T07:11:54Z</time>
      </trkpt>
      <trkpt lat="45.95715" lon="1.2939">
        <ele>429.04724121094</ele>
        <time>2010-10-03T07:11:59Z</time>
      </trkpt>
      <trkpt lat="45.9572" lon="1.29379">
        <ele>429.77938842773</ele>
        <time>2010-10-03T07:12:06Z</time>
      </trkpt>
      <trkpt lat="45.95727" lon="1.29382">
        <ele>430.4807434082</ele>
        <time>2010-10-03T07:12:12Z</time>
      </trkpt>
      <trkpt lat="45.95732" lon="1.29386">
        <ele>430.89144897461</ele>
        <time>2010-10-03T07:12:17Z</time>
      </trkpt>
      <trkpt lat="45.95737" lon="1.29391">
        <ele>431.23040771484</ele>
        <time>2010-10-03T07:12:22Z</time>
      </trkpt>
      <trkpt lat="45.95745" lon="1.29394">
        <ele>431.9248046875</ele>
        <time>2010-10-03T07:12:29Z</time>
      </trkpt>
      <trkpt lat="45.95749" lon="1.29394">
        <ele>432.30899047852</ele>
        <time>2010-10-03T07:12:33Z</time>
      </trkpt>
      <trkpt lat="45.95754" lon="1.29392">
        <ele>432.95617675781</ele>
        <time>2010-10-03T07:12:38Z</time>
      </trkpt>
      <trkpt lat="45.95758" lon="1.29393">
        <ele>433.32077026367</ele>
        <time>2010-10-03T07:12:44Z</time>
      </trkpt>
      <trkpt lat="45.95761" lon="1.29394">
        <ele>433.59158325195</ele>
        <time>2010-10-03T07:12:50Z</time>
      </trkpt>
      <trkpt lat="45.95766" lon="1.29394">
        <ele>434.13931274414</ele>
        <time>2010-10-03T07:12:56Z</time>
      </trkpt>
      <trkpt lat="45.95771" lon="1.29388">
        <ele>435.10980224609</ele>
        <time>2010-10-03T07:13:02Z</time>
      </trkpt>
      <trkpt lat="45.95778" lon="1.29382">
        <ele>436.32632446289</ele>
        <time>2010-10-03T07:13:10Z</time>
      </trkpt>
      <trkpt lat="45.95784" lon="1.29377">
        <ele>437.34893798828</ele>
        <time>2010-10-03T07:13:17Z</time>
      </trkpt>
      <trkpt lat="45.95788" lon="1.29373">
        <ele>438.27041625977</ele>
        <time>2010-10-03T07:13:23Z</time>
      </trkpt>
      <trkpt lat="45.9579" lon="1.29369">
        <ele>438.76574707031</ele>
        <time>2010-10-03T07:13:26Z</time>
      </trkpt>
      <trkpt lat="45.95791" lon="1.29353">
        <ele>440.29510498047</ele>
        <time>2010-10-03T07:13:35Z</time>
      </trkpt>
      <trkpt lat="45.95792" lon="1.29346">
        <ele>440.99554443359</ele>
        <time>2010-10-03T07:13:39Z</time>
      </trkpt>
      <trkpt lat="45.95798" lon="1.29334">
        <ele>442.82543945312</ele>
        <time>2010-10-03T07:13:46Z</time>
      </trkpt>
      <trkpt lat="45.958" lon="1.2933">
        <ele>443.66918945312</ele>
        <time>2010-10-03T07:13:49Z</time>
      </trkpt>
      <trkpt lat="45.95805" lon="1.29316">
        <ele>446.42617797852</ele>
        <time>2010-10-03T07:13:58Z</time>
      </trkpt>
      <trkpt lat="45.95807" lon="1.29314">
        <ele>446.99426269531</ele>
        <time>2010-10-03T07:14:00Z</time>
      </trkpt>
      <trkpt lat="45.95813" lon="1.29307">
        <ele>449.193359375</ele>
        <time>2010-10-03T07:14:07Z</time>
      </trkpt>
      <trkpt lat="45.95819" lon="1.29304">
        <ele>450.65579223633</ele>
        <time>2010-10-03T07:14:13Z</time>
      </trkpt>
      <trkpt lat="45.9583" lon="1.29297">
        <ele>453.48107910156</ele>
        <time>2010-10-03T07:14:20Z</time>
      </trkpt>
      <trkpt lat="45.95837" lon="1.29295">
        <ele>454.958984375</ele>
        <time>2010-10-03T07:14:25Z</time>
      </trkpt>
      <trkpt lat="45.95839" lon="1.29295">
        <ele>455.24411010742</ele>
        <time>2010-10-03T07:14:26Z</time>
      </trkpt>
      <trkpt lat="45.95847" lon="1.29293">
        <ele>456.57168579102</ele>
        <time>2010-10-03T07:14:32Z</time>
      </trkpt>
      <trkpt lat="45.95848" lon="1.29293">
        <ele>456.82482910156</ele>
        <time>2010-10-03T07:14:33Z</time>
      </trkpt>
      <trkpt lat="45.95851" lon="1.29292">
        <ele>457.41937255859</ele>
        <time>2010-10-03T07:14:35Z</time>
      </trkpt>
      <trkpt lat="45.95857" lon="1.29292">
        <ele>458.228515625</ele>
        <time>2010-10-03T07:14:39Z</time>
      </trkpt>
      <trkpt lat="45.95862" lon="1.29291">
        <ele>458.97579956055</ele>
        <time>2010-10-03T07:14:42Z</time>
      </trkpt>
      <trkpt lat="45.9587" lon="1.29289">
        <ele>460.48645019531</ele>
        <time>2010-10-03T07:14:49Z</time>
      </trkpt>
      <trkpt lat="45.95873" lon="1.29288">
        <ele>461.0458984375</ele>
        <time>2010-10-03T07:14:52Z</time>
      </trkpt>
      <trkpt lat="45.95884" lon="1.29288">
        <ele>462.57803344727</ele>
        <time>2010-10-03T07:14:59Z</time>
      </trkpt>
      <trkpt lat="45.95891" lon="1.29286">
        <ele>463.86752319336</ele>
        <time>2010-10-03T07:15:04Z</time>
      </trkpt>
      <trkpt lat="45.95896" lon="1.29283">
        <ele>465.01495361328</ele>
        <time>2010-10-03T07:15:10Z</time>
      </trkpt>
      <trkpt lat="45.95896" lon="1.29281">
        <ele>465.40252685547</ele>
        <time>2010-10-03T07:15:11Z</time>
      </trkpt>
      <trkpt lat="45.95896" lon="1.29276">
        <ele>466.21920776367</ele>
        <time>2010-10-03T07:15:15Z</time>
      </trkpt>
      <trkpt lat="45.95895" lon="1.29269">
        <ele>467.08633422852</ele>
        <time>2010-10-03T07:15:20Z</time>
      </trkpt>
      <trkpt lat="45.9589" lon="1.29263">
        <ele>467.4674987793</ele>
        <time>2010-10-03T07:15:25Z</time>
      </trkpt>
      <trkpt lat="45.95883" lon="1.2926">
        <ele>466.84701538086</ele>
        <time>2010-10-03T07:15:32Z</time>
      </trkpt>
      <trkpt lat="45.95881" lon="1.2926">
        <ele>466.65289306641</ele>
        <time>2010-10-03T07:15:34Z</time>
      </trkpt>
      <trkpt lat="45.95872" lon="1.29258">
        <ele>465.74969482422</ele>
        <time>2010-10-03T07:15:40Z</time>
      </trkpt>
      <trkpt lat="45.95871" lon="1.29258">
        <ele>465.73336791992</ele>
        <time>2010-10-03T07:15:41Z</time>
      </trkpt>
      <trkpt lat="45.95867" lon="1.29255">
        <ele>465.6125793457</ele>
        <time>2010-10-03T07:15:45Z</time>
      </trkpt>
      <trkpt lat="45.95859" lon="1.2925">
        <ele>465.42028808594</ele>
        <time>2010-10-03T07:15:51Z</time>
      </trkpt>
      <trkpt lat="45.95854" lon="1.29248">
        <ele>465.0009765625</ele>
        <time>2010-10-03T07:15:55Z</time>
      </trkpt>
      <trkpt lat="45.9585" lon="1.29244">
        <ele>464.82278442383</ele>
        <time>2010-10-03T07:15:59Z</time>
      </trkpt>
      <trkpt lat="45.95846" lon="1.29241">
        <ele>464.56103515625</ele>
        <time>2010-10-03T07:16:02Z</time>
      </trkpt>
      <trkpt lat="45.95838" lon="1.29228">
        <ele>464.79144287109</ele>
        <time>2010-10-03T07:16:09Z</time>
      </trkpt>
      <trkpt lat="45.95836" lon="1.2922">
        <ele>465.30059814453</ele>
        <time>2010-10-03T07:16:14Z</time>
      </trkpt>
      <trkpt lat="45.95835" lon="1.29214">
        <ele>465.64071655273</ele>
        <time>2010-10-03T07:16:17Z</time>
      </trkpt>
      <trkpt lat="45.95833" lon="1.29204">
        <ele>466.26910400391</ele>
        <time>2010-10-03T07:16:23Z</time>
      </trkpt>
      <trkpt lat="45.95834" lon="1.29193">
        <ele>467.52117919922</ele>
        <time>2010-10-03T07:16:29Z</time>
      </trkpt>
      <trkpt lat="45.95835" lon="1.29187">
        <ele>468.24649047852</ele>
        <time>2010-10-03T07:16:32Z</time>
      </trkpt>
      <trkpt lat="45.95839" lon="1.29172">
        <ele>470.5901184082</ele>
        <time>2010-10-03T07:16:41Z</time>
      </trkpt>
      <trkpt lat="45.95842" lon="1.29157">
        <ele>472.01403808594</ele>
        <time>2010-10-03T07:16:48Z</time>
      </trkpt>
      <trkpt lat="45.95843" lon="1.29155">
        <ele>472.22253417969</ele>
        <time>2010-10-03T07:16:49Z</time>
      </trkpt>
      <trkpt lat="45.95844" lon="1.29146">
        <ele>472.69290161133</ele>
        <time>2010-10-03T07:16:53Z</time>
      </trkpt>
      <trkpt lat="45.95846" lon="1.29135">
        <ele>473.57733154297</ele>
        <time>2010-10-03T07:16:59Z</time>
      </trkpt>
      <trkpt lat="45.95849" lon="1.29122">
        <ele>474.59143066406</ele>
        <time>2010-10-03T07:17:05Z</time>
      </trkpt>
      <trkpt lat="45.95854" lon="1.29113">
        <ele>475.91915893555</ele>
        <time>2010-10-03T07:17:10Z</time>
      </trkpt>
      <trkpt lat="45.95858" lon="1.29105">
        <ele>477.16424560547</ele>
        <time>2010-10-03T07:17:15Z</time>
      </trkpt>
      <trkpt lat="45.95863" lon="1.29097">
        <ele>478.50387573242</ele>
        <time>2010-10-03T07:17:21Z</time>
      </trkpt>
      <trkpt lat="45.95871" lon="1.29093">
        <ele>480.20852661133</ele>
        <time>2010-10-03T07:17:27Z</time>
      </trkpt>
      <trkpt lat="45.95874" lon="1.29093">
        <ele>480.77279663086</ele>
        <time>2010-10-03T07:17:29Z</time>
      </trkpt>
      <trkpt lat="45.95876" lon="1.29096">
        <ele>481.1383972168</ele>
        <time>2010-10-03T07:17:34Z</time>
      </trkpt>
      <trkpt lat="45.9588" lon="1.29106">
        <ele>481.4287109375</ele>
        <time>2010-10-03T07:17:42Z</time>
      </trkpt>
      <trkpt lat="45.95881" lon="1.29108">
        <ele>481.57336425781</ele>
        <time>2010-10-03T07:17:43Z</time>
      </trkpt>
      <trkpt lat="45.95888" lon="1.29113">
        <ele>482.63671875</ele>
        <time>2010-10-03T07:17:49Z</time>
      </trkpt>
      <trkpt lat="45.95892" lon="1.29115">
        <ele>483.29205322266</ele>
        <time>2010-10-03T07:17:52Z</time>
      </trkpt>
      <trkpt lat="45.959" lon="1.29115">
        <ele>484.89956665039</ele>
        <time>2010-10-03T07:17:59Z</time>
      </trkpt>
      <trkpt lat="45.95908" lon="1.29113">
        <ele>486.59930419922</ele>
        <time>2010-10-03T07:18:06Z</time>
      </trkpt>
      <trkpt lat="45.95912" lon="1.29111">
        <ele>487.40036010742</ele>
        <time>2010-10-03T07:18:09Z</time>
      </trkpt>
      <trkpt lat="45.95919" lon="1.29105">
        <ele>488.80776977539</ele>
        <time>2010-10-03T07:18:15Z</time>
      </trkpt>
      <trkpt lat="45.95926" lon="1.29097">
        <ele>489.83145141602</ele>
        <time>2010-10-03T07:18:22Z</time>
      </trkpt>
      <trkpt lat="45.95931" lon="1.29093">
        <ele>490.47424316406</ele>
        <time>2010-10-03T07:18:26Z</time>
      </trkpt>
      <trkpt lat="45.95947" lon="1.29083">
        <ele>492.13967895508</ele>
        <time>2010-10-03T07:18:38Z</time>
      </trkpt>
      <trkpt lat="45.95956" lon="1.29075">
        <ele>492.84777832031</ele>
        <time>2010-10-03T07:18:46Z</time>
      </trkpt>
      <trkpt lat="45.95963" lon="1.29072">
        <ele>493.37542724609</ele>
        <time>2010-10-03T07:18:51Z</time>
      </trkpt>
      <trkpt lat="45.9597" lon="1.29067">
        <ele>494.01602172852</ele>
        <time>2010-10-03T07:18:57Z</time>
      </trkpt>
      <trkpt lat="45.95974" lon="1.29064">
        <ele>494.38256835938</ele>
        <time>2010-10-03T07:19:00Z</time>
      </trkpt>
      <trkpt lat="45.95982" lon="1.29056">
        <ele>495.23162841797</ele>
        <time>2010-10-03T07:19:07Z</time>
      </trkpt>
      <trkpt lat="45.95991" lon="1.29049">
        <ele>496.33868408203</ele>
        <time>2010-10-03T07:19:14Z</time>
      </trkpt>
      <trkpt lat="45.95999" lon="1.29041">
        <ele>497.44326782227</ele>
        <time>2010-10-03T07:19:21Z</time>
      </trkpt>
      <trkpt lat="45.96006" lon="1.29036">
        <ele>498.46606445312</ele>
        <time>2010-10-03T07:19:27Z</time>
      </trkpt>
      <trkpt lat="45.96014" lon="1.29032">
        <ele>499.66696166992</ele>
        <time>2010-10-03T07:19:34Z</time>
      </trkpt>
      <trkpt lat="45.96017" lon="1.29031">
        <ele>500.01333618164</ele>
        <time>2010-10-03T07:19:36Z</time>
      </trkpt>
      <trkpt lat="45.96024" lon="1.29025">
        <ele>501.1728515625</ele>
        <time>2010-10-03T07:19:42Z</time>
      </trkpt>
      <trkpt lat="45.96032" lon="1.29015">
        <ele>502.54974365234</ele>
        <time>2010-10-03T07:19:50Z</time>
      </trkpt>
      <trkpt lat="45.96037" lon="1.29008">
        <ele>503.58840942383</ele>
        <time>2010-10-03T07:19:56Z</time>
      </trkpt>
      <trkpt lat="45.96046" lon="1.29002">
        <ele>504.94274902344</ele>
        <time>2010-10-03T07:20:03Z</time>
      </trkpt>
      <trkpt lat="45.96047" lon="1.28999">
        <ele>505.18783569336</ele>
        <time>2010-10-03T07:20:05Z</time>
      </trkpt>
      <trkpt lat="45.96054" lon="1.28992">
        <ele>506.15008544922</ele>
        <time>2010-10-03T07:20:12Z</time>
      </trkpt>
      <trkpt lat="45.96057" lon="1.28988">
        <ele>506.64263916016</ele>
        <time>2010-10-03T07:20:16Z</time>
      </trkpt>
      <trkpt lat="45.96067" lon="1.28983">
        <ele>507.96685791016</ele>
        <time>2010-10-03T07:20:24Z</time>
      </trkpt>
      <trkpt lat="45.96074" lon="1.28984">
        <ele>508.8740234375</ele>
        <time>2010-10-03T07:20:30Z</time>
      </trkpt>
      <trkpt lat="45.96075" lon="1.28984">
        <ele>509.07775878906</ele>
        <time>2010-10-03T07:20:31Z</time>
      </trkpt>
      <trkpt lat="45.96083" lon="1.28986">
        <ele>510.07830810547</ele>
        <time>2010-10-03T07:20:37Z</time>
      </trkpt>
      <trkpt lat="45.96088" lon="1.28986">
        <ele>511.04776000977</ele>
        <time>2010-10-03T07:20:42Z</time>
      </trkpt>
      <trkpt lat="45.96095" lon="1.28986">
        <ele>512.18481445312</ele>
        <time>2010-10-03T07:20:48Z</time>
      </trkpt>
      <trkpt lat="45.96097" lon="1.28985">
        <ele>512.52490234375</ele>
        <time>2010-10-03T07:20:50Z</time>
      </trkpt>
      <trkpt lat="45.96111" lon="1.2898">
        <ele>515.10638427734</ele>
        <time>2010-10-03T07:21:00Z</time>
      </trkpt>
      <trkpt lat="45.96116" lon="1.28982">
        <ele>515.94647216797</ele>
        <time>2010-10-03T07:21:04Z</time>
      </trkpt>
      <trkpt lat="45.96124" lon="1.28979">
        <ele>517.43615722656</ele>
        <time>2010-10-03T07:21:11Z</time>
      </trkpt>
      <trkpt lat="45.9613" lon="1.28975">
        <ele>518.65484619141</ele>
        <time>2010-10-03T07:21:16Z</time>
      </trkpt>
      <trkpt lat="45.96132" lon="1.28972">
        <ele>519.07641601562</ele>
        <time>2010-10-03T07:21:18Z</time>
      </trkpt>
      <trkpt lat="45.96137" lon="1.28962">
        <ele>520.38317871094</ele>
        <time>2010-10-03T07:21:25Z</time>
      </trkpt>
      <trkpt lat="45.96142" lon="1.28951">
        <ele>521.74133300781</ele>
        <time>2010-10-03T07:21:33Z</time>
      </trkpt>
      <trkpt lat="45.96147" lon="1.28935">
        <ele>523.20385742188</ele>
        <time>2010-10-03T07:21:41Z</time>
      </trkpt>
      <trkpt lat="45.96151" lon="1.28926">
        <ele>524.34710693359</ele>
        <time>2010-10-03T07:21:46Z</time>
      </trkpt>
      <trkpt lat="45.96154" lon="1.28915">
        <ele>525.40118408203</ele>
        <time>2010-10-03T07:21:52Z</time>
      </trkpt>
      <trkpt lat="45.96157" lon="1.28901">
        <ele>526.81768798828</ele>
        <time>2010-10-03T07:22:00Z</time>
      </trkpt>
      <trkpt lat="45.96159" lon="1.28889">
        <ele>527.76354980469</ele>
        <time>2010-10-03T07:22:07Z</time>
      </trkpt>
      <trkpt lat="45.96161" lon="1.28881">
        <ele>528.45288085938</ele>
        <time>2010-10-03T07:22:12Z</time>
      </trkpt>
      <trkpt lat="45.96162" lon="1.28865">
        <ele>529.41961669922</ele>
        <time>2010-10-03T07:22:19Z</time>
      </trkpt>
      <trkpt lat="45.96162" lon="1.28862">
        <ele>529.67266845703</ele>
        <time>2010-10-03T07:22:21Z</time>
      </trkpt>
      <trkpt lat="45.96164" lon="1.28849">
        <ele>530.60186767578</ele>
        <time>2010-10-03T07:22:27Z</time>
      </trkpt>
      <trkpt lat="45.96165" lon="1.28847">
        <ele>530.86907958984</ele>
        <time>2010-10-03T07:22:28Z</time>
      </trkpt>
      <trkpt lat="45.96166" lon="1.28836">
        <ele>531.78118896484</ele>
        <time>2010-10-03T07:22:34Z</time>
      </trkpt>
      <trkpt lat="45.96167" lon="1.28831">
        <ele>532.06579589844</ele>
        <time>2010-10-03T07:22:37Z</time>
      </trkpt>
      <trkpt lat="45.96167" lon="1.28824">
        <ele>532.47119140625</ele>
        <time>2010-10-03T07:22:41Z</time>
      </trkpt>
      <trkpt lat="45.96168" lon="1.28805">
        <ele>533.26177978516</ele>
        <time>2010-10-03T07:22:49Z</time>
      </trkpt>
      <trkpt lat="45.96169" lon="1.2879">
        <ele>533.99133300781</ele>
        <time>2010-10-03T07:22:56Z</time>
      </trkpt>
      <trkpt lat="45.96169" lon="1.28779">
        <ele>534.29357910156</ele>
        <time>2010-10-03T07:23:01Z</time>
      </trkpt>
      <trkpt lat="45.96169" lon="1.28777">
        <ele>534.42651367188</ele>
        <time>2010-10-03T07:23:02Z</time>
      </trkpt>
      <trkpt lat="45.96169" lon="1.28761">
        <ele>534.98937988281</ele>
        <time>2010-10-03T07:23:09Z</time>
      </trkpt>
      <trkpt lat="45.9617" lon="1.28759">
        <ele>535.12390136719</ele>
        <time>2010-10-03T07:23:10Z</time>
      </trkpt>
      <trkpt lat="45.96172" lon="1.28745">
        <ele>536.02716064453</ele>
        <time>2010-10-03T07:23:16Z</time>
      </trkpt>
      <trkpt lat="45.96172" lon="1.28741">
        <ele>536.33239746094</ele>
        <time>2010-10-03T07:23:18Z</time>
      </trkpt>
      <trkpt lat="45.96173" lon="1.28734">
        <ele>536.88781738281</ele>
        <time>2010-10-03T07:23:21Z</time>
      </trkpt>
      <trkpt lat="45.9618" lon="1.28724">
        <ele>538.19445800781</ele>
        <time>2010-10-03T07:23:29Z</time>
      </trkpt>
      <trkpt lat="45.96188" lon="1.28711">
        <ele>539.29205322266</ele>
        <time>2010-10-03T07:23:37Z</time>
      </trkpt>
      <trkpt lat="45.96196" lon="1.28701">
        <ele>540.04528808594</ele>
        <time>2010-10-03T07:23:45Z</time>
      </trkpt>
      <trkpt lat="45.96202" lon="1.28694">
        <ele>540.41937255859</ele>
        <time>2010-10-03T07:23:50Z</time>
      </trkpt>
      <trkpt lat="45.96205" lon="1.28692">
        <ele>540.52520751953</ele>
        <time>2010-10-03T07:23:52Z</time>
      </trkpt>
      <trkpt lat="45.96207" lon="1.28692">
        <ele>540.61926269531</ele>
        <time>2010-10-03T07:23:58Z</time>
      </trkpt>
      <trkpt lat="45.96209" lon="1.28699">
        <ele>540.73968505859</ele>
        <time>2010-10-03T07:24:02Z</time>
      </trkpt>
      <trkpt lat="45.9621" lon="1.28711">
        <ele>540.89135742188</ele>
        <time>2010-10-03T07:24:09Z</time>
      </trkpt>
      <trkpt lat="45.96211" lon="1.28721">
        <ele>541.08319091797</ele>
        <time>2010-10-03T07:24:14Z</time>
      </trkpt>
      <trkpt lat="45.96212" lon="1.28725">
        <ele>541.24066162109</ele>
        <time>2010-10-03T07:24:17Z</time>
      </trkpt>
      <trkpt lat="45.96214" lon="1.28733">
        <ele>541.56982421875</ele>
        <time>2010-10-03T07:24:23Z</time>
      </trkpt>
      <trkpt lat="45.96217" lon="1.28745">
        <ele>542.12646484375</ele>
        <time>2010-10-03T07:24:30Z</time>
      </trkpt>
      <trkpt lat="45.96217" lon="1.2875">
        <ele>542.23895263672</ele>
        <time>2010-10-03T07:24:32Z</time>
      </trkpt>
      <trkpt lat="45.96218" lon="1.28756">
        <ele>542.37451171875</ele>
        <time>2010-10-03T07:24:35Z</time>
      </trkpt>
      <trkpt lat="45.96222" lon="1.2877">
        <ele>542.76947021484</ele>
        <time>2010-10-03T07:24:41Z</time>
      </trkpt>
      <trkpt lat="45.96224" lon="1.28773">
        <ele>543.02813720703</ele>
        <time>2010-10-03T07:24:43Z</time>
      </trkpt>
      <trkpt lat="45.96226" lon="1.28776">
        <ele>543.28961181641</ele>
        <time>2010-10-03T07:24:45Z</time>
      </trkpt>
      <trkpt lat="45.96231" lon="1.28784">
        <ele>543.93365478516</ele>
        <time>2010-10-03T07:24:50Z</time>
      </trkpt>
      <trkpt lat="45.96234" lon="1.2879">
        <ele>544.43756103516</ele>
        <time>2010-10-03T07:24:54Z</time>
      </trkpt>
      <trkpt lat="45.96242" lon="1.28798">
        <ele>545.64245605469</ele>
        <time>2010-10-03T07:25:01Z</time>
      </trkpt>
      <trkpt lat="45.96247" lon="1.28805">
        <ele>546.57781982422</ele>
        <time>2010-10-03T07:25:07Z</time>
      </trkpt>
      <trkpt lat="45.96254" lon="1.28809">
        <ele>547.33148193359</ele>
        <time>2010-10-03T07:25:12Z</time>
      </trkpt>
      <trkpt lat="45.96259" lon="1.28813">
        <ele>547.86614990234</ele>
        <time>2010-10-03T07:25:17Z</time>
      </trkpt>
      <trkpt lat="45.96267" lon="1.28818">
        <ele>548.62524414062</ele>
        <time>2010-10-03T07:25:25Z</time>
      </trkpt>
      <trkpt lat="45.96275" lon="1.28823">
        <ele>549.32360839844</ele>
        <time>2010-10-03T07:25:32Z</time>
      </trkpt>
      <trkpt lat="45.96285" lon="1.28826">
        <ele>550.30908203125</ele>
        <time>2010-10-03T07:25:40Z</time>
      </trkpt>
      <trkpt lat="45.96291" lon="1.28826">
        <ele>550.92517089844</ele>
        <time>2010-10-03T07:25:45Z</time>
      </trkpt>
      <trkpt lat="45.96299" lon="1.28823">
        <ele>551.66180419922</ele>
        <time>2010-10-03T07:25:52Z</time>
      </trkpt>
      <trkpt lat="45.96305" lon="1.28819">
        <ele>552.13500976562</ele>
        <time>2010-10-03T07:25:56Z</time>
      </trkpt>
      <trkpt lat="45.96315" lon="1.28811">
        <ele>552.99749755859</ele>
        <time>2010-10-03T07:26:04Z</time>
      </trkpt>
      <trkpt lat="45.96321" lon="1.28806">
        <ele>553.57843017578</ele>
        <time>2010-10-03T07:26:10Z</time>
      </trkpt>
      <trkpt lat="45.96327" lon="1.28802">
        <ele>554.06097412109</ele>
        <time>2010-10-03T07:26:14Z</time>
      </trkpt>
      <trkpt lat="45.96338" lon="1.28798">
        <ele>554.79791259766</ele>
        <time>2010-10-03T07:26:22Z</time>
      </trkpt>
      <trkpt lat="45.96347" lon="1.28792">
        <ele>555.26666259766</ele>
        <time>2010-10-03T07:26:30Z</time>
      </trkpt>
      <trkpt lat="45.96355" lon="1.28789">
        <ele>555.66778564453</ele>
        <time>2010-10-03T07:26:35Z</time>
      </trkpt>
      <trkpt lat="45.9636" lon="1.28789">
        <ele>555.89752197266</ele>
        <time>2010-10-03T07:26:38Z</time>
      </trkpt>
      <trkpt lat="45.9637" lon="1.28795">
        <ele>556.48040771484</ele>
        <time>2010-10-03T07:26:46Z</time>
      </trkpt>
      <trkpt lat="45.96375" lon="1.28797">
        <ele>556.77685546875</ele>
        <time>2010-10-03T07:26:50Z</time>
      </trkpt>
      <trkpt lat="45.96387" lon="1.28794">
        <ele>557.41528320312</ele>
        <time>2010-10-03T07:26:57Z</time>
      </trkpt>
      <trkpt lat="45.96398" lon="1.2879">
        <ele>557.99560546875</ele>
        <time>2010-10-03T07:27:04Z</time>
      </trkpt>
      <trkpt lat="45.96408" lon="1.28787">
        <ele>558.50927734375</ele>
        <time>2010-10-03T07:27:10Z</time>
      </trkpt>
      <trkpt lat="45.96416" lon="1.28785">
        <ele>558.98937988281</ele>
        <time>2010-10-03T07:27:17Z</time>
      </trkpt>
      <trkpt lat="45.96426" lon="1.2878">
        <ele>558.91143798828</ele>
        <time>2010-10-03T07:27:23Z</time>
      </trkpt>
      <trkpt lat="45.96434" lon="1.28777">
        <ele>558.87762451172</ele>
        <time>2010-10-03T07:27:27Z</time>
      </trkpt>
      <trkpt lat="45.96447" lon="1.28773">
        <ele>558.86022949219</ele>
        <time>2010-10-03T07:27:34Z</time>
      </trkpt>
      <trkpt lat="45.96457" lon="1.28763">
        <ele>559.09759521484</ele>
        <time>2010-10-03T07:27:40Z</time>
      </trkpt>
      <trkpt lat="45.96468" lon="1.28755">
        <ele>559.412109375</ele>
        <time>2010-10-03T07:27:45Z</time>
      </trkpt>
      <trkpt lat="45.96477" lon="1.28749">
        <ele>559.68377685547</ele>
        <time>2010-10-03T07:27:50Z</time>
      </trkpt>
      <trkpt lat="45.9649" lon="1.28743">
        <ele>559.31976318359</ele>
        <time>2010-10-03T07:27:56Z</time>
      </trkpt>
      <trkpt lat="45.96496" lon="1.28744">
        <ele>559.50158691406</ele>
        <time>2010-10-03T07:27:59Z</time>
      </trkpt>
      <trkpt lat="45.96506" lon="1.2875">
        <ele>560.05578613281</ele>
        <time>2010-10-03T07:28:04Z</time>
      </trkpt>
      <trkpt lat="45.96515" lon="1.28757">
        <ele>559.84020996094</ele>
        <time>2010-10-03T07:28:10Z</time>
      </trkpt>
      <trkpt lat="45.96531" lon="1.2876">
        <ele>559.93908691406</ele>
        <time>2010-10-03T07:28:17Z</time>
      </trkpt>
      <trkpt lat="45.96532" lon="1.28761">
        <ele>559.94836425781</ele>
        <time>2010-10-03T07:28:18Z</time>
      </trkpt>
      <trkpt lat="45.96542" lon="1.28762">
        <ele>560.08209228516</ele>
        <time>2010-10-03T07:28:23Z</time>
      </trkpt>
      <trkpt lat="45.96548" lon="1.28767">
        <ele>560.02264404297</ele>
        <time>2010-10-03T07:28:28Z</time>
      </trkpt>
      <trkpt lat="45.96555" lon="1.28774">
        <ele>560.00225830078</ele>
        <time>2010-10-03T07:28:33Z</time>
      </trkpt>
      <trkpt lat="45.9656" lon="1.28779">
        <ele>559.98431396484</ele>
        <time>2010-10-03T07:28:37Z</time>
      </trkpt>
      <trkpt lat="45.96561" lon="1.28781">
        <ele>559.97479248047</ele>
        <time>2010-10-03T07:28:38Z</time>
      </trkpt>
      <trkpt lat="45.96571" lon="1.28791">
        <ele>560.05749511719</ele>
        <time>2010-10-03T07:28:45Z</time>
      </trkpt>
      <trkpt lat="45.96581" lon="1.28801">
        <ele>560.30242919922</ele>
        <time>2010-10-03T07:28:53Z</time>
      </trkpt>
      <trkpt lat="45.96594" lon="1.2881">
        <ele>560.45306396484</ele>
        <time>2010-10-03T07:29:02Z</time>
      </trkpt>
      <trkpt lat="45.96602" lon="1.28819">
        <ele>560.61755371094</ele>
        <time>2010-10-03T07:29:09Z</time>
      </trkpt>
      <trkpt lat="45.96609" lon="1.28825">
        <ele>560.84704589844</ele>
        <time>2010-10-03T07:29:13Z</time>
      </trkpt>
      <trkpt lat="45.96624" lon="1.28839">
        <ele>561.05975341797</ele>
        <time>2010-10-03T07:29:20Z</time>
      </trkpt>
      <trkpt lat="45.9663" lon="1.28848">
        <ele>560.65637207031</ele>
        <time>2010-10-03T07:29:24Z</time>
      </trkpt>
      <trkpt lat="45.96637" lon="1.28868">
        <ele>559.41778564453</ele>
        <time>2010-10-03T07:29:30Z</time>
      </trkpt>
      <trkpt lat="45.96638" lon="1.28875">
        <ele>558.98779296875</ele>
        <time>2010-10-03T07:29:32Z</time>
      </trkpt>
      <trkpt lat="45.96638" lon="1.28898">
        <ele>557.32952880859</ele>
        <time>2010-10-03T07:29:40Z</time>
      </trkpt>
      <trkpt lat="45.96637" lon="1.28913">
        <ele>556.18627929688</ele>
        <time>2010-10-03T07:29:45Z</time>
      </trkpt>
      <trkpt lat="45.96635" lon="1.28927">
        <ele>556.49700927734</ele>
        <time>2010-10-03T07:29:50Z</time>
      </trkpt>
      <trkpt lat="45.96635" lon="1.28934">
        <ele>556.99749755859</ele>
        <time>2010-10-03T07:29:53Z</time>
      </trkpt>
      <trkpt lat="45.96645" lon="1.28945">
        <ele>557.99224853516</ele>
        <time>2010-10-03T07:29:59Z</time>
      </trkpt>
      <trkpt lat="45.96656" lon="1.28955">
        <ele>558.97418212891</ele>
        <time>2010-10-03T07:30:05Z</time>
      </trkpt>
      <trkpt lat="45.96664" lon="1.28965">
        <ele>559.82659912109</ele>
        <time>2010-10-03T07:30:10Z</time>
      </trkpt>
      <trkpt lat="45.96677" lon="1.28975">
        <ele>558.33557128906</ele>
        <time>2010-10-03T07:30:16Z</time>
      </trkpt>
      <trkpt lat="45.96682" lon="1.28985">
        <ele>557.63439941406</ele>
        <time>2010-10-03T07:30:20Z</time>
      </trkpt>
      <trkpt lat="45.96684" lon="1.28987">
        <ele>557.39154052734</ele>
        <time>2010-10-03T07:30:21Z</time>
      </trkpt>
      <trkpt lat="45.96687" lon="1.28999">
        <ele>557.00421142578</ele>
        <time>2010-10-03T07:30:25Z</time>
      </trkpt>
      <trkpt lat="45.9669" lon="1.29015">
        <ele>558.40667724609</ele>
        <time>2010-10-03T07:30:30Z</time>
      </trkpt>
      <trkpt lat="45.96692" lon="1.29024">
        <ele>559.30505371094</ele>
        <time>2010-10-03T07:30:34Z</time>
      </trkpt>
      <trkpt lat="45.96695" lon="1.29034">
        <ele>560.01062011719</ele>
        <time>2010-10-03T07:30:38Z</time>
      </trkpt>
      <trkpt lat="45.967" lon="1.2905">
        <ele>560.91790771484</ele>
        <time>2010-10-03T07:30:44Z</time>
      </trkpt>
      <trkpt lat="45.967" lon="1.29057">
        <ele>561.78454589844</ele>
        <time>2010-10-03T07:30:46Z</time>
      </trkpt>
      <trkpt lat="45.96705" lon="1.29073">
        <ele>562.56164550781</ele>
        <time>2010-10-03T07:30:51Z</time>
      </trkpt>
      <trkpt lat="45.96716" lon="1.2909">
        <ele>561.49676513672</ele>
        <time>2010-10-03T07:30:58Z</time>
      </trkpt>
      <trkpt lat="45.96727" lon="1.29103">
        <ele>560.22210693359</ele>
        <time>2010-10-03T07:31:04Z</time>
      </trkpt>
      <trkpt lat="45.9674" lon="1.29114">
        <ele>558.52825927734</ele>
        <time>2010-10-03T07:31:10Z</time>
      </trkpt>
      <trkpt lat="45.96753" lon="1.29122">
        <ele>556.66162109375</ele>
        <time>2010-10-03T07:31:16Z</time>
      </trkpt>
      <trkpt lat="45.96765" lon="1.29133">
        <ele>555.42218017578</ele>
        <time>2010-10-03T07:31:22Z</time>
      </trkpt>
      <trkpt lat="45.9677" lon="1.29145">
        <ele>556.224609375</ele>
        <time>2010-10-03T07:31:28Z</time>
      </trkpt>
      <trkpt lat="45.9677" lon="1.29148">
        <ele>556.61163330078</ele>
        <time>2010-10-03T07:31:30Z</time>
      </trkpt>
      <trkpt lat="45.96772" lon="1.29156">
        <ele>557.36041259766</ele>
        <time>2010-10-03T07:31:36Z</time>
      </trkpt>
      <trkpt lat="45.96773" lon="1.29157">
        <ele>557.47448730469</ele>
        <time>2010-10-03T07:31:37Z</time>
      </trkpt>
      <trkpt lat="45.96777" lon="1.29171">
        <ele>558.05108642578</ele>
        <time>2010-10-03T07:31:46Z</time>
      </trkpt>
      <trkpt lat="45.96778" lon="1.2918">
        <ele>557.79290771484</ele>
        <time>2010-10-03T07:31:52Z</time>
      </trkpt>
      <trkpt lat="45.96777" lon="1.2919">
        <ele>558.25677490234</ele>
        <time>2010-10-03T07:31:59Z</time>
      </trkpt>
      <trkpt lat="45.96775" lon="1.29203">
        <ele>559.04461669922</ele>
        <time>2010-10-03T07:32:07Z</time>
      </trkpt>
      <trkpt lat="45.9677" lon="1.29214">
        <ele>560.3984375</ele>
        <time>2010-10-03T07:32:15Z</time>
      </trkpt>
      <trkpt lat="45.96762" lon="1.29228">
        <ele>562.55737304688</ele>
        <time>2010-10-03T07:32:24Z</time>
      </trkpt>
      <trkpt lat="45.96757" lon="1.2924">
        <ele>564.07373046875</ele>
        <time>2010-10-03T07:32:31Z</time>
      </trkpt>
      <trkpt lat="45.96753" lon="1.29256">
        <ele>565.76086425781</ele>
        <time>2010-10-03T07:32:38Z</time>
      </trkpt>
      <trkpt lat="45.9675" lon="1.29274">
        <ele>568.23620605469</ele>
        <time>2010-10-03T07:32:44Z</time>
      </trkpt>
      <trkpt lat="45.96749" lon="1.29287">
        <ele>569.64025878906</ele>
        <time>2010-10-03T07:32:50Z</time>
      </trkpt>
      <trkpt lat="45.96749" lon="1.29297">
        <ele>570.57550048828</ele>
        <time>2010-10-03T07:32:56Z</time>
      </trkpt>
      <trkpt lat="45.96749" lon="1.29309">
        <ele>571.66784667969</ele>
        <time>2010-10-03T07:33:03Z</time>
      </trkpt>
      <trkpt lat="45.9675" lon="1.2932">
        <ele>572.69256591797</ele>
        <time>2010-10-03T07:33:10Z</time>
      </trkpt>
      <trkpt lat="45.96754" lon="1.29332">
        <ele>572.74176025391</ele>
        <time>2010-10-03T07:33:18Z</time>
      </trkpt>
      <trkpt lat="45.96758" lon="1.29337">
        <ele>572.27117919922</ele>
        <time>2010-10-03T07:33:23Z</time>
      </trkpt>
      <trkpt lat="45.96766" lon="1.2935">
        <ele>571.33642578125</ele>
        <time>2010-10-03T07:33:34Z</time>
      </trkpt>
      <trkpt lat="45.96772" lon="1.29359">
        <ele>570.69073486328</ele>
        <time>2010-10-03T07:33:42Z</time>
      </trkpt>
      <trkpt lat="45.96774" lon="1.29363">
        <ele>570.49914550781</ele>
        <time>2010-10-03T07:33:54Z</time>
      </trkpt>
      <trkpt lat="45.96775" lon="1.29367">
        <ele>570.55450439453</ele>
        <time>2010-10-03T07:33:59Z</time>
      </trkpt>
      <trkpt lat="45.96777" lon="1.29372">
        <ele>570.80572509766</ele>
        <time>2010-10-03T07:34:04Z</time>
      </trkpt>
      <trkpt lat="45.96778" lon="1.29373">
        <ele>570.67572021484</ele>
        <time>2010-10-03T07:34:10Z</time>
      </trkpt>
      <trkpt lat="45.9678" lon="1.29379">
        <ele>570.72259521484</ele>
        <time>2010-10-03T07:34:15Z</time>
      </trkpt>
      <trkpt lat="45.96782" lon="1.29392">
        <ele>571.53656005859</ele>
        <time>2010-10-03T07:34:23Z</time>
      </trkpt>
      <trkpt lat="45.96784" lon="1.29402">
        <ele>572.20220947266</ele>
        <time>2010-10-03T07:34:30Z</time>
      </trkpt>
      <trkpt lat="45.96786" lon="1.29414">
        <ele>573.04608154297</ele>
        <time>2010-10-03T07:34:37Z</time>
      </trkpt>
      <trkpt lat="45.96789" lon="1.29423">
        <ele>572.95294189453</ele>
        <time>2010-10-03T07:34:43Z</time>
      </trkpt>
      <trkpt lat="45.96791" lon="1.29428">
        <ele>572.59594726562</ele>
        <time>2010-10-03T07:34:47Z</time>
      </trkpt>
      <trkpt lat="45.96792" lon="1.29433">
        <ele>572.57666015625</ele>
        <time>2010-10-03T07:34:50Z</time>
      </trkpt>
      <trkpt lat="45.96793" lon="1.29448">
        <ele>572.59643554688</ele>
        <time>2010-10-03T07:34:59Z</time>
      </trkpt>
      <trkpt lat="45.96793" lon="1.29458">
        <ele>572.64654541016</ele>
        <time>2010-10-03T07:35:05Z</time>
      </trkpt>
      <trkpt lat="45.96797" lon="1.29469">
        <ele>572.48803710938</ele>
        <time>2010-10-03T07:35:11Z</time>
      </trkpt>
      <trkpt lat="45.96801" lon="1.29475">
        <ele>572.435546875</ele>
        <time>2010-10-03T07:35:15Z</time>
      </trkpt>
      <trkpt lat="45.96807" lon="1.29487">
        <ele>572.56799316406</ele>
        <time>2010-10-03T07:35:22Z</time>
      </trkpt>
      <trkpt lat="45.96813" lon="1.29501">
        <ele>572.98913574219</ele>
        <time>2010-10-03T07:35:30Z</time>
      </trkpt>
      <trkpt lat="45.96819" lon="1.29509">
        <ele>572.91192626953</ele>
        <time>2010-10-03T07:35:35Z</time>
      </trkpt>
      <trkpt lat="45.96825" lon="1.29522">
        <ele>572.98889160156</ele>
        <time>2010-10-03T07:35:42Z</time>
      </trkpt>
      <trkpt lat="45.96831" lon="1.29536">
        <ele>573.30206298828</ele>
        <time>2010-10-03T07:35:49Z</time>
      </trkpt>
      <trkpt lat="45.96836" lon="1.29553">
        <ele>573.64306640625</ele>
        <time>2010-10-03T07:35:55Z</time>
      </trkpt>
      <trkpt lat="45.96839" lon="1.29572">
        <ele>573.95367431641</ele>
        <time>2010-10-03T07:36:01Z</time>
      </trkpt>
      <trkpt lat="45.96839" lon="1.29579">
        <ele>574.06787109375</ele>
        <time>2010-10-03T07:36:03Z</time>
      </trkpt>
      <trkpt lat="45.96842" lon="1.29597">
        <ele>572.611328125</ele>
        <time>2010-10-03T07:36:09Z</time>
      </trkpt>
      <trkpt lat="45.96848" lon="1.29619">
        <ele>570.36694335938</ele>
        <time>2010-10-03T07:36:16Z</time>
      </trkpt>
      <trkpt lat="45.96855" lon="1.29637">
        <ele>568.79302978516</ele>
        <time>2010-10-03T07:36:22Z</time>
      </trkpt>
      <trkpt lat="45.96865" lon="1.29651">
        <ele>567.83123779297</ele>
        <time>2010-10-03T07:36:28Z</time>
      </trkpt>
      <trkpt lat="45.96873" lon="1.29661">
        <ele>567.41485595703</ele>
        <time>2010-10-03T07:36:33Z</time>
      </trkpt>
      <trkpt lat="45.96884" lon="1.29668">
        <ele>567.51446533203</ele>
        <time>2010-10-03T07:36:38Z</time>
      </trkpt>
      <trkpt lat="45.96894" lon="1.29671">
        <ele>567.96667480469</ele>
        <time>2010-10-03T07:36:43Z</time>
      </trkpt>
      <trkpt lat="45.96905" lon="1.29672">
        <ele>568.73272705078</ele>
        <time>2010-10-03T07:36:48Z</time>
      </trkpt>
      <trkpt lat="45.96915" lon="1.29676">
        <ele>569.28540039062</ele>
        <time>2010-10-03T07:36:53Z</time>
      </trkpt>
      <trkpt lat="45.96922" lon="1.29682">
        <ele>568.9267578125</ele>
        <time>2010-10-03T07:36:57Z</time>
      </trkpt>
      <trkpt lat="45.96931" lon="1.29684">
        <ele>568.681640625</ele>
        <time>2010-10-03T07:37:05Z</time>
      </trkpt>
      <trkpt lat="45.96943" lon="1.2968">
        <ele>568.43194580078</ele>
        <time>2010-10-03T07:37:12Z</time>
      </trkpt>
      <trkpt lat="45.96954" lon="1.29678">
        <ele>568.07464599609</ele>
        <time>2010-10-03T07:37:17Z</time>
      </trkpt>
      <trkpt lat="45.96965" lon="1.29679">
        <ele>567.72869873047</ele>
        <time>2010-10-03T07:37:22Z</time>
      </trkpt>
      <trkpt lat="45.9698" lon="1.29675">
        <ele>566.88226318359</ele>
        <time>2010-10-03T07:37:29Z</time>
      </trkpt>
      <trkpt lat="45.96991" lon="1.2967">
        <ele>565.93786621094</ele>
        <time>2010-10-03T07:37:34Z</time>
      </trkpt>
      <trkpt lat="45.97003" lon="1.29664">
        <ele>564.69006347656</ele>
        <time>2010-10-03T07:37:40Z</time>
      </trkpt>
      <trkpt lat="45.97016" lon="1.29659">
        <ele>563.43444824219</ele>
        <time>2010-10-03T07:37:46Z</time>
      </trkpt>
      <trkpt lat="45.9703" lon="1.29654">
        <ele>561.92340087891</ele>
        <time>2010-10-03T07:37:53Z</time>
      </trkpt>
      <trkpt lat="45.9704" lon="1.29648">
        <ele>560.29180908203</ele>
        <time>2010-10-03T07:37:58Z</time>
      </trkpt>
      <trkpt lat="45.97051" lon="1.29641">
        <ele>558.05718994141</ele>
        <time>2010-10-03T07:38:04Z</time>
      </trkpt>
      <trkpt lat="45.97063" lon="1.29636">
        <ele>555.70825195312</ele>
        <time>2010-10-03T07:38:10Z</time>
      </trkpt>
      <trkpt lat="45.97072" lon="1.29633">
        <ele>554.02160644531</ele>
        <time>2010-10-03T07:38:14Z</time>
      </trkpt>
      <trkpt lat="45.97081" lon="1.29631">
        <ele>552.42993164062</ele>
        <time>2010-10-03T07:38:18Z</time>
      </trkpt>
      <trkpt lat="45.9709" lon="1.29631">
        <ele>551.19525146484</ele>
        <time>2010-10-03T07:38:22Z</time>
      </trkpt>
      <trkpt lat="45.97108" lon="1.29628">
        <ele>547.86590576172</ele>
        <time>2010-10-03T07:38:30Z</time>
      </trkpt>
      <trkpt lat="45.97118" lon="1.29633">
        <ele>547.70819091797</ele>
        <time>2010-10-03T07:38:35Z</time>
      </trkpt>
      <trkpt lat="45.97128" lon="1.29638">
        <ele>547.52917480469</ele>
        <time>2010-10-03T07:38:40Z</time>
      </trkpt>
      <trkpt lat="45.97137" lon="1.29645">
        <ele>547.6591796875</ele>
        <time>2010-10-03T07:38:45Z</time>
      </trkpt>
      <trkpt lat="45.9715" lon="1.2965">
        <ele>547.03131103516</ele>
        <time>2010-10-03T07:38:50Z</time>
      </trkpt>
      <trkpt lat="45.97153" lon="1.29651">
        <ele>546.65600585938</ele>
        <time>2010-10-03T07:38:51Z</time>
      </trkpt>
      <trkpt lat="45.97167" lon="1.29658">
        <ele>546.01873779297</ele>
        <time>2010-10-03T07:38:58Z</time>
      </trkpt>
      <trkpt lat="45.97181" lon="1.29654">
        <ele>543.90087890625</ele>
        <time>2010-10-03T07:39:04Z</time>
      </trkpt>
      <trkpt lat="45.97195" lon="1.2965">
        <ele>541.61083984375</ele>
        <time>2010-10-03T07:39:10Z</time>
      </trkpt>
      <trkpt lat="45.97204" lon="1.29649">
        <ele>540.42980957031</ele>
        <time>2010-10-03T07:39:14Z</time>
      </trkpt>
      <trkpt lat="45.97216" lon="1.29647">
        <ele>538.82177734375</ele>
        <time>2010-10-03T07:39:19Z</time>
      </trkpt>
      <trkpt lat="45.97225" lon="1.29647">
        <ele>537.76867675781</ele>
        <time>2010-10-03T07:39:23Z</time>
      </trkpt>
      <trkpt lat="45.97235" lon="1.29648">
        <ele>536.82916259766</ele>
        <time>2010-10-03T07:39:28Z</time>
      </trkpt>
      <trkpt lat="45.9725" lon="1.29649">
        <ele>535.63659667969</ele>
        <time>2010-10-03T07:39:34Z</time>
      </trkpt>
      <trkpt lat="45.97265" lon="1.29654">
        <ele>535.57983398438</ele>
        <time>2010-10-03T07:39:40Z</time>
      </trkpt>
      <trkpt lat="45.97277" lon="1.29663">
        <ele>536.35681152344</ele>
        <time>2010-10-03T07:39:46Z</time>
      </trkpt>
      <trkpt lat="45.97288" lon="1.29671">
        <ele>536.95751953125</ele>
        <time>2010-10-03T07:39:51Z</time>
      </trkpt>
      <trkpt lat="45.97298" lon="1.29681">
        <ele>537.98321533203</ele>
        <time>2010-10-03T07:39:56Z</time>
      </trkpt>
      <trkpt lat="45.973" lon="1.29683">
        <ele>538.22497558594</ele>
        <time>2010-10-03T07:39:57Z</time>
      </trkpt>
      <trkpt lat="45.97309" lon="1.29702">
        <ele>540.68920898438</ele>
        <time>2010-10-03T07:40:04Z</time>
      </trkpt>
      <trkpt lat="45.9732" lon="1.29715">
        <ele>542.26226806641</ele>
        <time>2010-10-03T07:40:10Z</time>
      </trkpt>
      <trkpt lat="45.97331" lon="1.29719">
        <ele>541.94177246094</ele>
        <time>2010-10-03T07:40:16Z</time>
      </trkpt>
      <trkpt lat="45.97338" lon="1.2972">
        <ele>542.00640869141</ele>
        <time>2010-10-03T07:40:20Z</time>
      </trkpt>
      <trkpt lat="45.97347" lon="1.29719">
        <ele>542.00933837891</ele>
        <time>2010-10-03T07:40:27Z</time>
      </trkpt>
      <trkpt lat="45.97356" lon="1.29714">
        <ele>541.35430908203</ele>
        <time>2010-10-03T07:40:34Z</time>
      </trkpt>
      <trkpt lat="45.97366" lon="1.29706">
        <ele>540.29260253906</ele>
        <time>2010-10-03T07:40:42Z</time>
      </trkpt>
      <trkpt lat="45.97375" lon="1.29697">
        <ele>539.02038574219</ele>
        <time>2010-10-03T07:40:50Z</time>
      </trkpt>
      <trkpt lat="45.97383" lon="1.2969">
        <ele>538.23822021484</ele>
        <time>2010-10-03T07:40:56Z</time>
      </trkpt>
      <trkpt lat="45.97398" lon="1.29682">
        <ele>537.52453613281</ele>
        <time>2010-10-03T07:41:05Z</time>
      </trkpt>
      <trkpt lat="45.97407" lon="1.29679">
        <ele>537.35076904297</ele>
        <time>2010-10-03T07:41:11Z</time>
      </trkpt>
      <trkpt lat="45.97419" lon="1.29676">
        <ele>537.26586914062</ele>
        <time>2010-10-03T07:41:19Z</time>
      </trkpt>
      <trkpt lat="45.97433" lon="1.29672">
        <ele>536.88549804688</ele>
        <time>2010-10-03T07:41:28Z</time>
      </trkpt>
      <trkpt lat="45.9744" lon="1.29671">
        <ele>536.73638916016</ele>
        <time>2010-10-03T07:41:33Z</time>
      </trkpt>
      <trkpt lat="45.97451" lon="1.29668">
        <ele>536.51531982422</ele>
        <time>2010-10-03T07:41:39Z</time>
      </trkpt>
      <trkpt lat="45.97464" lon="1.29665">
        <ele>536.36584472656</ele>
        <time>2010-10-03T07:41:45Z</time>
      </trkpt>
      <trkpt lat="45.97478" lon="1.29664">
        <ele>536.47229003906</ele>
        <time>2010-10-03T07:41:51Z</time>
      </trkpt>
      <trkpt lat="45.97495" lon="1.29667">
        <ele>536.9716796875</ele>
        <time>2010-10-03T07:41:58Z</time>
      </trkpt>
      <trkpt lat="45.97507" lon="1.29671">
        <ele>536.90954589844</ele>
        <time>2010-10-03T07:42:04Z</time>
      </trkpt>
      <trkpt lat="45.97518" lon="1.29671">
        <ele>536.35119628906</ele>
        <time>2010-10-03T07:42:09Z</time>
      </trkpt>
      <trkpt lat="45.97524" lon="1.29662">
        <ele>535.52270507812</ele>
        <time>2010-10-03T07:42:13Z</time>
      </trkpt>
      <trkpt lat="45.97531" lon="1.29635">
        <ele>533.39630126953</ele>
        <time>2010-10-03T07:42:21Z</time>
      </trkpt>
      <trkpt lat="45.97541" lon="1.29619">
        <ele>532.12768554688</ele>
        <time>2010-10-03T07:42:27Z</time>
      </trkpt>
      <trkpt lat="45.97556" lon="1.29605">
        <ele>531.12243652344</ele>
        <time>2010-10-03T07:42:34Z</time>
      </trkpt>
      <trkpt lat="45.97568" lon="1.29591">
        <ele>530.34320068359</ele>
        <time>2010-10-03T07:42:40Z</time>
      </trkpt>
      <trkpt lat="45.97581" lon="1.29577">
        <ele>529.51696777344</ele>
        <time>2010-10-03T07:42:46Z</time>
      </trkpt>
      <trkpt lat="45.97595" lon="1.29561">
        <ele>527.66552734375</ele>
        <time>2010-10-03T07:42:53Z</time>
      </trkpt>
      <trkpt lat="45.97607" lon="1.29544">
        <ele>525.61730957031</ele>
        <time>2010-10-03T07:43:00Z</time>
      </trkpt>
      <trkpt lat="45.9761" lon="1.29527">
        <ele>524.16790771484</ele>
        <time>2010-10-03T07:43:05Z</time>
      </trkpt>
      <trkpt lat="45.97607" lon="1.29504">
        <ele>522.59301757812</ele>
        <time>2010-10-03T07:43:11Z</time>
      </trkpt>
      <trkpt lat="45.97602" lon="1.29489">
        <ele>520.97937011719</ele>
        <time>2010-10-03T07:43:15Z</time>
      </trkpt>
      <trkpt lat="45.97591" lon="1.29474">
        <ele>519.74658203125</ele>
        <time>2010-10-03T07:43:21Z</time>
      </trkpt>
      <trkpt lat="45.97575" lon="1.29462">
        <ele>518.67700195312</ele>
        <time>2010-10-03T07:43:28Z</time>
      </trkpt>
      <trkpt lat="45.97564" lon="1.29459">
        <ele>518.02252197266</ele>
        <time>2010-10-03T07:43:32Z</time>
      </trkpt>
      <trkpt lat="45.97551" lon="1.29459">
        <ele>517.57775878906</ele>
        <time>2010-10-03T07:43:38Z</time>
      </trkpt>
      <trkpt lat="45.97535" lon="1.29457">
        <ele>516.83703613281</ele>
        <time>2010-10-03T07:43:45Z</time>
      </trkpt>
      <trkpt lat="45.9752" lon="1.29447">
        <ele>515.42810058594</ele>
        <time>2010-10-03T07:43:51Z</time>
      </trkpt>
      <trkpt lat="45.9751" lon="1.29436">
        <ele>514.03900146484</ele>
        <time>2010-10-03T07:43:56Z</time>
      </trkpt>
      <trkpt lat="45.97504" lon="1.29423">
        <ele>512.70935058594</ele>
        <time>2010-10-03T07:44:02Z</time>
      </trkpt>
      <trkpt lat="45.97501" lon="1.29412">
        <ele>511.77633666992</ele>
        <time>2010-10-03T07:44:08Z</time>
      </trkpt>
      <trkpt lat="45.97499" lon="1.29396">
        <ele>510.96472167969</ele>
        <time>2010-10-03T07:44:16Z</time>
      </trkpt>
      <trkpt lat="45.97496" lon="1.2938">
        <ele>510.1350402832</ele>
        <time>2010-10-03T07:44:24Z</time>
      </trkpt>
      <trkpt lat="45.97491" lon="1.29366">
        <ele>509.32592773438</ele>
        <time>2010-10-03T07:44:31Z</time>
      </trkpt>
      <trkpt lat="45.97482" lon="1.29351">
        <ele>508.41955566406</ele>
        <time>2010-10-03T07:44:37Z</time>
      </trkpt>
      <trkpt lat="45.97473" lon="1.29335">
        <ele>507.43710327148</ele>
        <time>2010-10-03T07:44:43Z</time>
      </trkpt>
      <trkpt lat="45.97467" lon="1.29322">
        <ele>506.9250793457</ele>
        <time>2010-10-03T07:44:48Z</time>
      </trkpt>
      <trkpt lat="45.97461" lon="1.29313">
        <ele>506.57803344727</ele>
        <time>2010-10-03T07:44:52Z</time>
      </trkpt>
      <trkpt lat="45.9745" lon="1.29301">
        <ele>506.02755737305</ele>
        <time>2010-10-03T07:44:58Z</time>
      </trkpt>
      <trkpt lat="45.97446" lon="1.29285">
        <ele>505.54263305664</ele>
        <time>2010-10-03T07:45:03Z</time>
      </trkpt>
      <trkpt lat="45.97443" lon="1.29269">
        <ele>505.09658813477</ele>
        <time>2010-10-03T07:45:08Z</time>
      </trkpt>
      <trkpt lat="45.97437" lon="1.29251">
        <ele>504.50006103516</ele>
        <time>2010-10-03T07:45:14Z</time>
      </trkpt>
      <trkpt lat="45.97428" lon="1.29231">
        <ele>503.64068603516</ele>
        <time>2010-10-03T07:45:22Z</time>
      </trkpt>
      <trkpt lat="45.97418" lon="1.29218">
        <ele>502.88180541992</ele>
        <time>2010-10-03T07:45:28Z</time>
      </trkpt>
      <trkpt lat="45.97414" lon="1.29214">
        <ele>502.38949584961</ele>
        <time>2010-10-03T07:45:30Z</time>
      </trkpt>
      <trkpt lat="45.97411" lon="1.2921">
        <ele>501.90872192383</ele>
        <time>2010-10-03T07:45:32Z</time>
      </trkpt>
      <trkpt lat="45.97408" lon="1.29188">
        <ele>500.69973754883</ele>
        <time>2010-10-03T07:45:39Z</time>
      </trkpt>
      <trkpt lat="45.97414" lon="1.29169">
        <ele>500.69290161133</ele>
        <time>2010-10-03T07:45:46Z</time>
      </trkpt>
      <trkpt lat="45.97417" lon="1.29148">
        <ele>499.42590332031</ele>
        <time>2010-10-03T07:45:53Z</time>
      </trkpt>
      <trkpt lat="45.97422" lon="1.29131">
        <ele>498.27017211914</ele>
        <time>2010-10-03T07:45:58Z</time>
      </trkpt>
      <trkpt lat="45.97427" lon="1.29115">
        <ele>497.19946289062</ele>
        <time>2010-10-03T07:46:03Z</time>
      </trkpt>
      <trkpt lat="45.97432" lon="1.29108">
        <ele>496.93154907227</ele>
        <time>2010-10-03T07:46:06Z</time>
      </trkpt>
      <trkpt lat="45.97439" lon="1.29102">
        <ele>496.84231567383</ele>
        <time>2010-10-03T07:46:10Z</time>
      </trkpt>
      <trkpt lat="45.97447" lon="1.29092">
        <ele>496.5207824707</ele>
        <time>2010-10-03T07:46:18Z</time>
      </trkpt>
      <trkpt lat="45.97449" lon="1.2909">
        <ele>496.48989868164</ele>
        <time>2010-10-03T07:46:20Z</time>
      </trkpt>
      <trkpt lat="45.9745" lon="1.29089">
        <ele>496.43927001953</ele>
        <time>2010-10-03T07:46:27Z</time>
      </trkpt>
      <trkpt lat="45.97451" lon="1.29087">
        <ele>496.29965209961</ele>
        <time>2010-10-03T07:46:37Z</time>
      </trkpt>
      <trkpt lat="45.97451" lon="1.29087">
        <ele>496.32418823242</ele>
        <time>2010-10-03T07:46:43Z</time>
      </trkpt>
      <trkpt lat="45.9745" lon="1.29088">
        <ele>496.35055541992</ele>
        <time>2010-10-03T07:46:48Z</time>
      </trkpt>
      <trkpt lat="45.9745" lon="1.29087">
        <ele>496.30712890625</ele>
        <time>2010-10-03T07:46:51Z</time>
      </trkpt>
      <trkpt lat="45.97449" lon="1.29087">
        <ele>496.26934814453</ele>
        <time>2010-10-03T07:46:57Z</time>
      </trkpt>
      <trkpt lat="45.97449" lon="1.29087">
        <ele>496.25326538086</ele>
        <time>2010-10-03T07:47:06Z</time>
      </trkpt>
      <trkpt lat="45.97449" lon="1.29085">
        <ele>496.09439086914</ele>
        <time>2010-10-03T07:47:16Z</time>
      </trkpt>
      <trkpt lat="45.97449" lon="1.29086">
        <ele>496.15020751953</ele>
        <time>2010-10-03T07:47:23Z</time>
      </trkpt>
      <trkpt lat="45.97448" lon="1.29085">
        <ele>496.0403137207</ele>
        <time>2010-10-03T07:47:28Z</time>
      </trkpt>
      <trkpt lat="45.97448" lon="1.29085">
        <ele>496.00994873047</ele>
        <time>2010-10-03T07:47:37Z</time>
      </trkpt>
      <trkpt lat="45.97448" lon="1.29084">
        <ele>495.98822021484</ele>
        <time>2010-10-03T07:47:47Z</time>
      </trkpt>
      <trkpt lat="45.97449" lon="1.29084">
        <ele>495.99340820312</ele>
        <time>2010-10-03T07:47:56Z</time>
      </trkpt>
      <trkpt lat="45.9745" lon="1.29084">
        <ele>496.0143737793</ele>
        <time>2010-10-03T07:48:09Z</time>
      </trkpt>
      <trkpt lat="45.97449" lon="1.29083">
        <ele>495.91052246094</ele>
        <time>2010-10-03T07:48:17Z</time>
      </trkpt>
      <trkpt lat="45.97449" lon="1.29083">
        <ele>495.8525390625</ele>
        <time>2010-10-03T07:48:29Z</time>
      </trkpt>
      <trkpt lat="45.97449" lon="1.29083">
        <ele>495.89770507812</ele>
        <time>2010-10-03T07:48:38Z</time>
      </trkpt>
      <trkpt lat="45.97448" lon="1.29083">
        <ele>495.90203857422</ele>
        <time>2010-10-03T07:49:08Z</time>
      </trkpt>
      <trkpt lat="45.97448" lon="1.29083">
        <ele>495.90203857422</ele>
        <time>2010-10-03T07:49:16Z</time>
      </trkpt>
      <trkpt lat="45.97448" lon="1.29085">
        <ele>496.01947021484</ele>
        <time>2010-10-03T07:49:30Z</time>
      </trkpt>
      <trkpt lat="45.97449" lon="1.29084">
        <ele>496.00646972656</ele>
        <time>2010-10-03T07:50:00Z</time>
      </trkpt>
      <trkpt lat="45.97449" lon="1.29084">
        <ele>495.99700927734</ele>
        <time>2010-10-03T07:50:27Z</time>
      </trkpt>
      <trkpt lat="45.97449" lon="1.29084">
        <ele>495.99322509766</ele>
        <time>2010-10-03T07:51:04Z</time>
      </trkpt>
      <trkpt lat="45.97449" lon="1.29085">
        <ele>496.04901123047</ele>
        <time>2010-10-03T07:51:12Z</time>
      </trkpt>
      <trkpt lat="45.97449" lon="1.29085">
        <ele>496.06878662109</ele>
        <time>2010-10-03T07:51:18Z</time>
      </trkpt>
      <trkpt lat="45.97448" lon="1.29085">
        <ele>496.04220581055</ele>
        <time>2010-10-03T07:51:26Z</time>
      </trkpt>
      <trkpt lat="45.97448" lon="1.29085">
        <ele>496.03930664062</ele>
        <time>2010-10-03T07:51:37Z</time>
      </trkpt>
      <trkpt lat="45.97449" lon="1.29086">
        <ele>496.14730834961</ele>
        <time>2010-10-03T07:51:47Z</time>
      </trkpt>
      <trkpt lat="45.97448" lon="1.29087">
        <ele>496.13882446289</ele>
        <time>2010-10-03T07:51:59Z</time>
      </trkpt>
      <trkpt lat="45.97449" lon="1.29087">
        <ele>496.23153686523</ele>
        <time>2010-10-03T07:52:09Z</time>
      </trkpt>
      <trkpt lat="45.97449" lon="1.29088">
        <ele>496.3515625</ele>
        <time>2010-10-03T07:52:19Z</time>
      </trkpt>
      <trkpt lat="45.97449" lon="1.29089">
        <ele>496.41674804688</ele>
        <time>2010-10-03T07:52:24Z</time>
      </trkpt>
      <trkpt lat="45.97449" lon="1.29088">
        <ele>496.28448486328</ele>
        <time>2010-10-03T07:52:31Z</time>
      </trkpt>
      <trkpt lat="45.97449" lon="1.29086">
        <ele>496.17098999023</ele>
        <time>2010-10-03T07:52:43Z</time>
      </trkpt>
      <trkpt lat="45.97448" lon="1.29086">
        <ele>496.09805297852</ele>
        <time>2010-10-03T07:52:52Z</time>
      </trkpt>
      <trkpt lat="45.97447" lon="1.29086">
        <ele>496.02792358398</ele>
        <time>2010-10-03T07:53:19Z</time>
      </trkpt>
      <trkpt lat="45.97448" lon="1.29086">
        <ele>496.10565185547</ele>
        <time>2010-10-03T07:53:26Z</time>
      </trkpt>
      <trkpt lat="45.97449" lon="1.29087">
        <ele>496.19747924805</ele>
        <time>2010-10-03T07:53:38Z</time>
      </trkpt>
      <trkpt lat="45.97449" lon="1.29086">
        <ele>496.12271118164</ele>
        <time>2010-10-03T07:53:48Z</time>
      </trkpt>
      <trkpt lat="45.97449" lon="1.29086">
        <ele>496.10189819336</ele>
        <time>2010-10-03T07:54:04Z</time>
      </trkpt>
      <trkpt lat="45.97448" lon="1.29086">
        <ele>496.11038208008</ele>
        <time>2010-10-03T07:54:14Z</time>
      </trkpt>
      <trkpt lat="45.97448" lon="1.29086">
        <ele>496.1198425293</ele>
        <time>2010-10-03T07:54:31Z</time>
      </trkpt>
      <trkpt lat="45.97449" lon="1.29086">
        <ele>496.12744140625</ele>
        <time>2010-10-03T07:54:41Z</time>
      </trkpt>
      <trkpt lat="45.97449" lon="1.29088">
        <ele>496.25805664062</ele>
        <time>2010-10-03T07:55:01Z</time>
      </trkpt>
      <trkpt lat="45.97449" lon="1.29087">
        <ele>496.29202270508</ele>
        <time>2010-10-03T07:55:14Z</time>
      </trkpt>
      <trkpt lat="45.9745" lon="1.29088">
        <ele>496.33355712891</ele>
        <time>2010-10-03T07:55:19Z</time>
      </trkpt>
      <trkpt lat="45.9745" lon="1.29087">
        <ele>496.31564331055</ele>
        <time>2010-10-03T07:55:23Z</time>
      </trkpt>
      <trkpt lat="45.97451" lon="1.29087">
        <ele>496.35433959961</ele>
        <time>2010-10-03T07:55:30Z</time>
      </trkpt>
      <trkpt lat="45.9745" lon="1.29087">
        <ele>496.30621337891</ele>
        <time>2010-10-03T07:55:34Z</time>
      </trkpt>
      <trkpt lat="45.9745" lon="1.29086">
        <ele>496.20901489258</ele>
        <time>2010-10-03T07:55:45Z</time>
      </trkpt>
      <trkpt lat="45.9745" lon="1.29086">
        <ele>496.19860839844</ele>
        <time>2010-10-03T07:55:52Z</time>
      </trkpt>
      <trkpt lat="45.9745" lon="1.29085">
        <ele>496.18542480469</ele>
        <time>2010-10-03T07:55:58Z</time>
      </trkpt>
      <trkpt lat="45.9745" lon="1.29085">
        <ele>496.15899658203</ele>
        <time>2010-10-03T07:56:09Z</time>
      </trkpt>
      <trkpt lat="45.9745" lon="1.29085">
        <ele>496.15036010742</ele>
        <time>2010-10-03T07:56:18Z</time>
      </trkpt>
      <trkpt lat="45.97449" lon="1.29084">
        <ele>496.0378112793</ele>
        <time>2010-10-03T07:56:25Z</time>
      </trkpt>
      <trkpt lat="45.97449" lon="1.29084">
        <ele>495.99700927734</ele>
        <time>2010-10-03T07:56:35Z</time>
      </trkpt>
      <trkpt lat="45.97451" lon="1.2908">
        <ele>495.64505004883</ele>
        <time>2010-10-03T07:56:41Z</time>
      </trkpt>
      <trkpt lat="45.97452" lon="1.29077">
        <ele>495.45004272461</ele>
        <time>2010-10-03T07:56:43Z</time>
      </trkpt>
      <trkpt lat="45.97458" lon="1.29072">
        <ele>495.23394775391</ele>
        <time>2010-10-03T07:56:48Z</time>
      </trkpt>
      <trkpt lat="45.97463" lon="1.29067">
        <ele>495.04479980469</ele>
        <time>2010-10-03T07:56:54Z</time>
      </trkpt>
      <trkpt lat="45.97464" lon="1.29066">
        <ele>495.00875854492</ele>
        <time>2010-10-03T07:56:59Z</time>
      </trkpt>
      <trkpt lat="45.97469" lon="1.29062">
        <ele>494.76403808594</ele>
        <time>2010-10-03T07:57:06Z</time>
      </trkpt>
      <trkpt lat="45.9747" lon="1.2906">
        <ele>494.65545654297</ele>
        <time>2010-10-03T07:57:07Z</time>
      </trkpt>
      <trkpt lat="45.97479" lon="1.29046">
        <ele>493.4248046875</ele>
        <time>2010-10-03T07:57:13Z</time>
      </trkpt>
      <trkpt lat="45.97485" lon="1.29031">
        <ele>492.03594970703</ele>
        <time>2010-10-03T07:57:18Z</time>
      </trkpt>
      <trkpt lat="45.97491" lon="1.29021">
        <ele>491.10977172852</ele>
        <time>2010-10-03T07:57:22Z</time>
      </trkpt>
      <trkpt lat="45.97497" lon="1.2901">
        <ele>490.08004760742</ele>
        <time>2010-10-03T07:57:27Z</time>
      </trkpt>
      <trkpt lat="45.97506" lon="1.28993">
        <ele>487.75869750977</ele>
        <time>2010-10-03T07:57:34Z</time>
      </trkpt>
      <trkpt lat="45.97518" lon="1.28981">
        <ele>485.6240234375</ele>
        <time>2010-10-03T07:57:41Z</time>
      </trkpt>
      <trkpt lat="45.97528" lon="1.28971">
        <ele>483.90063476562</ele>
        <time>2010-10-03T07:57:47Z</time>
      </trkpt>
      <trkpt lat="45.97526" lon="1.28962">
        <ele>483.15661621094</ele>
        <time>2010-10-03T07:57:52Z</time>
      </trkpt>
      <trkpt lat="45.97521" lon="1.28951">
        <ele>482.37545776367</ele>
        <time>2010-10-03T07:57:57Z</time>
      </trkpt>
      <trkpt lat="45.97517" lon="1.28945">
        <ele>481.9850769043</ele>
        <time>2010-10-03T07:58:00Z</time>
      </trkpt>
      <trkpt lat="45.97506" lon="1.28935">
        <ele>481.6789855957</ele>
        <time>2010-10-03T07:58:06Z</time>
      </trkpt>
      <trkpt lat="45.97497" lon="1.28929">
        <ele>481.34384155273</ele>
        <time>2010-10-03T07:58:11Z</time>
      </trkpt>
      <trkpt lat="45.97485" lon="1.28922">
        <ele>480.89199829102</ele>
        <time>2010-10-03T07:58:17Z</time>
      </trkpt>
      <trkpt lat="45.97473" lon="1.28921">
        <ele>480.99142456055</ele>
        <time>2010-10-03T07:58:23Z</time>
      </trkpt>
      <trkpt lat="45.97466" lon="1.28928">
        <ele>481.74493408203</ele>
        <time>2010-10-03T07:58:28Z</time>
      </trkpt>
      <trkpt lat="45.97452" lon="1.28944">
        <ele>483.14309692383</ele>
        <time>2010-10-03T07:58:36Z</time>
      </trkpt>
      <trkpt lat="45.97443" lon="1.28953">
        <ele>483.77792358398</ele>
        <time>2010-10-03T07:58:40Z</time>
      </trkpt>
      <trkpt lat="45.97432" lon="1.28957">
        <ele>484.02551269531</ele>
        <time>2010-10-03T07:58:47Z</time>
      </trkpt>
      <trkpt lat="45.97425" lon="1.28949">
        <ele>483.56390380859</ele>
        <time>2010-10-03T07:58:52Z</time>
      </trkpt>
      <trkpt lat="45.97416" lon="1.28938">
        <ele>483.16625976562</ele>
        <time>2010-10-03T07:58:57Z</time>
      </trkpt>
      <trkpt lat="45.97413" lon="1.28933">
        <ele>483.2978515625</ele>
        <time>2010-10-03T07:59:00Z</time>
      </trkpt>
      <trkpt lat="45.97407" lon="1.28927">
        <ele>483.83215332031</ele>
        <time>2010-10-03T07:59:04Z</time>
      </trkpt>
      <trkpt lat="45.97404" lon="1.2892">
        <ele>484.05624389648</ele>
        <time>2010-10-03T07:59:08Z</time>
      </trkpt>
      <trkpt lat="45.97401" lon="1.28909">
        <ele>483.5944519043</ele>
        <time>2010-10-03T07:59:15Z</time>
      </trkpt>
      <trkpt lat="45.97398" lon="1.28899">
        <ele>482.94915771484</ele>
        <time>2010-10-03T07:59:19Z</time>
      </trkpt>
      <trkpt lat="45.97395" lon="1.28893">
        <ele>482.73852539062</ele>
        <time>2010-10-03T07:59:24Z</time>
      </trkpt>
      <trkpt lat="45.97395" lon="1.2889">
        <ele>482.51248168945</ele>
        <time>2010-10-03T07:59:26Z</time>
      </trkpt>
      <trkpt lat="45.97393" lon="1.2888">
        <ele>481.71664428711</ele>
        <time>2010-10-03T07:59:30Z</time>
      </trkpt>
      <trkpt lat="45.97393" lon="1.28869">
        <ele>480.57684326172</ele>
        <time>2010-10-03T07:59:34Z</time>
      </trkpt>
      <trkpt lat="45.97386" lon="1.28847">
        <ele>479.70013427734</ele>
        <time>2010-10-03T07:59:41Z</time>
      </trkpt>
      <trkpt lat="45.97385" lon="1.28844">
        <ele>479.57919311523</ele>
        <time>2010-10-03T07:59:42Z</time>
      </trkpt>
      <trkpt lat="45.97375" lon="1.28832">
        <ele>480.24221801758</ele>
        <time>2010-10-03T07:59:48Z</time>
      </trkpt>
      <trkpt lat="45.97365" lon="1.28828">
        <ele>480.98046875</ele>
        <time>2010-10-03T07:59:54Z</time>
      </trkpt>
      <trkpt lat="45.97358" lon="1.28824">
        <ele>481.06729125977</ele>
        <time>2010-10-03T07:59:58Z</time>
      </trkpt>
      <trkpt lat="45.97353" lon="1.2882">
        <ele>481.06640625</ele>
        <time>2010-10-03T08:00:02Z</time>
      </trkpt>
      <trkpt lat="45.9735" lon="1.28818">
        <ele>481.25524902344</ele>
        <time>2010-10-03T08:00:04Z</time>
      </trkpt>
      <trkpt lat="45.97338" lon="1.28809">
        <ele>480.9499206543</ele>
        <time>2010-10-03T08:00:11Z</time>
      </trkpt>
      <trkpt lat="45.9733" lon="1.28802">
        <ele>479.95822143555</ele>
        <time>2010-10-03T08:00:16Z</time>
      </trkpt>
      <trkpt lat="45.97322" lon="1.28791">
        <ele>477.78131103516</ele>
        <time>2010-10-03T08:00:22Z</time>
      </trkpt>
      <trkpt lat="45.97313" lon="1.28782">
        <ele>476.49478149414</ele>
        <time>2010-10-03T08:00:28Z</time>
      </trkpt>
      <trkpt lat="45.97311" lon="1.28781">
        <ele>476.45462036133</ele>
        <time>2010-10-03T08:00:29Z</time>
      </trkpt>
      <trkpt lat="45.97299" lon="1.28772">
        <ele>475.70681762695</ele>
        <time>2010-10-03T08:00:36Z</time>
      </trkpt>
      <trkpt lat="45.97285" lon="1.28768">
        <ele>477.01760864258</ele>
        <time>2010-10-03T08:00:41Z</time>
      </trkpt>
      <trkpt lat="45.97282" lon="1.28766">
        <ele>477.01916503906</ele>
        <time>2010-10-03T08:00:42Z</time>
      </trkpt>
      <trkpt lat="45.97272" lon="1.2876">
        <ele>477.30972290039</ele>
        <time>2010-10-03T08:00:48Z</time>
      </trkpt>
      <trkpt lat="45.97264" lon="1.28751">
        <ele>476.67135620117</ele>
        <time>2010-10-03T08:00:53Z</time>
      </trkpt>
      <trkpt lat="45.97254" lon="1.28746">
        <ele>477.71487426758</ele>
        <time>2010-10-03T08:00:58Z</time>
      </trkpt>
      <trkpt lat="45.97238" lon="1.28738">
        <ele>478.79959106445</ele>
        <time>2010-10-03T08:01:04Z</time>
      </trkpt>
      <trkpt lat="45.97231" lon="1.28732">
        <ele>478.94152832031</ele>
        <time>2010-10-03T08:01:09Z</time>
      </trkpt>
      <trkpt lat="45.9722" lon="1.28727">
        <ele>479.83135986328</ele>
        <time>2010-10-03T08:01:14Z</time>
      </trkpt>
      <trkpt lat="45.97215" lon="1.28715">
        <ele>479.56369018555</ele>
        <time>2010-10-03T08:01:19Z</time>
      </trkpt>
      <trkpt lat="45.97206" lon="1.28704">
        <ele>480.1194152832</ele>
        <time>2010-10-03T08:01:24Z</time>
      </trkpt>
      <trkpt lat="45.97202" lon="1.28697">
        <ele>480.20397949219</ele>
        <time>2010-10-03T08:01:27Z</time>
      </trkpt>
      <trkpt lat="45.97209" lon="1.28683">
        <ele>478.12399291992</ele>
        <time>2010-10-03T08:01:35Z</time>
      </trkpt>
      <trkpt lat="45.97212" lon="1.28676">
        <ele>476.86892700195</ele>
        <time>2010-10-03T08:01:40Z</time>
      </trkpt>
      <trkpt lat="45.97216" lon="1.28669">
        <ele>475.61459350586</ele>
        <time>2010-10-03T08:01:46Z</time>
      </trkpt>
      <trkpt lat="45.97216" lon="1.28663">
        <ele>475.17651367188</ele>
        <time>2010-10-03T08:01:51Z</time>
      </trkpt>
      <trkpt lat="45.97216" lon="1.28658">
        <ele>474.79345703125</ele>
        <time>2010-10-03T08:01:54Z</time>
      </trkpt>
      <trkpt lat="45.97226" lon="1.28652">
        <ele>472.28137207031</ele>
        <time>2010-10-03T08:02:01Z</time>
      </trkpt>
      <trkpt lat="45.97236" lon="1.28638">
        <ele>468.94659423828</ele>
        <time>2010-10-03T08:02:08Z</time>
      </trkpt>
      <trkpt lat="45.97237" lon="1.28636">
        <ele>468.54418945312</ele>
        <time>2010-10-03T08:02:09Z</time>
      </trkpt>
      <trkpt lat="45.97249" lon="1.2863">
        <ele>465.2353515625</ele>
        <time>2010-10-03T08:02:16Z</time>
      </trkpt>
      <trkpt lat="45.97258" lon="1.28633">
        <ele>463.39233398438</ele>
        <time>2010-10-03T08:02:21Z</time>
      </trkpt>
      <trkpt lat="45.97259" lon="1.28635">
        <ele>463.25875854492</ele>
        <time>2010-10-03T08:02:22Z</time>
      </trkpt>
      <trkpt lat="45.97263" lon="1.28637">
        <ele>462.63333129883</ele>
        <time>2010-10-03T08:02:25Z</time>
      </trkpt>
      <trkpt lat="45.97274" lon="1.28632">
        <ele>459.7555847168</ele>
        <time>2010-10-03T08:02:32Z</time>
      </trkpt>
      <trkpt lat="45.97282" lon="1.28626">
        <ele>457.55889892578</ele>
        <time>2010-10-03T08:02:38Z</time>
      </trkpt>
      <trkpt lat="45.9729" lon="1.28623">
        <ele>455.82720947266</ele>
        <time>2010-10-03T08:02:42Z</time>
      </trkpt>
      <trkpt lat="45.97293" lon="1.28611">
        <ele>454.44564819336</ele>
        <time>2010-10-03T08:02:48Z</time>
      </trkpt>
      <trkpt lat="45.97291" lon="1.28603">
        <ele>454.52096557617</ele>
        <time>2010-10-03T08:02:51Z</time>
      </trkpt>
      <trkpt lat="45.97282" lon="1.28589">
        <ele>455.52783203125</ele>
        <time>2010-10-03T08:02:58Z</time>
      </trkpt>
      <trkpt lat="45.97277" lon="1.28579">
        <ele>456.21615600586</ele>
        <time>2010-10-03T08:03:02Z</time>
      </trkpt>
      <trkpt lat="45.97276" lon="1.28575">
        <ele>456.54684448242</ele>
        <time>2010-10-03T08:03:04Z</time>
      </trkpt>
      <trkpt lat="45.97279" lon="1.28567">
        <ele>456.44302368164</ele>
        <time>2010-10-03T08:03:08Z</time>
      </trkpt>
      <trkpt lat="45.97284" lon="1.2856">
        <ele>455.98760986328</ele>
        <time>2010-10-03T08:03:13Z</time>
      </trkpt>
      <trkpt lat="45.97288" lon="1.28555">
        <ele>455.6057434082</ele>
        <time>2010-10-03T08:03:17Z</time>
      </trkpt>
      <trkpt lat="45.97289" lon="1.28552">
        <ele>455.62701416016</ele>
        <time>2010-10-03T08:03:19Z</time>
      </trkpt>
      <trkpt lat="45.97289" lon="1.28548">
        <ele>455.81088256836</ele>
        <time>2010-10-03T08:03:26Z</time>
      </trkpt>
      <trkpt lat="45.9729" lon="1.28547">
        <ele>455.70178222656</ele>
        <time>2010-10-03T08:03:28Z</time>
      </trkpt>
      <trkpt lat="45.97301" lon="1.28549">
        <ele>454.07763671875</ele>
        <time>2010-10-03T08:03:35Z</time>
      </trkpt>
      <trkpt lat="45.97311" lon="1.28556">
        <ele>452.15997314453</ele>
        <time>2010-10-03T08:03:40Z</time>
      </trkpt>
      <trkpt lat="45.9732" lon="1.28566">
        <ele>449.98147583008</ele>
        <time>2010-10-03T08:03:45Z</time>
      </trkpt>
      <trkpt lat="45.97332" lon="1.28574">
        <ele>447.19354248047</ele>
        <time>2010-10-03T08:03:51Z</time>
      </trkpt>
      <trkpt lat="45.9734" lon="1.2858">
        <ele>446.03955078125</ele>
        <time>2010-10-03T08:03:55Z</time>
      </trkpt>
      <trkpt lat="45.97347" lon="1.28586">
        <ele>445.3323059082</ele>
        <time>2010-10-03T08:04:00Z</time>
      </trkpt>
      <trkpt lat="45.9735" lon="1.28594">
        <ele>445.10516357422</ele>
        <time>2010-10-03T08:04:04Z</time>
      </trkpt>
      <trkpt lat="45.97352" lon="1.28595">
        <ele>444.96966552734</ele>
        <time>2010-10-03T08:04:06Z</time>
      </trkpt>
      <trkpt lat="45.9736" lon="1.28596">
        <ele>444.45211791992</ele>
        <time>2010-10-03T08:04:11Z</time>
      </trkpt>
      <trkpt lat="45.97365" lon="1.28593">
        <ele>444.212890625</ele>
        <time>2010-10-03T08:04:13Z</time>
      </trkpt>
      <trkpt lat="45.97385" lon="1.28595">
        <ele>442.8752746582</ele>
        <time>2010-10-03T08:04:21Z</time>
      </trkpt>
      <trkpt lat="45.97398" lon="1.28597">
        <ele>441.91302490234</ele>
        <time>2010-10-03T08:04:27Z</time>
      </trkpt>
      <trkpt lat="45.97411" lon="1.28603">
        <ele>440.56802368164</ele>
        <time>2010-10-03T08:04:32Z</time>
      </trkpt>
      <trkpt lat="45.97416" lon="1.28606">
        <ele>439.87835693359</ele>
        <time>2010-10-03T08:04:34Z</time>
      </trkpt>
      <trkpt lat="45.97423" lon="1.28611">
        <ele>438.44869995117</ele>
        <time>2010-10-03T08:04:37Z</time>
      </trkpt>
      <trkpt lat="45.97431" lon="1.28614">
        <ele>437.01477050781</ele>
        <time>2010-10-03T08:04:41Z</time>
      </trkpt>
      <trkpt lat="45.9744" lon="1.28618">
        <ele>435.52917480469</ele>
        <time>2010-10-03T08:04:46Z</time>
      </trkpt>
      <trkpt lat="45.97441" lon="1.28635">
        <ele>434.21875</ele>
        <time>2010-10-03T08:04:51Z</time>
      </trkpt>
      <trkpt lat="45.97441" lon="1.2864">
        <ele>433.96725463867</ele>
        <time>2010-10-03T08:04:52Z</time>
      </trkpt>
      <trkpt lat="45.97445" lon="1.28656">
        <ele>432.55804443359</ele>
        <time>2010-10-03T08:04:57Z</time>
      </trkpt>
      <trkpt lat="45.97451" lon="1.28668">
        <ele>431.82107543945</ele>
        <time>2010-10-03T08:05:04Z</time>
      </trkpt>
      <trkpt lat="45.97457" lon="1.28672">
        <ele>432.13626098633</ele>
        <time>2010-10-03T08:05:09Z</time>
      </trkpt>
      <trkpt lat="45.9746" lon="1.28674">
        <ele>432.15762329102</ele>
        <time>2010-10-03T08:05:11Z</time>
      </trkpt>
      <trkpt lat="45.97465" lon="1.28688">
        <ele>434.40921020508</ele>
        <time>2010-10-03T08:05:17Z</time>
      </trkpt>
      <trkpt lat="45.97464" lon="1.28692">
        <ele>435.3095703125</ele>
        <time>2010-10-03T08:05:19Z</time>
      </trkpt>
      <trkpt lat="45.97461" lon="1.28701">
        <ele>437.09848022461</ele>
        <time>2010-10-03T08:05:24Z</time>
      </trkpt>
      <trkpt lat="45.97461" lon="1.28716">
        <ele>439.96929931641</ele>
        <time>2010-10-03T08:05:31Z</time>
      </trkpt>
      <trkpt lat="45.97461" lon="1.28718">
        <ele>440.31219482422</ele>
        <time>2010-10-03T08:05:32Z</time>
      </trkpt>
      <trkpt lat="45.9746" lon="1.28725">
        <ele>441.66952514648</ele>
        <time>2010-10-03T08:05:36Z</time>
      </trkpt>
      <trkpt lat="45.97459" lon="1.28729">
        <ele>442.54159545898</ele>
        <time>2010-10-03T08:05:40Z</time>
      </trkpt>
      <trkpt lat="45.97463" lon="1.28736">
        <ele>443.54956054688</ele>
        <time>2010-10-03T08:05:47Z</time>
      </trkpt>
      <trkpt lat="45.97465" lon="1.2874">
        <ele>444.13824462891</ele>
        <time>2010-10-03T08:05:51Z</time>
      </trkpt>
      <trkpt lat="45.97468" lon="1.28744">
        <ele>444.51635742188</ele>
        <time>2010-10-03T08:05:54Z</time>
      </trkpt>
      <trkpt lat="45.97473" lon="1.28744">
        <ele>444.20523071289</ele>
        <time>2010-10-03T08:05:58Z</time>
      </trkpt>
      <trkpt lat="45.97481" lon="1.28742">
        <ele>443.2275390625</ele>
        <time>2010-10-03T08:06:05Z</time>
      </trkpt>
      <trkpt lat="45.97485" lon="1.28742">
        <ele>442.71994018555</ele>
        <time>2010-10-03T08:06:08Z</time>
      </trkpt>
      <trkpt lat="45.97498" lon="1.28739">
        <ele>441.17166137695</ele>
        <time>2010-10-03T08:06:15Z</time>
      </trkpt>
      <trkpt lat="45.97506" lon="1.28736">
        <ele>440.98803710938</ele>
        <time>2010-10-03T08:06:21Z</time>
      </trkpt>
      <trkpt lat="45.97508" lon="1.28733">
        <ele>440.65524291992</ele>
        <time>2010-10-03T08:06:23Z</time>
      </trkpt>
      <trkpt lat="45.97521" lon="1.28722">
        <ele>439.87573242188</ele>
        <time>2010-10-03T08:06:30Z</time>
      </trkpt>
      <trkpt lat="45.9753" lon="1.28716">
        <ele>439.69323730469</ele>
        <time>2010-10-03T08:06:35Z</time>
      </trkpt>
      <trkpt lat="45.97543" lon="1.28708">
        <ele>439.18826293945</ele>
        <time>2010-10-03T08:06:40Z</time>
      </trkpt>
      <trkpt lat="45.97554" lon="1.287">
        <ele>438.81118774414</ele>
        <time>2010-10-03T08:06:45Z</time>
      </trkpt>
      <trkpt lat="45.97561" lon="1.28696">
        <ele>438.57489013672</ele>
        <time>2010-10-03T08:06:49Z</time>
      </trkpt>
      <trkpt lat="45.97573" lon="1.28692">
        <ele>438.94186401367</ele>
        <time>2010-10-03T08:06:54Z</time>
      </trkpt>
      <trkpt lat="45.97584" lon="1.28686">
        <ele>438.77606201172</ele>
        <time>2010-10-03T08:06:59Z</time>
      </trkpt>
      <trkpt lat="45.97586" lon="1.28678">
        <ele>437.49118041992</ele>
        <time>2010-10-03T08:07:03Z</time>
      </trkpt>
      <trkpt lat="45.97583" lon="1.28657">
        <ele>434.14202880859</ele>
        <time>2010-10-03T08:07:09Z</time>
      </trkpt>
      <trkpt lat="45.97579" lon="1.28641">
        <ele>432.54513549805</ele>
        <time>2010-10-03T08:07:14Z</time>
      </trkpt>
      <trkpt lat="45.97578" lon="1.28622">
        <ele>431.03985595703</ele>
        <time>2010-10-03T08:07:20Z</time>
      </trkpt>
      <trkpt lat="45.97577" lon="1.28606">
        <ele>429.70733642578</ele>
        <time>2010-10-03T08:07:25Z</time>
      </trkpt>
      <trkpt lat="45.9758" lon="1.28592">
        <ele>428.69311523438</ele>
        <time>2010-10-03T08:07:30Z</time>
      </trkpt>
      <trkpt lat="45.97581" lon="1.28582">
        <ele>427.83624267578</ele>
        <time>2010-10-03T08:07:34Z</time>
      </trkpt>
      <trkpt lat="45.97582" lon="1.28568">
        <ele>426.24426269531</ele>
        <time>2010-10-03T08:07:38Z</time>
      </trkpt>
      <trkpt lat="45.97583" lon="1.28551">
        <ele>424.10745239258</ele>
        <time>2010-10-03T08:07:44Z</time>
      </trkpt>
      <trkpt lat="45.97583" lon="1.28534">
        <ele>422.09649658203</ele>
        <time>2010-10-03T08:07:49Z</time>
      </trkpt>
      <trkpt lat="45.97585" lon="1.28512">
        <ele>419.78497314453</ele>
        <time>2010-10-03T08:07:55Z</time>
      </trkpt>
      <trkpt lat="45.9759" lon="1.28504">
        <ele>419.91610717773</ele>
        <time>2010-10-03T08:07:58Z</time>
      </trkpt>
      <trkpt lat="45.97592" lon="1.28492">
        <ele>418.75955200195</ele>
        <time>2010-10-03T08:08:02Z</time>
      </trkpt>
      <trkpt lat="45.97592" lon="1.28478">
        <ele>416.83612060547</ele>
        <time>2010-10-03T08:08:06Z</time>
      </trkpt>
      <trkpt lat="45.97596" lon="1.28461">
        <ele>415.40170288086</ele>
        <time>2010-10-03T08:08:12Z</time>
      </trkpt>
      <trkpt lat="45.97599" lon="1.28448">
        <ele>414.13360595703</ele>
        <time>2010-10-03T08:08:18Z</time>
      </trkpt>
      <trkpt lat="45.97609" lon="1.28429">
        <ele>412.99334716797</ele>
        <time>2010-10-03T08:08:25Z</time>
      </trkpt>
      <trkpt lat="45.97617" lon="1.28417">
        <ele>412.70608520508</ele>
        <time>2010-10-03T08:08:30Z</time>
      </trkpt>
      <trkpt lat="45.97627" lon="1.28408">
        <ele>413.61614990234</ele>
        <time>2010-10-03T08:08:35Z</time>
      </trkpt>
      <trkpt lat="45.97636" lon="1.28396">
        <ele>413.92965698242</ele>
        <time>2010-10-03T08:08:41Z</time>
      </trkpt>
      <trkpt lat="45.97645" lon="1.28386">
        <ele>414.15798950195</ele>
        <time>2010-10-03T08:08:47Z</time>
      </trkpt>
      <trkpt lat="45.97649" lon="1.28375">
        <ele>413.53219604492</ele>
        <time>2010-10-03T08:08:52Z</time>
      </trkpt>
      <trkpt lat="45.97656" lon="1.28366">
        <ele>413.50231933594</ele>
        <time>2010-10-03T08:08:58Z</time>
      </trkpt>
      <trkpt lat="45.97666" lon="1.28354">
        <ele>413.41458129883</ele>
        <time>2010-10-03T08:09:07Z</time>
      </trkpt>
      <trkpt lat="45.97675" lon="1.28345">
        <ele>413.09997558594</ele>
        <time>2010-10-03T08:09:14Z</time>
      </trkpt>
      <trkpt lat="45.97684" lon="1.28338">
        <ele>412.85681152344</ele>
        <time>2010-10-03T08:09:21Z</time>
      </trkpt>
      <trkpt lat="45.97694" lon="1.2833">
        <ele>412.70892333984</ele>
        <time>2010-10-03T08:09:28Z</time>
      </trkpt>
      <trkpt lat="45.97696" lon="1.28329">
        <ele>412.69119262695</ele>
        <time>2010-10-03T08:09:29Z</time>
      </trkpt>
      <trkpt lat="45.97705" lon="1.28321">
        <ele>412.70791625977</ele>
        <time>2010-10-03T08:09:36Z</time>
      </trkpt>
      <trkpt lat="45.97713" lon="1.28316">
        <ele>412.89517211914</ele>
        <time>2010-10-03T08:09:42Z</time>
      </trkpt>
      <trkpt lat="45.97722" lon="1.28311">
        <ele>413.08728027344</ele>
        <time>2010-10-03T08:09:49Z</time>
      </trkpt>
      <trkpt lat="45.97732" lon="1.28306">
        <ele>413.35079956055</ele>
        <time>2010-10-03T08:09:56Z</time>
      </trkpt>
      <trkpt lat="45.97739" lon="1.28302">
        <ele>413.56622314453</ele>
        <time>2010-10-03T08:10:02Z</time>
      </trkpt>
      <trkpt lat="45.97748" lon="1.283">
        <ele>414.03271484375</ele>
        <time>2010-10-03T08:10:08Z</time>
      </trkpt>
      <trkpt lat="45.97752" lon="1.28298">
        <ele>413.9333190918</ele>
        <time>2010-10-03T08:10:11Z</time>
      </trkpt>
      <trkpt lat="45.9776" lon="1.28297">
        <ele>413.42059326172</ele>
        <time>2010-10-03T08:10:16Z</time>
      </trkpt>
      <trkpt lat="45.97761" lon="1.28297">
        <ele>413.35525512695</ele>
        <time>2010-10-03T08:10:17Z</time>
      </trkpt>
      <trkpt lat="45.97764" lon="1.28298">
        <ele>413.27432250977</ele>
        <time>2010-10-03T08:10:19Z</time>
      </trkpt>
      <trkpt lat="45.9777" lon="1.283">
        <ele>413.15689086914</ele>
        <time>2010-10-03T08:10:25Z</time>
      </trkpt>
      <trkpt lat="45.97779" lon="1.28299">
        <ele>412.55731201172</ele>
        <time>2010-10-03T08:10:32Z</time>
      </trkpt>
      <trkpt lat="45.97792" lon="1.28296">
        <ele>411.40054321289</ele>
        <time>2010-10-03T08:10:37Z</time>
      </trkpt>
      <trkpt lat="45.97796" lon="1.28294">
        <ele>410.82751464844</ele>
        <time>2010-10-03T08:10:39Z</time>
      </trkpt>
      <trkpt lat="45.97796" lon="1.28289">
        <ele>410.00769042969</ele>
        <time>2010-10-03T08:10:43Z</time>
      </trkpt>
      <trkpt lat="45.97787" lon="1.2828">
        <ele>409.33465576172</ele>
        <time>2010-10-03T08:10:49Z</time>
      </trkpt>
      <trkpt lat="45.97779" lon="1.28271">
        <ele>408.91027832031</ele>
        <time>2010-10-03T08:10:54Z</time>
      </trkpt>
      <trkpt lat="45.97778" lon="1.2827">
        <ele>408.91772460938</ele>
        <time>2010-10-03T08:10:55Z</time>
      </trkpt>
      <trkpt lat="45.97767" lon="1.2826">
        <ele>408.83584594727</ele>
        <time>2010-10-03T08:11:01Z</time>
      </trkpt>
      <trkpt lat="45.97758" lon="1.28254">
        <ele>409.26605224609</ele>
        <time>2010-10-03T08:11:06Z</time>
      </trkpt>
      <trkpt lat="45.97747" lon="1.28248">
        <ele>409.46932983398</ele>
        <time>2010-10-03T08:11:11Z</time>
      </trkpt>
      <trkpt lat="45.97736" lon="1.28238">
        <ele>407.45867919922</ele>
        <time>2010-10-03T08:11:16Z</time>
      </trkpt>
      <trkpt lat="45.97723" lon="1.28227">
        <ele>405.14193725586</ele>
        <time>2010-10-03T08:11:23Z</time>
      </trkpt>
      <trkpt lat="45.97713" lon="1.28218">
        <ele>403.51950073242</ele>
        <time>2010-10-03T08:11:29Z</time>
      </trkpt>
      <trkpt lat="45.97699" lon="1.28213">
        <ele>402.37847900391</ele>
        <time>2010-10-03T08:11:36Z</time>
      </trkpt>
      <trkpt lat="45.97688" lon="1.28211">
        <ele>401.69473266602</ele>
        <time>2010-10-03T08:11:41Z</time>
      </trkpt>
      <trkpt lat="45.97674" lon="1.28203">
        <ele>400.29849243164</ele>
        <time>2010-10-03T08:11:48Z</time>
      </trkpt>
      <trkpt lat="45.97668" lon="1.28191">
        <ele>399.0739440918</ele>
        <time>2010-10-03T08:11:53Z</time>
      </trkpt>
      <trkpt lat="45.97663" lon="1.28184">
        <ele>398.57669067383</ele>
        <time>2010-10-03T08:11:56Z</time>
      </trkpt>
      <trkpt lat="45.97652" lon="1.2818">
        <ele>398.76077270508</ele>
        <time>2010-10-03T08:12:02Z</time>
      </trkpt>
      <trkpt lat="45.9764" lon="1.28186">
        <ele>399.53775024414</ele>
        <time>2010-10-03T08:12:08Z</time>
      </trkpt>
      <trkpt lat="45.97636" lon="1.28191">
        <ele>399.892578125</ele>
        <time>2010-10-03T08:12:13Z</time>
      </trkpt>
      <trkpt lat="45.97634" lon="1.28193">
        <ele>400.04986572266</ele>
        <time>2010-10-03T08:12:16Z</time>
      </trkpt>
      <trkpt lat="45.97629" lon="1.28199">
        <ele>400.38754272461</ele>
        <time>2010-10-03T08:12:21Z</time>
      </trkpt>
      <trkpt lat="45.97626" lon="1.28205">
        <ele>400.62579345703</ele>
        <time>2010-10-03T08:12:24Z</time>
      </trkpt>
      <trkpt lat="45.97622" lon="1.28213">
        <ele>400.89636230469</ele>
        <time>2010-10-03T08:12:30Z</time>
      </trkpt>
      <trkpt lat="45.9762" lon="1.28216">
        <ele>400.97198486328</ele>
        <time>2010-10-03T08:12:32Z</time>
      </trkpt>
      <trkpt lat="45.97618" lon="1.2822">
        <ele>401.0290222168</ele>
        <time>2010-10-03T08:12:35Z</time>
      </trkpt>
      <trkpt lat="45.97614" lon="1.28224">
        <ele>401.06826782227</ele>
        <time>2010-10-03T08:12:40Z</time>
      </trkpt>
      <trkpt lat="45.97613" lon="1.28225">
        <ele>401.06521606445</ele>
        <time>2010-10-03T08:12:41Z</time>
      </trkpt>
      <trkpt lat="45.97608" lon="1.28231">
        <ele>401.02499389648</ele>
        <time>2010-10-03T08:12:48Z</time>
      </trkpt>
      <trkpt lat="45.97607" lon="1.28231">
        <ele>401.0022277832</ele>
        <time>2010-10-03T08:12:49Z</time>
      </trkpt>
      <trkpt lat="45.97602" lon="1.2823">
        <ele>400.90258789062</ele>
        <time>2010-10-03T08:12:51Z</time>
      </trkpt>
      <trkpt lat="45.97597" lon="1.28231">
        <ele>400.77795410156</ele>
        <time>2010-10-03T08:12:54Z</time>
      </trkpt>
      <trkpt lat="45.97594" lon="1.2823">
        <ele>400.71420288086</ele>
        <time>2010-10-03T08:12:56Z</time>
      </trkpt>
      <trkpt lat="45.97591" lon="1.28229">
        <ele>400.67010498047</ele>
        <time>2010-10-03T08:13:06Z</time>
      </trkpt>
      <trkpt lat="45.97588" lon="1.28229">
        <ele>400.59219360352</ele>
        <time>2010-10-03T08:13:18Z</time>
      </trkpt>
      <trkpt lat="45.97586" lon="1.28229">
        <ele>400.56973266602</ele>
        <time>2010-10-03T08:13:29Z</time>
      </trkpt>
      <trkpt lat="45.97586" lon="1.28229">
        <ele>400.54727172852</ele>
        <time>2010-10-03T08:13:34Z</time>
      </trkpt>
      <trkpt lat="45.97588" lon="1.28232">
        <ele>400.53707885742</ele>
        <time>2010-10-03T08:13:43Z</time>
      </trkpt>
      <trkpt lat="45.97585" lon="1.28231">
        <ele>400.48348999023</ele>
        <time>2010-10-03T08:13:52Z</time>
      </trkpt>
      <trkpt lat="45.97583" lon="1.2823">
        <ele>400.58169555664</ele>
        <time>2010-10-03T08:13:59Z</time>
      </trkpt>
      <trkpt lat="45.97585" lon="1.28231">
        <ele>400.47601318359</ele>
        <time>2010-10-03T08:14:09Z</time>
      </trkpt>
      <trkpt lat="45.97589" lon="1.28232">
        <ele>400.57992553711</ele>
        <time>2010-10-03T08:14:24Z</time>
      </trkpt>
      <trkpt lat="45.9759" lon="1.28227">
        <ele>400.66513061523</ele>
        <time>2010-10-03T08:14:31Z</time>
      </trkpt>
      <trkpt lat="45.97589" lon="1.28229">
        <ele>400.62353515625</ele>
        <time>2010-10-03T08:14:36Z</time>
      </trkpt>
      <trkpt lat="45.97591" lon="1.28231">
        <ele>400.6315612793</ele>
        <time>2010-10-03T08:14:45Z</time>
      </trkpt>
      <trkpt lat="45.97586" lon="1.28224">
        <ele>400.67767333984</ele>
        <time>2010-10-03T08:14:52Z</time>
      </trkpt>
      <trkpt lat="45.97585" lon="1.28223">
        <ele>400.669921875</ele>
        <time>2010-10-03T08:14:53Z</time>
      </trkpt>
      <trkpt lat="45.97587" lon="1.2822">
        <ele>400.75811767578</ele>
        <time>2010-10-03T08:14:59Z</time>
      </trkpt>
      <trkpt lat="45.97587" lon="1.28221">
        <ele>400.73587036133</ele>
        <time>2010-10-03T08:15:10Z</time>
      </trkpt>
      <trkpt lat="45.97587" lon="1.28221">
        <ele>400.73815917969</ele>
        <time>2010-10-03T08:15:11Z</time>
      </trkpt>
      <trkpt lat="45.97587" lon="1.28225">
        <ele>400.66729736328</ele>
        <time>2010-10-03T08:15:20Z</time>
      </trkpt>
      <trkpt lat="45.97588" lon="1.28228">
        <ele>400.61920166016</ele>
        <time>2010-10-03T08:15:26Z</time>
      </trkpt>
      <trkpt lat="45.97588" lon="1.28224">
        <ele>400.6872253418</ele>
        <time>2010-10-03T08:15:38Z</time>
      </trkpt>
      <trkpt lat="45.97589" lon="1.28224">
        <ele>400.70147705078</ele>
        <time>2010-10-03T08:15:53Z</time>
      </trkpt>
      <trkpt lat="45.97591" lon="1.28225">
        <ele>400.72174072266</ele>
        <time>2010-10-03T08:16:02Z</time>
      </trkpt>
      <trkpt lat="45.97589" lon="1.28221">
        <ele>400.75646972656</ele>
        <time>2010-10-03T08:16:08Z</time>
      </trkpt>
      <trkpt lat="45.97586" lon="1.28216">
        <ele>400.82345581055</ele>
        <time>2010-10-03T08:16:14Z</time>
      </trkpt>
      <trkpt lat="45.97587" lon="1.28212">
        <ele>400.91580200195</ele>
        <time>2010-10-03T08:16:19Z</time>
      </trkpt>
      <trkpt lat="45.97589" lon="1.28205">
        <ele>401.01278686523</ele>
        <time>2010-10-03T08:16:25Z</time>
      </trkpt>
      <trkpt lat="45.97589" lon="1.28198">
        <ele>401.13137817383</ele>
        <time>2010-10-03T08:16:30Z</time>
      </trkpt>
      <trkpt lat="45.97589" lon="1.28195">
        <ele>401.18606567383</ele>
        <time>2010-10-03T08:16:38Z</time>
      </trkpt>
      <trkpt lat="45.97585" lon="1.28189">
        <ele>401.42584228516</ele>
        <time>2010-10-03T08:16:45Z</time>
      </trkpt>
      <trkpt lat="45.97583" lon="1.28183">
        <ele>401.85845947266</ele>
        <time>2010-10-03T08:16:51Z</time>
      </trkpt>
      <trkpt lat="45.97578" lon="1.28184">
        <ele>403.68121337891</ele>
        <time>2010-10-03T08:16:59Z</time>
      </trkpt>
      <trkpt lat="45.97578" lon="1.28179">
        <ele>403.5244140625</ele>
        <time>2010-10-03T08:17:05Z</time>
      </trkpt>
      <trkpt lat="45.97577" lon="1.28176">
        <ele>404.04467773438</ele>
        <time>2010-10-03T08:17:10Z</time>
      </trkpt>
      <trkpt lat="45.97575" lon="1.28171">
        <ele>404.92303466797</ele>
        <time>2010-10-03T08:17:18Z</time>
      </trkpt>
      <trkpt lat="45.97574" lon="1.28167">
        <ele>405.62881469727</ele>
        <time>2010-10-03T08:17:24Z</time>
      </trkpt>
      <trkpt lat="45.97573" lon="1.28164">
        <ele>405.8662109375</ele>
        <time>2010-10-03T08:17:28Z</time>
      </trkpt>
      <trkpt lat="45.97569" lon="1.28161">
        <ele>407.07833862305</ele>
        <time>2010-10-03T08:17:35Z</time>
      </trkpt>
      <trkpt lat="45.97567" lon="1.28156">
        <ele>407.58209228516</ele>
        <time>2010-10-03T08:17:40Z</time>
      </trkpt>
      <trkpt lat="45.97567" lon="1.28152">
        <ele>407.14611816406</ele>
        <time>2010-10-03T08:17:45Z</time>
      </trkpt>
      <trkpt lat="45.97565" lon="1.28146">
        <ele>407.19613647461</ele>
        <time>2010-10-03T08:17:52Z</time>
      </trkpt>
      <trkpt lat="45.97565" lon="1.28142">
        <ele>406.88439941406</ele>
        <time>2010-10-03T08:17:56Z</time>
      </trkpt>
      <trkpt lat="45.97565" lon="1.28136">
        <ele>406.58969116211</ele>
        <time>2010-10-03T08:18:02Z</time>
      </trkpt>
      <trkpt lat="45.97564" lon="1.28131">
        <ele>406.46817016602</ele>
        <time>2010-10-03T08:18:07Z</time>
      </trkpt>
      <trkpt lat="45.97565" lon="1.28126">
        <ele>405.91146850586</ele>
        <time>2010-10-03T08:18:11Z</time>
      </trkpt>
      <trkpt lat="45.97564" lon="1.28126">
        <ele>406.01205444336</ele>
        <time>2010-10-03T08:18:13Z</time>
      </trkpt>
      <trkpt lat="45.97562" lon="1.28116">
        <ele>406.06823730469</ele>
        <time>2010-10-03T08:18:20Z</time>
      </trkpt>
      <trkpt lat="45.97557" lon="1.28108">
        <ele>407.19931030273</ele>
        <time>2010-10-03T08:18:27Z</time>
      </trkpt>
      <trkpt lat="45.97551" lon="1.281">
        <ele>408.56622314453</ele>
        <time>2010-10-03T08:18:34Z</time>
      </trkpt>
      <trkpt lat="45.97546" lon="1.28095">
        <ele>409.98739624023</ele>
        <time>2010-10-03T08:18:41Z</time>
      </trkpt>
      <trkpt lat="45.97542" lon="1.2809">
        <ele>411.08865356445</ele>
        <time>2010-10-03T08:18:47Z</time>
      </trkpt>
      <trkpt lat="45.97538" lon="1.28088">
        <ele>412.18655395508</ele>
        <time>2010-10-03T08:18:54Z</time>
      </trkpt>
      <trkpt lat="45.97531" lon="1.28089">
        <ele>414.6862487793</ele>
        <time>2010-10-03T08:18:59Z</time>
      </trkpt>
      <trkpt lat="45.97525" lon="1.28093">
        <ele>417.10864257812</ele>
        <time>2010-10-03T08:19:07Z</time>
      </trkpt>
      <trkpt lat="45.9752" lon="1.28093">
        <ele>419.10632324219</ele>
        <time>2010-10-03T08:19:12Z</time>
      </trkpt>
      <trkpt lat="45.97515" lon="1.28093">
        <ele>420.88174438477</ele>
        <time>2010-10-03T08:19:18Z</time>
      </trkpt>
      <trkpt lat="45.97507" lon="1.28091">
        <ele>423.22644042969</ele>
        <time>2010-10-03T08:19:24Z</time>
      </trkpt>
      <trkpt lat="45.97503" lon="1.28091">
        <ele>424.70230102539</ele>
        <time>2010-10-03T08:19:28Z</time>
      </trkpt>
      <trkpt lat="45.97496" lon="1.28098">
        <ele>427.18963623047</ele>
        <time>2010-10-03T08:19:36Z</time>
      </trkpt>
      <trkpt lat="45.97491" lon="1.28103">
        <ele>428.51791381836</ele>
        <time>2010-10-03T08:19:43Z</time>
      </trkpt>
      <trkpt lat="45.97486" lon="1.28109">
        <ele>429.95468139648</ele>
        <time>2010-10-03T08:19:49Z</time>
      </trkpt>
      <trkpt lat="45.97482" lon="1.28113">
        <ele>431.17199707031</ele>
        <time>2010-10-03T08:19:54Z</time>
      </trkpt>
      <trkpt lat="45.97477" lon="1.28118">
        <ele>432.59915161133</ele>
        <time>2010-10-03T08:20:00Z</time>
      </trkpt>
      <trkpt lat="45.97474" lon="1.28123">
        <ele>433.71005249023</ele>
        <time>2010-10-03T08:20:06Z</time>
      </trkpt>
      <trkpt lat="45.97469" lon="1.28128">
        <ele>435.08471679688</ele>
        <time>2010-10-03T08:20:12Z</time>
      </trkpt>
      <trkpt lat="45.97466" lon="1.28136">
        <ele>436.55450439453</ele>
        <time>2010-10-03T08:20:18Z</time>
      </trkpt>
      <trkpt lat="45.97466" lon="1.28136">
        <ele>436.61074829102</ele>
        <time>2010-10-03T08:20:19Z</time>
      </trkpt>
      <trkpt lat="45.9746" lon="1.28138">
        <ele>437.70742797852</ele>
        <time>2010-10-03T08:20:26Z</time>
      </trkpt>
      <trkpt lat="45.97454" lon="1.28141">
        <ele>439.19012451172</ele>
        <time>2010-10-03T08:20:33Z</time>
      </trkpt>
      <trkpt lat="45.97445" lon="1.28146">
        <ele>441.302734375</ele>
        <time>2010-10-03T08:20:40Z</time>
      </trkpt>
      <trkpt lat="45.97439" lon="1.28151">
        <ele>442.96224975586</ele>
        <time>2010-10-03T08:20:48Z</time>
      </trkpt>
      <trkpt lat="45.97434" lon="1.28154">
        <ele>444.26275634766</ele>
        <time>2010-10-03T08:20:54Z</time>
      </trkpt>
      <trkpt lat="45.97427" lon="1.28157">
        <ele>445.94216918945</ele>
        <time>2010-10-03T08:21:02Z</time>
      </trkpt>
      <trkpt lat="45.97422" lon="1.2816">
        <ele>447.03366088867</ele>
        <time>2010-10-03T08:21:08Z</time>
      </trkpt>
      <trkpt lat="45.97418" lon="1.28162">
        <ele>448.21392822266</ele>
        <time>2010-10-03T08:21:12Z</time>
      </trkpt>
      <trkpt lat="45.97415" lon="1.28164">
        <ele>448.93203735352</ele>
        <time>2010-10-03T08:21:15Z</time>
      </trkpt>
      <trkpt lat="45.9741" lon="1.28167">
        <ele>449.9287109375</ele>
        <time>2010-10-03T08:21:21Z</time>
      </trkpt>
      <trkpt lat="45.97409" lon="1.28167">
        <ele>450.07235717773</ele>
        <time>2010-10-03T08:21:22Z</time>
      </trkpt>
      <trkpt lat="45.97401" lon="1.28167">
        <ele>451.09686279297</ele>
        <time>2010-10-03T08:21:30Z</time>
      </trkpt>
      <trkpt lat="45.97393" lon="1.28167">
        <ele>452.10528564453</ele>
        <time>2010-10-03T08:21:36Z</time>
      </trkpt>
      <trkpt lat="45.97385" lon="1.28165">
        <ele>453.00930786133</ele>
        <time>2010-10-03T08:21:42Z</time>
      </trkpt>
      <trkpt lat="45.97376" lon="1.28166">
        <ele>454.25988769531</ele>
        <time>2010-10-03T08:21:48Z</time>
      </trkpt>
      <trkpt lat="45.97368" lon="1.28166">
        <ele>455.39105224609</ele>
        <time>2010-10-03T08:21:54Z</time>
      </trkpt>
      <trkpt lat="45.97359" lon="1.28167">
        <ele>456.64501953125</ele>
        <time>2010-10-03T08:22:00Z</time>
      </trkpt>
      <trkpt lat="45.9735" lon="1.28166">
        <ele>457.75933837891</ele>
        <time>2010-10-03T08:22:07Z</time>
      </trkpt>
      <trkpt lat="45.97343" lon="1.28166">
        <ele>458.57312011719</ele>
        <time>2010-10-03T08:22:12Z</time>
      </trkpt>
      <trkpt lat="45.97339" lon="1.28167">
        <ele>459.19500732422</ele>
        <time>2010-10-03T08:22:16Z</time>
      </trkpt>
      <trkpt lat="45.97333" lon="1.28168">
        <ele>460.11407470703</ele>
        <time>2010-10-03T08:22:20Z</time>
      </trkpt>
      <trkpt lat="45.97327" lon="1.2817">
        <ele>460.83367919922</ele>
        <time>2010-10-03T08:22:25Z</time>
      </trkpt>
      <trkpt lat="45.97321" lon="1.28171">
        <ele>461.62936401367</ele>
        <time>2010-10-03T08:22:32Z</time>
      </trkpt>
      <trkpt lat="45.97316" lon="1.28171">
        <ele>462.13717651367</ele>
        <time>2010-10-03T08:22:37Z</time>
      </trkpt>
      <trkpt lat="45.97308" lon="1.28174">
        <ele>463.22320556641</ele>
        <time>2010-10-03T08:22:46Z</time>
      </trkpt>
      <trkpt lat="45.97304" lon="1.28175">
        <ele>463.87774658203</ele>
        <time>2010-10-03T08:22:51Z</time>
      </trkpt>
      <trkpt lat="45.97298" lon="1.28177">
        <ele>464.6496887207</ele>
        <time>2010-10-03T08:22:57Z</time>
      </trkpt>
      <trkpt lat="45.97295" lon="1.2818">
        <ele>465.31506347656</ele>
        <time>2010-10-03T08:23:01Z</time>
      </trkpt>
      <trkpt lat="45.97288" lon="1.28185">
        <ele>466.65188598633</ele>
        <time>2010-10-03T08:23:07Z</time>
      </trkpt>
      <trkpt lat="45.97268" lon="1.28192">
        <ele>469.90380859375</ele>
        <time>2010-10-03T08:23:16Z</time>
      </trkpt>
      <trkpt lat="45.9726" lon="1.28199">
        <ele>471.94165039062</ele>
        <time>2010-10-03T08:23:24Z</time>
      </trkpt>
      <trkpt lat="45.9725" lon="1.28209">
        <ele>474.54690551758</ele>
        <time>2010-10-03T08:23:32Z</time>
      </trkpt>
      <trkpt lat="45.97242" lon="1.28218">
        <ele>475.10162353516</ele>
        <time>2010-10-03T08:23:38Z</time>
      </trkpt>
      <trkpt lat="45.97236" lon="1.28229">
        <ele>476.07418823242</ele>
        <time>2010-10-03T08:23:44Z</time>
      </trkpt>
      <trkpt lat="45.97235" lon="1.2823">
        <ele>476.16732788086</ele>
        <time>2010-10-03T08:23:45Z</time>
      </trkpt>
      <trkpt lat="45.9723" lon="1.28238">
        <ele>476.78503417969</ele>
        <time>2010-10-03T08:23:50Z</time>
      </trkpt>
      <trkpt lat="45.97221" lon="1.28246">
        <ele>477.08987426758</ele>
        <time>2010-10-03T08:23:56Z</time>
      </trkpt>
      <trkpt lat="45.97216" lon="1.28256">
        <ele>477.73226928711</ele>
        <time>2010-10-03T08:24:03Z</time>
      </trkpt>
      <trkpt lat="45.97211" lon="1.28264">
        <ele>478.10214233398</ele>
        <time>2010-10-03T08:24:09Z</time>
      </trkpt>
      <trkpt lat="45.97204" lon="1.28268">
        <ele>478.02194213867</ele>
        <time>2010-10-03T08:24:14Z</time>
      </trkpt>
      <trkpt lat="45.97203" lon="1.28269">
        <ele>477.98815917969</ele>
        <time>2010-10-03T08:24:15Z</time>
      </trkpt>
      <trkpt lat="45.97197" lon="1.28275">
        <ele>478.19976806641</ele>
        <time>2010-10-03T08:24:21Z</time>
      </trkpt>
      <trkpt lat="45.97194" lon="1.28281">
        <ele>478.63806152344</ele>
        <time>2010-10-03T08:24:25Z</time>
      </trkpt>
      <trkpt lat="45.97189" lon="1.2829">
        <ele>479.30975341797</ele>
        <time>2010-10-03T08:24:31Z</time>
      </trkpt>
      <trkpt lat="45.97187" lon="1.28294">
        <ele>479.62759399414</ele>
        <time>2010-10-03T08:24:33Z</time>
      </trkpt>
      <trkpt lat="45.97181" lon="1.28302">
        <ele>480.15646362305</ele>
        <time>2010-10-03T08:24:37Z</time>
      </trkpt>
      <trkpt lat="45.97173" lon="1.28308">
        <ele>480.36096191406</ele>
        <time>2010-10-03T08:24:41Z</time>
      </trkpt>
      <trkpt lat="45.97171" lon="1.28311">
        <ele>480.61349487305</ele>
        <time>2010-10-03T08:24:43Z</time>
      </trkpt>
      <trkpt lat="45.97165" lon="1.2832">
        <ele>481.3532409668</ele>
        <time>2010-10-03T08:24:49Z</time>
      </trkpt>
      <trkpt lat="45.97165" lon="1.28322">
        <ele>481.54833984375</ele>
        <time>2010-10-03T08:24:50Z</time>
      </trkpt>
      <trkpt lat="45.97156" lon="1.28335">
        <ele>482.49224853516</ele>
        <time>2010-10-03T08:24:56Z</time>
      </trkpt>
      <trkpt lat="45.97146" lon="1.28349">
        <ele>482.15048217773</ele>
        <time>2010-10-03T08:25:02Z</time>
      </trkpt>
      <trkpt lat="45.97137" lon="1.28365">
        <ele>482.13497924805</ele>
        <time>2010-10-03T08:25:09Z</time>
      </trkpt>
      <trkpt lat="45.9713" lon="1.28377">
        <ele>482.31951904297</ele>
        <time>2010-10-03T08:25:14Z</time>
      </trkpt>
      <trkpt lat="45.97124" lon="1.28386">
        <ele>482.58364868164</ele>
        <time>2010-10-03T08:25:18Z</time>
      </trkpt>
      <trkpt lat="45.97117" lon="1.28398">
        <ele>483.07641601562</ele>
        <time>2010-10-03T08:25:23Z</time>
      </trkpt>
      <trkpt lat="45.97104" lon="1.28403">
        <ele>483.57562255859</ele>
        <time>2010-10-03T08:25:28Z</time>
      </trkpt>
      <trkpt lat="45.97097" lon="1.28408">
        <ele>483.9934387207</ele>
        <time>2010-10-03T08:25:32Z</time>
      </trkpt>
      <trkpt lat="45.97096" lon="1.2841">
        <ele>484.11251831055</ele>
        <time>2010-10-03T08:25:33Z</time>
      </trkpt>
      <trkpt lat="45.97084" lon="1.28416">
        <ele>484.90234375</ele>
        <time>2010-10-03T08:25:40Z</time>
      </trkpt>
      <trkpt lat="45.97081" lon="1.28421">
        <ele>485.34707641602</ele>
        <time>2010-10-03T08:25:44Z</time>
      </trkpt>
      <trkpt lat="45.97076" lon="1.28429">
        <ele>485.92291259766</ele>
        <time>2010-10-03T08:25:50Z</time>
      </trkpt>
      <trkpt lat="45.97072" lon="1.28433">
        <ele>486.24612426758</ele>
        <time>2010-10-03T08:25:55Z</time>
      </trkpt>
      <trkpt lat="45.97067" lon="1.28436">
        <ele>486.51382446289</ele>
        <time>2010-10-03T08:25:59Z</time>
      </trkpt>
      <trkpt lat="45.97062" lon="1.2844">
        <ele>486.8786315918</ele>
        <time>2010-10-03T08:26:03Z</time>
      </trkpt>
      <trkpt lat="45.97055" lon="1.28444">
        <ele>487.31265258789</ele>
        <time>2010-10-03T08:26:08Z</time>
      </trkpt>
      <trkpt lat="45.9704" lon="1.28453">
        <ele>488.41058349609</ele>
        <time>2010-10-03T08:26:18Z</time>
      </trkpt>
      <trkpt lat="45.9703" lon="1.2846">
        <ele>489.40060424805</ele>
        <time>2010-10-03T08:26:26Z</time>
      </trkpt>
      <trkpt lat="45.97019" lon="1.28467">
        <ele>490.50860595703</ele>
        <time>2010-10-03T08:26:34Z</time>
      </trkpt>
      <trkpt lat="45.97001" lon="1.28472">
        <ele>491.54867553711</ele>
        <time>2010-10-03T08:26:41Z</time>
      </trkpt>
      <trkpt lat="45.9699" lon="1.28474">
        <ele>491.15936279297</ele>
        <time>2010-10-03T08:26:46Z</time>
      </trkpt>
      <trkpt lat="45.96983" lon="1.28476">
        <ele>491.00152587891</ele>
        <time>2010-10-03T08:26:49Z</time>
      </trkpt>
      <trkpt lat="45.96967" lon="1.28483">
        <ele>490.64422607422</ele>
        <time>2010-10-03T08:26:55Z</time>
      </trkpt>
      <trkpt lat="45.96955" lon="1.28488">
        <ele>490.53503417969</ele>
        <time>2010-10-03T08:27:00Z</time>
      </trkpt>
      <trkpt lat="45.96941" lon="1.28495">
        <ele>490.36364746094</ele>
        <time>2010-10-03T08:27:05Z</time>
      </trkpt>
      <trkpt lat="45.96924" lon="1.28502">
        <ele>489.95748901367</ele>
        <time>2010-10-03T08:27:11Z</time>
      </trkpt>
      <trkpt lat="45.96911" lon="1.28505">
        <ele>489.65274047852</ele>
        <time>2010-10-03T08:27:16Z</time>
      </trkpt>
      <trkpt lat="45.96897" lon="1.28507">
        <ele>489.21786499023</ele>
        <time>2010-10-03T08:27:21Z</time>
      </trkpt>
      <trkpt lat="45.96882" lon="1.28504">
        <ele>488.12976074219</ele>
        <time>2010-10-03T08:27:27Z</time>
      </trkpt>
      <trkpt lat="45.96869" lon="1.28501">
        <ele>486.96942138672</ele>
        <time>2010-10-03T08:27:32Z</time>
      </trkpt>
      <trkpt lat="45.96849" lon="1.28499">
        <ele>485.65658569336</ele>
        <time>2010-10-03T08:27:37Z</time>
      </trkpt>
      <trkpt lat="45.96841" lon="1.28501">
        <ele>485.50750732422</ele>
        <time>2010-10-03T08:27:41Z</time>
      </trkpt>
      <trkpt lat="45.96838" lon="1.28504">
        <ele>486.12854003906</ele>
        <time>2010-10-03T08:27:45Z</time>
      </trkpt>
      <trkpt lat="45.96822" lon="1.28508">
        <ele>487.78744506836</ele>
        <time>2010-10-03T08:27:51Z</time>
      </trkpt>
      <trkpt lat="45.96814" lon="1.2851">
        <ele>489.10491943359</ele>
        <time>2010-10-03T08:27:55Z</time>
      </trkpt>
      <trkpt lat="45.96803" lon="1.28514">
        <ele>491.14974975586</ele>
        <time>2010-10-03T08:28:00Z</time>
      </trkpt>
      <trkpt lat="45.96796" lon="1.28515">
        <ele>492.19512939453</ele>
        <time>2010-10-03T08:28:04Z</time>
      </trkpt>
      <trkpt lat="45.96786" lon="1.28517">
        <ele>493.69515991211</ele>
        <time>2010-10-03T08:28:09Z</time>
      </trkpt>
      <trkpt lat="45.96778" lon="1.28518">
        <ele>494.77978515625</ele>
        <time>2010-10-03T08:28:14Z</time>
      </trkpt>
      <trkpt lat="45.96773" lon="1.28517">
        <ele>495.25048828125</ele>
        <time>2010-10-03T08:28:18Z</time>
      </trkpt>
      <trkpt lat="45.96767" lon="1.28517">
        <ele>495.70718383789</ele>
        <time>2010-10-03T08:28:22Z</time>
      </trkpt>
      <trkpt lat="45.96767" lon="1.28519">
        <ele>496.1969909668</ele>
        <time>2010-10-03T08:28:25Z</time>
      </trkpt>
      <trkpt lat="45.96772" lon="1.28526">
        <ele>497.07275390625</ele>
        <time>2010-10-03T08:28:30Z</time>
      </trkpt>
      <trkpt lat="45.96774" lon="1.28533">
        <ele>498.47885131836</ele>
        <time>2010-10-03T08:28:35Z</time>
      </trkpt>
      <trkpt lat="45.96773" lon="1.2854">
        <ele>500.03024291992</ele>
        <time>2010-10-03T08:28:40Z</time>
      </trkpt>
      <trkpt lat="45.96773" lon="1.28542">
        <ele>500.38009643555</ele>
        <time>2010-10-03T08:28:41Z</time>
      </trkpt>
      <trkpt lat="45.96772" lon="1.28549">
        <ele>501.91796875</ele>
        <time>2010-10-03T08:28:46Z</time>
      </trkpt>
      <trkpt lat="45.9677" lon="1.28554">
        <ele>503.33605957031</ele>
        <time>2010-10-03T08:28:51Z</time>
      </trkpt>
      <trkpt lat="45.9677" lon="1.2856">
        <ele>504.60855102539</ele>
        <time>2010-10-03T08:28:56Z</time>
      </trkpt>
      <trkpt lat="45.96769" lon="1.28563">
        <ele>505.53289794922</ele>
        <time>2010-10-03T08:29:00Z</time>
      </trkpt>
      <trkpt lat="45.96769" lon="1.28568">
        <ele>506.44668579102</ele>
        <time>2010-10-03T08:29:04Z</time>
      </trkpt>
      <trkpt lat="45.96768" lon="1.28572">
        <ele>507.40396118164</ele>
        <time>2010-10-03T08:29:10Z</time>
      </trkpt>
      <trkpt lat="45.96764" lon="1.28577">
        <ele>509.01031494141</ele>
        <time>2010-10-03T08:29:17Z</time>
      </trkpt>
      <trkpt lat="45.96762" lon="1.28579">
        <ele>509.69427490234</ele>
        <time>2010-10-03T08:29:23Z</time>
      </trkpt>
      <trkpt lat="45.96761" lon="1.28584">
        <ele>510.94854736328</ele>
        <time>2010-10-03T08:29:29Z</time>
      </trkpt>
      <trkpt lat="45.9676" lon="1.28591">
        <ele>512.81317138672</ele>
        <time>2010-10-03T08:29:34Z</time>
      </trkpt>
      <trkpt lat="45.96759" lon="1.28597">
        <ele>514.21435546875</ele>
        <time>2010-10-03T08:29:37Z</time>
      </trkpt>
      <trkpt lat="45.96759" lon="1.28603">
        <ele>515.74017333984</ele>
        <time>2010-10-03T08:29:41Z</time>
      </trkpt>
      <trkpt lat="45.9676" lon="1.2861">
        <ele>517.54046630859</ele>
        <time>2010-10-03T08:29:46Z</time>
      </trkpt>
      <trkpt lat="45.96759" lon="1.2862">
        <ele>520.08251953125</ele>
        <time>2010-10-03T08:29:57Z</time>
      </trkpt>
      <trkpt lat="45.9676" lon="1.28629">
        <ele>522.37384033203</ele>
        <time>2010-10-03T08:30:06Z</time>
      </trkpt>
      <trkpt lat="45.96758" lon="1.28636">
        <ele>524.29986572266</ele>
        <time>2010-10-03T08:30:13Z</time>
      </trkpt>
      <trkpt lat="45.96758" lon="1.28639">
        <ele>524.90911865234</ele>
        <time>2010-10-03T08:30:18Z</time>
      </trkpt>
      <trkpt lat="45.96761" lon="1.28642">
        <ele>525.26672363281</ele>
        <time>2010-10-03T08:30:24Z</time>
      </trkpt>
      <trkpt lat="45.96762" lon="1.28646">
        <ele>526.25616455078</ele>
        <time>2010-10-03T08:30:28Z</time>
      </trkpt>
      <trkpt lat="45.96763" lon="1.2865">
        <ele>527.16839599609</ele>
        <time>2010-10-03T08:30:32Z</time>
      </trkpt>
      <trkpt lat="45.96761" lon="1.28653">
        <ele>528.22937011719</ele>
        <time>2010-10-03T08:30:36Z</time>
      </trkpt>
      <trkpt lat="45.96758" lon="1.28657">
        <ele>529.38995361328</ele>
        <time>2010-10-03T08:30:41Z</time>
      </trkpt>
      <trkpt lat="45.96758" lon="1.2866">
        <ele>530.34375</ele>
        <time>2010-10-03T08:30:45Z</time>
      </trkpt>
      <trkpt lat="45.96757" lon="1.28664">
        <ele>531.42724609375</ele>
        <time>2010-10-03T08:30:50Z</time>
      </trkpt>
      <trkpt lat="45.96757" lon="1.28668">
        <ele>532.29803466797</ele>
        <time>2010-10-03T08:30:54Z</time>
      </trkpt>
      <trkpt lat="45.96757" lon="1.28672">
        <ele>533.13452148438</ele>
        <time>2010-10-03T08:31:00Z</time>
      </trkpt>
      <trkpt lat="45.96755" lon="1.28677">
        <ele>534.55950927734</ele>
        <time>2010-10-03T08:31:06Z</time>
      </trkpt>
      <trkpt lat="45.96754" lon="1.28681">
        <ele>535.357421875</ele>
        <time>2010-10-03T08:31:10Z</time>
      </trkpt>
      <trkpt lat="45.96753" lon="1.28684">
        <ele>536.20428466797</ele>
        <time>2010-10-03T08:31:14Z</time>
      </trkpt>
      <trkpt lat="45.96751" lon="1.28689">
        <ele>537.47937011719</ele>
        <time>2010-10-03T08:31:22Z</time>
      </trkpt>
      <trkpt lat="45.96755" lon="1.28692">
        <ele>537.63238525391</ele>
        <time>2010-10-03T08:31:28Z</time>
      </trkpt>
      <trkpt lat="45.96757" lon="1.28696">
        <ele>538.07965087891</ele>
        <time>2010-10-03T08:31:32Z</time>
      </trkpt>
      <trkpt lat="45.96756" lon="1.28699">
        <ele>538.93420410156</ele>
        <time>2010-10-03T08:31:40Z</time>
      </trkpt>
      <trkpt lat="45.96754" lon="1.28702">
        <ele>539.78192138672</ele>
        <time>2010-10-03T08:31:43Z</time>
      </trkpt>
      <trkpt lat="45.96745" lon="1.28702">
        <ele>540.95635986328</ele>
        <time>2010-10-03T08:31:49Z</time>
      </trkpt>
      <trkpt lat="45.9674" lon="1.28701">
        <ele>541.28283691406</ele>
        <time>2010-10-03T08:31:53Z</time>
      </trkpt>
      <trkpt lat="45.96735" lon="1.287">
        <ele>541.66613769531</ele>
        <time>2010-10-03T08:31:58Z</time>
      </trkpt>
      <trkpt lat="45.96733" lon="1.28697">
        <ele>541.49468994141</ele>
        <time>2010-10-03T08:32:00Z</time>
      </trkpt>
      <trkpt lat="45.96719" lon="1.28686">
        <ele>541.26898193359</ele>
        <time>2010-10-03T08:32:07Z</time>
      </trkpt>
      <trkpt lat="45.96709" lon="1.28677">
        <ele>541.12310791016</ele>
        <time>2010-10-03T08:32:12Z</time>
      </trkpt>
      <trkpt lat="45.96706" lon="1.28669">
        <ele>540.19683837891</ele>
        <time>2010-10-03T08:32:18Z</time>
      </trkpt>
      <trkpt lat="45.96708" lon="1.28659">
        <ele>537.82794189453</ele>
        <time>2010-10-03T08:32:26Z</time>
      </trkpt>
      <trkpt lat="45.96708" lon="1.28649">
        <ele>535.44818115234</ele>
        <time>2010-10-03T08:32:33Z</time>
      </trkpt>
      <trkpt lat="45.96707" lon="1.28645">
        <ele>534.66729736328</ele>
        <time>2010-10-03T08:32:35Z</time>
      </trkpt>
      <trkpt lat="45.96695" lon="1.28627">
        <ele>532.869140625</ele>
        <time>2010-10-03T08:32:41Z</time>
      </trkpt>
      <trkpt lat="45.96693" lon="1.28624">
        <ele>532.54748535156</ele>
        <time>2010-10-03T08:32:42Z</time>
      </trkpt>
      <trkpt lat="45.96683" lon="1.28611">
        <ele>531.72393798828</ele>
        <time>2010-10-03T08:32:47Z</time>
      </trkpt>
      <trkpt lat="45.96672" lon="1.28603">
        <ele>531.98175048828</ele>
        <time>2010-10-03T08:32:51Z</time>
      </trkpt>
      <trkpt lat="45.96663" lon="1.28596">
        <ele>531.77874755859</ele>
        <time>2010-10-03T08:32:56Z</time>
      </trkpt>
      <trkpt lat="45.96654" lon="1.28589">
        <ele>530.99096679688</ele>
        <time>2010-10-03T08:33:01Z</time>
      </trkpt>
      <trkpt lat="45.96646" lon="1.2858">
        <ele>529.74328613281</ele>
        <time>2010-10-03T08:33:06Z</time>
      </trkpt>
      <trkpt lat="45.96638" lon="1.28574">
        <ele>529.18280029297</ele>
        <time>2010-10-03T08:33:10Z</time>
      </trkpt>
      <trkpt lat="45.96631" lon="1.2857">
        <ele>528.66558837891</ele>
        <time>2010-10-03T08:33:14Z</time>
      </trkpt>
      <trkpt lat="45.96629" lon="1.28568">
        <ele>528.43017578125</ele>
        <time>2010-10-03T08:33:15Z</time>
      </trkpt>
      <trkpt lat="45.96618" lon="1.28561">
        <ele>527.94738769531</ele>
        <time>2010-10-03T08:33:20Z</time>
      </trkpt>
      <trkpt lat="45.96614" lon="1.28558">
        <ele>527.49237060547</ele>
        <time>2010-10-03T08:33:23Z</time>
      </trkpt>
      <trkpt lat="45.96602" lon="1.28551">
        <ele>527.04895019531</ele>
        <time>2010-10-03T08:33:29Z</time>
      </trkpt>
      <trkpt lat="45.96593" lon="1.28546">
        <ele>526.61151123047</ele>
        <time>2010-10-03T08:33:34Z</time>
      </trkpt>
      <trkpt lat="45.96586" lon="1.28542">
        <ele>526.33386230469</ele>
        <time>2010-10-03T08:33:38Z</time>
      </trkpt>
      <trkpt lat="45.96584" lon="1.2854">
        <ele>526.16442871094</ele>
        <time>2010-10-03T08:33:39Z</time>
      </trkpt>
      <trkpt lat="45.96577" lon="1.28536">
        <ele>525.64538574219</ele>
        <time>2010-10-03T08:33:43Z</time>
      </trkpt>
      <trkpt lat="45.9656" lon="1.2853">
        <ele>525.49768066406</ele>
        <time>2010-10-03T08:33:49Z</time>
      </trkpt>
      <trkpt lat="45.96555" lon="1.28527">
        <ele>525.23162841797</ele>
        <time>2010-10-03T08:33:53Z</time>
      </trkpt>
      <trkpt lat="45.96543" lon="1.28523">
        <ele>525.06750488281</ele>
        <time>2010-10-03T08:33:58Z</time>
      </trkpt>
      <trkpt lat="45.96529" lon="1.28519">
        <ele>524.92114257812</ele>
        <time>2010-10-03T08:34:03Z</time>
      </trkpt>
      <trkpt lat="45.9652" lon="1.28514">
        <ele>524.38171386719</ele>
        <time>2010-10-03T08:34:07Z</time>
      </trkpt>
      <trkpt lat="45.96513" lon="1.28512">
        <ele>524.09466552734</ele>
        <time>2010-10-03T08:34:11Z</time>
      </trkpt>
      <trkpt lat="45.965" lon="1.28505">
        <ele>523.19720458984</ele>
        <time>2010-10-03T08:34:18Z</time>
      </trkpt>
      <trkpt lat="45.96495" lon="1.28504">
        <ele>522.86499023438</ele>
        <time>2010-10-03T08:34:21Z</time>
      </trkpt>
      <trkpt lat="45.96486" lon="1.28505">
        <ele>522.69567871094</ele>
        <time>2010-10-03T08:34:27Z</time>
      </trkpt>
      <trkpt lat="45.96471" lon="1.28504">
        <ele>521.82904052734</ele>
        <time>2010-10-03T08:34:33Z</time>
      </trkpt>
      <trkpt lat="45.96463" lon="1.28503">
        <ele>521.43823242188</ele>
        <time>2010-10-03T08:34:37Z</time>
      </trkpt>
      <trkpt lat="45.96456" lon="1.28505">
        <ele>521.47149658203</ele>
        <time>2010-10-03T08:34:41Z</time>
      </trkpt>
      <trkpt lat="45.96449" lon="1.2851">
        <ele>522.39398193359</ele>
        <time>2010-10-03T08:34:46Z</time>
      </trkpt>
      <trkpt lat="45.96439" lon="1.28512">
        <ele>522.46643066406</ele>
        <time>2010-10-03T08:34:51Z</time>
      </trkpt>
      <trkpt lat="45.96421" lon="1.28513">
        <ele>521.92840576172</ele>
        <time>2010-10-03T08:34:57Z</time>
      </trkpt>
      <trkpt lat="45.96412" lon="1.28515">
        <ele>521.98657226562</ele>
        <time>2010-10-03T08:35:02Z</time>
      </trkpt>
      <trkpt lat="45.96404" lon="1.28515">
        <ele>521.67687988281</ele>
        <time>2010-10-03T08:35:06Z</time>
      </trkpt>
      <trkpt lat="45.96394" lon="1.28512">
        <ele>520.60083007812</ele>
        <time>2010-10-03T08:35:10Z</time>
      </trkpt>
      <trkpt lat="45.9637" lon="1.28511">
        <ele>519.53918457031</ele>
        <time>2010-10-03T08:35:18Z</time>
      </trkpt>
      <trkpt lat="45.96355" lon="1.28507">
        <ele>518.19018554688</ele>
        <time>2010-10-03T08:35:22Z</time>
      </trkpt>
      <trkpt lat="45.96341" lon="1.28505">
        <ele>517.146484375</ele>
        <time>2010-10-03T08:35:27Z</time>
      </trkpt>
      <trkpt lat="45.96334" lon="1.28503">
        <ele>516.54718017578</ele>
        <time>2010-10-03T08:35:32Z</time>
      </trkpt>
      <trkpt lat="45.96326" lon="1.28504">
        <ele>517.55004882812</ele>
        <time>2010-10-03T08:35:37Z</time>
      </trkpt>
      <trkpt lat="45.96315" lon="1.28502">
        <ele>518.24188232422</ele>
        <time>2010-10-03T08:35:41Z</time>
      </trkpt>
      <trkpt lat="45.96307" lon="1.28499">
        <ele>518.75549316406</ele>
        <time>2010-10-03T08:35:46Z</time>
      </trkpt>
      <trkpt lat="45.96293" lon="1.28492">
        <ele>519.61584472656</ele>
        <time>2010-10-03T08:35:51Z</time>
      </trkpt>
      <trkpt lat="45.96287" lon="1.28482">
        <ele>519.47607421875</ele>
        <time>2010-10-03T08:35:58Z</time>
      </trkpt>
      <trkpt lat="45.96283" lon="1.28472">
        <ele>519.09594726562</ele>
        <time>2010-10-03T08:36:04Z</time>
      </trkpt>
      <trkpt lat="45.96277" lon="1.2846">
        <ele>518.75280761719</ele>
        <time>2010-10-03T08:36:10Z</time>
      </trkpt>
      <trkpt lat="45.96274" lon="1.28455">
        <ele>518.68981933594</ele>
        <time>2010-10-03T08:36:13Z</time>
      </trkpt>
      <trkpt lat="45.96265" lon="1.28449">
        <ele>519.04248046875</ele>
        <time>2010-10-03T08:36:19Z</time>
      </trkpt>
      <trkpt lat="45.96253" lon="1.28444">
        <ele>519.947265625</ele>
        <time>2010-10-03T08:36:25Z</time>
      </trkpt>
      <trkpt lat="45.96239" lon="1.2844">
        <ele>522.04870605469</ele>
        <time>2010-10-03T08:36:32Z</time>
      </trkpt>
      <trkpt lat="45.96226" lon="1.28435">
        <ele>523.92926025391</ele>
        <time>2010-10-03T08:36:39Z</time>
      </trkpt>
      <trkpt lat="45.9622" lon="1.28426">
        <ele>523.97271728516</ele>
        <time>2010-10-03T08:36:44Z</time>
      </trkpt>
      <trkpt lat="45.96213" lon="1.28412">
        <ele>523.60534667969</ele>
        <time>2010-10-03T08:36:50Z</time>
      </trkpt>
      <trkpt lat="45.9621" lon="1.28399">
        <ele>522.19281005859</ele>
        <time>2010-10-03T08:36:55Z</time>
      </trkpt>
      <trkpt lat="45.96208" lon="1.28393">
        <ele>521.65155029297</ele>
        <time>2010-10-03T08:36:58Z</time>
      </trkpt>
      <trkpt lat="45.96205" lon="1.28378">
        <ele>519.99145507812</ele>
        <time>2010-10-03T08:37:03Z</time>
      </trkpt>
      <trkpt lat="45.96201" lon="1.28364">
        <ele>518.42840576172</ele>
        <time>2010-10-03T08:37:08Z</time>
      </trkpt>
      <trkpt lat="45.96199" lon="1.28358">
        <ele>517.92645263672</ele>
        <time>2010-10-03T08:37:10Z</time>
      </trkpt>
      <trkpt lat="45.96194" lon="1.28338">
        <ele>515.66973876953</ele>
        <time>2010-10-03T08:37:17Z</time>
      </trkpt>
      <trkpt lat="45.96194" lon="1.2833">
        <ele>514.70965576172</ele>
        <time>2010-10-03T08:37:22Z</time>
      </trkpt>
      <trkpt lat="45.96194" lon="1.28336">
        <ele>515.52087402344</ele>
        <time>2010-10-03T08:37:30Z</time>
      </trkpt>
      <trkpt lat="45.96194" lon="1.28339">
        <ele>515.86468505859</ele>
        <time>2010-10-03T08:37:32Z</time>
      </trkpt>
      <trkpt lat="45.96194" lon="1.28346">
        <ele>516.89929199219</ele>
        <time>2010-10-03T08:37:36Z</time>
      </trkpt>
      <trkpt lat="45.96194" lon="1.28349">
        <ele>517.330078125</ele>
        <time>2010-10-03T08:37:38Z</time>
      </trkpt>
      <trkpt lat="45.96193" lon="1.28351">
        <ele>517.81817626953</ele>
        <time>2010-10-03T08:37:40Z</time>
      </trkpt>
      <trkpt lat="45.96193" lon="1.28359">
        <ele>519.14672851562</ele>
        <time>2010-10-03T08:37:45Z</time>
      </trkpt>
      <trkpt lat="45.96193" lon="1.28362">
        <ele>519.54870605469</ele>
        <time>2010-10-03T08:37:47Z</time>
      </trkpt>
      <trkpt lat="45.96191" lon="1.28366">
        <ele>520.37774658203</ele>
        <time>2010-10-03T08:37:50Z</time>
      </trkpt>
      <trkpt lat="45.96189" lon="1.28371">
        <ele>521.39263916016</ele>
        <time>2010-10-03T08:37:53Z</time>
      </trkpt>
      <trkpt lat="45.96188" lon="1.28373">
        <ele>521.89123535156</ele>
        <time>2010-10-03T08:37:55Z</time>
      </trkpt>
      <trkpt lat="45.96181" lon="1.28375">
        <ele>523.38018798828</ele>
        <time>2010-10-03T08:38:00Z</time>
      </trkpt>
      <trkpt lat="45.96178" lon="1.28377">
        <ele>524.08294677734</ele>
        <time>2010-10-03T08:38:04Z</time>
      </trkpt>
      <trkpt lat="45.96175" lon="1.2838">
        <ele>524.98956298828</ele>
        <time>2010-10-03T08:38:08Z</time>
      </trkpt>
      <trkpt lat="45.96165" lon="1.28381">
        <ele>526.34973144531</ele>
        <time>2010-10-03T08:38:14Z</time>
      </trkpt>
      <trkpt lat="45.96157" lon="1.28383">
        <ele>526.16735839844</ele>
        <time>2010-10-03T08:38:19Z</time>
      </trkpt>
      <trkpt lat="45.96152" lon="1.28386">
        <ele>526.40625</ele>
        <time>2010-10-03T08:38:23Z</time>
      </trkpt>
      <trkpt lat="45.96151" lon="1.28387">
        <ele>526.61761474609</ele>
        <time>2010-10-03T08:38:24Z</time>
      </trkpt>
      <trkpt lat="45.96145" lon="1.28389">
        <ele>526.55999755859</ele>
        <time>2010-10-03T08:38:28Z</time>
      </trkpt>
      <trkpt lat="45.9613" lon="1.28391">
        <ele>526.10198974609</ele>
        <time>2010-10-03T08:38:36Z</time>
      </trkpt>
      <trkpt lat="45.9612" lon="1.28393">
        <ele>526.05322265625</ele>
        <time>2010-10-03T08:38:41Z</time>
      </trkpt>
      <trkpt lat="45.96115" lon="1.28395">
        <ele>526.0869140625</ele>
        <time>2010-10-03T08:38:45Z</time>
      </trkpt>
      <trkpt lat="45.96107" lon="1.28396">
        <ele>525.9111328125</ele>
        <time>2010-10-03T08:38:49Z</time>
      </trkpt>
      <trkpt lat="45.96101" lon="1.28396">
        <ele>525.65972900391</ele>
        <time>2010-10-03T08:38:53Z</time>
      </trkpt>
      <trkpt lat="45.96095" lon="1.28401">
        <ele>526.25732421875</ele>
        <time>2010-10-03T08:38:59Z</time>
      </trkpt>
      <trkpt lat="45.96083" lon="1.284">
        <ele>525.51531982422</ele>
        <time>2010-10-03T08:39:04Z</time>
      </trkpt>
      <trkpt lat="45.96073" lon="1.28398">
        <ele>523.81842041016</ele>
        <time>2010-10-03T08:39:08Z</time>
      </trkpt>
      <trkpt lat="45.9606" lon="1.28394">
        <ele>521.55114746094</ele>
        <time>2010-10-03T08:39:13Z</time>
      </trkpt>
      <trkpt lat="45.9605" lon="1.28395">
        <ele>520.40472412109</ele>
        <time>2010-10-03T08:39:18Z</time>
      </trkpt>
      <trkpt lat="45.96041" lon="1.28401">
        <ele>520.6015625</ele>
        <time>2010-10-03T08:39:24Z</time>
      </trkpt>
      <trkpt lat="45.96041" lon="1.28403">
        <ele>520.90734863281</ele>
        <time>2010-10-03T08:39:25Z</time>
      </trkpt>
      <trkpt lat="45.9604" lon="1.28412">
        <ele>522.79479980469</ele>
        <time>2010-10-03T08:39:30Z</time>
      </trkpt>
      <trkpt lat="45.9604" lon="1.28421">
        <ele>524.58264160156</ele>
        <time>2010-10-03T08:39:34Z</time>
      </trkpt>
      <trkpt lat="45.96037" lon="1.28427">
        <ele>525.32507324219</ele>
        <time>2010-10-03T08:39:38Z</time>
      </trkpt>
      <trkpt lat="45.96029" lon="1.28433">
        <ele>525.31658935547</ele>
        <time>2010-10-03T08:39:43Z</time>
      </trkpt>
      <trkpt lat="45.96025" lon="1.2844">
        <ele>525.98968505859</ele>
        <time>2010-10-03T08:39:48Z</time>
      </trkpt>
      <trkpt lat="45.96017" lon="1.28444">
        <ele>525.85028076172</ele>
        <time>2010-10-03T08:39:53Z</time>
      </trkpt>
      <trkpt lat="45.9601" lon="1.2845">
        <ele>525.86340332031</ele>
        <time>2010-10-03T08:39:58Z</time>
      </trkpt>
      <trkpt lat="45.96003" lon="1.28453">
        <ele>525.59307861328</ele>
        <time>2010-10-03T08:40:01Z</time>
      </trkpt>
      <trkpt lat="45.95995" lon="1.28464">
        <ele>526.31591796875</ele>
        <time>2010-10-03T08:40:07Z</time>
      </trkpt>
      <trkpt lat="45.95992" lon="1.28474">
        <ele>527.45947265625</ele>
        <time>2010-10-03T08:40:11Z</time>
      </trkpt>
      <trkpt lat="45.9599" lon="1.28476">
        <ele>527.60681152344</ele>
        <time>2010-10-03T08:40:12Z</time>
      </trkpt>
      <trkpt lat="45.9598" lon="1.28491">
        <ele>528.66918945312</ele>
        <time>2010-10-03T08:40:20Z</time>
      </trkpt>
      <trkpt lat="45.95979" lon="1.28493">
        <ele>528.716796875</ele>
        <time>2010-10-03T08:40:21Z</time>
      </trkpt>
      <trkpt lat="45.95966" lon="1.285">
        <ele>528.10559082031</ele>
        <time>2010-10-03T08:40:26Z</time>
      </trkpt>
      <trkpt lat="45.95955" lon="1.28505">
        <ele>526.8134765625</ele>
        <time>2010-10-03T08:40:30Z</time>
      </trkpt>
      <trkpt lat="45.95946" lon="1.28513">
        <ele>526.00012207031</ele>
        <time>2010-10-03T08:40:35Z</time>
      </trkpt>
      <trkpt lat="45.95937" lon="1.28518">
        <ele>524.84552001953</ele>
        <time>2010-10-03T08:40:39Z</time>
      </trkpt>
      <trkpt lat="45.95926" lon="1.28525">
        <ele>523.59991455078</ele>
        <time>2010-10-03T08:40:44Z</time>
      </trkpt>
      <trkpt lat="45.95919" lon="1.28535">
        <ele>523.08343505859</ele>
        <time>2010-10-03T08:40:49Z</time>
      </trkpt>
      <trkpt lat="45.9591" lon="1.2854">
        <ele>522.66009521484</ele>
        <time>2010-10-03T08:40:54Z</time>
      </trkpt>
      <trkpt lat="45.95901" lon="1.28545">
        <ele>522.58160400391</ele>
        <time>2010-10-03T08:40:59Z</time>
      </trkpt>
      <trkpt lat="45.9589" lon="1.28547">
        <ele>522.25006103516</ele>
        <time>2010-10-03T08:41:03Z</time>
      </trkpt>
      <trkpt lat="45.95874" lon="1.28546">
        <ele>521.62994384766</ele>
        <time>2010-10-03T08:41:09Z</time>
      </trkpt>
      <trkpt lat="45.95869" lon="1.28548">
        <ele>521.509765625</ele>
        <time>2010-10-03T08:41:12Z</time>
      </trkpt>
      <trkpt lat="45.95855" lon="1.28553">
        <ele>521.09527587891</ele>
        <time>2010-10-03T08:41:19Z</time>
      </trkpt>
      <trkpt lat="45.9584" lon="1.28557">
        <ele>520.62774658203</ele>
        <time>2010-10-03T08:41:26Z</time>
      </trkpt>
      <trkpt lat="45.95833" lon="1.28558">
        <ele>520.41558837891</ele>
        <time>2010-10-03T08:41:31Z</time>
      </trkpt>
      <trkpt lat="45.9582" lon="1.28555">
        <ele>520.67565917969</ele>
        <time>2010-10-03T08:41:36Z</time>
      </trkpt>
      <trkpt lat="45.9581" lon="1.28551">
        <ele>520.86395263672</ele>
        <time>2010-10-03T08:41:40Z</time>
      </trkpt>
      <trkpt lat="45.95807" lon="1.2855">
        <ele>520.90252685547</ele>
        <time>2010-10-03T08:41:42Z</time>
      </trkpt>
      <trkpt lat="45.95793" lon="1.28544">
        <ele>521.05920410156</ele>
        <time>2010-10-03T08:41:48Z</time>
      </trkpt>
      <trkpt lat="45.95777" lon="1.28538">
        <ele>521.20874023438</ele>
        <time>2010-10-03T08:41:55Z</time>
      </trkpt>
      <trkpt lat="45.95767" lon="1.28531">
        <ele>521.11480712891</ele>
        <time>2010-10-03T08:42:02Z</time>
      </trkpt>
      <trkpt lat="45.95758" lon="1.28528">
        <ele>521.18011474609</ele>
        <time>2010-10-03T08:42:07Z</time>
      </trkpt>
      <trkpt lat="45.95747" lon="1.28526">
        <ele>520.97436523438</ele>
        <time>2010-10-03T08:42:12Z</time>
      </trkpt>
      <trkpt lat="45.95735" lon="1.28524">
        <ele>519.77044677734</ele>
        <time>2010-10-03T08:42:17Z</time>
      </trkpt>
      <trkpt lat="45.95721" lon="1.2852">
        <ele>518.24645996094</ele>
        <time>2010-10-03T08:42:23Z</time>
      </trkpt>
      <trkpt lat="45.95712" lon="1.28515">
        <ele>517.2509765625</ele>
        <time>2010-10-03T08:42:28Z</time>
      </trkpt>
      <trkpt lat="45.95697" lon="1.28508">
        <ele>515.74761962891</ele>
        <time>2010-10-03T08:42:34Z</time>
      </trkpt>
      <trkpt lat="45.95685" lon="1.28495">
        <ele>513.83868408203</ele>
        <time>2010-10-03T08:42:40Z</time>
      </trkpt>
      <trkpt lat="45.9568" lon="1.28482">
        <ele>511.74935913086</ele>
        <time>2010-10-03T08:42:45Z</time>
      </trkpt>
      <trkpt lat="45.95669" lon="1.28468">
        <ele>509.31878662109</ele>
        <time>2010-10-03T08:42:51Z</time>
      </trkpt>
      <trkpt lat="45.95663" lon="1.28459">
        <ele>507.69223022461</ele>
        <time>2010-10-03T08:42:56Z</time>
      </trkpt>
      <trkpt lat="45.95657" lon="1.28454">
        <ele>506.47604370117</ele>
        <time>2010-10-03T08:43:00Z</time>
      </trkpt>
      <trkpt lat="45.95655" lon="1.28452">
        <ele>505.94451904297</ele>
        <time>2010-10-03T08:43:02Z</time>
      </trkpt>
      <trkpt lat="45.95644" lon="1.28445">
        <ele>504.28289794922</ele>
        <time>2010-10-03T08:43:08Z</time>
      </trkpt>
      <trkpt lat="45.95634" lon="1.28441">
        <ele>503.08422851562</ele>
        <time>2010-10-03T08:43:12Z</time>
      </trkpt>
      <trkpt lat="45.95625" lon="1.28437">
        <ele>502.0729675293</ele>
        <time>2010-10-03T08:43:15Z</time>
      </trkpt>
      <trkpt lat="45.9561" lon="1.2843">
        <ele>500.69714355469</ele>
        <time>2010-10-03T08:43:20Z</time>
      </trkpt>
      <trkpt lat="45.95602" lon="1.28425">
        <ele>500.06036376953</ele>
        <time>2010-10-03T08:43:24Z</time>
      </trkpt>
      <trkpt lat="45.95592" lon="1.28415">
        <ele>499.2194519043</ele>
        <time>2010-10-03T08:43:29Z</time>
      </trkpt>
      <trkpt lat="45.95584" lon="1.28407">
        <ele>498.03890991211</ele>
        <time>2010-10-03T08:43:35Z</time>
      </trkpt>
      <trkpt lat="45.95579" lon="1.28396">
        <ele>496.41567993164</ele>
        <time>2010-10-03T08:43:41Z</time>
      </trkpt>
      <trkpt lat="45.95577" lon="1.28387">
        <ele>495.27828979492</ele>
        <time>2010-10-03T08:43:45Z</time>
      </trkpt>
      <trkpt lat="45.95575" lon="1.28381">
        <ele>494.44387817383</ele>
        <time>2010-10-03T08:43:47Z</time>
      </trkpt>
      <trkpt lat="45.95565" lon="1.28362">
        <ele>491.70281982422</ele>
        <time>2010-10-03T08:43:54Z</time>
      </trkpt>
      <trkpt lat="45.95558" lon="1.28354">
        <ele>490.32403564453</ele>
        <time>2010-10-03T08:43:59Z</time>
      </trkpt>
      <trkpt lat="45.95551" lon="1.28346">
        <ele>488.93212890625</ele>
        <time>2010-10-03T08:44:04Z</time>
      </trkpt>
      <trkpt lat="45.95542" lon="1.28338">
        <ele>487.5341796875</ele>
        <time>2010-10-03T08:44:09Z</time>
      </trkpt>
      <trkpt lat="45.95531" lon="1.28328">
        <ele>485.25048828125</ele>
        <time>2010-10-03T08:44:15Z</time>
      </trkpt>
      <trkpt lat="45.95523" lon="1.28326">
        <ele>484.10577392578</ele>
        <time>2010-10-03T08:44:19Z</time>
      </trkpt>
      <trkpt lat="45.95513" lon="1.28325">
        <ele>483.30679321289</ele>
        <time>2010-10-03T08:44:24Z</time>
      </trkpt>
      <trkpt lat="45.955" lon="1.28325">
        <ele>482.28805541992</ele>
        <time>2010-10-03T08:44:28Z</time>
      </trkpt>
      <trkpt lat="45.95485" lon="1.28324">
        <ele>480.40744018555</ele>
        <time>2010-10-03T08:44:34Z</time>
      </trkpt>
      <trkpt lat="45.95476" lon="1.28326">
        <ele>479.64553833008</ele>
        <time>2010-10-03T08:44:38Z</time>
      </trkpt>
      <trkpt lat="45.95469" lon="1.28329">
        <ele>479.49703979492</ele>
        <time>2010-10-03T08:44:42Z</time>
      </trkpt>
      <trkpt lat="45.95459" lon="1.28329">
        <ele>478.20544433594</ele>
        <time>2010-10-03T08:44:48Z</time>
      </trkpt>
      <trkpt lat="45.9545" lon="1.28329">
        <ele>477.20007324219</ele>
        <time>2010-10-03T08:44:52Z</time>
      </trkpt>
      <trkpt lat="45.95441" lon="1.28332">
        <ele>476.58200073242</ele>
        <time>2010-10-03T08:44:57Z</time>
      </trkpt>
      <trkpt lat="45.9543" lon="1.28334">
        <ele>475.68069458008</ele>
        <time>2010-10-03T08:45:02Z</time>
      </trkpt>
      <trkpt lat="45.95418" lon="1.28336">
        <ele>474.26168823242</ele>
        <time>2010-10-03T08:45:08Z</time>
      </trkpt>
      <trkpt lat="45.95403" lon="1.28337">
        <ele>471.95135498047</ele>
        <time>2010-10-03T08:45:13Z</time>
      </trkpt>
      <trkpt lat="45.95397" lon="1.28339">
        <ele>471.13357543945</ele>
        <time>2010-10-03T08:45:18Z</time>
      </trkpt>
      <trkpt lat="45.95387" lon="1.28341">
        <ele>469.62896728516</ele>
        <time>2010-10-03T08:45:22Z</time>
      </trkpt>
      <trkpt lat="45.9538" lon="1.28341">
        <ele>468.48028564453</ele>
        <time>2010-10-03T08:45:25Z</time>
      </trkpt>
      <trkpt lat="45.95367" lon="1.2834">
        <ele>466.50598144531</ele>
        <time>2010-10-03T08:45:30Z</time>
      </trkpt>
      <trkpt lat="45.95365" lon="1.28341">
        <ele>466.15151977539</ele>
        <time>2010-10-03T08:45:31Z</time>
      </trkpt>
      <trkpt lat="45.95354" lon="1.28343">
        <ele>464.50979614258</ele>
        <time>2010-10-03T08:45:36Z</time>
      </trkpt>
      <trkpt lat="45.95348" lon="1.28348">
        <ele>463.48522949219</ele>
        <time>2010-10-03T08:45:41Z</time>
      </trkpt>
      <trkpt lat="45.95341" lon="1.28353">
        <ele>462.58172607422</ele>
        <time>2010-10-03T08:45:45Z</time>
      </trkpt>
      <trkpt lat="45.95334" lon="1.28364">
        <ele>461.52270507812</ele>
        <time>2010-10-03T08:45:50Z</time>
      </trkpt>
      <trkpt lat="45.95329" lon="1.28369">
        <ele>460.69543457031</ele>
        <time>2010-10-03T08:45:53Z</time>
      </trkpt>
      <trkpt lat="45.95326" lon="1.2837">
        <ele>460.20385742188</ele>
        <time>2010-10-03T08:45:55Z</time>
      </trkpt>
      <trkpt lat="45.95313" lon="1.28373">
        <ele>458.12731933594</ele>
        <time>2010-10-03T08:46:01Z</time>
      </trkpt>
      <trkpt lat="45.95303" lon="1.28374">
        <ele>456.40573120117</ele>
        <time>2010-10-03T08:46:06Z</time>
      </trkpt>
      <trkpt lat="45.95298" lon="1.28374">
        <ele>455.57180786133</ele>
        <time>2010-10-03T08:46:09Z</time>
      </trkpt>
      <trkpt lat="45.95292" lon="1.28378">
        <ele>454.44174194336</ele>
        <time>2010-10-03T08:46:15Z</time>
      </trkpt>
      <trkpt lat="45.95284" lon="1.28377">
        <ele>453.21734619141</ele>
        <time>2010-10-03T08:46:22Z</time>
      </trkpt>
      <trkpt lat="45.95277" lon="1.28379">
        <ele>451.96136474609</ele>
        <time>2010-10-03T08:46:26Z</time>
      </trkpt>
      <trkpt lat="45.95277" lon="1.28379">
        <ele>452.01907348633</ele>
        <time>2010-10-03T08:46:32Z</time>
      </trkpt>
      <trkpt lat="45.95282" lon="1.28384">
        <ele>452.65313720703</ele>
        <time>2010-10-03T08:46:48Z</time>
      </trkpt>
      <trkpt lat="45.95294" lon="1.28391">
        <ele>454.75692749023</ele>
        <time>2010-10-03T08:46:57Z</time>
      </trkpt>
      <trkpt lat="45.95285" lon="1.28388">
        <ele>453.18612670898</ele>
        <time>2010-10-03T08:47:13Z</time>
      </trkpt>
      <trkpt lat="45.9529" lon="1.28393">
        <ele>454.05438232422</ele>
        <time>2010-10-03T08:47:37Z</time>
      </trkpt>
      <trkpt lat="45.95296" lon="1.28397">
        <ele>455.03326416016</ele>
        <time>2010-10-03T08:47:40Z</time>
      </trkpt>
      <trkpt lat="45.95295" lon="1.28401">
        <ele>454.78421020508</ele>
        <time>2010-10-03T08:47:47Z</time>
      </trkpt>
      <trkpt lat="45.95285" lon="1.28396">
        <ele>453.05825805664</ele>
        <time>2010-10-03T08:47:54Z</time>
      </trkpt>
      <trkpt lat="45.95284" lon="1.28392">
        <ele>452.91265869141</ele>
        <time>2010-10-03T08:48:03Z</time>
      </trkpt>
      <trkpt lat="45.95281" lon="1.28383">
        <ele>452.53088378906</ele>
        <time>2010-10-03T08:48:09Z</time>
      </trkpt>
      <trkpt lat="45.95277" lon="1.28377">
        <ele>451.99084472656</ele>
        <time>2010-10-03T08:48:13Z</time>
      </trkpt>
      <trkpt lat="45.95273" lon="1.28359">
        <ele>451.68923950195</ele>
        <time>2010-10-03T08:48:30Z</time>
      </trkpt>
      <trkpt lat="45.95276" lon="1.28359">
        <ele>452.1787109375</ele>
        <time>2010-10-03T08:48:38Z</time>
      </trkpt>
      <trkpt lat="45.95277" lon="1.28363">
        <ele>452.22833251953</ele>
        <time>2010-10-03T08:48:47Z</time>
      </trkpt>
      <trkpt lat="45.95278" lon="1.28361">
        <ele>452.45330810547</ele>
        <time>2010-10-03T08:48:54Z</time>
      </trkpt>
      <trkpt lat="45.95272" lon="1.28354">
        <ele>451.69030761719</ele>
        <time>2010-10-03T08:49:08Z</time>
      </trkpt>
      <trkpt lat="45.95266" lon="1.2836">
        <ele>450.6516418457</ele>
        <time>2010-10-03T08:49:14Z</time>
      </trkpt>
      <trkpt lat="45.9526" lon="1.28362">
        <ele>449.62219238281</ele>
        <time>2010-10-03T08:49:19Z</time>
      </trkpt>
      <trkpt lat="45.95272" lon="1.28359">
        <ele>451.52655029297</ele>
        <time>2010-10-03T08:49:28Z</time>
      </trkpt>
      <trkpt lat="45.95279" lon="1.28369">
        <ele>452.42132568359</ele>
        <time>2010-10-03T08:49:39Z</time>
      </trkpt>
      <trkpt lat="45.95285" lon="1.28385">
        <ele>453.15713500977</ele>
        <time>2010-10-03T08:50:03Z</time>
      </trkpt>
      <trkpt lat="45.95281" lon="1.28382">
        <ele>452.55459594727</ele>
        <time>2010-10-03T08:50:11Z</time>
      </trkpt>
      <trkpt lat="45.95272" lon="1.28377">
        <ele>451.1552734375</ele>
        <time>2010-10-03T08:50:20Z</time>
      </trkpt>
      <trkpt lat="45.95266" lon="1.28377">
        <ele>450.19619750977</ele>
        <time>2010-10-03T08:50:26Z</time>
      </trkpt>
      <trkpt lat="45.95264" lon="1.28376">
        <ele>449.81988525391</ele>
        <time>2010-10-03T08:50:27Z</time>
      </trkpt>
      <trkpt lat="45.9526" lon="1.28374">
        <ele>449.24072265625</ele>
        <time>2010-10-03T08:50:30Z</time>
      </trkpt>
      <trkpt lat="45.95253" lon="1.28373">
        <ele>448.13778686523</ele>
        <time>2010-10-03T08:50:36Z</time>
      </trkpt>
      <trkpt lat="45.95247" lon="1.28371">
        <ele>447.44515991211</ele>
        <time>2010-10-03T08:50:40Z</time>
      </trkpt>
      <trkpt lat="45.9524" lon="1.28372">
        <ele>446.93374633789</ele>
        <time>2010-10-03T08:50:46Z</time>
      </trkpt>
      <trkpt lat="45.95235" lon="1.28373">
        <ele>446.57940673828</ele>
        <time>2010-10-03T08:50:51Z</time>
      </trkpt>
      <trkpt lat="45.95222" lon="1.2837">
        <ele>445.75549316406</ele>
        <time>2010-10-03T08:50:58Z</time>
      </trkpt>
      <trkpt lat="45.95213" lon="1.28366">
        <ele>445.2405090332</ele>
        <time>2010-10-03T08:51:04Z</time>
      </trkpt>
      <trkpt lat="45.95203" lon="1.28365">
        <ele>444.56011962891</ele>
        <time>2010-10-03T08:51:10Z</time>
      </trkpt>
      <trkpt lat="45.95193" lon="1.28368">
        <ele>443.8564453125</ele>
        <time>2010-10-03T08:51:15Z</time>
      </trkpt>
      <trkpt lat="45.95187" lon="1.2837">
        <ele>443.36010742188</ele>
        <time>2010-10-03T08:51:18Z</time>
      </trkpt>
      <trkpt lat="45.95177" lon="1.28375">
        <ele>442.68862915039</ele>
        <time>2010-10-03T08:51:24Z</time>
      </trkpt>
      <trkpt lat="45.95171" lon="1.28376">
        <ele>442.25686645508</ele>
        <time>2010-10-03T08:51:28Z</time>
      </trkpt>
      <trkpt lat="45.95166" lon="1.28376">
        <ele>441.85131835938</ele>
        <time>2010-10-03T08:51:32Z</time>
      </trkpt>
      <trkpt lat="45.95155" lon="1.28375">
        <ele>440.31323242188</ele>
        <time>2010-10-03T08:51:35Z</time>
      </trkpt>
      <trkpt lat="45.95143" lon="1.28375">
        <ele>438.6103515625</ele>
        <time>2010-10-03T08:51:40Z</time>
      </trkpt>
      <trkpt lat="45.95135" lon="1.28378">
        <ele>437.51171875</ele>
        <time>2010-10-03T08:51:44Z</time>
      </trkpt>
      <trkpt lat="45.95131" lon="1.2838">
        <ele>436.79760742188</ele>
        <time>2010-10-03T08:51:48Z</time>
      </trkpt>
      <trkpt lat="45.95126" lon="1.28393">
        <ele>436.13842773438</ele>
        <time>2010-10-03T08:51:54Z</time>
      </trkpt>
      <trkpt lat="45.95124" lon="1.28403">
        <ele>435.80883789062</ele>
        <time>2010-10-03T08:51:58Z</time>
      </trkpt>
      <trkpt lat="45.95111" lon="1.28408">
        <ele>433.99609375</ele>
        <time>2010-10-03T08:52:04Z</time>
      </trkpt>
      <trkpt lat="45.95106" lon="1.28412">
        <ele>433.22705078125</ele>
        <time>2010-10-03T08:52:07Z</time>
      </trkpt>
      <trkpt lat="45.951" lon="1.28419">
        <ele>432.20593261719</ele>
        <time>2010-10-03T08:52:12Z</time>
      </trkpt>
      <trkpt lat="45.95088" lon="1.28426">
        <ele>429.84228515625</ele>
        <time>2010-10-03T08:52:18Z</time>
      </trkpt>
      <trkpt lat="45.95079" lon="1.28429">
        <ele>428.58151245117</ele>
        <time>2010-10-03T08:52:22Z</time>
      </trkpt>
      <trkpt lat="45.95063" lon="1.28431">
        <ele>427.32745361328</ele>
        <time>2010-10-03T08:52:28Z</time>
      </trkpt>
      <trkpt lat="45.95051" lon="1.28431">
        <ele>426.44470214844</ele>
        <time>2010-10-03T08:52:33Z</time>
      </trkpt>
      <trkpt lat="45.95042" lon="1.28432">
        <ele>425.67321777344</ele>
        <time>2010-10-03T08:52:38Z</time>
      </trkpt>
      <trkpt lat="45.95036" lon="1.28434">
        <ele>425.14379882812</ele>
        <time>2010-10-03T08:52:42Z</time>
      </trkpt>
      <trkpt lat="45.95036" lon="1.28442">
        <ele>424.76034545898</ele>
        <time>2010-10-03T08:52:47Z</time>
      </trkpt>
      <trkpt lat="45.95039" lon="1.28445">
        <ele>424.77752685547</ele>
        <time>2010-10-03T08:52:50Z</time>
      </trkpt>
      <trkpt lat="45.95044" lon="1.28455">
        <ele>424.59228515625</ele>
        <time>2010-10-03T08:52:57Z</time>
      </trkpt>
      <trkpt lat="45.95045" lon="1.28459">
        <ele>424.40539550781</ele>
        <time>2010-10-03T08:52:59Z</time>
      </trkpt>
      <trkpt lat="45.95043" lon="1.28481">
        <ele>423.07360839844</ele>
        <time>2010-10-03T08:53:07Z</time>
      </trkpt>
      <trkpt lat="45.95043" lon="1.28495">
        <ele>422.31042480469</ele>
        <time>2010-10-03T08:53:12Z</time>
      </trkpt>
      <trkpt lat="45.95044" lon="1.2851">
        <ele>421.42272949219</ele>
        <time>2010-10-03T08:53:18Z</time>
      </trkpt>
      <trkpt lat="45.95046" lon="1.28519">
        <ele>420.98901367188</ele>
        <time>2010-10-03T08:53:21Z</time>
      </trkpt>
      <trkpt lat="45.95052" lon="1.2854">
        <ele>419.80825805664</ele>
        <time>2010-10-03T08:53:27Z</time>
      </trkpt>
      <trkpt lat="45.95053" lon="1.2855">
        <ele>419.30187988281</ele>
        <time>2010-10-03T08:53:29Z</time>
      </trkpt>
      <trkpt lat="45.95064" lon="1.28571">
        <ele>418.27517700195</ele>
        <time>2010-10-03T08:53:34Z</time>
      </trkpt>
      <trkpt lat="45.95069" lon="1.28586">
        <ele>417.66299438477</ele>
        <time>2010-10-03T08:53:40Z</time>
      </trkpt>
      <trkpt lat="45.9507" lon="1.28599">
        <ele>417.69927978516</ele>
        <time>2010-10-03T08:53:46Z</time>
      </trkpt>
      <trkpt lat="45.9507" lon="1.28607">
        <ele>417.73217773438</ele>
        <time>2010-10-03T08:53:50Z</time>
      </trkpt>
      <trkpt lat="45.95071" lon="1.28611">
        <ele>417.77456665039</ele>
        <time>2010-10-03T08:53:52Z</time>
      </trkpt>
      <trkpt lat="45.9507" lon="1.28615">
        <ele>417.76937866211</ele>
        <time>2010-10-03T08:53:54Z</time>
      </trkpt>
      <trkpt lat="45.95071" lon="1.28624">
        <ele>417.8317565918</ele>
        <time>2010-10-03T08:53:58Z</time>
      </trkpt>
      <trkpt lat="45.95073" lon="1.28641">
        <ele>418.03591918945</ele>
        <time>2010-10-03T08:54:04Z</time>
      </trkpt>
      <trkpt lat="45.95076" lon="1.28654">
        <ele>418.32821655273</ele>
        <time>2010-10-03T08:54:08Z</time>
      </trkpt>
      <trkpt lat="45.95076" lon="1.28672">
        <ele>418.17947387695</ele>
        <time>2010-10-03T08:54:13Z</time>
      </trkpt>
      <trkpt lat="45.95076" lon="1.28689">
        <ele>417.56344604492</ele>
        <time>2010-10-03T08:54:17Z</time>
      </trkpt>
      <trkpt lat="45.95072" lon="1.28707">
        <ele>416.685546875</ele>
        <time>2010-10-03T08:54:21Z</time>
      </trkpt>
      <trkpt lat="45.95064" lon="1.28717">
        <ele>415.6891784668</ele>
        <time>2010-10-03T08:54:26Z</time>
      </trkpt>
      <trkpt lat="45.95059" lon="1.2872">
        <ele>415.23233032227</ele>
        <time>2010-10-03T08:54:28Z</time>
      </trkpt>
      <trkpt lat="45.95049" lon="1.28728">
        <ele>414.20822143555</ele>
        <time>2010-10-03T08:54:33Z</time>
      </trkpt>
      <trkpt lat="45.95044" lon="1.28731">
        <ele>413.77893066406</ele>
        <time>2010-10-03T08:54:36Z</time>
      </trkpt>
      <trkpt lat="45.95042" lon="1.28743">
        <ele>413.20373535156</ele>
        <time>2010-10-03T08:54:41Z</time>
      </trkpt>
      <trkpt lat="45.95039" lon="1.28748">
        <ele>412.83795166016</ele>
        <time>2010-10-03T08:54:43Z</time>
      </trkpt>
      <trkpt lat="45.95029" lon="1.28757">
        <ele>411.73529052734</ele>
        <time>2010-10-03T08:54:50Z</time>
      </trkpt>
      <trkpt lat="45.9502" lon="1.2876">
        <ele>411.06890869141</ele>
        <time>2010-10-03T08:54:56Z</time>
      </trkpt>
      <trkpt lat="45.95017" lon="1.28762">
        <ele>410.80944824219</ele>
        <time>2010-10-03T08:54:59Z</time>
      </trkpt>
      <trkpt lat="45.95014" lon="1.28767">
        <ele>410.44732666016</ele>
        <time>2010-10-03T08:55:02Z</time>
      </trkpt>
      <trkpt lat="45.95007" lon="1.28778">
        <ele>409.72149658203</ele>
        <time>2010-10-03T08:55:08Z</time>
      </trkpt>
      <trkpt lat="45.95003" lon="1.28783">
        <ele>409.35165405273</ele>
        <time>2010-10-03T08:55:11Z</time>
      </trkpt>
      <trkpt lat="45.94999" lon="1.28789">
        <ele>409.14559936523</ele>
        <time>2010-10-03T08:55:15Z</time>
      </trkpt>
      <trkpt lat="45.94997" lon="1.28802">
        <ele>408.93920898438</ele>
        <time>2010-10-03T08:55:21Z</time>
      </trkpt>
      <trkpt lat="45.94997" lon="1.28809">
        <ele>408.76516723633</ele>
        <time>2010-10-03T08:55:24Z</time>
      </trkpt>
      <trkpt lat="45.94993" lon="1.2882">
        <ele>408.85015869141</ele>
        <time>2010-10-03T08:55:30Z</time>
      </trkpt>
      <trkpt lat="45.94984" lon="1.28827">
        <ele>409.38916015625</ele>
        <time>2010-10-03T08:55:36Z</time>
      </trkpt>
      <trkpt lat="45.94976" lon="1.28833">
        <ele>410.04724121094</ele>
        <time>2010-10-03T08:55:43Z</time>
      </trkpt>
      <trkpt lat="45.94969" lon="1.28836">
        <ele>410.5104675293</ele>
        <time>2010-10-03T08:55:48Z</time>
      </trkpt>
      <trkpt lat="45.94965" lon="1.28838">
        <ele>410.84365844727</ele>
        <time>2010-10-03T08:55:53Z</time>
      </trkpt>
      <trkpt lat="45.94954" lon="1.28843">
        <ele>411.70248413086</ele>
        <time>2010-10-03T08:56:00Z</time>
      </trkpt>
      <trkpt lat="45.94944" lon="1.28845">
        <ele>412.60192871094</ele>
        <time>2010-10-03T08:56:07Z</time>
      </trkpt>
      <trkpt lat="45.94935" lon="1.28845">
        <ele>413.42822265625</ele>
        <time>2010-10-03T08:56:14Z</time>
      </trkpt>
      <trkpt lat="45.94928" lon="1.28845">
        <ele>414.11126708984</ele>
        <time>2010-10-03T08:56:20Z</time>
      </trkpt>
      <trkpt lat="45.9492" lon="1.28845">
        <ele>414.7936706543</ele>
        <time>2010-10-03T08:56:26Z</time>
      </trkpt>
      <trkpt lat="45.94913" lon="1.28846">
        <ele>415.50860595703</ele>
        <time>2010-10-03T08:56:32Z</time>
      </trkpt>
      <trkpt lat="45.94907" lon="1.28846">
        <ele>415.99435424805</ele>
        <time>2010-10-03T08:56:37Z</time>
      </trkpt>
      <trkpt lat="45.94901" lon="1.28846">
        <ele>416.58847045898</ele>
        <time>2010-10-03T08:56:42Z</time>
      </trkpt>
      <trkpt lat="45.94889" lon="1.28847">
        <ele>417.69192504883</ele>
        <time>2010-10-03T08:56:50Z</time>
      </trkpt>
      <trkpt lat="45.94878" lon="1.28852">
        <ele>418.85217285156</ele>
        <time>2010-10-03T08:56:58Z</time>
      </trkpt>
      <trkpt lat="45.94868" lon="1.28854">
        <ele>419.96124267578</ele>
        <time>2010-10-03T08:57:04Z</time>
      </trkpt>
      <trkpt lat="45.94858" lon="1.28856">
        <ele>420.98065185547</ele>
        <time>2010-10-03T08:57:11Z</time>
      </trkpt>
      <trkpt lat="45.94845" lon="1.28853">
        <ele>422.10995483398</ele>
        <time>2010-10-03T08:57:19Z</time>
      </trkpt>
      <trkpt lat="45.94836" lon="1.28851">
        <ele>422.84881591797</ele>
        <time>2010-10-03T08:57:24Z</time>
      </trkpt>
      <trkpt lat="45.94823" lon="1.28848">
        <ele>422.57043457031</ele>
        <time>2010-10-03T08:57:32Z</time>
      </trkpt>
      <trkpt lat="45.94812" lon="1.28846">
        <ele>422.02716064453</ele>
        <time>2010-10-03T08:57:38Z</time>
      </trkpt>
      <trkpt lat="45.94793" lon="1.28842">
        <ele>421.13330078125</ele>
        <time>2010-10-03T08:57:47Z</time>
      </trkpt>
      <trkpt lat="45.9478" lon="1.2884">
        <ele>420.53082275391</ele>
        <time>2010-10-03T08:57:53Z</time>
      </trkpt>
      <trkpt lat="45.94769" lon="1.28839">
        <ele>420.04516601562</ele>
        <time>2010-10-03T08:57:58Z</time>
      </trkpt>
      <trkpt lat="45.94754" lon="1.28836">
        <ele>419.3039855957</ele>
        <time>2010-10-03T08:58:05Z</time>
      </trkpt>
      <trkpt lat="45.94739" lon="1.28833">
        <ele>418.19198608398</ele>
        <time>2010-10-03T08:58:11Z</time>
      </trkpt>
      <trkpt lat="45.94727" lon="1.28829">
        <ele>417.37573242188</ele>
        <time>2010-10-03T08:58:16Z</time>
      </trkpt>
      <trkpt lat="45.94717" lon="1.2883">
        <ele>416.68707275391</ele>
        <time>2010-10-03T08:58:20Z</time>
      </trkpt>
      <trkpt lat="45.94709" lon="1.28838">
        <ele>416.33090209961</ele>
        <time>2010-10-03T08:58:24Z</time>
      </trkpt>
      <trkpt lat="45.94699" lon="1.2885">
        <ele>416.4508972168</ele>
        <time>2010-10-03T08:58:30Z</time>
      </trkpt>
      <trkpt lat="45.9469" lon="1.2886">
        <ele>416.38610839844</ele>
        <time>2010-10-03T08:58:35Z</time>
      </trkpt>
      <trkpt lat="45.94677" lon="1.28873">
        <ele>416.19635009766</ele>
        <time>2010-10-03T08:58:41Z</time>
      </trkpt>
      <trkpt lat="45.94673" lon="1.28877">
        <ele>416.10815429688</ele>
        <time>2010-10-03T08:58:43Z</time>
      </trkpt>
      <trkpt lat="45.94655" lon="1.28886">
        <ele>415.95855712891</ele>
        <time>2010-10-03T08:58:50Z</time>
      </trkpt>
      <trkpt lat="45.94641" lon="1.28881">
        <ele>415.49752807617</ele>
        <time>2010-10-03T08:58:56Z</time>
      </trkpt>
      <trkpt lat="45.94626" lon="1.28874">
        <ele>414.94302368164</ele>
        <time>2010-10-03T08:59:03Z</time>
      </trkpt>
      <trkpt lat="45.94617" lon="1.28869">
        <ele>414.64633178711</ele>
        <time>2010-10-03T08:59:09Z</time>
      </trkpt>
      <trkpt lat="45.94611" lon="1.28868">
        <ele>414.51425170898</ele>
        <time>2010-10-03T08:59:14Z</time>
      </trkpt>
      <trkpt lat="45.94611" lon="1.28878">
        <ele>414.96087646484</ele>
        <time>2010-10-03T08:59:20Z</time>
      </trkpt>
      <trkpt lat="45.94619" lon="1.2889">
        <ele>415.64016723633</ele>
        <time>2010-10-03T08:59:28Z</time>
      </trkpt>
      <trkpt lat="45.94625" lon="1.289">
        <ele>416.20593261719</ele>
        <time>2010-10-03T08:59:34Z</time>
      </trkpt>
      <trkpt lat="45.9463" lon="1.28907">
        <ele>416.65911865234</ele>
        <time>2010-10-03T08:59:39Z</time>
      </trkpt>
      <trkpt lat="45.94637" lon="1.28918">
        <ele>417.345703125</ele>
        <time>2010-10-03T08:59:45Z</time>
      </trkpt>
      <trkpt lat="45.94644" lon="1.2893">
        <ele>418.30944824219</ele>
        <time>2010-10-03T08:59:52Z</time>
      </trkpt>
      <trkpt lat="45.9465" lon="1.28937">
        <ele>418.98904418945</ele>
        <time>2010-10-03T08:59:57Z</time>
      </trkpt>
      <trkpt lat="45.94656" lon="1.28948">
        <ele>419.91995239258</ele>
        <time>2010-10-03T09:00:04Z</time>
      </trkpt>
      <trkpt lat="45.94661" lon="1.28955">
        <ele>420.51327514648</ele>
        <time>2010-10-03T09:00:08Z</time>
      </trkpt>
      <trkpt lat="45.94664" lon="1.28963">
        <ele>421.24346923828</ele>
        <time>2010-10-03T09:00:14Z</time>
      </trkpt>
      <trkpt lat="45.94667" lon="1.28967">
        <ele>421.64910888672</ele>
        <time>2010-10-03T09:00:19Z</time>
      </trkpt>
      <trkpt lat="45.94667" lon="1.28969">
        <ele>421.77526855469</ele>
        <time>2010-10-03T09:00:20Z</time>
      </trkpt>
      <trkpt lat="45.94671" lon="1.28975">
        <ele>422.41076660156</ele>
        <time>2010-10-03T09:00:24Z</time>
      </trkpt>
      <trkpt lat="45.94675" lon="1.28984">
        <ele>423.2160949707</ele>
        <time>2010-10-03T09:00:30Z</time>
      </trkpt>
      <trkpt lat="45.9468" lon="1.28994">
        <ele>424.11004638672</ele>
        <time>2010-10-03T09:00:36Z</time>
      </trkpt>
      <trkpt lat="45.94682" lon="1.28999">
        <ele>424.52319335938</ele>
        <time>2010-10-03T09:00:39Z</time>
      </trkpt>
      <trkpt lat="45.94685" lon="1.29006">
        <ele>424.75283813477</ele>
        <time>2010-10-03T09:00:42Z</time>
      </trkpt>
      <trkpt lat="45.94694" lon="1.29018">
        <ele>424.99642944336</ele>
        <time>2010-10-03T09:00:48Z</time>
      </trkpt>
      <trkpt lat="45.94697" lon="1.29023">
        <ele>424.99026489258</ele>
        <time>2010-10-03T09:00:50Z</time>
      </trkpt>
      <trkpt lat="45.94702" lon="1.29036">
        <ele>424.8039855957</ele>
        <time>2010-10-03T09:00:55Z</time>
      </trkpt>
      <trkpt lat="45.94707" lon="1.29046">
        <ele>424.43942260742</ele>
        <time>2010-10-03T09:01:00Z</time>
      </trkpt>
      <trkpt lat="45.94711" lon="1.29052">
        <ele>424.11407470703</ele>
        <time>2010-10-03T09:01:02Z</time>
      </trkpt>
      <trkpt lat="45.94719" lon="1.29061">
        <ele>423.33837890625</ele>
        <time>2010-10-03T09:01:06Z</time>
      </trkpt>
      <trkpt lat="45.94732" lon="1.29064">
        <ele>422.1696472168</ele>
        <time>2010-10-03T09:01:12Z</time>
      </trkpt>
      <trkpt lat="45.94735" lon="1.29064">
        <ele>421.97326660156</ele>
        <time>2010-10-03T09:01:13Z</time>
      </trkpt>
      <trkpt lat="45.94748" lon="1.29064">
        <ele>420.96786499023</ele>
        <time>2010-10-03T09:01:19Z</time>
      </trkpt>
      <trkpt lat="45.94759" lon="1.29068">
        <ele>419.49584960938</ele>
        <time>2010-10-03T09:01:24Z</time>
      </trkpt>
      <trkpt lat="45.94762" lon="1.29068">
        <ele>419.16073608398</ele>
        <time>2010-10-03T09:01:25Z</time>
      </trkpt>
      <trkpt lat="45.94771" lon="1.29071">
        <ele>417.68551635742</ele>
        <time>2010-10-03T09:01:29Z</time>
      </trkpt>
      <trkpt lat="45.94782" lon="1.29074">
        <ele>416.0309753418</ele>
        <time>2010-10-03T09:01:34Z</time>
      </trkpt>
      <trkpt lat="45.9479" lon="1.29077">
        <ele>414.63189697266</ele>
        <time>2010-10-03T09:01:38Z</time>
      </trkpt>
      <trkpt lat="45.94793" lon="1.29078">
        <ele>414.12084960938</ele>
        <time>2010-10-03T09:01:40Z</time>
      </trkpt>
      <trkpt lat="45.94807" lon="1.29083">
        <ele>411.58828735352</ele>
        <time>2010-10-03T09:01:46Z</time>
      </trkpt>
      <trkpt lat="45.94815" lon="1.29084">
        <ele>410.42669677734</ele>
        <time>2010-10-03T09:01:49Z</time>
      </trkpt>
      <trkpt lat="45.94817" lon="1.29084">
        <ele>410.08416748047</ele>
        <time>2010-10-03T09:01:50Z</time>
      </trkpt>
      <trkpt lat="45.94827" lon="1.29086">
        <ele>408.61633300781</ele>
        <time>2010-10-03T09:01:55Z</time>
      </trkpt>
      <trkpt lat="45.94838" lon="1.29084">
        <ele>407.28240966797</ele>
        <time>2010-10-03T09:02:00Z</time>
      </trkpt>
      <trkpt lat="45.94847" lon="1.29079">
        <ele>407.07086181641</ele>
        <time>2010-10-03T09:02:04Z</time>
      </trkpt>
      <trkpt lat="45.94866" lon="1.29073">
        <ele>405.72717285156</ele>
        <time>2010-10-03T09:02:11Z</time>
      </trkpt>
      <trkpt lat="45.94879" lon="1.29069">
        <ele>404.59875488281</ele>
        <time>2010-10-03T09:02:17Z</time>
      </trkpt>
      <trkpt lat="45.94883" lon="1.29069">
        <ele>404.10357666016</ele>
        <time>2010-10-03T09:02:19Z</time>
      </trkpt>
      <trkpt lat="45.94897" lon="1.29067">
        <ele>402.39199829102</ele>
        <time>2010-10-03T09:02:26Z</time>
      </trkpt>
      <trkpt lat="45.94901" lon="1.29066">
        <ele>402.07614135742</ele>
        <time>2010-10-03T09:02:28Z</time>
      </trkpt>
      <trkpt lat="45.94908" lon="1.29064">
        <ele>401.28546142578</ele>
        <time>2010-10-03T09:02:34Z</time>
      </trkpt>
      <trkpt lat="45.94919" lon="1.2906">
        <ele>400.48852539062</ele>
        <time>2010-10-03T09:02:40Z</time>
      </trkpt>
      <trkpt lat="45.94922" lon="1.29059">
        <ele>400.5173034668</ele>
        <time>2010-10-03T09:02:42Z</time>
      </trkpt>
      <trkpt lat="45.94932" lon="1.29062">
        <ele>400.08489990234</ele>
        <time>2010-10-03T09:02:47Z</time>
      </trkpt>
      <trkpt lat="45.94938" lon="1.29072">
        <ele>399.22213745117</ele>
        <time>2010-10-03T09:02:53Z</time>
      </trkpt>
      <trkpt lat="45.94941" lon="1.29079">
        <ele>398.60604858398</ele>
        <time>2010-10-03T09:02:57Z</time>
      </trkpt>
      <trkpt lat="45.94944" lon="1.29091">
        <ele>398.70620727539</ele>
        <time>2010-10-03T09:03:03Z</time>
      </trkpt>
      <trkpt lat="45.94949" lon="1.29106">
        <ele>399.63421630859</ele>
        <time>2010-10-03T09:03:11Z</time>
      </trkpt>
      <trkpt lat="45.94951" lon="1.29118">
        <ele>400.36557006836</ele>
        <time>2010-10-03T09:03:18Z</time>
      </trkpt>
      <trkpt lat="45.94954" lon="1.29132">
        <ele>401.20254516602</ele>
        <time>2010-10-03T09:03:25Z</time>
      </trkpt>
      <trkpt lat="45.94953" lon="1.29141">
        <ele>401.72232055664</ele>
        <time>2010-10-03T09:03:30Z</time>
      </trkpt>
      <trkpt lat="45.94952" lon="1.29153">
        <ele>402.32125854492</ele>
        <time>2010-10-03T09:03:36Z</time>
      </trkpt>
      <trkpt lat="45.94949" lon="1.29168">
        <ele>403.05969238281</ele>
        <time>2010-10-03T09:03:43Z</time>
      </trkpt>
      <trkpt lat="45.94946" lon="1.2918">
        <ele>404.03305053711</ele>
        <time>2010-10-03T09:03:49Z</time>
      </trkpt>
      <trkpt lat="45.94944" lon="1.29193">
        <ele>405.16351318359</ele>
        <time>2010-10-03T09:03:56Z</time>
      </trkpt>
      <trkpt lat="45.94934" lon="1.29201">
        <ele>405.53961181641</ele>
        <time>2010-10-03T09:04:02Z</time>
      </trkpt>
      <trkpt lat="45.94926" lon="1.29208">
        <ele>405.87326049805</ele>
        <time>2010-10-03T09:04:07Z</time>
      </trkpt>
      <trkpt lat="45.94915" lon="1.29214">
        <ele>405.98748779297</ele>
        <time>2010-10-03T09:04:12Z</time>
      </trkpt>
      <trkpt lat="45.94904" lon="1.29218">
        <ele>405.80596923828</ele>
        <time>2010-10-03T09:04:17Z</time>
      </trkpt>
      <trkpt lat="45.94894" lon="1.29222">
        <ele>405.64263916016</ele>
        <time>2010-10-03T09:04:22Z</time>
      </trkpt>
      <trkpt lat="45.94887" lon="1.29224">
        <ele>405.42025756836</ele>
        <time>2010-10-03T09:04:27Z</time>
      </trkpt>
      <trkpt lat="45.94876" lon="1.29231">
        <ele>405.34930419922</ele>
        <time>2010-10-03T09:04:36Z</time>
      </trkpt>
      <trkpt lat="45.9486" lon="1.29237">
        <ele>404.82009887695</ele>
        <time>2010-10-03T09:04:47Z</time>
      </trkpt>
      <trkpt lat="45.94852" lon="1.29241">
        <ele>404.63488769531</ele>
        <time>2010-10-03T09:04:52Z</time>
      </trkpt>
      <trkpt lat="45.94851" lon="1.29242">
        <ele>404.63314819336</ele>
        <time>2010-10-03T09:04:53Z</time>
      </trkpt>
      <trkpt lat="45.94845" lon="1.29244">
        <ele>404.40319824219</ele>
        <time>2010-10-03T09:04:58Z</time>
      </trkpt>
      <trkpt lat="45.94838" lon="1.29247">
        <ele>404.12890625</ele>
        <time>2010-10-03T09:05:03Z</time>
      </trkpt>
      <trkpt lat="45.94833" lon="1.2925">
        <ele>404.01971435547</ele>
        <time>2010-10-03T09:05:07Z</time>
      </trkpt>
      <trkpt lat="45.94828" lon="1.29252">
        <ele>403.89331054688</ele>
        <time>2010-10-03T09:05:11Z</time>
      </trkpt>
      <trkpt lat="45.94816" lon="1.29264">
        <ele>404.19482421875</ele>
        <time>2010-10-03T09:05:19Z</time>
      </trkpt>
      <trkpt lat="45.94809" lon="1.29274">
        <ele>404.58367919922</ele>
        <time>2010-10-03T09:05:23Z</time>
      </trkpt>
      <trkpt lat="45.94802" lon="1.29288">
        <ele>405.20953369141</ele>
        <time>2010-10-03T09:05:28Z</time>
      </trkpt>
      <trkpt lat="45.94796" lon="1.29302">
        <ele>405.91735839844</ele>
        <time>2010-10-03T09:05:33Z</time>
      </trkpt>
      <trkpt lat="45.94789" lon="1.29318">
        <ele>406.52423095703</ele>
        <time>2010-10-03T09:05:39Z</time>
      </trkpt>
      <trkpt lat="45.9478" lon="1.2933">
        <ele>406.5927734375</ele>
        <time>2010-10-03T09:05:44Z</time>
      </trkpt>
      <trkpt lat="45.94772" lon="1.29339">
        <ele>406.61392211914</ele>
        <time>2010-10-03T09:05:48Z</time>
      </trkpt>
      <trkpt lat="45.94767" lon="1.29345">
        <ele>406.62493896484</ele>
        <time>2010-10-03T09:05:52Z</time>
      </trkpt>
      <trkpt lat="45.94765" lon="1.29346">
        <ele>406.61212158203</ele>
        <time>2010-10-03T09:05:58Z</time>
      </trkpt>
      <trkpt lat="45.94757" lon="1.29353">
        <ele>406.48736572266</ele>
        <time>2010-10-03T09:06:03Z</time>
      </trkpt>
      <trkpt lat="45.94754" lon="1.29356">
        <ele>406.44787597656</ele>
        <time>2010-10-03T09:06:05Z</time>
      </trkpt>
      <trkpt lat="45.94745" lon="1.29361">
        <ele>406.18203735352</ele>
        <time>2010-10-03T09:06:10Z</time>
      </trkpt>
      <trkpt lat="45.94729" lon="1.29368">
        <ele>405.28750610352</ele>
        <time>2010-10-03T09:06:18Z</time>
      </trkpt>
      <trkpt lat="45.94717" lon="1.2938">
        <ele>404.77780151367</ele>
        <time>2010-10-03T09:06:24Z</time>
      </trkpt>
      <trkpt lat="45.94706" lon="1.29388">
        <ele>403.89517211914</ele>
        <time>2010-10-03T09:06:29Z</time>
      </trkpt>
      <trkpt lat="45.947" lon="1.29395">
        <ele>403.34899902344</ele>
        <time>2010-10-03T09:06:32Z</time>
      </trkpt>
      <trkpt lat="45.94688" lon="1.29413">
        <ele>402.29580688477</ele>
        <time>2010-10-03T09:06:38Z</time>
      </trkpt>
      <trkpt lat="45.94678" lon="1.29425">
        <ele>401.16320800781</ele>
        <time>2010-10-03T09:06:43Z</time>
      </trkpt>
      <trkpt lat="45.94669" lon="1.29437">
        <ele>400.16156005859</ele>
        <time>2010-10-03T09:06:48Z</time>
      </trkpt>
      <trkpt lat="45.94667" lon="1.29439">
        <ele>399.86502075195</ele>
        <time>2010-10-03T09:06:49Z</time>
      </trkpt>
      <trkpt lat="45.94664" lon="1.29443">
        <ele>399.51446533203</ele>
        <time>2010-10-03T09:06:51Z</time>
      </trkpt>
      <trkpt lat="45.9465" lon="1.29459">
        <ele>397.556640625</ele>
        <time>2010-10-03T09:06:58Z</time>
      </trkpt>
      <trkpt lat="45.94644" lon="1.29471">
        <ele>396.65911865234</ele>
        <time>2010-10-03T09:07:03Z</time>
      </trkpt>
      <trkpt lat="45.94641" lon="1.29483">
        <ele>396.31628417969</ele>
        <time>2010-10-03T09:07:07Z</time>
      </trkpt>
      <trkpt lat="45.94632" lon="1.29504">
        <ele>394.33410644531</ele>
        <time>2010-10-03T09:07:13Z</time>
      </trkpt>
      <trkpt lat="45.9463" lon="1.29514">
        <ele>393.53280639648</ele>
        <time>2010-10-03T09:07:16Z</time>
      </trkpt>
      <trkpt lat="45.94625" lon="1.29539">
        <ele>391.32119750977</ele>
        <time>2010-10-03T09:07:23Z</time>
      </trkpt>
      <trkpt lat="45.94626" lon="1.29559">
        <ele>390.66744995117</ele>
        <time>2010-10-03T09:07:29Z</time>
      </trkpt>
      <trkpt lat="45.94626" lon="1.29575">
        <ele>390.00476074219</ele>
        <time>2010-10-03T09:07:34Z</time>
      </trkpt>
      <trkpt lat="45.94627" lon="1.29589">
        <ele>389.39282226562</ele>
        <time>2010-10-03T09:07:38Z</time>
      </trkpt>
      <trkpt lat="45.94627" lon="1.29592">
        <ele>389.13549804688</ele>
        <time>2010-10-03T09:07:39Z</time>
      </trkpt>
      <trkpt lat="45.94627" lon="1.29615">
        <ele>387.53048706055</ele>
        <time>2010-10-03T09:07:45Z</time>
      </trkpt>
      <trkpt lat="45.94625" lon="1.2964">
        <ele>385.34851074219</ele>
        <time>2010-10-03T09:07:52Z</time>
      </trkpt>
      <trkpt lat="45.94619" lon="1.29663">
        <ele>382.90475463867</ele>
        <time>2010-10-03T09:07:59Z</time>
      </trkpt>
      <trkpt lat="45.94611" lon="1.29689">
        <ele>379.91329956055</ele>
        <time>2010-10-03T09:08:07Z</time>
      </trkpt>
      <trkpt lat="45.94605" lon="1.29714">
        <ele>377.33184814453</ele>
        <time>2010-10-03T09:08:14Z</time>
      </trkpt>
      <trkpt lat="45.94601" lon="1.2973">
        <ele>375.75326538086</ele>
        <time>2010-10-03T09:08:19Z</time>
      </trkpt>
      <trkpt lat="45.94597" lon="1.2975">
        <ele>374.00643920898</ele>
        <time>2010-10-03T09:08:25Z</time>
      </trkpt>
      <trkpt lat="45.94593" lon="1.29766">
        <ele>373.04962158203</ele>
        <time>2010-10-03T09:08:30Z</time>
      </trkpt>
      <trkpt lat="45.94591" lon="1.29776">
        <ele>372.47933959961</ele>
        <time>2010-10-03T09:08:33Z</time>
      </trkpt>
      <trkpt lat="45.94586" lon="1.29792">
        <ele>371.60382080078</ele>
        <time>2010-10-03T09:08:38Z</time>
      </trkpt>
      <trkpt lat="45.94579" lon="1.29812">
        <ele>370.65365600586</ele>
        <time>2010-10-03T09:08:44Z</time>
      </trkpt>
      <trkpt lat="45.9457" lon="1.29831">
        <ele>369.76818847656</ele>
        <time>2010-10-03T09:08:50Z</time>
      </trkpt>
      <trkpt lat="45.94558" lon="1.29845">
        <ele>370.49374389648</ele>
        <time>2010-10-03T09:08:57Z</time>
      </trkpt>
      <trkpt lat="45.94548" lon="1.29853">
        <ele>371.115234375</ele>
        <time>2010-10-03T09:09:04Z</time>
      </trkpt>
      <trkpt lat="45.9454" lon="1.29859">
        <ele>371.57043457031</ele>
        <time>2010-10-03T09:09:10Z</time>
      </trkpt>
      <trkpt lat="45.94529" lon="1.29867">
        <ele>372.30953979492</ele>
        <time>2010-10-03T09:09:18Z</time>
      </trkpt>
      <trkpt lat="45.94518" lon="1.29873">
        <ele>372.91638183594</ele>
        <time>2010-10-03T09:09:26Z</time>
      </trkpt>
      <trkpt lat="45.94506" lon="1.2988">
        <ele>373.60922241211</ele>
        <time>2010-10-03T09:09:34Z</time>
      </trkpt>
      <trkpt lat="45.945" lon="1.29882">
        <ele>373.80642700195</ele>
        <time>2010-10-03T09:09:39Z</time>
      </trkpt>
      <trkpt lat="45.94491" lon="1.29884">
        <ele>373.7321472168</ele>
        <time>2010-10-03T09:09:45Z</time>
      </trkpt>
      <trkpt lat="45.94478" lon="1.29886">
        <ele>373.41152954102</ele>
        <time>2010-10-03T09:09:54Z</time>
      </trkpt>
      <trkpt lat="45.94461" lon="1.2989">
        <ele>373.0133972168</ele>
        <time>2010-10-03T09:10:05Z</time>
      </trkpt>
      <trkpt lat="45.94446" lon="1.29895">
        <ele>372.69552612305</ele>
        <time>2010-10-03T09:10:13Z</time>
      </trkpt>
      <trkpt lat="45.94437" lon="1.29903">
        <ele>372.70123291016</ele>
        <time>2010-10-03T09:10:20Z</time>
      </trkpt>
      <trkpt lat="45.94431" lon="1.2991">
        <ele>372.67947387695</ele>
        <time>2010-10-03T09:10:25Z</time>
      </trkpt>
      <trkpt lat="45.94424" lon="1.29919">
        <ele>372.73318481445</ele>
        <time>2010-10-03T09:10:31Z</time>
      </trkpt>
      <trkpt lat="45.94423" lon="1.29921">
        <ele>372.84555053711</ele>
        <time>2010-10-03T09:10:33Z</time>
      </trkpt>
      <trkpt lat="45.9442" lon="1.29926">
        <ele>373.00836181641</ele>
        <time>2010-10-03T09:10:37Z</time>
      </trkpt>
      <trkpt lat="45.94416" lon="1.29935">
        <ele>373.56149291992</ele>
        <time>2010-10-03T09:10:42Z</time>
      </trkpt>
      <trkpt lat="45.94413" lon="1.2994">
        <ele>374.13424682617</ele>
        <time>2010-10-03T09:10:46Z</time>
      </trkpt>
      <trkpt lat="45.94405" lon="1.2995">
        <ele>375.29641723633</ele>
        <time>2010-10-03T09:10:53Z</time>
      </trkpt>
      <trkpt lat="45.94397" lon="1.29951">
        <ele>375.78271484375</ele>
        <time>2010-10-03T09:10:59Z</time>
      </trkpt>
      <trkpt lat="45.94384" lon="1.29954">
        <ele>376.59848022461</ele>
        <time>2010-10-03T09:11:05Z</time>
      </trkpt>
      <trkpt lat="45.94375" lon="1.29957">
        <ele>377.15045166016</ele>
        <time>2010-10-03T09:11:09Z</time>
      </trkpt>
      <trkpt lat="45.94367" lon="1.29958">
        <ele>377.54956054688</ele>
        <time>2010-10-03T09:11:14Z</time>
      </trkpt>
      <trkpt lat="45.94356" lon="1.29962">
        <ele>378.25933837891</ele>
        <time>2010-10-03T09:11:20Z</time>
      </trkpt>
      <trkpt lat="45.94345" lon="1.29965">
        <ele>378.88916015625</ele>
        <time>2010-10-03T09:11:26Z</time>
      </trkpt>
      <trkpt lat="45.94343" lon="1.29966">
        <ele>378.99478149414</ele>
        <time>2010-10-03T09:11:27Z</time>
      </trkpt>
      <trkpt lat="45.94333" lon="1.29966">
        <ele>379.38143920898</ele>
        <time>2010-10-03T09:11:32Z</time>
      </trkpt>
      <trkpt lat="45.94331" lon="1.29965">
        <ele>379.54635620117</ele>
        <time>2010-10-03T09:11:34Z</time>
      </trkpt>
      <trkpt lat="45.94329" lon="1.29958">
        <ele>379.3981628418</ele>
        <time>2010-10-03T09:11:37Z</time>
      </trkpt>
      <trkpt lat="45.94327" lon="1.29947">
        <ele>379.06188964844</ele>
        <time>2010-10-03T09:11:41Z</time>
      </trkpt>
      <trkpt lat="45.94328" lon="1.29939">
        <ele>378.67645263672</ele>
        <time>2010-10-03T09:11:45Z</time>
      </trkpt>
      <trkpt lat="45.94329" lon="1.29934">
        <ele>378.31109619141</ele>
        <time>2010-10-03T09:11:48Z</time>
      </trkpt>
      <trkpt lat="45.94328" lon="1.29921">
        <ele>377.87542724609</ele>
        <time>2010-10-03T09:11:54Z</time>
      </trkpt>
      <trkpt lat="45.94319" lon="1.2991">
        <ele>378.31716918945</ele>
        <time>2010-10-03T09:12:00Z</time>
      </trkpt>
      <trkpt lat="45.94309" lon="1.29901">
        <ele>379.02505493164</ele>
        <time>2010-10-03T09:12:06Z</time>
      </trkpt>
      <trkpt lat="45.94302" lon="1.29894">
        <ele>379.35205078125</ele>
        <time>2010-10-03T09:12:11Z</time>
      </trkpt>
      <trkpt lat="45.94302" lon="1.29893">
        <ele>379.36862182617</ele>
        <time>2010-10-03T09:12:12Z</time>
      </trkpt>
      <trkpt lat="45.943" lon="1.29889">
        <ele>379.30545043945</ele>
        <time>2010-10-03T09:12:15Z</time>
      </trkpt>
      <trkpt lat="45.94297" lon="1.29878">
        <ele>378.912109375</ele>
        <time>2010-10-03T09:12:21Z</time>
      </trkpt>
      <trkpt lat="45.94292" lon="1.29859">
        <ele>378.1350402832</ele>
        <time>2010-10-03T09:12:28Z</time>
      </trkpt>
      <trkpt lat="45.94288" lon="1.29846">
        <ele>377.61163330078</ele>
        <time>2010-10-03T09:12:33Z</time>
      </trkpt>
      <trkpt lat="45.94283" lon="1.29831">
        <ele>377.05776977539</ele>
        <time>2010-10-03T09:12:38Z</time>
      </trkpt>
      <trkpt lat="45.94276" lon="1.29815">
        <ele>376.46234130859</ele>
        <time>2010-10-03T09:12:43Z</time>
      </trkpt>
      <trkpt lat="45.94271" lon="1.29802">
        <ele>375.88375854492</ele>
        <time>2010-10-03T09:12:47Z</time>
      </trkpt>
      <trkpt lat="45.94265" lon="1.29787">
        <ele>375.13784790039</ele>
        <time>2010-10-03T09:12:52Z</time>
      </trkpt>
      <trkpt lat="45.94255" lon="1.29771">
        <ele>374.45587158203</ele>
        <time>2010-10-03T09:12:58Z</time>
      </trkpt>
      <trkpt lat="45.94254" lon="1.29768">
        <ele>374.32553100586</ele>
        <time>2010-10-03T09:12:59Z</time>
      </trkpt>
      <trkpt lat="45.94244" lon="1.29752">
        <ele>373.75247192383</ele>
        <time>2010-10-03T09:13:05Z</time>
      </trkpt>
      <trkpt lat="45.94232" lon="1.29736">
        <ele>374.0827331543</ele>
        <time>2010-10-03T09:13:11Z</time>
      </trkpt>
      <trkpt lat="45.94222" lon="1.29721">
        <ele>374.26184082031</ele>
        <time>2010-10-03T09:13:17Z</time>
      </trkpt>
      <trkpt lat="45.94215" lon="1.29708">
        <ele>374.28414916992</ele>
        <time>2010-10-03T09:13:22Z</time>
      </trkpt>
      <trkpt lat="45.94209" lon="1.29694">
        <ele>374.23550415039</ele>
        <time>2010-10-03T09:13:27Z</time>
      </trkpt>
      <trkpt lat="45.94207" lon="1.29683">
        <ele>373.93280029297</ele>
        <time>2010-10-03T09:13:31Z</time>
      </trkpt>
      <trkpt lat="45.94202" lon="1.29676">
        <ele>374.08331298828</ele>
        <time>2010-10-03T09:13:35Z</time>
      </trkpt>
      <trkpt lat="45.94199" lon="1.2967">
        <ele>374.05352783203</ele>
        <time>2010-10-03T09:13:39Z</time>
      </trkpt>
      <trkpt lat="45.94195" lon="1.29662">
        <ele>374.14859008789</ele>
        <time>2010-10-03T09:13:43Z</time>
      </trkpt>
      <trkpt lat="45.94189" lon="1.29653">
        <ele>374.40493774414</ele>
        <time>2010-10-03T09:13:49Z</time>
      </trkpt>
      <trkpt lat="45.94186" lon="1.29649">
        <ele>374.49005126953</ele>
        <time>2010-10-03T09:13:53Z</time>
      </trkpt>
      <trkpt lat="45.94181" lon="1.29641">
        <ele>374.68801879883</ele>
        <time>2010-10-03T09:13:59Z</time>
      </trkpt>
      <trkpt lat="45.94176" lon="1.29633">
        <ele>374.84338378906</ele>
        <time>2010-10-03T09:14:05Z</time>
      </trkpt>
      <trkpt lat="45.94172" lon="1.29628">
        <ele>375.09872436523</ele>
        <time>2010-10-03T09:14:10Z</time>
      </trkpt>
      <trkpt lat="45.94165" lon="1.29618">
        <ele>375.44522094727</ele>
        <time>2010-10-03T09:14:17Z</time>
      </trkpt>
      <trkpt lat="45.9416" lon="1.29613">
        <ele>375.85632324219</ele>
        <time>2010-10-03T09:14:22Z</time>
      </trkpt>
      <trkpt lat="45.94149" lon="1.29604">
        <ele>376.56790161133</ele>
        <time>2010-10-03T09:14:29Z</time>
      </trkpt>
      <trkpt lat="45.94137" lon="1.29597">
        <ele>377.37997436523</ele>
        <time>2010-10-03T09:14:36Z</time>
      </trkpt>
      <trkpt lat="45.94136" lon="1.29595">
        <ele>377.37698364258</ele>
        <time>2010-10-03T09:14:38Z</time>
      </trkpt>
      <trkpt lat="45.94131" lon="1.29592">
        <ele>377.61492919922</ele>
        <time>2010-10-03T09:14:42Z</time>
      </trkpt>
      <trkpt lat="45.94125" lon="1.29588">
        <ele>377.85989379883</ele>
        <time>2010-10-03T09:14:46Z</time>
      </trkpt>
      <trkpt lat="45.94115" lon="1.29585">
        <ele>378.48989868164</ele>
        <time>2010-10-03T09:14:52Z</time>
      </trkpt>
      <trkpt lat="45.94114" lon="1.29584">
        <ele>378.53424072266</ele>
        <time>2010-10-03T09:14:53Z</time>
      </trkpt>
      <trkpt lat="45.94111" lon="1.29582">
        <ele>378.556640625</ele>
        <time>2010-10-03T09:14:56Z</time>
      </trkpt>
      <trkpt lat="45.94104" lon="1.29581">
        <ele>379.11013793945</ele>
        <time>2010-10-03T09:15:00Z</time>
      </trkpt>
      <trkpt lat="45.941" lon="1.29581">
        <ele>379.39743041992</ele>
        <time>2010-10-03T09:15:02Z</time>
      </trkpt>
      <trkpt lat="45.94086" lon="1.29584">
        <ele>380.86322021484</ele>
        <time>2010-10-03T09:15:09Z</time>
      </trkpt>
      <trkpt lat="45.94069" lon="1.29586">
        <ele>381.65811157227</ele>
        <time>2010-10-03T09:15:17Z</time>
      </trkpt>
      <trkpt lat="45.94057" lon="1.29586">
        <ele>381.98333740234</ele>
        <time>2010-10-03T09:15:24Z</time>
      </trkpt>
      <trkpt lat="45.94042" lon="1.29585">
        <ele>382.24810791016</ele>
        <time>2010-10-03T09:15:32Z</time>
      </trkpt>
      <trkpt lat="45.94032" lon="1.2958">
        <ele>381.86837768555</ele>
        <time>2010-10-03T09:15:39Z</time>
      </trkpt>
      <trkpt lat="45.94025" lon="1.29573">
        <ele>381.17050170898</ele>
        <time>2010-10-03T09:15:44Z</time>
      </trkpt>
      <trkpt lat="45.94019" lon="1.29565">
        <ele>380.23162841797</ele>
        <time>2010-10-03T09:15:49Z</time>
      </trkpt>
      <trkpt lat="45.94011" lon="1.29556">
        <ele>379.22503662109</ele>
        <time>2010-10-03T09:15:55Z</time>
      </trkpt>
      <trkpt lat="45.94006" lon="1.29551">
        <ele>378.66525268555</ele>
        <time>2010-10-03T09:16:00Z</time>
      </trkpt>
      <trkpt lat="45.93998" lon="1.29544">
        <ele>377.93872070312</ele>
        <time>2010-10-03T09:16:06Z</time>
      </trkpt>
      <trkpt lat="45.93988" lon="1.29535">
        <ele>377.22412109375</ele>
        <time>2010-10-03T09:16:11Z</time>
      </trkpt>
      <trkpt lat="45.93984" lon="1.29531">
        <ele>376.98077392578</ele>
        <time>2010-10-03T09:16:13Z</time>
      </trkpt>
      <trkpt lat="45.93975" lon="1.2953">
        <ele>377.25784301758</ele>
        <time>2010-10-03T09:16:18Z</time>
      </trkpt>
      <trkpt lat="45.93958" lon="1.2952">
        <ele>376.30541992188</ele>
        <time>2010-10-03T09:16:24Z</time>
      </trkpt>
      <trkpt lat="45.93944" lon="1.29517">
        <ele>376.42218017578</ele>
        <time>2010-10-03T09:16:29Z</time>
      </trkpt>
      <trkpt lat="45.93936" lon="1.29517">
        <ele>376.6393737793</ele>
        <time>2010-10-03T09:16:32Z</time>
      </trkpt>
      <trkpt lat="45.93921" lon="1.29516">
        <ele>377.11221313477</ele>
        <time>2010-10-03T09:16:40Z</time>
      </trkpt>
      <trkpt lat="45.93911" lon="1.29515">
        <ele>377.32348632812</ele>
        <time>2010-10-03T09:16:47Z</time>
      </trkpt>
      <trkpt lat="45.93905" lon="1.29514">
        <ele>377.3821105957</ele>
        <time>2010-10-03T09:16:50Z</time>
      </trkpt>
      <trkpt lat="45.93896" lon="1.29513">
        <ele>377.63052368164</ele>
        <time>2010-10-03T09:16:56Z</time>
      </trkpt>
      <trkpt lat="45.93892" lon="1.29512">
        <ele>377.54333496094</ele>
        <time>2010-10-03T09:17:00Z</time>
      </trkpt>
      <trkpt lat="45.93876" lon="1.29509">
        <ele>377.74768066406</ele>
        <time>2010-10-03T09:17:08Z</time>
      </trkpt>
      <trkpt lat="45.93866" lon="1.29504">
        <ele>377.28396606445</ele>
        <time>2010-10-03T09:17:13Z</time>
      </trkpt>
      <trkpt lat="45.93857" lon="1.29499">
        <ele>376.76968383789</ele>
        <time>2010-10-03T09:17:19Z</time>
      </trkpt>
      <trkpt lat="45.93847" lon="1.29497">
        <ele>377.0368347168</ele>
        <time>2010-10-03T09:17:26Z</time>
      </trkpt>
      <trkpt lat="45.93837" lon="1.29495">
        <ele>377.22702026367</ele>
        <time>2010-10-03T09:17:32Z</time>
      </trkpt>
      <trkpt lat="45.93828" lon="1.29494">
        <ele>376.9909362793</ele>
        <time>2010-10-03T09:17:38Z</time>
      </trkpt>
      <trkpt lat="45.93827" lon="1.29494">
        <ele>376.95318603516</ele>
        <time>2010-10-03T09:17:39Z</time>
      </trkpt>
      <trkpt lat="45.93818" lon="1.29493">
        <ele>376.36645507812</ele>
        <time>2010-10-03T09:17:45Z</time>
      </trkpt>
      <trkpt lat="45.93816" lon="1.29493">
        <ele>376.22653198242</ele>
        <time>2010-10-03T09:17:46Z</time>
      </trkpt>
      <trkpt lat="45.9381" lon="1.29497">
        <ele>376.27447509766</ele>
        <time>2010-10-03T09:17:51Z</time>
      </trkpt>
      <trkpt lat="45.93801" lon="1.29511">
        <ele>377.56088256836</ele>
        <time>2010-10-03T09:18:01Z</time>
      </trkpt>
      <trkpt lat="45.93795" lon="1.29524">
        <ele>378.81121826172</ele>
        <time>2010-10-03T09:18:09Z</time>
      </trkpt>
      <trkpt lat="45.9379" lon="1.29535">
        <ele>379.68173217773</ele>
        <time>2010-10-03T09:18:16Z</time>
      </trkpt>
      <trkpt lat="45.93784" lon="1.29545">
        <ele>380.24981689453</ele>
        <time>2010-10-03T09:18:22Z</time>
      </trkpt>
      <trkpt lat="45.93779" lon="1.29556">
        <ele>380.91873168945</ele>
        <time>2010-10-03T09:18:28Z</time>
      </trkpt>
      <trkpt lat="45.93776" lon="1.29568">
        <ele>381.73129272461</ele>
        <time>2010-10-03T09:18:34Z</time>
      </trkpt>
      <trkpt lat="45.93772" lon="1.29586">
        <ele>382.91177368164</ele>
        <time>2010-10-03T09:18:43Z</time>
      </trkpt>
      <trkpt lat="45.9377" lon="1.29605">
        <ele>384.01965332031</ele>
        <time>2010-10-03T09:18:52Z</time>
      </trkpt>
      <trkpt lat="45.93769" lon="1.2962">
        <ele>384.93276977539</ele>
        <time>2010-10-03T09:18:59Z</time>
      </trkpt>
      <trkpt lat="45.93766" lon="1.29634">
        <ele>385.25588989258</ele>
        <time>2010-10-03T09:19:05Z</time>
      </trkpt>
      <trkpt lat="45.93763" lon="1.29652">
        <ele>385.94509887695</ele>
        <time>2010-10-03T09:19:12Z</time>
      </trkpt>
      <trkpt lat="45.93762" lon="1.29663">
        <ele>386.56393432617</ele>
        <time>2010-10-03T09:19:17Z</time>
      </trkpt>
      <trkpt lat="45.93762" lon="1.29681">
        <ele>386.84103393555</ele>
        <time>2010-10-03T09:19:25Z</time>
      </trkpt>
      <trkpt lat="45.9376" lon="1.29691">
        <ele>386.43667602539</ele>
        <time>2010-10-03T09:19:30Z</time>
      </trkpt>
      <trkpt lat="45.9376" lon="1.29704">
        <ele>386.57287597656</ele>
        <time>2010-10-03T09:19:36Z</time>
      </trkpt>
      <trkpt lat="45.93759" lon="1.29707">
        <ele>386.51419067383</ele>
        <time>2010-10-03T09:19:37Z</time>
      </trkpt>
      <trkpt lat="45.93758" lon="1.29725">
        <ele>386.3703918457</ele>
        <time>2010-10-03T09:19:45Z</time>
      </trkpt>
      <trkpt lat="45.93758" lon="1.29737">
        <ele>386.50149536133</ele>
        <time>2010-10-03T09:19:51Z</time>
      </trkpt>
      <trkpt lat="45.93755" lon="1.29755">
        <ele>385.94024658203</ele>
        <time>2010-10-03T09:19:58Z</time>
      </trkpt>
      <trkpt lat="45.93749" lon="1.29773">
        <ele>384.44982910156</ele>
        <time>2010-10-03T09:20:04Z</time>
      </trkpt>
      <trkpt lat="45.9374" lon="1.29796">
        <ele>384.45904541016</ele>
        <time>2010-10-03T09:20:11Z</time>
      </trkpt>
      <trkpt lat="45.93734" lon="1.29809">
        <ele>384.9123840332</ele>
        <time>2010-10-03T09:20:16Z</time>
      </trkpt>
      <trkpt lat="45.93728" lon="1.29823">
        <ele>385.69766235352</ele>
        <time>2010-10-03T09:20:21Z</time>
      </trkpt>
      <trkpt lat="45.93723" lon="1.29831">
        <ele>386.5520324707</ele>
        <time>2010-10-03T09:20:25Z</time>
      </trkpt>
      <trkpt lat="45.93717" lon="1.29838">
        <ele>387.69253540039</ele>
        <time>2010-10-03T09:20:29Z</time>
      </trkpt>
      <trkpt lat="45.93711" lon="1.29845">
        <ele>388.98602294922</ele>
        <time>2010-10-03T09:20:34Z</time>
      </trkpt>
      <trkpt lat="45.93704" lon="1.29848">
        <ele>390.15472412109</ele>
        <time>2010-10-03T09:20:39Z</time>
      </trkpt>
      <trkpt lat="45.93697" lon="1.29848">
        <ele>391.07543945312</ele>
        <time>2010-10-03T09:20:45Z</time>
      </trkpt>
      <trkpt lat="45.93693" lon="1.29848">
        <ele>391.6852722168</ele>
        <time>2010-10-03T09:20:48Z</time>
      </trkpt>
      <trkpt lat="45.93689" lon="1.29844">
        <ele>391.95642089844</ele>
        <time>2010-10-03T09:20:54Z</time>
      </trkpt>
      <trkpt lat="45.93681" lon="1.29839">
        <ele>392.56533813477</ele>
        <time>2010-10-03T09:21:00Z</time>
      </trkpt>
      <trkpt lat="45.93674" lon="1.29835">
        <ele>393.18984985352</ele>
        <time>2010-10-03T09:21:07Z</time>
      </trkpt>
      <trkpt lat="45.93671" lon="1.29833">
        <ele>393.36590576172</ele>
        <time>2010-10-03T09:21:09Z</time>
      </trkpt>
      <trkpt lat="45.93663" lon="1.2983">
        <ele>393.79681396484</ele>
        <time>2010-10-03T09:21:16Z</time>
      </trkpt>
      <trkpt lat="45.93656" lon="1.29826">
        <ele>393.94049072266</ele>
        <time>2010-10-03T09:21:22Z</time>
      </trkpt>
      <trkpt lat="45.93646" lon="1.29825">
        <ele>394.69284057617</ele>
        <time>2010-10-03T09:21:29Z</time>
      </trkpt>
      <trkpt lat="45.93639" lon="1.29825">
        <ele>395.22988891602</ele>
        <time>2010-10-03T09:21:34Z</time>
      </trkpt>
      <trkpt lat="45.93631" lon="1.29824">
        <ele>395.83737182617</ele>
        <time>2010-10-03T09:21:40Z</time>
      </trkpt>
      <trkpt lat="45.93622" lon="1.29823">
        <ele>396.52920532227</ele>
        <time>2010-10-03T09:21:46Z</time>
      </trkpt>
      <trkpt lat="45.9361" lon="1.2982">
        <ele>397.32217407227</ele>
        <time>2010-10-03T09:21:53Z</time>
      </trkpt>
      <trkpt lat="45.93607" lon="1.2982">
        <ele>397.63305664062</ele>
        <time>2010-10-03T09:21:55Z</time>
      </trkpt>
      <trkpt lat="45.93598" lon="1.29821">
        <ele>398.52374267578</ele>
        <time>2010-10-03T09:22:01Z</time>
      </trkpt>
      <trkpt lat="45.93589" lon="1.29822">
        <ele>399.42956542969</ele>
        <time>2010-10-03T09:22:07Z</time>
      </trkpt>
      <trkpt lat="45.9358" lon="1.29828">
        <ele>400.6203918457</ele>
        <time>2010-10-03T09:22:13Z</time>
      </trkpt>
      <trkpt lat="45.93578" lon="1.2983">
        <ele>400.94717407227</ele>
        <time>2010-10-03T09:22:15Z</time>
      </trkpt>
      <trkpt lat="45.93569" lon="1.29834">
        <ele>401.71725463867</ele>
        <time>2010-10-03T09:22:21Z</time>
      </trkpt>
      <trkpt lat="45.93562" lon="1.29841">
        <ele>402.22012329102</ele>
        <time>2010-10-03T09:22:26Z</time>
      </trkpt>
      <trkpt lat="45.93555" lon="1.29846">
        <ele>402.59823608398</ele>
        <time>2010-10-03T09:22:31Z</time>
      </trkpt>
      <trkpt lat="45.93544" lon="1.29851">
        <ele>403.03353881836</ele>
        <time>2010-10-03T09:22:38Z</time>
      </trkpt>
      <trkpt lat="45.93533" lon="1.29853">
        <ele>403.35189819336</ele>
        <time>2010-10-03T09:22:46Z</time>
      </trkpt>
      <trkpt lat="45.93521" lon="1.29857">
        <ele>403.64157104492</ele>
        <time>2010-10-03T09:22:55Z</time>
      </trkpt>
      <trkpt lat="45.93512" lon="1.2986">
        <ele>403.80303955078</ele>
        <time>2010-10-03T09:23:02Z</time>
      </trkpt>
      <trkpt lat="45.93503" lon="1.29862">
        <ele>403.91757202148</ele>
        <time>2010-10-03T09:23:07Z</time>
      </trkpt>
      <trkpt lat="45.93493" lon="1.29866">
        <ele>403.36737060547</ele>
        <time>2010-10-03T09:23:13Z</time>
      </trkpt>
      <trkpt lat="45.93483" lon="1.29868">
        <ele>402.63595581055</ele>
        <time>2010-10-03T09:23:19Z</time>
      </trkpt>
      <trkpt lat="45.93475" lon="1.29868">
        <ele>402.01538085938</ele>
        <time>2010-10-03T09:23:25Z</time>
      </trkpt>
      <trkpt lat="45.93461" lon="1.29868">
        <ele>401.13787841797</ele>
        <time>2010-10-03T09:23:32Z</time>
      </trkpt>
      <trkpt lat="45.93448" lon="1.29866">
        <ele>400.39395141602</ele>
        <time>2010-10-03T09:23:39Z</time>
      </trkpt>
      <trkpt lat="45.93439" lon="1.29864">
        <ele>399.92932128906</ele>
        <time>2010-10-03T09:23:44Z</time>
      </trkpt>
      <trkpt lat="45.93431" lon="1.29866">
        <ele>399.23687744141</ele>
        <time>2010-10-03T09:23:48Z</time>
      </trkpt>
      <trkpt lat="45.93423" lon="1.29877">
        <ele>397.78134155273</ele>
        <time>2010-10-03T09:23:54Z</time>
      </trkpt>
      <trkpt lat="45.93419" lon="1.29879">
        <ele>397.33959960938</ele>
        <time>2010-10-03T09:23:56Z</time>
      </trkpt>
      <trkpt lat="45.93406" lon="1.29894">
        <ele>395.17315673828</ele>
        <time>2010-10-03T09:24:03Z</time>
      </trkpt>
      <trkpt lat="45.93398" lon="1.29909">
        <ele>393.61242675781</ele>
        <time>2010-10-03T09:24:09Z</time>
      </trkpt>
      <trkpt lat="45.93394" lon="1.29915">
        <ele>393.03005981445</ele>
        <time>2010-10-03T09:24:12Z</time>
      </trkpt>
      <trkpt lat="45.93386" lon="1.29927">
        <ele>391.67376708984</ele>
        <time>2010-10-03T09:24:18Z</time>
      </trkpt>
      <trkpt lat="45.93383" lon="1.29931">
        <ele>391.19918823242</ele>
        <time>2010-10-03T09:24:20Z</time>
      </trkpt>
      <trkpt lat="45.93372" lon="1.29944">
        <ele>389.80349731445</ele>
        <time>2010-10-03T09:24:25Z</time>
      </trkpt>
      <trkpt lat="45.93364" lon="1.29954">
        <ele>388.85272216797</ele>
        <time>2010-10-03T09:24:30Z</time>
      </trkpt>
      <trkpt lat="45.93357" lon="1.29963">
        <ele>388.15447998047</ele>
        <time>2010-10-03T09:24:34Z</time>
      </trkpt>
      <trkpt lat="45.93343" lon="1.29975">
        <ele>387.23901367188</ele>
        <time>2010-10-03T09:24:41Z</time>
      </trkpt>
      <trkpt lat="45.9334" lon="1.29978">
        <ele>387.06039428711</ele>
        <time>2010-10-03T09:24:43Z</time>
      </trkpt>
      <trkpt lat="45.9333" lon="1.29994">
        <ele>386.08697509766</ele>
        <time>2010-10-03T09:24:48Z</time>
      </trkpt>
      <trkpt lat="45.93319" lon="1.30014">
        <ele>383.51052856445</ele>
        <time>2010-10-03T09:24:55Z</time>
      </trkpt>
      <trkpt lat="45.93313" lon="1.30036">
        <ele>380.90802001953</ele>
        <time>2010-10-03T09:25:02Z</time>
      </trkpt>
      <trkpt lat="45.93309" lon="1.30049">
        <ele>379.48474121094</ele>
        <time>2010-10-03T09:25:06Z</time>
      </trkpt>
      <trkpt lat="45.93304" lon="1.30072">
        <ele>377.03536987305</ele>
        <time>2010-10-03T09:25:13Z</time>
      </trkpt>
      <trkpt lat="45.93296" lon="1.30081">
        <ele>375.92498779297</ele>
        <time>2010-10-03T09:25:17Z</time>
      </trkpt>
      <trkpt lat="45.93283" lon="1.30085">
        <ele>375.0842590332</ele>
        <time>2010-10-03T09:25:23Z</time>
      </trkpt>
      <trkpt lat="45.93269" lon="1.30091">
        <ele>374.28549194336</ele>
        <time>2010-10-03T09:25:29Z</time>
      </trkpt>
      <trkpt lat="45.93256" lon="1.30093">
        <ele>373.67071533203</ele>
        <time>2010-10-03T09:25:35Z</time>
      </trkpt>
      <trkpt lat="45.93243" lon="1.30098">
        <ele>372.58401489258</ele>
        <time>2010-10-03T09:25:41Z</time>
      </trkpt>
      <trkpt lat="45.93225" lon="1.30101">
        <ele>371.0188293457</ele>
        <time>2010-10-03T09:25:49Z</time>
      </trkpt>
      <trkpt lat="45.93223" lon="1.30102">
        <ele>370.83364868164</ele>
        <time>2010-10-03T09:25:50Z</time>
      </trkpt>
      <trkpt lat="45.93212" lon="1.30103">
        <ele>369.92425537109</ele>
        <time>2010-10-03T09:25:55Z</time>
      </trkpt>
      <trkpt lat="45.93197" lon="1.30107">
        <ele>368.70086669922</ele>
        <time>2010-10-03T09:26:01Z</time>
      </trkpt>
      <trkpt lat="45.93182" lon="1.30106">
        <ele>367.57846069336</ele>
        <time>2010-10-03T09:26:08Z</time>
      </trkpt>
      <trkpt lat="45.93166" lon="1.30109">
        <ele>366.3586730957</ele>
        <time>2010-10-03T09:26:14Z</time>
      </trkpt>
      <trkpt lat="45.93149" lon="1.30113">
        <ele>365.54306030273</ele>
        <time>2010-10-03T09:26:20Z</time>
      </trkpt>
      <trkpt lat="45.93135" lon="1.30114">
        <ele>364.94061279297</ele>
        <time>2010-10-03T09:26:25Z</time>
      </trkpt>
      <trkpt lat="45.93123" lon="1.30112">
        <ele>364.4065246582</ele>
        <time>2010-10-03T09:26:30Z</time>
      </trkpt>
      <trkpt lat="45.93106" lon="1.3011">
        <ele>363.63571166992</ele>
        <time>2010-10-03T09:26:37Z</time>
      </trkpt>
      <trkpt lat="45.93093" lon="1.30109">
        <ele>363.07678222656</ele>
        <time>2010-10-03T09:26:42Z</time>
      </trkpt>
      <trkpt lat="45.93082" lon="1.30112">
        <ele>362.7678527832</ele>
        <time>2010-10-03T09:26:47Z</time>
      </trkpt>
      <trkpt lat="45.93073" lon="1.30111">
        <ele>363.60000610352</ele>
        <time>2010-10-03T09:26:52Z</time>
      </trkpt>
      <trkpt lat="45.93063" lon="1.30111">
        <ele>364.49816894531</ele>
        <time>2010-10-03T09:26:58Z</time>
      </trkpt>
      <trkpt lat="45.93055" lon="1.30109">
        <ele>365.24285888672</ele>
        <time>2010-10-03T09:27:03Z</time>
      </trkpt>
      <trkpt lat="45.93051" lon="1.30101">
        <ele>365.44076538086</ele>
        <time>2010-10-03T09:27:09Z</time>
      </trkpt>
      <trkpt lat="45.9305" lon="1.30092">
        <ele>365.39587402344</ele>
        <time>2010-10-03T09:27:14Z</time>
      </trkpt>
      <trkpt lat="45.93046" lon="1.30084">
        <ele>365.60986328125</ele>
        <time>2010-10-03T09:27:20Z</time>
      </trkpt>
      <trkpt lat="45.93043" lon="1.30078">
        <ele>365.68969726562</ele>
        <time>2010-10-03T09:27:24Z</time>
      </trkpt>
      <trkpt lat="45.93038" lon="1.30066">
        <ele>365.60760498047</ele>
        <time>2010-10-03T09:27:32Z</time>
      </trkpt>
      <trkpt lat="45.93031" lon="1.30052">
        <ele>365.46014404297</ele>
        <time>2010-10-03T09:27:40Z</time>
      </trkpt>
      <trkpt lat="45.93024" lon="1.30044">
        <ele>365.54006958008</ele>
        <time>2010-10-03T09:27:46Z</time>
      </trkpt>
      <trkpt lat="45.93017" lon="1.30034">
        <ele>365.43350219727</ele>
        <time>2010-10-03T09:27:53Z</time>
      </trkpt>
      <trkpt lat="45.9301" lon="1.30031">
        <ele>365.63272094727</ele>
        <time>2010-10-03T09:27:59Z</time>
      </trkpt>
      <trkpt lat="45.92999" lon="1.30034">
        <ele>366.41632080078</ele>
        <time>2010-10-03T09:28:07Z</time>
      </trkpt>
      <trkpt lat="45.92993" lon="1.30037">
        <ele>366.55908203125</ele>
        <time>2010-10-03T09:28:15Z</time>
      </trkpt>
      <trkpt lat="45.92987" lon="1.30038">
        <ele>366.52325439453</ele>
        <time>2010-10-03T09:28:20Z</time>
      </trkpt>
      <trkpt lat="45.92984" lon="1.30039">
        <ele>366.55541992188</ele>
        <time>2010-10-03T09:28:23Z</time>
      </trkpt>
      <trkpt lat="45.92977" lon="1.30043">
        <ele>366.64007568359</ele>
        <time>2010-10-03T09:28:29Z</time>
      </trkpt>
      <trkpt lat="45.92972" lon="1.30044">
        <ele>366.68923950195</ele>
        <time>2010-10-03T09:28:33Z</time>
      </trkpt>
      <trkpt lat="45.92962" lon="1.30055">
        <ele>367.20489501953</ele>
        <time>2010-10-03T09:28:42Z</time>
      </trkpt>
      <trkpt lat="45.92955" lon="1.30067">
        <ele>367.84057617188</ele>
        <time>2010-10-03T09:28:48Z</time>
      </trkpt>
      <trkpt lat="45.92952" lon="1.30076">
        <ele>368.37707519531</ele>
        <time>2010-10-03T09:28:53Z</time>
      </trkpt>
      <trkpt lat="45.92948" lon="1.30087">
        <ele>368.77221679688</ele>
        <time>2010-10-03T09:28:59Z</time>
      </trkpt>
      <trkpt lat="45.92945" lon="1.30103">
        <ele>368.75088500977</ele>
        <time>2010-10-03T09:29:06Z</time>
      </trkpt>
      <trkpt lat="45.92944" lon="1.30107">
        <ele>368.74658203125</ele>
        <time>2010-10-03T09:29:08Z</time>
      </trkpt>
      <trkpt lat="45.92942" lon="1.30118">
        <ele>368.73629760742</ele>
        <time>2010-10-03T09:29:14Z</time>
      </trkpt>
      <trkpt lat="45.92941" lon="1.30126">
        <ele>368.7314453125</ele>
        <time>2010-10-03T09:29:18Z</time>
      </trkpt>
      <trkpt lat="45.92941" lon="1.3013">
        <ele>368.73342895508</ele>
        <time>2010-10-03T09:29:20Z</time>
      </trkpt>
      <trkpt lat="45.92941" lon="1.30142">
        <ele>368.78515625</ele>
        <time>2010-10-03T09:29:25Z</time>
      </trkpt>
      <trkpt lat="45.92942" lon="1.30152">
        <ele>368.86047363281</ele>
        <time>2010-10-03T09:29:30Z</time>
      </trkpt>
      <trkpt lat="45.92943" lon="1.30161">
        <ele>368.93356323242</ele>
        <time>2010-10-03T09:29:35Z</time>
      </trkpt>
      <trkpt lat="45.92946" lon="1.30168">
        <ele>369.00140380859</ele>
        <time>2010-10-03T09:29:39Z</time>
      </trkpt>
      <trkpt lat="45.92951" lon="1.3018">
        <ele>368.86489868164</ele>
        <time>2010-10-03T09:29:45Z</time>
      </trkpt>
      <trkpt lat="45.92954" lon="1.30186">
        <ele>368.78527832031</ele>
        <time>2010-10-03T09:29:48Z</time>
      </trkpt>
      <trkpt lat="45.92956" lon="1.3019">
        <ele>368.72857666016</ele>
        <time>2010-10-03T09:29:50Z</time>
      </trkpt>
      <trkpt lat="45.92961" lon="1.30201">
        <ele>368.53549194336</ele>
        <time>2010-10-03T09:29:56Z</time>
      </trkpt>
      <trkpt lat="45.92965" lon="1.30212">
        <ele>368.32730102539</ele>
        <time>2010-10-03T09:30:02Z</time>
      </trkpt>
      <trkpt lat="45.92972" lon="1.30225">
        <ele>368.14321899414</ele>
        <time>2010-10-03T09:30:09Z</time>
      </trkpt>
      <trkpt lat="45.92977" lon="1.30233">
        <ele>368.00704956055</ele>
        <time>2010-10-03T09:30:14Z</time>
      </trkpt>
      <trkpt lat="45.92982" lon="1.30246">
        <ele>367.69769287109</ele>
        <time>2010-10-03T09:30:21Z</time>
      </trkpt>
      <trkpt lat="45.92986" lon="1.30258">
        <ele>367.35681152344</ele>
        <time>2010-10-03T09:30:27Z</time>
      </trkpt>
      <trkpt lat="45.9299" lon="1.30268">
        <ele>367.0973815918</ele>
        <time>2010-10-03T09:30:33Z</time>
      </trkpt>
      <trkpt lat="45.92993" lon="1.30274">
        <ele>366.94882202148</ele>
        <time>2010-10-03T09:30:39Z</time>
      </trkpt>
      <trkpt lat="45.92998" lon="1.30282">
        <ele>366.80178833008</ele>
        <time>2010-10-03T09:30:44Z</time>
      </trkpt>
      <trkpt lat="45.93004" lon="1.30288">
        <ele>366.55307006836</ele>
        <time>2010-10-03T09:30:49Z</time>
      </trkpt>
      <trkpt lat="45.9301" lon="1.30291">
        <ele>366.39080810547</ele>
        <time>2010-10-03T09:30:52Z</time>
      </trkpt>
      <trkpt lat="45.9302" lon="1.3029">
        <ele>366.2946472168</ele>
        <time>2010-10-03T09:30:57Z</time>
      </trkpt>
      <trkpt lat="45.93022" lon="1.30289">
        <ele>366.27658081055</ele>
        <time>2010-10-03T09:30:59Z</time>
      </trkpt>
      <trkpt lat="45.93031" lon="1.30287">
        <ele>366.16879272461</ele>
        <time>2010-10-03T09:31:04Z</time>
      </trkpt>
      <trkpt lat="45.93046" lon="1.30289">
        <ele>365.93542480469</ele>
        <time>2010-10-03T09:31:12Z</time>
      </trkpt>
      <trkpt lat="45.93059" lon="1.30292">
        <ele>365.79565429688</ele>
        <time>2010-10-03T09:31:18Z</time>
      </trkpt>
      <trkpt lat="45.9307" lon="1.30294">
        <ele>365.71295166016</ele>
        <time>2010-10-03T09:31:23Z</time>
      </trkpt>
      <trkpt lat="45.93079" lon="1.30289">
        <ele>365.47399902344</ele>
        <time>2010-10-03T09:31:28Z</time>
      </trkpt>
      <trkpt lat="45.9309" lon="1.30278">
        <ele>364.93939208984</ele>
        <time>2010-10-03T09:31:35Z</time>
      </trkpt>
      <trkpt lat="45.93095" lon="1.30272">
        <ele>364.67462158203</ele>
        <time>2010-10-03T09:31:38Z</time>
      </trkpt>
      <trkpt lat="45.93102" lon="1.30265">
        <ele>364.41040039062</ele>
        <time>2010-10-03T09:31:43Z</time>
      </trkpt>
      <trkpt lat="45.93112" lon="1.30258">
        <ele>364.1975402832</ele>
        <time>2010-10-03T09:31:49Z</time>
      </trkpt>
      <trkpt lat="45.93113" lon="1.30258">
        <ele>364.19479370117</ele>
        <time>2010-10-03T09:31:50Z</time>
      </trkpt>
      <trkpt lat="45.93119" lon="1.30261">
        <ele>364.23345947266</ele>
        <time>2010-10-03T09:31:55Z</time>
      </trkpt>
      <trkpt lat="45.93125" lon="1.30263">
        <ele>364.22827148438</ele>
        <time>2010-10-03T09:31:59Z</time>
      </trkpt>
      <trkpt lat="45.93128" lon="1.30262">
        <ele>364.20581054688</ele>
        <time>2010-10-03T09:32:01Z</time>
      </trkpt>
      <trkpt lat="45.93137" lon="1.30265">
        <ele>364.18670654297</ele>
        <time>2010-10-03T09:32:07Z</time>
      </trkpt>
      <trkpt lat="45.93145" lon="1.30267">
        <ele>364.16064453125</ele>
        <time>2010-10-03T09:32:13Z</time>
      </trkpt>
      <trkpt lat="45.9315" lon="1.30274">
        <ele>364.17495727539</ele>
        <time>2010-10-03T09:32:18Z</time>
      </trkpt>
      <trkpt lat="45.93149" lon="1.30284">
        <ele>364.25396728516</ele>
        <time>2010-10-03T09:32:27Z</time>
      </trkpt>
      <trkpt lat="45.93149" lon="1.30289">
        <ele>364.29818725586</ele>
        <time>2010-10-03T09:32:33Z</time>
      </trkpt>
      <trkpt lat="45.93151" lon="1.30288">
        <ele>364.25738525391</ele>
        <time>2010-10-03T09:32:37Z</time>
      </trkpt>
      <trkpt lat="45.93155" lon="1.30288">
        <ele>364.19940185547</ele>
        <time>2010-10-03T09:32:42Z</time>
      </trkpt>
      <trkpt lat="45.93157" lon="1.3029">
        <ele>364.16891479492</ele>
        <time>2010-10-03T09:32:54Z</time>
      </trkpt>
      <trkpt lat="45.93159" lon="1.30295">
        <ele>364.1545715332</ele>
        <time>2010-10-03T09:32:57Z</time>
      </trkpt>
      <trkpt lat="45.93158" lon="1.30307">
        <ele>364.21597290039</ele>
        <time>2010-10-03T09:33:02Z</time>
      </trkpt>
      <trkpt lat="45.93154" lon="1.3032">
        <ele>364.39108276367</ele>
        <time>2010-10-03T09:33:08Z</time>
      </trkpt>
      <trkpt lat="45.93152" lon="1.30326">
        <ele>364.47463989258</ele>
        <time>2010-10-03T09:33:12Z</time>
      </trkpt>
      <trkpt lat="45.93151" lon="1.30337">
        <ele>364.55557250977</ele>
        <time>2010-10-03T09:33:18Z</time>
      </trkpt>
      <trkpt lat="45.93149" lon="1.30346">
        <ele>364.66226196289</ele>
        <time>2010-10-03T09:33:23Z</time>
      </trkpt>
      <trkpt lat="45.93146" lon="1.30351">
        <ele>364.79016113281</ele>
        <time>2010-10-03T09:33:26Z</time>
      </trkpt>
      <trkpt lat="45.93137" lon="1.30353">
        <ele>365.15396118164</ele>
        <time>2010-10-03T09:33:33Z</time>
      </trkpt>
      <trkpt lat="45.93127" lon="1.30354">
        <ele>365.54138183594</ele>
        <time>2010-10-03T09:33:40Z</time>
      </trkpt>
      <trkpt lat="45.93126" lon="1.30354">
        <ele>365.58654785156</ele>
        <time>2010-10-03T09:33:41Z</time>
      </trkpt>
      <trkpt lat="45.93118" lon="1.30358">
        <ele>365.94055175781</ele>
        <time>2010-10-03T09:33:48Z</time>
      </trkpt>
      <trkpt lat="45.93111" lon="1.3036">
        <ele>366.21572875977</ele>
        <time>2010-10-03T09:33:53Z</time>
      </trkpt>
      <trkpt lat="45.93102" lon="1.30362">
        <ele>366.61056518555</ele>
        <time>2010-10-03T09:34:01Z</time>
      </trkpt>
      <trkpt lat="45.93092" lon="1.30363">
        <ele>367.00506591797</ele>
        <time>2010-10-03T09:34:08Z</time>
      </trkpt>
      <trkpt lat="45.93085" lon="1.30364">
        <ele>367.30941772461</ele>
        <time>2010-10-03T09:34:13Z</time>
      </trkpt>
      <trkpt lat="45.93075" lon="1.30365">
        <ele>367.13922119141</ele>
        <time>2010-10-03T09:34:20Z</time>
      </trkpt>
      <trkpt lat="45.93063" lon="1.3037">
        <ele>366.82995605469</ele>
        <time>2010-10-03T09:34:29Z</time>
      </trkpt>
      <trkpt lat="45.93056" lon="1.30377">
        <ele>366.68804931641</ele>
        <time>2010-10-03T09:34:35Z</time>
      </trkpt>
      <trkpt lat="45.93053" lon="1.3039">
        <ele>366.72143554688</ele>
        <time>2010-10-03T09:34:42Z</time>
      </trkpt>
      <trkpt lat="45.93056" lon="1.30397">
        <ele>366.86093139648</ele>
        <time>2010-10-03T09:34:46Z</time>
      </trkpt>
      <trkpt lat="45.9306" lon="1.30402">
        <ele>367.03085327148</ele>
        <time>2010-10-03T09:34:50Z</time>
      </trkpt>
      <trkpt lat="45.93067" lon="1.30411">
        <ele>367.35104370117</ele>
        <time>2010-10-03T09:34:56Z</time>
      </trkpt>
      <trkpt lat="45.93076" lon="1.30423">
        <ele>367.88241577148</ele>
        <time>2010-10-03T09:35:04Z</time>
      </trkpt>
      <trkpt lat="45.93084" lon="1.30435">
        <ele>368.38879394531</ele>
        <time>2010-10-03T09:35:11Z</time>
      </trkpt>
      <trkpt lat="45.93093" lon="1.30449">
        <ele>368.29180908203</ele>
        <time>2010-10-03T09:35:20Z</time>
      </trkpt>
      <trkpt lat="45.93094" lon="1.30451">
        <ele>368.29580688477</ele>
        <time>2010-10-03T09:35:21Z</time>
      </trkpt>
      <trkpt lat="45.93099" lon="1.30459">
        <ele>368.2712097168</ele>
        <time>2010-10-03T09:35:26Z</time>
      </trkpt>
      <trkpt lat="45.93107" lon="1.30472">
        <ele>368.20855712891</ele>
        <time>2010-10-03T09:35:34Z</time>
      </trkpt>
      <trkpt lat="45.93113" lon="1.30482">
        <ele>368.13159179688</ele>
        <time>2010-10-03T09:35:40Z</time>
      </trkpt>
      <trkpt lat="45.93122" lon="1.30496">
        <ele>368.04605102539</ele>
        <time>2010-10-03T09:35:49Z</time>
      </trkpt>
      <trkpt lat="45.93129" lon="1.30508">
        <ele>368.17831420898</ele>
        <time>2010-10-03T09:35:57Z</time>
      </trkpt>
      <trkpt lat="45.93135" lon="1.30521">
        <ele>368.51528930664</ele>
        <time>2010-10-03T09:36:05Z</time>
      </trkpt>
      <trkpt lat="45.93142" lon="1.30532">
        <ele>368.91738891602</ele>
        <time>2010-10-03T09:36:13Z</time>
      </trkpt>
      <trkpt lat="45.93148" lon="1.30543">
        <ele>369.42837524414</ele>
        <time>2010-10-03T09:36:21Z</time>
      </trkpt>
      <trkpt lat="45.93155" lon="1.30556">
        <ele>370.1018371582</ele>
        <time>2010-10-03T09:36:30Z</time>
      </trkpt>
      <trkpt lat="45.93157" lon="1.30559">
        <ele>370.30569458008</ele>
        <time>2010-10-03T09:36:32Z</time>
      </trkpt>
      <trkpt lat="45.93158" lon="1.30566">
        <ele>370.74212646484</ele>
        <time>2010-10-03T09:36:36Z</time>
      </trkpt>
      <trkpt lat="45.93164" lon="1.30584">
        <ele>371.98593139648</ele>
        <time>2010-10-03T09:36:47Z</time>
      </trkpt>
      <trkpt lat="45.93164" lon="1.30589">
        <ele>372.10488891602</ele>
        <time>2010-10-03T09:36:51Z</time>
      </trkpt>
      <trkpt lat="45.93164" lon="1.30594">
        <ele>372.20269775391</ele>
        <time>2010-10-03T09:36:58Z</time>
      </trkpt>
      <trkpt lat="45.93166" lon="1.30595">
        <ele>372.25894165039</ele>
        <time>2010-10-03T09:37:10Z</time>
      </trkpt>
      <trkpt lat="45.93165" lon="1.30596">
        <ele>372.27389526367</ele>
        <time>2010-10-03T09:37:25Z</time>
      </trkpt>
      <trkpt lat="45.93156" lon="1.30597">
        <ele>372.13461303711</ele>
        <time>2010-10-03T09:37:31Z</time>
      </trkpt>
      <trkpt lat="45.9315" lon="1.30594">
        <ele>371.98178100586</ele>
        <time>2010-10-03T09:37:35Z</time>
      </trkpt>
      <trkpt lat="45.9314" lon="1.3059">
        <ele>371.76153564453</ele>
        <time>2010-10-03T09:37:42Z</time>
      </trkpt>
      <trkpt lat="45.93132" lon="1.30586">
        <ele>371.60385131836</ele>
        <time>2010-10-03T09:37:48Z</time>
      </trkpt>
      <trkpt lat="45.9312" lon="1.30581">
        <ele>371.36517333984</ele>
        <time>2010-10-03T09:37:56Z</time>
      </trkpt>
      <trkpt lat="45.93107" lon="1.30575">
        <ele>371.05313110352</ele>
        <time>2010-10-03T09:38:05Z</time>
      </trkpt>
      <trkpt lat="45.93098" lon="1.30569">
        <ele>370.86337280273</ele>
        <time>2010-10-03T09:38:11Z</time>
      </trkpt>
      <trkpt lat="45.93085" lon="1.30561">
        <ele>370.73031616211</ele>
        <time>2010-10-03T09:38:17Z</time>
      </trkpt>
      <trkpt lat="45.93072" lon="1.30553">
        <ele>370.1028137207</ele>
        <time>2010-10-03T09:38:23Z</time>
      </trkpt>
      <trkpt lat="45.93058" lon="1.30547">
        <ele>369.36996459961</ele>
        <time>2010-10-03T09:38:29Z</time>
      </trkpt>
      <trkpt lat="45.93047" lon="1.30542">
        <ele>368.75357055664</ele>
        <time>2010-10-03T09:38:34Z</time>
      </trkpt>
      <trkpt lat="45.93038" lon="1.30542">
        <ele>368.31338500977</ele>
        <time>2010-10-03T09:38:38Z</time>
      </trkpt>
      <trkpt lat="45.93022" lon="1.30542">
        <ele>367.56924438477</ele>
        <time>2010-10-03T09:38:44Z</time>
      </trkpt>
      <trkpt lat="45.93011" lon="1.30536">
        <ele>366.95040893555</ele>
        <time>2010-10-03T09:38:49Z</time>
      </trkpt>
      <trkpt lat="45.92998" lon="1.3053">
        <ele>366.26678466797</ele>
        <time>2010-10-03T09:38:54Z</time>
      </trkpt>
      <trkpt lat="45.92986" lon="1.30524">
        <ele>365.6623840332</ele>
        <time>2010-10-03T09:38:59Z</time>
      </trkpt>
      <trkpt lat="45.92971" lon="1.30518">
        <ele>364.9245300293</ele>
        <time>2010-10-03T09:39:05Z</time>
      </trkpt>
      <trkpt lat="45.9296" lon="1.30511">
        <ele>364.2991027832</ele>
        <time>2010-10-03T09:39:10Z</time>
      </trkpt>
      <trkpt lat="45.92947" lon="1.30505">
        <ele>363.54675292969</ele>
        <time>2010-10-03T09:39:16Z</time>
      </trkpt>
      <trkpt lat="45.9293" lon="1.30498">
        <ele>362.62438964844</ele>
        <time>2010-10-03T09:39:22Z</time>
      </trkpt>
      <trkpt lat="45.92915" lon="1.3049">
        <ele>361.87921142578</ele>
        <time>2010-10-03T09:39:28Z</time>
      </trkpt>
      <trkpt lat="45.92902" lon="1.30485">
        <ele>361.74810791016</ele>
        <time>2010-10-03T09:39:34Z</time>
      </trkpt>
      <trkpt lat="45.92888" lon="1.3048">
        <ele>361.60415649414</ele>
        <time>2010-10-03T09:39:39Z</time>
      </trkpt>
      <trkpt lat="45.92877" lon="1.30476">
        <ele>361.43426513672</ele>
        <time>2010-10-03T09:39:44Z</time>
      </trkpt>
      <trkpt lat="45.92864" lon="1.30468">
        <ele>361.13494873047</ele>
        <time>2010-10-03T09:39:50Z</time>
      </trkpt>
      <trkpt lat="45.92851" lon="1.30459">
        <ele>360.74401855469</ele>
        <time>2010-10-03T09:39:56Z</time>
      </trkpt>
      <trkpt lat="45.92839" lon="1.30455">
        <ele>360.44287109375</ele>
        <time>2010-10-03T09:40:01Z</time>
      </trkpt>
      <trkpt lat="45.92829" lon="1.3045">
        <ele>360.38995361328</ele>
        <time>2010-10-03T09:40:05Z</time>
      </trkpt>
      <trkpt lat="45.92816" lon="1.30444">
        <ele>360.74163818359</ele>
        <time>2010-10-03T09:40:10Z</time>
      </trkpt>
      <trkpt lat="45.92802" lon="1.30437">
        <ele>360.9508972168</ele>
        <time>2010-10-03T09:40:16Z</time>
      </trkpt>
      <trkpt lat="45.92793" lon="1.30433">
        <ele>361.02557373047</ele>
        <time>2010-10-03T09:40:20Z</time>
      </trkpt>
      <trkpt lat="45.92778" lon="1.30425">
        <ele>360.99276733398</ele>
        <time>2010-10-03T09:40:27Z</time>
      </trkpt>
      <trkpt lat="45.92765" lon="1.3042">
        <ele>360.94354248047</ele>
        <time>2010-10-03T09:40:32Z</time>
      </trkpt>
      <trkpt lat="45.92754" lon="1.30412">
        <ele>360.62991333008</ele>
        <time>2010-10-03T09:40:37Z</time>
      </trkpt>
      <trkpt lat="45.92744" lon="1.30404">
        <ele>360.19616699219</ele>
        <time>2010-10-03T09:40:42Z</time>
      </trkpt>
      <trkpt lat="45.92734" lon="1.30399">
        <ele>359.68280029297</ele>
        <time>2010-10-03T09:40:47Z</time>
      </trkpt>
      <trkpt lat="45.9272" lon="1.30393">
        <ele>358.82244873047</ele>
        <time>2010-10-03T09:40:53Z</time>
      </trkpt>
      <trkpt lat="45.92706" lon="1.30389">
        <ele>358.15960693359</ele>
        <time>2010-10-03T09:40:58Z</time>
      </trkpt>
      <trkpt lat="45.92692" lon="1.30382">
        <ele>356.87872314453</ele>
        <time>2010-10-03T09:41:04Z</time>
      </trkpt>
      <trkpt lat="45.92683" lon="1.30377">
        <ele>355.93255615234</ele>
        <time>2010-10-03T09:41:08Z</time>
      </trkpt>
      <trkpt lat="45.92672" lon="1.30372">
        <ele>354.7776184082</ele>
        <time>2010-10-03T09:41:13Z</time>
      </trkpt>
      <trkpt lat="45.92662" lon="1.30368">
        <ele>353.56353759766</ele>
        <time>2010-10-03T09:41:18Z</time>
      </trkpt>
      <trkpt lat="45.92649" lon="1.30361">
        <ele>351.4333190918</ele>
        <time>2010-10-03T09:41:24Z</time>
      </trkpt>
      <trkpt lat="45.92638" lon="1.30356">
        <ele>350.03009033203</ele>
        <time>2010-10-03T09:41:29Z</time>
      </trkpt>
      <trkpt lat="45.92627" lon="1.30352">
        <ele>348.67098999023</ele>
        <time>2010-10-03T09:41:34Z</time>
      </trkpt>
      <trkpt lat="45.92615" lon="1.30347">
        <ele>347.44750976562</ele>
        <time>2010-10-03T09:41:39Z</time>
      </trkpt>
      <trkpt lat="45.92603" lon="1.30341">
        <ele>346.34631347656</ele>
        <time>2010-10-03T09:41:44Z</time>
      </trkpt>
      <trkpt lat="45.92591" lon="1.30336">
        <ele>345.45645141602</ele>
        <time>2010-10-03T09:41:49Z</time>
      </trkpt>
      <trkpt lat="45.92573" lon="1.30328">
        <ele>345.42465209961</ele>
        <time>2010-10-03T09:41:57Z</time>
      </trkpt>
      <trkpt lat="45.92564" lon="1.30324">
        <ele>345.81671142578</ele>
        <time>2010-10-03T09:42:03Z</time>
      </trkpt>
      <trkpt lat="45.92554" lon="1.3032">
        <ele>346.20162963867</ele>
        <time>2010-10-03T09:42:09Z</time>
      </trkpt>
      <trkpt lat="45.92545" lon="1.30315">
        <ele>346.66018676758</ele>
        <time>2010-10-03T09:42:15Z</time>
      </trkpt>
      <trkpt lat="45.92536" lon="1.3031">
        <ele>347.15118408203</ele>
        <time>2010-10-03T09:42:22Z</time>
      </trkpt>
      <trkpt lat="45.92524" lon="1.30304">
        <ele>347.6842956543</ele>
        <time>2010-10-03T09:42:29Z</time>
      </trkpt>
      <trkpt lat="45.92515" lon="1.30299">
        <ele>348.19589233398</ele>
        <time>2010-10-03T09:42:36Z</time>
      </trkpt>
      <trkpt lat="45.92503" lon="1.30293">
        <ele>348.88174438477</ele>
        <time>2010-10-03T09:42:45Z</time>
      </trkpt>
      <trkpt lat="45.92491" lon="1.30289">
        <ele>349.8327331543</ele>
        <time>2010-10-03T09:42:53Z</time>
      </trkpt>
      <trkpt lat="45.9248" lon="1.30282">
        <ele>351.01037597656</ele>
        <time>2010-10-03T09:43:01Z</time>
      </trkpt>
      <trkpt lat="45.92471" lon="1.30278">
        <ele>351.87890625</ele>
        <time>2010-10-03T09:43:08Z</time>
      </trkpt>
      <trkpt lat="45.9246" lon="1.30273">
        <ele>352.7880859375</ele>
        <time>2010-10-03T09:43:15Z</time>
      </trkpt>
      <trkpt lat="45.92454" lon="1.30271">
        <ele>353.25201416016</ele>
        <time>2010-10-03T09:43:19Z</time>
      </trkpt>
      <trkpt lat="45.92442" lon="1.30267">
        <ele>354.15982055664</ele>
        <time>2010-10-03T09:43:26Z</time>
      </trkpt>
      <trkpt lat="45.92429" lon="1.30259">
        <ele>355.15689086914</ele>
        <time>2010-10-03T09:43:36Z</time>
      </trkpt>
      <trkpt lat="45.92418" lon="1.30254">
        <ele>355.86877441406</ele>
        <time>2010-10-03T09:43:43Z</time>
      </trkpt>
      <trkpt lat="45.9241" lon="1.30251">
        <ele>355.82543945312</ele>
        <time>2010-10-03T09:43:48Z</time>
      </trkpt>
      <trkpt lat="45.92401" lon="1.30248">
        <ele>355.58926391602</ele>
        <time>2010-10-03T09:43:53Z</time>
      </trkpt>
      <trkpt lat="45.924" lon="1.30246">
        <ele>355.54058837891</ele>
        <time>2010-10-03T09:43:54Z</time>
      </trkpt>
      <trkpt lat="45.9239" lon="1.30242">
        <ele>355.19345092773</ele>
        <time>2010-10-03T09:44:00Z</time>
      </trkpt>
      <trkpt lat="45.92382" lon="1.30238">
        <ele>354.89498901367</ele>
        <time>2010-10-03T09:44:06Z</time>
      </trkpt>
      <trkpt lat="45.92373" lon="1.30233">
        <ele>354.52239990234</ele>
        <time>2010-10-03T09:44:12Z</time>
      </trkpt>
      <trkpt lat="45.9237" lon="1.30231">
        <ele>354.39349365234</ele>
        <time>2010-10-03T09:44:14Z</time>
      </trkpt>
      <trkpt lat="45.9236" lon="1.30226">
        <ele>353.95571899414</ele>
        <time>2010-10-03T09:44:21Z</time>
      </trkpt>
      <trkpt lat="45.92351" lon="1.30222">
        <ele>353.57354736328</ele>
        <time>2010-10-03T09:44:27Z</time>
      </trkpt>
      <trkpt lat="45.92347" lon="1.3022">
        <ele>353.37728881836</ele>
        <time>2010-10-03T09:44:30Z</time>
      </trkpt>
      <trkpt lat="45.92338" lon="1.30216">
        <ele>352.9104309082</ele>
        <time>2010-10-03T09:44:36Z</time>
      </trkpt>
      <trkpt lat="45.92329" lon="1.30212">
        <ele>352.22161865234</ele>
        <time>2010-10-03T09:44:41Z</time>
      </trkpt>
      <trkpt lat="45.92322" lon="1.30209">
        <ele>351.40158081055</ele>
        <time>2010-10-03T09:44:46Z</time>
      </trkpt>
      <trkpt lat="45.92313" lon="1.30205">
        <ele>350.47634887695</ele>
        <time>2010-10-03T09:44:51Z</time>
      </trkpt>
      <trkpt lat="45.92305" lon="1.30203">
        <ele>349.67102050781</ele>
        <time>2010-10-03T09:44:57Z</time>
      </trkpt>
      <trkpt lat="45.92294" lon="1.30197">
        <ele>348.59613037109</ele>
        <time>2010-10-03T09:45:05Z</time>
      </trkpt>
      <trkpt lat="45.92286" lon="1.30189">
        <ele>347.77703857422</ele>
        <time>2010-10-03T09:45:11Z</time>
      </trkpt>
      <trkpt lat="45.92277" lon="1.30182">
        <ele>346.97787475586</ele>
        <time>2010-10-03T09:45:17Z</time>
      </trkpt>
      <trkpt lat="45.92265" lon="1.30175">
        <ele>346.04614257812</ele>
        <time>2010-10-03T09:45:22Z</time>
      </trkpt>
      <trkpt lat="45.92253" lon="1.30169">
        <ele>345.22747802734</ele>
        <time>2010-10-03T09:45:27Z</time>
      </trkpt>
      <trkpt lat="45.92241" lon="1.30163">
        <ele>345.68997192383</ele>
        <time>2010-10-03T09:45:32Z</time>
      </trkpt>
      <trkpt lat="45.92228" lon="1.30156">
        <ele>346.68740844727</ele>
        <time>2010-10-03T09:45:37Z</time>
      </trkpt>
      <trkpt lat="45.92215" lon="1.30151">
        <ele>347.57000732422</ele>
        <time>2010-10-03T09:45:42Z</time>
      </trkpt>
      <trkpt lat="45.92204" lon="1.30146">
        <ele>348.29302978516</ele>
        <time>2010-10-03T09:45:46Z</time>
      </trkpt>
      <trkpt lat="45.92193" lon="1.30143">
        <ele>348.95498657227</ele>
        <time>2010-10-03T09:45:50Z</time>
      </trkpt>
      <trkpt lat="45.92183" lon="1.30137">
        <ele>349.70944213867</ele>
        <time>2010-10-03T09:45:58Z</time>
      </trkpt>
      <trkpt lat="45.92174" lon="1.30135">
        <ele>350.20513916016</ele>
        <time>2010-10-03T09:46:04Z</time>
      </trkpt>
      <trkpt lat="45.92171" lon="1.30134">
        <ele>350.36904907227</ele>
        <time>2010-10-03T09:46:06Z</time>
      </trkpt>
      <trkpt lat="45.92163" lon="1.30131">
        <ele>350.95510864258</ele>
        <time>2010-10-03T09:46:12Z</time>
      </trkpt>
      <trkpt lat="45.92162" lon="1.30131">
        <ele>351.07113647461</ele>
        <time>2010-10-03T09:46:13Z</time>
      </trkpt>
      <trkpt lat="45.92159" lon="1.3013">
        <ele>351.36810302734</ele>
        <time>2010-10-03T09:46:15Z</time>
      </trkpt>
      <trkpt lat="45.92151" lon="1.30127">
        <ele>352.1071472168</ele>
        <time>2010-10-03T09:46:21Z</time>
      </trkpt>
      <trkpt lat="45.92144" lon="1.30123">
        <ele>352.86489868164</ele>
        <time>2010-10-03T09:46:27Z</time>
      </trkpt>
      <trkpt lat="45.92138" lon="1.30121">
        <ele>353.34378051758</ele>
        <time>2010-10-03T09:46:31Z</time>
      </trkpt>
      <trkpt lat="45.92131" lon="1.3012">
        <ele>353.95819091797</ele>
        <time>2010-10-03T09:46:36Z</time>
      </trkpt>
      <trkpt lat="45.92124" lon="1.30118">
        <ele>354.54263305664</ele>
        <time>2010-10-03T09:46:42Z</time>
      </trkpt>
      <trkpt lat="45.92122" lon="1.30118">
        <ele>354.66409301758</ele>
        <time>2010-10-03T09:46:43Z</time>
      </trkpt>
      <trkpt lat="45.9211" lon="1.30113">
        <ele>355.67663574219</ele>
        <time>2010-10-03T09:46:51Z</time>
      </trkpt>
      <trkpt lat="45.921" lon="1.30111">
        <ele>356.46255493164</ele>
        <time>2010-10-03T09:46:58Z</time>
      </trkpt>
      <trkpt lat="45.92093" lon="1.3011">
        <ele>357.02526855469</ele>
        <time>2010-10-03T09:47:03Z</time>
      </trkpt>
      <trkpt lat="45.92083" lon="1.30107">
        <ele>357.73220825195</ele>
        <time>2010-10-03T09:47:10Z</time>
      </trkpt>
      <trkpt lat="45.92075" lon="1.30104">
        <ele>358.068359375</ele>
        <time>2010-10-03T09:47:15Z</time>
      </trkpt>
      <trkpt lat="45.92065" lon="1.30101">
        <ele>358.48043823242</ele>
        <time>2010-10-03T09:47:22Z</time>
      </trkpt>
      <trkpt lat="45.92056" lon="1.30099">
        <ele>358.87799072266</ele>
        <time>2010-10-03T09:47:29Z</time>
      </trkpt>
      <trkpt lat="45.92045" lon="1.30096">
        <ele>359.30569458008</ele>
        <time>2010-10-03T09:47:37Z</time>
      </trkpt>
      <trkpt lat="45.92039" lon="1.30094">
        <ele>359.52041625977</ele>
        <time>2010-10-03T09:47:41Z</time>
      </trkpt>
      <trkpt lat="45.92028" lon="1.3009">
        <ele>359.97634887695</ele>
        <time>2010-10-03T09:47:49Z</time>
      </trkpt>
      <trkpt lat="45.92025" lon="1.30089">
        <ele>360.064453125</ele>
        <time>2010-10-03T09:47:51Z</time>
      </trkpt>
      <trkpt lat="45.92017" lon="1.30088">
        <ele>360.39175415039</ele>
        <time>2010-10-03T09:47:56Z</time>
      </trkpt>
      <trkpt lat="45.92009" lon="1.30087">
        <ele>360.65829467773</ele>
        <time>2010-10-03T09:48:00Z</time>
      </trkpt>
      <trkpt lat="45.91997" lon="1.30088">
        <ele>361.0322265625</ele>
        <time>2010-10-03T09:48:07Z</time>
      </trkpt>
      <trkpt lat="45.91996" lon="1.30088">
        <ele>361.0498046875</ele>
        <time>2010-10-03T09:48:08Z</time>
      </trkpt>
      <trkpt lat="45.91984" lon="1.30086">
        <ele>361.18365478516</ele>
        <time>2010-10-03T09:48:15Z</time>
      </trkpt>
      <trkpt lat="45.91976" lon="1.30083">
        <ele>361.2922668457</ele>
        <time>2010-10-03T09:48:20Z</time>
      </trkpt>
      <trkpt lat="45.91962" lon="1.30079">
        <ele>361.55606079102</ele>
        <time>2010-10-03T09:48:29Z</time>
      </trkpt>
      <trkpt lat="45.91949" lon="1.30075">
        <ele>361.80810546875</ele>
        <time>2010-10-03T09:48:37Z</time>
      </trkpt>
      <trkpt lat="45.9194" lon="1.30072">
        <ele>361.98550415039</ele>
        <time>2010-10-03T09:48:43Z</time>
      </trkpt>
      <trkpt lat="45.9193" lon="1.30069">
        <ele>362.19064331055</ele>
        <time>2010-10-03T09:48:50Z</time>
      </trkpt>
      <trkpt lat="45.91921" lon="1.30065">
        <ele>362.37832641602</ele>
        <time>2010-10-03T09:48:56Z</time>
      </trkpt>
      <trkpt lat="45.91906" lon="1.30062">
        <ele>362.33825683594</ele>
        <time>2010-10-03T09:49:06Z</time>
      </trkpt>
      <trkpt lat="45.91895" lon="1.30059">
        <ele>362.24713134766</ele>
        <time>2010-10-03T09:49:13Z</time>
      </trkpt>
      <trkpt lat="45.91886" lon="1.30057">
        <ele>362.15222167969</ele>
        <time>2010-10-03T09:49:19Z</time>
      </trkpt>
      <trkpt lat="45.91876" lon="1.30054">
        <ele>362.04513549805</ele>
        <time>2010-10-03T09:49:26Z</time>
      </trkpt>
      <trkpt lat="45.91866" lon="1.30051">
        <ele>361.93267822266</ele>
        <time>2010-10-03T09:49:32Z</time>
      </trkpt>
      <trkpt lat="45.91859" lon="1.3005">
        <ele>361.81912231445</ele>
        <time>2010-10-03T09:49:37Z</time>
      </trkpt>
      <trkpt lat="45.91847" lon="1.30047">
        <ele>361.67120361328</ele>
        <time>2010-10-03T09:49:44Z</time>
      </trkpt>
      <trkpt lat="45.91834" lon="1.30043">
        <ele>361.50604248047</ele>
        <time>2010-10-03T09:49:50Z</time>
      </trkpt>
      <trkpt lat="45.91819" lon="1.3004">
        <ele>361.25903320312</ele>
        <time>2010-10-03T09:49:57Z</time>
      </trkpt>
      <trkpt lat="45.91806" lon="1.30037">
        <ele>361.03775024414</ele>
        <time>2010-10-03T09:50:03Z</time>
      </trkpt>
      <trkpt lat="45.91792" lon="1.30034">
        <ele>360.79144287109</ele>
        <time>2010-10-03T09:50:09Z</time>
      </trkpt>
      <trkpt lat="45.91779" lon="1.3003">
        <ele>360.56106567383</ele>
        <time>2010-10-03T09:50:15Z</time>
      </trkpt>
      <trkpt lat="45.91766" lon="1.30029">
        <ele>360.31021118164</ele>
        <time>2010-10-03T09:50:21Z</time>
      </trkpt>
      <trkpt lat="45.91763" lon="1.30028">
        <ele>360.26528930664</ele>
        <time>2010-10-03T09:50:22Z</time>
      </trkpt>
      <trkpt lat="45.91754" lon="1.30025">
        <ele>360.07696533203</ele>
        <time>2010-10-03T09:50:27Z</time>
      </trkpt>
      <trkpt lat="45.91748" lon="1.30024">
        <ele>359.93603515625</ele>
        <time>2010-10-03T09:50:30Z</time>
      </trkpt>
      <trkpt lat="45.91735" lon="1.3002">
        <ele>359.59884643555</ele>
        <time>2010-10-03T09:50:36Z</time>
      </trkpt>
      <trkpt lat="45.91722" lon="1.30016">
        <ele>359.26470947266</ele>
        <time>2010-10-03T09:50:42Z</time>
      </trkpt>
      <trkpt lat="45.91711" lon="1.30013">
        <ele>358.98947143555</ele>
        <time>2010-10-03T09:50:47Z</time>
      </trkpt>
      <trkpt lat="45.91705" lon="1.30012">
        <ele>358.83755493164</ele>
        <time>2010-10-03T09:50:50Z</time>
      </trkpt>
      <trkpt lat="45.91697" lon="1.3001">
        <ele>358.6474609375</ele>
        <time>2010-10-03T09:50:54Z</time>
      </trkpt>
      <trkpt lat="45.91684" lon="1.30006">
        <ele>358.36370849609</ele>
        <time>2010-10-03T09:51:00Z</time>
      </trkpt>
      <trkpt lat="45.91671" lon="1.30002">
        <ele>358.07284545898</ele>
        <time>2010-10-03T09:51:06Z</time>
      </trkpt>
      <trkpt lat="45.91657" lon="1.29999">
        <ele>357.67056274414</ele>
        <time>2010-10-03T09:51:12Z</time>
      </trkpt>
      <trkpt lat="45.91641" lon="1.29997">
        <ele>357.11370849609</ele>
        <time>2010-10-03T09:51:19Z</time>
      </trkpt>
      <trkpt lat="45.91625" lon="1.29994">
        <ele>356.61465454102</ele>
        <time>2010-10-03T09:51:26Z</time>
      </trkpt>
      <trkpt lat="45.91613" lon="1.2999">
        <ele>356.24560546875</ele>
        <time>2010-10-03T09:51:32Z</time>
      </trkpt>
      <trkpt lat="45.91602" lon="1.29987">
        <ele>355.9619140625</ele>
        <time>2010-10-03T09:51:38Z</time>
      </trkpt>
      <trkpt lat="45.91594" lon="1.29985">
        <ele>355.7326965332</ele>
        <time>2010-10-03T09:51:44Z</time>
      </trkpt>
      <trkpt lat="45.91582" lon="1.29983">
        <ele>355.39779663086</ele>
        <time>2010-10-03T09:51:51Z</time>
      </trkpt>
      <trkpt lat="45.9157" lon="1.2998">
        <ele>355.24664306641</ele>
        <time>2010-10-03T09:51:57Z</time>
      </trkpt>
      <trkpt lat="45.91556" lon="1.29977">
        <ele>355.05068969727</ele>
        <time>2010-10-03T09:52:03Z</time>
      </trkpt>
      <trkpt lat="45.91544" lon="1.29974">
        <ele>354.85525512695</ele>
        <time>2010-10-03T09:52:08Z</time>
      </trkpt>
      <trkpt lat="45.91531" lon="1.2997">
        <ele>354.63342285156</ele>
        <time>2010-10-03T09:52:13Z</time>
      </trkpt>
      <trkpt lat="45.91518" lon="1.29967">
        <ele>354.39611816406</ele>
        <time>2010-10-03T09:52:18Z</time>
      </trkpt>
      <trkpt lat="45.91503" lon="1.29963">
        <ele>354.07110595703</ele>
        <time>2010-10-03T09:52:24Z</time>
      </trkpt>
      <trkpt lat="45.91484" lon="1.29959">
        <ele>353.53521728516</ele>
        <time>2010-10-03T09:52:31Z</time>
      </trkpt>
      <trkpt lat="45.9147" lon="1.29956">
        <ele>353.07717895508</ele>
        <time>2010-10-03T09:52:37Z</time>
      </trkpt>
      <trkpt lat="45.91455" lon="1.29956">
        <ele>352.64779663086</ele>
        <time>2010-10-03T09:52:43Z</time>
      </trkpt>
      <trkpt lat="45.91449" lon="1.29957">
        <ele>352.46109008789</ele>
        <time>2010-10-03T09:52:48Z</time>
      </trkpt>
      <trkpt lat="45.91447" lon="1.29958">
        <ele>352.42138671875</ele>
        <time>2010-10-03T09:52:49Z</time>
      </trkpt>
      <trkpt lat="45.91439" lon="1.29954">
        <ele>352.14163208008</ele>
        <time>2010-10-03T09:52:54Z</time>
      </trkpt>
      <trkpt lat="45.91428" lon="1.29949">
        <ele>351.74609375</ele>
        <time>2010-10-03T09:53:01Z</time>
      </trkpt>
      <trkpt lat="45.91414" lon="1.29946">
        <ele>351.31622314453</ele>
        <time>2010-10-03T09:53:07Z</time>
      </trkpt>
      <trkpt lat="45.91399" lon="1.29944">
        <ele>351.05078125</ele>
        <time>2010-10-03T09:53:13Z</time>
      </trkpt>
      <trkpt lat="45.91388" lon="1.2994">
        <ele>350.88693237305</ele>
        <time>2010-10-03T09:53:18Z</time>
      </trkpt>
      <trkpt lat="45.91375" lon="1.29934">
        <ele>350.78796386719</ele>
        <time>2010-10-03T09:53:23Z</time>
      </trkpt>
      <trkpt lat="45.91364" lon="1.29929">
        <ele>350.78317260742</ele>
        <time>2010-10-03T09:53:28Z</time>
      </trkpt>
      <trkpt lat="45.9135" lon="1.29924">
        <ele>350.81436157227</ele>
        <time>2010-10-03T09:53:34Z</time>
      </trkpt>
      <trkpt lat="45.91341" lon="1.2992">
        <ele>350.88037109375</ele>
        <time>2010-10-03T09:53:38Z</time>
      </trkpt>
      <trkpt lat="45.91339" lon="1.29919">
        <ele>350.91387939453</ele>
        <time>2010-10-03T09:53:39Z</time>
      </trkpt>
      <trkpt lat="45.91328" lon="1.29915">
        <ele>350.82858276367</ele>
        <time>2010-10-03T09:53:44Z</time>
      </trkpt>
      <trkpt lat="45.91317" lon="1.29911">
        <ele>350.52380371094</ele>
        <time>2010-10-03T09:53:49Z</time>
      </trkpt>
      <trkpt lat="45.91305" lon="1.29909">
        <ele>350.21423339844</ele>
        <time>2010-10-03T09:53:54Z</time>
      </trkpt>
      <trkpt lat="45.91294" lon="1.29908">
        <ele>349.87509155273</ele>
        <time>2010-10-03T09:53:59Z</time>
      </trkpt>
      <trkpt lat="45.91285" lon="1.29905">
        <ele>349.73129272461</ele>
        <time>2010-10-03T09:54:03Z</time>
      </trkpt>
      <trkpt lat="45.91272" lon="1.29898">
        <ele>349.64529418945</ele>
        <time>2010-10-03T09:54:09Z</time>
      </trkpt>
      <trkpt lat="45.91261" lon="1.29896">
        <ele>349.52032470703</ele>
        <time>2010-10-03T09:54:14Z</time>
      </trkpt>
      <trkpt lat="45.91245" lon="1.29892">
        <ele>349.43948364258</ele>
        <time>2010-10-03T09:54:20Z</time>
      </trkpt>
      <trkpt lat="45.91229" lon="1.29886">
        <ele>349.69354248047</ele>
        <time>2010-10-03T09:54:27Z</time>
      </trkpt>
      <trkpt lat="45.91217" lon="1.29885">
        <ele>349.66418457031</ele>
        <time>2010-10-03T09:54:32Z</time>
      </trkpt>
      <trkpt lat="45.91207" lon="1.29885">
        <ele>349.60064697266</ele>
        <time>2010-10-03T09:54:38Z</time>
      </trkpt>
      <trkpt lat="45.91204" lon="1.29884">
        <ele>349.6432800293</ele>
        <time>2010-10-03T09:54:40Z</time>
      </trkpt>
      <trkpt lat="45.91189" lon="1.29881">
        <ele>349.68960571289</ele>
        <time>2010-10-03T09:54:49Z</time>
      </trkpt>
      <trkpt lat="45.9118" lon="1.29879">
        <ele>349.77667236328</ele>
        <time>2010-10-03T09:54:55Z</time>
      </trkpt>
      <trkpt lat="45.91171" lon="1.29878">
        <ele>349.78576660156</ele>
        <time>2010-10-03T09:55:00Z</time>
      </trkpt>
      <trkpt lat="45.91158" lon="1.29875">
        <ele>349.89633178711</ele>
        <time>2010-10-03T09:55:09Z</time>
      </trkpt>
      <trkpt lat="45.91147" lon="1.29872">
        <ele>349.95950317383</ele>
        <time>2010-10-03T09:55:16Z</time>
      </trkpt>
      <trkpt lat="45.91134" lon="1.29866">
        <ele>350.14770507812</ele>
        <time>2010-10-03T09:55:25Z</time>
      </trkpt>
      <trkpt lat="45.91131" lon="1.29866">
        <ele>350.13510131836</ele>
        <time>2010-10-03T09:55:27Z</time>
      </trkpt>
      <trkpt lat="45.91123" lon="1.29864">
        <ele>350.1184387207</ele>
        <time>2010-10-03T09:55:32Z</time>
      </trkpt>
      <trkpt lat="45.91109" lon="1.29859">
        <ele>350.17910766602</ele>
        <time>2010-10-03T09:55:40Z</time>
      </trkpt>
      <trkpt lat="45.91098" lon="1.29854">
        <ele>350.24948120117</ele>
        <time>2010-10-03T09:55:45Z</time>
      </trkpt>
      <trkpt lat="45.91088" lon="1.29851">
        <ele>350.24362182617</ele>
        <time>2010-10-03T09:55:50Z</time>
      </trkpt>
      <trkpt lat="45.91078" lon="1.29848">
        <ele>350.24838256836</ele>
        <time>2010-10-03T09:55:55Z</time>
      </trkpt>
      <trkpt lat="45.91066" lon="1.29844">
        <ele>350.26553344727</ele>
        <time>2010-10-03T09:56:00Z</time>
      </trkpt>
      <trkpt lat="45.91055" lon="1.2984">
        <ele>350.35192871094</ele>
        <time>2010-10-03T09:56:05Z</time>
      </trkpt>
      <trkpt lat="45.91044" lon="1.29837">
        <ele>350.36108398438</ele>
        <time>2010-10-03T09:56:10Z</time>
      </trkpt>
      <trkpt lat="45.91035" lon="1.29839">
        <ele>350.16482543945</ele>
        <time>2010-10-03T09:56:14Z</time>
      </trkpt>
      <trkpt lat="45.91019" lon="1.29835">
        <ele>350.13336181641</ele>
        <time>2010-10-03T09:56:21Z</time>
      </trkpt>
      <trkpt lat="45.91008" lon="1.29833">
        <ele>350.1155090332</ele>
        <time>2010-10-03T09:56:25Z</time>
      </trkpt>
      <trkpt lat="45.90996" lon="1.29829">
        <ele>350.07299804688</ele>
        <time>2010-10-03T09:56:30Z</time>
      </trkpt>
      <trkpt lat="45.90992" lon="1.29828">
        <ele>350.00155639648</ele>
        <time>2010-10-03T09:56:32Z</time>
      </trkpt>
      <trkpt lat="45.90978" lon="1.29823">
        <ele>349.95153808594</ele>
        <time>2010-10-03T09:56:38Z</time>
      </trkpt>
      <trkpt lat="45.90969" lon="1.2982">
        <ele>349.92031860352</ele>
        <time>2010-10-03T09:56:42Z</time>
      </trkpt>
      <trkpt lat="45.90955" lon="1.29815">
        <ele>349.93710327148</ele>
        <time>2010-10-03T09:56:48Z</time>
      </trkpt>
      <trkpt lat="45.90939" lon="1.29811">
        <ele>349.92971801758</ele>
        <time>2010-10-03T09:56:55Z</time>
      </trkpt>
      <trkpt lat="45.90926" lon="1.29809">
        <ele>349.8669128418</ele>
        <time>2010-10-03T09:57:00Z</time>
      </trkpt>
      <trkpt lat="45.90911" lon="1.29804">
        <ele>349.84515380859</ele>
        <time>2010-10-03T09:57:06Z</time>
      </trkpt>
      <trkpt lat="45.90902" lon="1.29803">
        <ele>349.4841003418</ele>
        <time>2010-10-03T09:57:11Z</time>
      </trkpt>
      <trkpt lat="45.90889" lon="1.29801">
        <ele>349.11437988281</ele>
        <time>2010-10-03T09:57:18Z</time>
      </trkpt>
      <trkpt lat="45.90879" lon="1.29801">
        <ele>348.58776855469</ele>
        <time>2010-10-03T09:57:24Z</time>
      </trkpt>
      <trkpt lat="45.90872" lon="1.29799">
        <ele>348.41458129883</ele>
        <time>2010-10-03T09:57:29Z</time>
      </trkpt>
      <trkpt lat="45.90863" lon="1.29797">
        <ele>348.11859130859</ele>
        <time>2010-10-03T09:57:34Z</time>
      </trkpt>
      <trkpt lat="45.90855" lon="1.29794">
        <ele>347.88873291016</ele>
        <time>2010-10-03T09:57:40Z</time>
      </trkpt>
      <trkpt lat="45.90854" lon="1.29794">
        <ele>347.84307861328</ele>
        <time>2010-10-03T09:57:41Z</time>
      </trkpt>
      <trkpt lat="45.90848" lon="1.29793">
        <ele>347.63250732422</ele>
        <time>2010-10-03T09:57:45Z</time>
      </trkpt>
      <trkpt lat="45.90839" lon="1.2979">
        <ele>347.36709594727</ele>
        <time>2010-10-03T09:57:50Z</time>
      </trkpt>
      <trkpt lat="45.9083" lon="1.29788">
        <ele>347.01446533203</ele>
        <time>2010-10-03T09:57:56Z</time>
      </trkpt>
      <trkpt lat="45.90821" lon="1.29787">
        <ele>346.67153930664</ele>
        <time>2010-10-03T09:58:02Z</time>
      </trkpt>
      <trkpt lat="45.90809" lon="1.29783">
        <ele>346.3005065918</ele>
        <time>2010-10-03T09:58:10Z</time>
      </trkpt>
      <trkpt lat="45.908" lon="1.2978">
        <ele>345.97988891602</ele>
        <time>2010-10-03T09:58:16Z</time>
      </trkpt>
      <trkpt lat="45.90791" lon="1.29776">
        <ele>345.689453125</ele>
        <time>2010-10-03T09:58:22Z</time>
      </trkpt>
      <trkpt lat="45.90784" lon="1.29774">
        <ele>345.38928222656</ele>
        <time>2010-10-03T09:58:27Z</time>
      </trkpt>
      <trkpt lat="45.90774" lon="1.29772">
        <ele>344.93948364258</ele>
        <time>2010-10-03T09:58:33Z</time>
      </trkpt>
      <trkpt lat="45.90773" lon="1.29772">
        <ele>344.88342285156</ele>
        <time>2010-10-03T09:58:34Z</time>
      </trkpt>
      <trkpt lat="45.9076" lon="1.29772">
        <ele>344.25466918945</ele>
        <time>2010-10-03T09:58:42Z</time>
      </trkpt>
      <trkpt lat="45.90757" lon="1.29776">
        <ele>344.01693725586</ele>
        <time>2010-10-03T09:58:45Z</time>
      </trkpt>
      <trkpt lat="45.90752" lon="1.29781">
        <ele>343.7385559082</ele>
        <time>2010-10-03T09:58:49Z</time>
      </trkpt>
      <trkpt lat="45.90741" lon="1.29784">
        <ele>343.00952148438</ele>
        <time>2010-10-03T09:58:56Z</time>
      </trkpt>
      <trkpt lat="45.90734" lon="1.29785">
        <ele>342.48797607422</ele>
        <time>2010-10-03T09:59:00Z</time>
      </trkpt>
      <trkpt lat="45.90722" lon="1.29776">
        <ele>341.76773071289</ele>
        <time>2010-10-03T09:59:06Z</time>
      </trkpt>
      <trkpt lat="45.90715" lon="1.29762">
        <ele>341.42630004883</ele>
        <time>2010-10-03T09:59:11Z</time>
      </trkpt>
      <trkpt lat="45.90704" lon="1.2975">
        <ele>340.68356323242</ele>
        <time>2010-10-03T09:59:17Z</time>
      </trkpt>
      <trkpt lat="45.90687" lon="1.29746">
        <ele>339.44946289062</ele>
        <time>2010-10-03T09:59:24Z</time>
      </trkpt>
      <trkpt lat="45.90672" lon="1.29742">
        <ele>338.40576171875</ele>
        <time>2010-10-03T09:59:30Z</time>
      </trkpt>
      <trkpt lat="45.90657" lon="1.29739">
        <ele>337.51123046875</ele>
        <time>2010-10-03T09:59:36Z</time>
      </trkpt>
      <trkpt lat="45.90644" lon="1.29736">
        <ele>336.80322265625</ele>
        <time>2010-10-03T09:59:41Z</time>
      </trkpt>
      <trkpt lat="45.90629" lon="1.29732">
        <ele>335.91680908203</ele>
        <time>2010-10-03T09:59:47Z</time>
      </trkpt>
      <trkpt lat="45.90614" lon="1.29728">
        <ele>334.97262573242</ele>
        <time>2010-10-03T09:59:53Z</time>
      </trkpt>
      <trkpt lat="45.90596" lon="1.29723">
        <ele>333.77407836914</ele>
        <time>2010-10-03T10:00:00Z</time>
      </trkpt>
      <trkpt lat="45.90582" lon="1.2972">
        <ele>332.88729858398</ele>
        <time>2010-10-03T10:00:06Z</time>
      </trkpt>
      <trkpt lat="45.90568" lon="1.29717">
        <ele>332.62420654297</ele>
        <time>2010-10-03T10:00:12Z</time>
      </trkpt>
      <trkpt lat="45.90558" lon="1.29716">
        <ele>332.49176025391</ele>
        <time>2010-10-03T10:00:18Z</time>
      </trkpt>
      <trkpt lat="45.90553" lon="1.29716">
        <ele>332.40664672852</ele>
        <time>2010-10-03T10:00:21Z</time>
      </trkpt>
      <trkpt lat="45.90543" lon="1.29711">
        <ele>332.10009765625</ele>
        <time>2010-10-03T10:00:27Z</time>
      </trkpt>
      <trkpt lat="45.90536" lon="1.29711">
        <ele>332.02282714844</ele>
        <time>2010-10-03T10:00:32Z</time>
      </trkpt>
      <trkpt lat="45.90522" lon="1.29707">
        <ele>331.71356201172</ele>
        <time>2010-10-03T10:00:40Z</time>
      </trkpt>
      <trkpt lat="45.9051" lon="1.29704">
        <ele>331.45147705078</ele>
        <time>2010-10-03T10:00:47Z</time>
      </trkpt>
      <trkpt lat="45.90497" lon="1.297">
        <ele>331.2414855957</ele>
        <time>2010-10-03T10:00:55Z</time>
      </trkpt>
      <trkpt lat="45.90491" lon="1.29699">
        <ele>331.25067138672</ele>
        <time>2010-10-03T10:00:59Z</time>
      </trkpt>
      <trkpt lat="45.90478" lon="1.29696">
        <ele>331.25836181641</ele>
        <time>2010-10-03T10:01:07Z</time>
      </trkpt>
      <trkpt lat="45.90468" lon="1.29694">
        <ele>331.2424621582</ele>
        <time>2010-10-03T10:01:14Z</time>
      </trkpt>
      <trkpt lat="45.90457" lon="1.29692">
        <ele>331.23123168945</ele>
        <time>2010-10-03T10:01:20Z</time>
      </trkpt>
      <trkpt lat="45.90446" lon="1.29687">
        <ele>331.04434204102</ele>
        <time>2010-10-03T10:01:25Z</time>
      </trkpt>
      <trkpt lat="45.90435" lon="1.29681">
        <ele>330.79248046875</ele>
        <time>2010-10-03T10:01:30Z</time>
      </trkpt>
      <trkpt lat="45.90425" lon="1.29677">
        <ele>330.56658935547</ele>
        <time>2010-10-03T10:01:34Z</time>
      </trkpt>
      <trkpt lat="45.90411" lon="1.29673">
        <ele>330.4382019043</ele>
        <time>2010-10-03T10:01:40Z</time>
      </trkpt>
      <trkpt lat="45.90396" lon="1.29669">
        <ele>330.36154174805</ele>
        <time>2010-10-03T10:01:46Z</time>
      </trkpt>
      <trkpt lat="45.90384" lon="1.29665">
        <ele>330.33352661133</ele>
        <time>2010-10-03T10:01:51Z</time>
      </trkpt>
      <trkpt lat="45.9037" lon="1.29661">
        <ele>330.34539794922</ele>
        <time>2010-10-03T10:01:57Z</time>
      </trkpt>
      <trkpt lat="45.90356" lon="1.29658">
        <ele>330.38821411133</ele>
        <time>2010-10-03T10:02:03Z</time>
      </trkpt>
      <trkpt lat="45.90344" lon="1.29657">
        <ele>330.51623535156</ele>
        <time>2010-10-03T10:02:08Z</time>
      </trkpt>
      <trkpt lat="45.90335" lon="1.29651">
        <ele>330.42547607422</ele>
        <time>2010-10-03T10:02:13Z</time>
      </trkpt>
      <trkpt lat="45.90333" lon="1.29649">
        <ele>330.37341308594</ele>
        <time>2010-10-03T10:02:14Z</time>
      </trkpt>
      <trkpt lat="45.90322" lon="1.29643">
        <ele>330.33819580078</ele>
        <time>2010-10-03T10:02:20Z</time>
      </trkpt>
      <trkpt lat="45.90313" lon="1.29644">
        <ele>330.49417114258</ele>
        <time>2010-10-03T10:02:25Z</time>
      </trkpt>
      <trkpt lat="45.90304" lon="1.29644">
        <ele>330.63024902344</ele>
        <time>2010-10-03T10:02:30Z</time>
      </trkpt>
      <trkpt lat="45.90302" lon="1.29644">
        <ele>330.65130615234</ele>
        <time>2010-10-03T10:02:31Z</time>
      </trkpt>
      <trkpt lat="45.90299" lon="1.29643">
        <ele>330.67538452148</ele>
        <time>2010-10-03T10:02:33Z</time>
      </trkpt>
      <trkpt lat="45.90288" lon="1.2964">
        <ele>330.74658203125</ele>
        <time>2010-10-03T10:02:40Z</time>
      </trkpt>
      <trkpt lat="45.90277" lon="1.29639">
        <ele>330.90621948242</ele>
        <time>2010-10-03T10:02:46Z</time>
      </trkpt>
      <trkpt lat="45.90267" lon="1.29637">
        <ele>331.02081298828</ele>
        <time>2010-10-03T10:02:52Z</time>
      </trkpt>
      <trkpt lat="45.90261" lon="1.29638">
        <ele>331.1301574707</ele>
        <time>2010-10-03T10:02:55Z</time>
      </trkpt>
      <trkpt lat="45.90252" lon="1.29636">
        <ele>331.24047851562</ele>
        <time>2010-10-03T10:03:01Z</time>
      </trkpt>
      <trkpt lat="45.90244" lon="1.29634">
        <ele>331.09524536133</ele>
        <time>2010-10-03T10:03:06Z</time>
      </trkpt>
      <trkpt lat="45.9023" lon="1.29632">
        <ele>330.79495239258</ele>
        <time>2010-10-03T10:03:14Z</time>
      </trkpt>
      <trkpt lat="45.90228" lon="1.29632">
        <ele>330.75964355469</ele>
        <time>2010-10-03T10:03:15Z</time>
      </trkpt>
      <trkpt lat="45.90222" lon="1.29632">
        <ele>330.63735961914</ele>
        <time>2010-10-03T10:03:18Z</time>
      </trkpt>
      <trkpt lat="45.90208" lon="1.29626">
        <ele>330.251953125</ele>
        <time>2010-10-03T10:03:24Z</time>
      </trkpt>
      <trkpt lat="45.90195" lon="1.29623">
        <ele>329.97311401367</ele>
        <time>2010-10-03T10:03:29Z</time>
      </trkpt>
      <trkpt lat="45.90184" lon="1.29619">
        <ele>329.72595214844</ele>
        <time>2010-10-03T10:03:34Z</time>
      </trkpt>
      <trkpt lat="45.90173" lon="1.29617">
        <ele>329.51580810547</ele>
        <time>2010-10-03T10:03:38Z</time>
      </trkpt>
      <trkpt lat="45.90164" lon="1.29615">
        <ele>329.22793579102</ele>
        <time>2010-10-03T10:03:42Z</time>
      </trkpt>
      <trkpt lat="45.90153" lon="1.29613">
        <ele>328.64590454102</ele>
        <time>2010-10-03T10:03:46Z</time>
      </trkpt>
      <trkpt lat="45.9014" lon="1.2961">
        <ele>327.94607543945</ele>
        <time>2010-10-03T10:03:51Z</time>
      </trkpt>
      <trkpt lat="45.90128" lon="1.29606">
        <ele>327.28509521484</ele>
        <time>2010-10-03T10:03:56Z</time>
      </trkpt>
      <trkpt lat="45.90114" lon="1.29601">
        <ele>326.54135131836</ele>
        <time>2010-10-03T10:04:02Z</time>
      </trkpt>
      <trkpt lat="45.90104" lon="1.29598">
        <ele>326.01266479492</ele>
        <time>2010-10-03T10:04:07Z</time>
      </trkpt>
      <trkpt lat="45.90096" lon="1.29595">
        <ele>325.60537719727</ele>
        <time>2010-10-03T10:04:13Z</time>
      </trkpt>
      <trkpt lat="45.90088" lon="1.29593">
        <ele>325.20635986328</ele>
        <time>2010-10-03T10:04:19Z</time>
      </trkpt>
      <trkpt lat="45.90084" lon="1.29593">
        <ele>325.0178527832</ele>
        <time>2010-10-03T10:04:22Z</time>
      </trkpt>
      <trkpt lat="45.90071" lon="1.2959">
        <ele>325.17785644531</ele>
        <time>2010-10-03T10:04:30Z</time>
      </trkpt>
      <trkpt lat="45.90062" lon="1.29588">
        <ele>325.29290771484</ele>
        <time>2010-10-03T10:04:36Z</time>
      </trkpt>
      <trkpt lat="45.90052" lon="1.29585">
        <ele>325.40274047852</ele>
        <time>2010-10-03T10:04:43Z</time>
      </trkpt>
      <trkpt lat="45.90042" lon="1.29583">
        <ele>325.46908569336</ele>
        <time>2010-10-03T10:04:49Z</time>
      </trkpt>
      <trkpt lat="45.90034" lon="1.29579">
        <ele>325.43975830078</ele>
        <time>2010-10-03T10:04:55Z</time>
      </trkpt>
      <trkpt lat="45.90024" lon="1.29578">
        <ele>325.51959228516</ele>
        <time>2010-10-03T10:05:01Z</time>
      </trkpt>
      <trkpt lat="45.90014" lon="1.29576">
        <ele>325.58038330078</ele>
        <time>2010-10-03T10:05:07Z</time>
      </trkpt>
      <trkpt lat="45.90001" lon="1.29573">
        <ele>325.62030029297</ele>
        <time>2010-10-03T10:05:16Z</time>
      </trkpt>
      <trkpt lat="45.89999" lon="1.29572">
        <ele>325.59310913086</ele>
        <time>2010-10-03T10:05:17Z</time>
      </trkpt>
      <trkpt lat="45.89989" lon="1.29568">
        <ele>325.4870300293</ele>
        <time>2010-10-03T10:05:24Z</time>
      </trkpt>
      <trkpt lat="45.89977" lon="1.29566">
        <ele>325.44412231445</ele>
        <time>2010-10-03T10:05:31Z</time>
      </trkpt>
      <trkpt lat="45.89967" lon="1.29567">
        <ele>325.47808837891</ele>
        <time>2010-10-03T10:05:37Z</time>
      </trkpt>
      <trkpt lat="45.89967" lon="1.29573">
        <ele>325.67880249023</ele>
        <time>2010-10-03T10:05:41Z</time>
      </trkpt>
      <trkpt lat="45.89973" lon="1.29578">
        <ele>325.84063720703</ele>
        <time>2010-10-03T10:05:45Z</time>
      </trkpt>
      <trkpt lat="45.89976" lon="1.29581">
        <ele>325.91015625</ele>
        <time>2010-10-03T10:05:47Z</time>
      </trkpt>
      <trkpt lat="45.89985" lon="1.29597">
        <ele>326.41888427734</ele>
        <time>2010-10-03T10:05:55Z</time>
      </trkpt>
      <trkpt lat="45.89988" lon="1.29607">
        <ele>326.75659179688</ele>
        <time>2010-10-03T10:05:58Z</time>
      </trkpt>
      <trkpt lat="45.89996" lon="1.29624">
        <ele>327.4104309082</ele>
        <time>2010-10-03T10:06:03Z</time>
      </trkpt>
      <trkpt lat="45.90007" lon="1.29643">
        <ele>327.88241577148</ele>
        <time>2010-10-03T10:06:08Z</time>
      </trkpt>
      <trkpt lat="45.9001" lon="1.29649">
        <ele>327.935546875</ele>
        <time>2010-10-03T10:06:10Z</time>
      </trkpt>
      <trkpt lat="45.90015" lon="1.29661">
        <ele>328.10113525391</ele>
        <time>2010-10-03T10:06:16Z</time>
      </trkpt>
      <trkpt lat="45.9002" lon="1.29667">
        <ele>328.03829956055</ele>
        <time>2010-10-03T10:06:20Z</time>
      </trkpt>
      <trkpt lat="45.90021" lon="1.29674">
        <ele>327.9631652832</ele>
        <time>2010-10-03T10:06:23Z</time>
      </trkpt>
      <trkpt lat="45.90026" lon="1.29688">
        <ele>327.73233032227</ele>
        <time>2010-10-03T10:06:30Z</time>
      </trkpt>
      <trkpt lat="45.90031" lon="1.29697">
        <ele>327.56622314453</ele>
        <time>2010-10-03T10:06:35Z</time>
      </trkpt>
      <trkpt lat="45.90041" lon="1.29707">
        <ele>327.26235961914</ele>
        <time>2010-10-03T10:06:41Z</time>
      </trkpt>
      <trkpt lat="45.90043" lon="1.29721">
        <ele>327.29458618164</ele>
        <time>2010-10-03T10:06:47Z</time>
      </trkpt>
      <trkpt lat="45.90039" lon="1.29725">
        <ele>327.41061401367</ele>
        <time>2010-10-03T10:06:51Z</time>
      </trkpt>
      <trkpt lat="45.90033" lon="1.29724">
        <ele>327.53790283203</ele>
        <time>2010-10-03T10:06:55Z</time>
      </trkpt>
      <trkpt lat="45.90026" lon="1.2972">
        <ele>327.71853637695</ele>
        <time>2010-10-03T10:07:02Z</time>
      </trkpt>
      <trkpt lat="45.90018" lon="1.29716">
        <ele>327.93664550781</ele>
        <time>2010-10-03T10:07:08Z</time>
      </trkpt>
      <trkpt lat="45.90014" lon="1.29715">
        <ele>328.03472900391</ele>
        <time>2010-10-03T10:07:10Z</time>
      </trkpt>
      <trkpt lat="45.89999" lon="1.29704">
        <ele>328.52319335938</ele>
        <time>2010-10-03T10:07:18Z</time>
      </trkpt>
      <trkpt lat="45.89994" lon="1.29703">
        <ele>328.46417236328</ele>
        <time>2010-10-03T10:07:20Z</time>
      </trkpt>
      <trkpt lat="45.89984" lon="1.29698">
        <ele>328.31610107422</ele>
        <time>2010-10-03T10:07:25Z</time>
      </trkpt>
      <trkpt lat="45.89976" lon="1.29696">
        <ele>328.17892456055</ele>
        <time>2010-10-03T10:07:28Z</time>
      </trkpt>
      <trkpt lat="45.89964" lon="1.29689">
        <ele>327.98275756836</ele>
        <time>2010-10-03T10:07:34Z</time>
      </trkpt>
      <trkpt lat="45.89957" lon="1.29685">
        <ele>327.86224365234</ele>
        <time>2010-10-03T10:07:37Z</time>
      </trkpt>
      <trkpt lat="45.89944" lon="1.29685">
        <ele>327.59539794922</ele>
        <time>2010-10-03T10:07:43Z</time>
      </trkpt>
      <trkpt lat="45.89941" lon="1.29684">
        <ele>327.53189086914</ele>
        <time>2010-10-03T10:07:45Z</time>
      </trkpt>
      <trkpt lat="45.8993" lon="1.29679">
        <ele>327.30438232422</ele>
        <time>2010-10-03T10:07:52Z</time>
      </trkpt>
      <trkpt lat="45.89916" lon="1.29674">
        <ele>326.99838256836</ele>
        <time>2010-10-03T10:08:00Z</time>
      </trkpt>
      <trkpt lat="45.89909" lon="1.2967">
        <ele>326.99224853516</ele>
        <time>2010-10-03T10:08:05Z</time>
      </trkpt>
      <trkpt lat="45.89907" lon="1.29669">
        <ele>326.9928894043</ele>
        <time>2010-10-03T10:08:06Z</time>
      </trkpt>
      <trkpt lat="45.89897" lon="1.29665">
        <ele>326.97201538086</ele>
        <time>2010-10-03T10:08:13Z</time>
      </trkpt>
      <trkpt lat="45.89891" lon="1.29663">
        <ele>326.92068481445</ele>
        <time>2010-10-03T10:08:17Z</time>
      </trkpt>
      <trkpt lat="45.89886" lon="1.2966">
        <ele>326.85729980469</ele>
        <time>2010-10-03T10:08:20Z</time>
      </trkpt>
      <trkpt lat="45.89875" lon="1.29656">
        <ele>326.73327636719</ele>
        <time>2010-10-03T10:08:27Z</time>
      </trkpt>
      <trkpt lat="45.89867" lon="1.2965">
        <ele>326.55819702148</ele>
        <time>2010-10-03T10:08:33Z</time>
      </trkpt>
      <trkpt lat="45.89857" lon="1.29646">
        <ele>326.39129638672</ele>
        <time>2010-10-03T10:08:39Z</time>
      </trkpt>
      <trkpt lat="45.89848" lon="1.29639">
        <ele>326.13613891602</ele>
        <time>2010-10-03T10:08:46Z</time>
      </trkpt>
      <trkpt lat="45.8984" lon="1.29634">
        <ele>325.88891601562</ele>
        <time>2010-10-03T10:08:52Z</time>
      </trkpt>
      <trkpt lat="45.89833" lon="1.2963">
        <ele>325.67971801758</ele>
        <time>2010-10-03T10:08:57Z</time>
      </trkpt>
      <trkpt lat="45.89822" lon="1.29623">
        <ele>325.71276855469</ele>
        <time>2010-10-03T10:09:05Z</time>
      </trkpt>
      <trkpt lat="45.89819" lon="1.29621">
        <ele>325.74374389648</ele>
        <time>2010-10-03T10:09:07Z</time>
      </trkpt>
      <trkpt lat="45.89809" lon="1.29617">
        <ele>325.8879699707</ele>
        <time>2010-10-03T10:09:12Z</time>
      </trkpt>
      <trkpt lat="45.898" lon="1.2961">
        <ele>326.04473876953</ele>
        <time>2010-10-03T10:09:17Z</time>
      </trkpt>
      <trkpt lat="45.89796" lon="1.29607">
        <ele>326.1423034668</ele>
        <time>2010-10-03T10:09:19Z</time>
      </trkpt>
      <trkpt lat="45.89784" lon="1.29601">
        <ele>326.48977661133</ele>
        <time>2010-10-03T10:09:24Z</time>
      </trkpt>
      <trkpt lat="45.89775" lon="1.29596">
        <ele>326.82775878906</ele>
        <time>2010-10-03T10:09:28Z</time>
      </trkpt>
      <trkpt lat="45.89764" lon="1.2959">
        <ele>327.30212402344</ele>
        <time>2010-10-03T10:09:34Z</time>
      </trkpt>
      <trkpt lat="45.8975" lon="1.29583">
        <ele>327.97857666016</ele>
        <time>2010-10-03T10:09:41Z</time>
      </trkpt>
      <trkpt lat="45.89737" lon="1.29578">
        <ele>328.10711669922</ele>
        <time>2010-10-03T10:09:47Z</time>
      </trkpt>
      <trkpt lat="45.89726" lon="1.29576">
        <ele>328.22445678711</ele>
        <time>2010-10-03T10:09:51Z</time>
      </trkpt>
      <trkpt lat="45.89713" lon="1.29569">
        <ele>328.34548950195</ele>
        <time>2010-10-03T10:09:57Z</time>
      </trkpt>
      <trkpt lat="45.89703" lon="1.29566">
        <ele>328.47219848633</ele>
        <time>2010-10-03T10:10:02Z</time>
      </trkpt>
      <trkpt lat="45.89693" lon="1.29561">
        <ele>328.59106445312</ele>
        <time>2010-10-03T10:10:09Z</time>
      </trkpt>
      <trkpt lat="45.89687" lon="1.29557">
        <ele>328.68563842773</ele>
        <time>2010-10-03T10:10:14Z</time>
      </trkpt>
      <trkpt lat="45.89677" lon="1.29552">
        <ele>328.8288269043</ele>
        <time>2010-10-03T10:10:21Z</time>
      </trkpt>
      <trkpt lat="45.8967" lon="1.29548">
        <ele>328.94653320312</ele>
        <time>2010-10-03T10:10:26Z</time>
      </trkpt>
      <trkpt lat="45.8966" lon="1.29544">
        <ele>328.95700073242</ele>
        <time>2010-10-03T10:10:33Z</time>
      </trkpt>
      <trkpt lat="45.89651" lon="1.29541">
        <ele>328.90704345703</ele>
        <time>2010-10-03T10:10:39Z</time>
      </trkpt>
      <trkpt lat="45.89648" lon="1.29539">
        <ele>328.89260864258</ele>
        <time>2010-10-03T10:10:41Z</time>
      </trkpt>
      <trkpt lat="45.89635" lon="1.29536">
        <ele>328.83459472656</ele>
        <time>2010-10-03T10:10:49Z</time>
      </trkpt>
      <trkpt lat="45.89631" lon="1.29533">
        <ele>328.82934570312</ele>
        <time>2010-10-03T10:10:52Z</time>
      </trkpt>
      <trkpt lat="45.89624" lon="1.29531">
        <ele>328.81051635742</ele>
        <time>2010-10-03T10:10:57Z</time>
      </trkpt>
      <trkpt lat="45.89614" lon="1.29526">
        <ele>328.80404663086</ele>
        <time>2010-10-03T10:11:03Z</time>
      </trkpt>
      <trkpt lat="45.89604" lon="1.29523">
        <ele>328.79479980469</ele>
        <time>2010-10-03T10:11:08Z</time>
      </trkpt>
      <trkpt lat="45.89594" lon="1.29519">
        <ele>328.80618286133</ele>
        <time>2010-10-03T10:11:13Z</time>
      </trkpt>
      <trkpt lat="45.89581" lon="1.29516">
        <ele>328.85104370117</ele>
        <time>2010-10-03T10:11:19Z</time>
      </trkpt>
      <trkpt lat="45.89569" lon="1.29515">
        <ele>329.08477783203</ele>
        <time>2010-10-03T10:11:24Z</time>
      </trkpt>
      <trkpt lat="45.89555" lon="1.29511">
        <ele>329.34307861328</ele>
        <time>2010-10-03T10:11:29Z</time>
      </trkpt>
      <trkpt lat="45.89553" lon="1.29511">
        <ele>329.37509155273</ele>
        <time>2010-10-03T10:11:30Z</time>
      </trkpt>
      <trkpt lat="45.89546" lon="1.2951">
        <ele>329.49401855469</ele>
        <time>2010-10-03T10:11:34Z</time>
      </trkpt>
      <trkpt lat="45.8954" lon="1.2951">
        <ele>329.59219360352</ele>
        <time>2010-10-03T10:11:37Z</time>
      </trkpt>
      <trkpt lat="45.89537" lon="1.29517">
        <ele>329.68746948242</ele>
        <time>2010-10-03T10:11:41Z</time>
      </trkpt>
      <trkpt lat="45.89539" lon="1.29535">
        <ele>329.77005004883</ele>
        <time>2010-10-03T10:11:47Z</time>
      </trkpt>
      <trkpt lat="45.89542" lon="1.29551">
        <ele>329.78192138672</ele>
        <time>2010-10-03T10:11:52Z</time>
      </trkpt>
      <trkpt lat="45.89545" lon="1.29558">
        <ele>329.72229003906</ele>
        <time>2010-10-03T10:11:54Z</time>
      </trkpt>
      <trkpt lat="45.89549" lon="1.29575">
        <ele>329.62915039062</ele>
        <time>2010-10-03T10:11:59Z</time>
      </trkpt>
      <trkpt lat="45.8955" lon="1.29588">
        <ele>329.57019042969</ele>
        <time>2010-10-03T10:12:03Z</time>
      </trkpt>
      <trkpt lat="45.89555" lon="1.29605">
        <ele>329.25726318359</ele>
        <time>2010-10-03T10:12:09Z</time>
      </trkpt>
      <trkpt lat="45.89564" lon="1.29614">
        <ele>328.72207641602</ele>
        <time>2010-10-03T10:12:14Z</time>
      </trkpt>
      <trkpt lat="45.89572" lon="1.29623">
        <ele>328.20977783203</ele>
        <time>2010-10-03T10:12:19Z</time>
      </trkpt>
      <trkpt lat="45.89584" lon="1.29627">
        <ele>327.47299194336</ele>
        <time>2010-10-03T10:12:24Z</time>
      </trkpt>
      <trkpt lat="45.896" lon="1.29629">
        <ele>327.3291015625</ele>
        <time>2010-10-03T10:12:30Z</time>
      </trkpt>
      <trkpt lat="45.89612" lon="1.29632">
        <ele>327.14950561523</ele>
        <time>2010-10-03T10:12:35Z</time>
      </trkpt>
      <trkpt lat="45.89627" lon="1.29637">
        <ele>326.85675048828</ele>
        <time>2010-10-03T10:12:41Z</time>
      </trkpt>
      <trkpt lat="45.89639" lon="1.29643">
        <ele>326.50250244141</ele>
        <time>2010-10-03T10:12:46Z</time>
      </trkpt>
      <trkpt lat="45.89652" lon="1.2965">
        <ele>326.05911254883</ele>
        <time>2010-10-03T10:12:52Z</time>
      </trkpt>
      <trkpt lat="45.89663" lon="1.29651">
        <ele>325.83181762695</ele>
        <time>2010-10-03T10:12:56Z</time>
      </trkpt>
      <trkpt lat="45.8967" lon="1.29653">
        <ele>325.70404052734</ele>
        <time>2010-10-03T10:13:01Z</time>
      </trkpt>
      <trkpt lat="45.89671" lon="1.29654">
        <ele>325.71176147461</ele>
        <time>2010-10-03T10:13:02Z</time>
      </trkpt>
      <trkpt lat="45.89675" lon="1.29655">
        <ele>325.7180480957</ele>
        <time>2010-10-03T10:13:05Z</time>
      </trkpt>
      <trkpt lat="45.89682" lon="1.29658">
        <ele>325.72512817383</ele>
        <time>2010-10-03T10:13:10Z</time>
      </trkpt>
      <trkpt lat="45.89691" lon="1.29662">
        <ele>325.74423217773</ele>
        <time>2010-10-03T10:13:17Z</time>
      </trkpt>
      <trkpt lat="45.89697" lon="1.29664">
        <ele>325.81576538086</ele>
        <time>2010-10-03T10:13:21Z</time>
      </trkpt>
      <trkpt lat="45.89704" lon="1.29667">
        <ele>325.89611816406</ele>
        <time>2010-10-03T10:13:26Z</time>
      </trkpt>
      <trkpt lat="45.8971" lon="1.29671">
        <ele>325.97769165039</ele>
        <time>2010-10-03T10:13:31Z</time>
      </trkpt>
      <trkpt lat="45.89711" lon="1.29673">
        <ele>325.98782348633</ele>
        <time>2010-10-03T10:13:33Z</time>
      </trkpt>
      <trkpt lat="45.89716" lon="1.29679">
        <ele>326.00579833984</ele>
        <time>2010-10-03T10:13:37Z</time>
      </trkpt>
    </trkseg>
  </trk>
</gpx>